<?xml version="1.0" encoding="UTF-8" standalone="no" ?>
<gpx xmlns="http://www.topografix.com/GPX/1/1" xmlns:xsi="http://www.w3.org/2001/XMLSchema-instance" xsi:schemaLocation="http://www.topografix.com/GPX/1/1 http://www.topografix.com/GPX/1/1/gpx.xsd" version="1.1" creator="VisuGPX - https://www.visugpx.com">
  <metadata>
    <name>GR67 Tour des Cévennes en autonomie: Etape 2</name>
    <desc><![CDATA[De Camp Barrat à Aire de Côte. Enfin plus de bitume même si toujours beaucoup de "route forestière" qui restent cependant très agréables. Impossible de bivouaquer à Aire de Côte, on plantera la tente 2,5 km plus loin dans un très sympathique petit sous bois au niveau d'une épingle à cheveux du chemin forestier.]]></desc>
  </metadata>
  <trk>
    <name><![CDATA[GR67 Tour des Cévennes en autonomie: Etape 2_1]]></name>
    <trkseg>
      <trkpt lat="44.04611" lon="3.78597">
        <ele>914.5</ele>
        <time>2021-05-24T07:10:46Z</time>
      </trkpt>
      <trkpt lat="44.04612" lon="3.78596">
        <ele>914.5</ele>
        <time>2021-05-24T07:10:48Z</time>
      </trkpt>
      <trkpt lat="44.04613" lon="3.78592">
        <ele>914.7</ele>
        <time>2021-05-24T07:10:51Z</time>
      </trkpt>
      <trkpt lat="44.04614" lon="3.7859">
        <ele>914.8</ele>
        <time>2021-05-24T07:10:53Z</time>
      </trkpt>
      <trkpt lat="44.04615" lon="3.78587">
        <ele>920</ele>
        <time>2021-05-24T07:10:55Z</time>
      </trkpt>
      <trkpt lat="44.04614" lon="3.78584">
        <ele>920</ele>
        <time>2021-05-24T07:10:57Z</time>
      </trkpt>
      <trkpt lat="44.04614" lon="3.78581">
        <ele>920</ele>
        <time>2021-05-24T07:10:59Z</time>
      </trkpt>
      <trkpt lat="44.04613" lon="3.78578">
        <ele>920</ele>
        <time>2021-05-24T07:11:01Z</time>
      </trkpt>
      <trkpt lat="44.04612" lon="3.78575">
        <ele>920</ele>
        <time>2021-05-24T07:11:03Z</time>
      </trkpt>
      <trkpt lat="44.0461" lon="3.78573">
        <ele>920</ele>
        <time>2021-05-24T07:11:05Z</time>
      </trkpt>
      <trkpt lat="44.04609" lon="3.78571">
        <ele>920</ele>
        <time>2021-05-24T07:11:07Z</time>
      </trkpt>
      <trkpt lat="44.04607" lon="3.78568">
        <ele>920</ele>
        <time>2021-05-24T07:11:09Z</time>
      </trkpt>
      <trkpt lat="44.04606" lon="3.78566">
        <ele>920</ele>
        <time>2021-05-24T07:11:11Z</time>
      </trkpt>
      <trkpt lat="44.04605" lon="3.78562">
        <ele>920</ele>
        <time>2021-05-24T07:11:13Z</time>
      </trkpt>
      <trkpt lat="44.04604" lon="3.7856">
        <ele>920</ele>
        <time>2021-05-24T07:11:15Z</time>
      </trkpt>
      <trkpt lat="44.04602" lon="3.78558">
        <ele>920</ele>
        <time>2021-05-24T07:11:17Z</time>
      </trkpt>
      <trkpt lat="44.046" lon="3.78556">
        <ele>920</ele>
        <time>2021-05-24T07:11:19Z</time>
      </trkpt>
      <trkpt lat="44.04599" lon="3.78554">
        <ele>920</ele>
        <time>2021-05-24T07:11:21Z</time>
      </trkpt>
      <trkpt lat="44.04597" lon="3.78552">
        <ele>920</ele>
        <time>2021-05-24T07:11:23Z</time>
      </trkpt>
      <trkpt lat="44.04596" lon="3.78549">
        <ele>921</ele>
        <time>2021-05-24T07:11:25Z</time>
      </trkpt>
      <trkpt lat="44.04594" lon="3.78547">
        <ele>921</ele>
        <time>2021-05-24T07:11:27Z</time>
      </trkpt>
      <trkpt lat="44.04593" lon="3.78545">
        <ele>921</ele>
        <time>2021-05-24T07:11:29Z</time>
      </trkpt>
      <trkpt lat="44.04592" lon="3.78542">
        <ele>921</ele>
        <time>2021-05-24T07:11:32Z</time>
      </trkpt>
      <trkpt lat="44.04591" lon="3.7854">
        <ele>921</ele>
        <time>2021-05-24T07:11:34Z</time>
      </trkpt>
      <trkpt lat="44.0459" lon="3.78537">
        <ele>921</ele>
        <time>2021-05-24T07:11:36Z</time>
      </trkpt>
      <trkpt lat="44.0459" lon="3.78534">
        <ele>921</ele>
        <time>2021-05-24T07:11:39Z</time>
      </trkpt>
      <trkpt lat="44.0459" lon="3.78531">
        <ele>921</ele>
        <time>2021-05-24T07:11:43Z</time>
      </trkpt>
      <trkpt lat="44.0459" lon="3.78528">
        <ele>923</ele>
        <time>2021-05-24T07:11:45Z</time>
      </trkpt>
      <trkpt lat="44.04589" lon="3.78524">
        <ele>923</ele>
        <time>2021-05-24T07:11:47Z</time>
      </trkpt>
      <trkpt lat="44.04589" lon="3.78521">
        <ele>923</ele>
        <time>2021-05-24T07:11:49Z</time>
      </trkpt>
      <trkpt lat="44.04589" lon="3.78518">
        <ele>923</ele>
        <time>2021-05-24T07:11:51Z</time>
      </trkpt>
      <trkpt lat="44.04589" lon="3.78514">
        <ele>923</ele>
        <time>2021-05-24T07:11:53Z</time>
      </trkpt>
      <trkpt lat="44.04589" lon="3.78511">
        <ele>923</ele>
        <time>2021-05-24T07:11:55Z</time>
      </trkpt>
      <trkpt lat="44.04591" lon="3.78498">
        <ele>923</ele>
        <time>2021-05-24T07:12:04Z</time>
      </trkpt>
      <trkpt lat="44.04595" lon="3.78485">
        <ele>923</ele>
        <time>2021-05-24T07:12:13Z</time>
      </trkpt>
      <trkpt lat="44.04593" lon="3.78472">
        <ele>923</ele>
        <time>2021-05-24T07:12:20Z</time>
      </trkpt>
      <trkpt lat="44.04593" lon="3.78458">
        <ele>923</ele>
        <time>2021-05-24T07:12:28Z</time>
      </trkpt>
      <trkpt lat="44.04594" lon="3.78446">
        <ele>922</ele>
        <time>2021-05-24T07:12:35Z</time>
      </trkpt>
      <trkpt lat="44.04595" lon="3.78433">
        <ele>922</ele>
        <time>2021-05-24T07:12:43Z</time>
      </trkpt>
      <trkpt lat="44.04597" lon="3.7842">
        <ele>922</ele>
        <time>2021-05-24T07:12:50Z</time>
      </trkpt>
      <trkpt lat="44.04595" lon="3.78407">
        <ele>922</ele>
        <time>2021-05-24T07:12:58Z</time>
      </trkpt>
      <trkpt lat="44.04592" lon="3.78394">
        <ele>922</ele>
        <time>2021-05-24T07:13:07Z</time>
      </trkpt>
      <trkpt lat="44.04589" lon="3.78382">
        <ele>921</ele>
        <time>2021-05-24T07:13:15Z</time>
      </trkpt>
      <trkpt lat="44.04586" lon="3.78369">
        <ele>921</ele>
        <time>2021-05-24T07:13:23Z</time>
      </trkpt>
      <trkpt lat="44.04578" lon="3.7836">
        <ele>921</ele>
        <time>2021-05-24T07:13:31Z</time>
      </trkpt>
      <trkpt lat="44.04571" lon="3.78351">
        <ele>921</ele>
        <time>2021-05-24T07:13:39Z</time>
      </trkpt>
      <trkpt lat="44.04565" lon="3.7834">
        <ele>921</ele>
        <time>2021-05-24T07:13:49Z</time>
      </trkpt>
      <trkpt lat="44.04561" lon="3.78326">
        <ele>921</ele>
        <time>2021-05-24T07:14:01Z</time>
      </trkpt>
      <trkpt lat="44.04558" lon="3.78314">
        <ele>921</ele>
        <time>2021-05-24T07:14:09Z</time>
      </trkpt>
      <trkpt lat="44.04556" lon="3.78301">
        <ele>921</ele>
        <time>2021-05-24T07:14:17Z</time>
      </trkpt>
      <trkpt lat="44.04556" lon="3.78288">
        <ele>921</ele>
        <time>2021-05-24T07:14:24Z</time>
      </trkpt>
      <trkpt lat="44.04554" lon="3.78275">
        <ele>921</ele>
        <time>2021-05-24T07:14:31Z</time>
      </trkpt>
      <trkpt lat="44.04551" lon="3.78262">
        <ele>921</ele>
        <time>2021-05-24T07:14:39Z</time>
      </trkpt>
      <trkpt lat="44.04545" lon="3.78252">
        <ele>921</ele>
        <time>2021-05-24T07:14:47Z</time>
      </trkpt>
      <trkpt lat="44.04538" lon="3.78242">
        <ele>921</ele>
        <time>2021-05-24T07:14:56Z</time>
      </trkpt>
      <trkpt lat="44.04531" lon="3.78232">
        <ele>921</ele>
        <time>2021-05-24T07:15:03Z</time>
      </trkpt>
      <trkpt lat="44.0453" lon="3.78219">
        <ele>921</ele>
        <time>2021-05-24T07:15:10Z</time>
      </trkpt>
      <trkpt lat="44.04535" lon="3.78208">
        <ele>921</ele>
        <time>2021-05-24T07:15:18Z</time>
      </trkpt>
      <trkpt lat="44.04534" lon="3.78195">
        <ele>921</ele>
        <time>2021-05-24T07:15:27Z</time>
      </trkpt>
      <trkpt lat="44.04532" lon="3.78183">
        <ele>921</ele>
        <time>2021-05-24T07:15:34Z</time>
      </trkpt>
      <trkpt lat="44.04533" lon="3.78169">
        <ele>921</ele>
        <time>2021-05-24T07:15:43Z</time>
      </trkpt>
      <trkpt lat="44.04531" lon="3.78156">
        <ele>921</ele>
        <time>2021-05-24T07:15:51Z</time>
      </trkpt>
      <trkpt lat="44.04532" lon="3.78143">
        <ele>921</ele>
        <time>2021-05-24T07:15:58Z</time>
      </trkpt>
      <trkpt lat="44.04531" lon="3.78131">
        <ele>912</ele>
        <time>2021-05-24T07:16:05Z</time>
      </trkpt>
      <trkpt lat="44.04533" lon="3.78118">
        <ele>912</ele>
        <time>2021-05-24T07:16:16Z</time>
      </trkpt>
      <trkpt lat="44.04534" lon="3.78102">
        <ele>912</ele>
        <time>2021-05-24T07:16:25Z</time>
      </trkpt>
      <trkpt lat="44.04533" lon="3.78088">
        <ele>912</ele>
        <time>2021-05-24T07:16:31Z</time>
      </trkpt>
      <trkpt lat="44.04532" lon="3.78075">
        <ele>912</ele>
        <time>2021-05-24T07:16:40Z</time>
      </trkpt>
      <trkpt lat="44.04532" lon="3.78062">
        <ele>912</ele>
        <time>2021-05-24T07:16:51Z</time>
      </trkpt>
      <trkpt lat="44.04534" lon="3.78049">
        <ele>912</ele>
        <time>2021-05-24T07:17:02Z</time>
      </trkpt>
      <trkpt lat="44.04534" lon="3.78036">
        <ele>912</ele>
        <time>2021-05-24T07:17:11Z</time>
      </trkpt>
      <trkpt lat="44.04538" lon="3.78025">
        <ele>912</ele>
        <time>2021-05-24T07:17:21Z</time>
      </trkpt>
      <trkpt lat="44.0454" lon="3.78012">
        <ele>912</ele>
        <time>2021-05-24T07:17:30Z</time>
      </trkpt>
      <trkpt lat="44.04547" lon="3.78">
        <ele>912</ele>
        <time>2021-05-24T07:17:37Z</time>
      </trkpt>
      <trkpt lat="44.04557" lon="3.77996">
        <ele>912</ele>
        <time>2021-05-24T07:17:44Z</time>
      </trkpt>
      <trkpt lat="44.04566" lon="3.77997">
        <ele>912</ele>
        <time>2021-05-24T07:17:51Z</time>
      </trkpt>
      <trkpt lat="44.04575" lon="3.77995">
        <ele>912</ele>
        <time>2021-05-24T07:18:00Z</time>
      </trkpt>
      <trkpt lat="44.04584" lon="3.77991">
        <ele>912</ele>
        <time>2021-05-24T07:18:07Z</time>
      </trkpt>
      <trkpt lat="44.04592" lon="3.77984">
        <ele>912</ele>
        <time>2021-05-24T07:18:16Z</time>
      </trkpt>
      <trkpt lat="44.04601" lon="3.77977">
        <ele>912</ele>
        <time>2021-05-24T07:18:26Z</time>
      </trkpt>
      <trkpt lat="44.04607" lon="3.77967">
        <ele>912</ele>
        <time>2021-05-24T07:18:36Z</time>
      </trkpt>
      <trkpt lat="44.04615" lon="3.7796">
        <ele>912</ele>
        <time>2021-05-24T07:18:44Z</time>
      </trkpt>
      <trkpt lat="44.04624" lon="3.77953">
        <ele>912</ele>
        <time>2021-05-24T07:18:51Z</time>
      </trkpt>
      <trkpt lat="44.04631" lon="3.77942">
        <ele>912</ele>
        <time>2021-05-24T07:19:00Z</time>
      </trkpt>
      <trkpt lat="44.04636" lon="3.77931">
        <ele>912</ele>
        <time>2021-05-24T07:19:08Z</time>
      </trkpt>
      <trkpt lat="44.04643" lon="3.77921">
        <ele>912</ele>
        <time>2021-05-24T07:19:29Z</time>
      </trkpt>
      <trkpt lat="44.0465" lon="3.77912">
        <ele>912</ele>
        <time>2021-05-24T07:19:38Z</time>
      </trkpt>
      <trkpt lat="44.04655" lon="3.779">
        <ele>912</ele>
        <time>2021-05-24T07:19:52Z</time>
      </trkpt>
      <trkpt lat="44.0466" lon="3.77889">
        <ele>912</ele>
        <time>2021-05-24T07:19:59Z</time>
      </trkpt>
      <trkpt lat="44.04657" lon="3.77876">
        <ele>912</ele>
        <time>2021-05-24T07:20:07Z</time>
      </trkpt>
      <trkpt lat="44.04651" lon="3.77866">
        <ele>912</ele>
        <time>2021-05-24T07:20:14Z</time>
      </trkpt>
      <trkpt lat="44.04651" lon="3.77852">
        <ele>912</ele>
        <time>2021-05-24T07:20:23Z</time>
      </trkpt>
      <trkpt lat="44.04648" lon="3.77839">
        <ele>912</ele>
        <time>2021-05-24T07:20:33Z</time>
      </trkpt>
      <trkpt lat="44.04648" lon="3.77827">
        <ele>912</ele>
        <time>2021-05-24T07:20:49Z</time>
      </trkpt>
      <trkpt lat="44.04652" lon="3.77815">
        <ele>912</ele>
        <time>2021-05-24T07:21:24Z</time>
      </trkpt>
      <trkpt lat="44.0465" lon="3.77801">
        <ele>912</ele>
        <time>2021-05-24T07:21:39Z</time>
      </trkpt>
      <trkpt lat="44.04645" lon="3.77789">
        <ele>912</ele>
        <time>2021-05-24T07:21:52Z</time>
      </trkpt>
      <trkpt lat="44.04648" lon="3.77777">
        <ele>912</ele>
        <time>2021-05-24T07:22:03Z</time>
      </trkpt>
      <trkpt lat="44.0465" lon="3.77764">
        <ele>912</ele>
        <time>2021-05-24T07:22:23Z</time>
      </trkpt>
      <trkpt lat="44.04651" lon="3.77751">
        <ele>912</ele>
        <time>2021-05-24T07:22:31Z</time>
      </trkpt>
      <trkpt lat="44.04656" lon="3.7774">
        <ele>912</ele>
        <time>2021-05-24T07:22:40Z</time>
      </trkpt>
      <trkpt lat="44.04657" lon="3.77727">
        <ele>912</ele>
        <time>2021-05-24T07:22:50Z</time>
      </trkpt>
      <trkpt lat="44.04657" lon="3.77714">
        <ele>912</ele>
        <time>2021-05-24T07:23:03Z</time>
      </trkpt>
      <trkpt lat="44.04663" lon="3.77704">
        <ele>912</ele>
        <time>2021-05-24T07:23:12Z</time>
      </trkpt>
      <trkpt lat="44.04672" lon="3.77697">
        <ele>912</ele>
        <time>2021-05-24T07:23:21Z</time>
      </trkpt>
      <trkpt lat="44.0468" lon="3.77691">
        <ele>912</ele>
        <time>2021-05-24T07:23:31Z</time>
      </trkpt>
      <trkpt lat="44.04683" lon="3.77679">
        <ele>912</ele>
        <time>2021-05-24T07:23:40Z</time>
      </trkpt>
      <trkpt lat="44.04688" lon="3.77667">
        <ele>912</ele>
        <time>2021-05-24T07:23:50Z</time>
      </trkpt>
      <trkpt lat="44.04696" lon="3.77659">
        <ele>912</ele>
        <time>2021-05-24T07:24:00Z</time>
      </trkpt>
      <trkpt lat="44.04711" lon="3.77654">
        <ele>912</ele>
        <time>2021-05-24T07:24:18Z</time>
      </trkpt>
      <trkpt lat="44.04713" lon="3.77652">
        <ele>912</ele>
        <time>2021-05-24T07:24:21Z</time>
      </trkpt>
      <trkpt lat="44.04715" lon="3.7765">
        <ele>912</ele>
        <time>2021-05-24T07:24:24Z</time>
      </trkpt>
      <trkpt lat="44.04717" lon="3.77647">
        <ele>912</ele>
        <time>2021-05-24T07:24:26Z</time>
      </trkpt>
      <trkpt lat="44.04719" lon="3.77646">
        <ele>912</ele>
        <time>2021-05-24T07:24:28Z</time>
      </trkpt>
      <trkpt lat="44.04721" lon="3.77644">
        <ele>912</ele>
        <time>2021-05-24T07:24:30Z</time>
      </trkpt>
      <trkpt lat="44.04723" lon="3.77643">
        <ele>912</ele>
        <time>2021-05-24T07:24:32Z</time>
      </trkpt>
      <trkpt lat="44.04725" lon="3.77641">
        <ele>912</ele>
        <time>2021-05-24T07:24:34Z</time>
      </trkpt>
      <trkpt lat="44.04727" lon="3.77639">
        <ele>912</ele>
        <time>2021-05-24T07:24:36Z</time>
      </trkpt>
      <trkpt lat="44.04728" lon="3.77637">
        <ele>912</ele>
        <time>2021-05-24T07:24:38Z</time>
      </trkpt>
      <trkpt lat="44.0473" lon="3.77634">
        <ele>912</ele>
        <time>2021-05-24T07:24:40Z</time>
      </trkpt>
      <trkpt lat="44.0473" lon="3.77632">
        <ele>912</ele>
        <time>2021-05-24T07:24:42Z</time>
      </trkpt>
      <trkpt lat="44.04731" lon="3.77629">
        <ele>890</ele>
        <time>2021-05-24T07:24:45Z</time>
      </trkpt>
      <trkpt lat="44.04732" lon="3.77626">
        <ele>890</ele>
        <time>2021-05-24T07:24:52Z</time>
      </trkpt>
      <trkpt lat="44.04732" lon="3.77623">
        <ele>890</ele>
        <time>2021-05-24T07:24:55Z</time>
      </trkpt>
      <trkpt lat="44.04734" lon="3.77621">
        <ele>890</ele>
        <time>2021-05-24T07:24:58Z</time>
      </trkpt>
      <trkpt lat="44.04735" lon="3.77617">
        <ele>890</ele>
        <time>2021-05-24T07:25:01Z</time>
      </trkpt>
      <trkpt lat="44.04735" lon="3.77614">
        <ele>890</ele>
        <time>2021-05-24T07:25:03Z</time>
      </trkpt>
      <trkpt lat="44.04736" lon="3.77612">
        <ele>890</ele>
        <time>2021-05-24T07:25:05Z</time>
      </trkpt>
      <trkpt lat="44.04737" lon="3.77609">
        <ele>890</ele>
        <time>2021-05-24T07:25:08Z</time>
      </trkpt>
      <trkpt lat="44.04738" lon="3.77606">
        <ele>890</ele>
        <time>2021-05-24T07:25:10Z</time>
      </trkpt>
      <trkpt lat="44.04738" lon="3.77604">
        <ele>890</ele>
        <time>2021-05-24T07:25:12Z</time>
      </trkpt>
      <trkpt lat="44.04739" lon="3.77601">
        <ele>890</ele>
        <time>2021-05-24T07:25:14Z</time>
      </trkpt>
      <trkpt lat="44.04739" lon="3.77598">
        <ele>890</ele>
        <time>2021-05-24T07:25:16Z</time>
      </trkpt>
      <trkpt lat="44.04738" lon="3.77595">
        <ele>890</ele>
        <time>2021-05-24T07:25:18Z</time>
      </trkpt>
      <trkpt lat="44.04739" lon="3.77592">
        <ele>890</ele>
        <time>2021-05-24T07:25:21Z</time>
      </trkpt>
      <trkpt lat="44.0474" lon="3.77589">
        <ele>890</ele>
        <time>2021-05-24T07:25:22Z</time>
      </trkpt>
      <trkpt lat="44.0474" lon="3.77586">
        <ele>890</ele>
        <time>2021-05-24T07:25:24Z</time>
      </trkpt>
      <trkpt lat="44.0474" lon="3.77583">
        <ele>890</ele>
        <time>2021-05-24T07:25:26Z</time>
      </trkpt>
      <trkpt lat="44.04739" lon="3.77581">
        <ele>890</ele>
        <time>2021-05-24T07:25:28Z</time>
      </trkpt>
      <trkpt lat="44.04739" lon="3.77578">
        <ele>890</ele>
        <time>2021-05-24T07:25:30Z</time>
      </trkpt>
      <trkpt lat="44.04739" lon="3.77575">
        <ele>890</ele>
        <time>2021-05-24T07:25:32Z</time>
      </trkpt>
      <trkpt lat="44.04739" lon="3.77572">
        <ele>890</ele>
        <time>2021-05-24T07:25:34Z</time>
      </trkpt>
      <trkpt lat="44.04739" lon="3.77569">
        <ele>890</ele>
        <time>2021-05-24T07:25:37Z</time>
      </trkpt>
      <trkpt lat="44.0474" lon="3.77566">
        <ele>890</ele>
        <time>2021-05-24T07:25:41Z</time>
      </trkpt>
      <trkpt lat="44.04741" lon="3.77563">
        <ele>890</ele>
        <time>2021-05-24T07:25:43Z</time>
      </trkpt>
      <trkpt lat="44.04741" lon="3.77561">
        <ele>892</ele>
        <time>2021-05-24T07:25:45Z</time>
      </trkpt>
      <trkpt lat="44.04743" lon="3.77559">
        <ele>892</ele>
        <time>2021-05-24T07:25:47Z</time>
      </trkpt>
      <trkpt lat="44.04744" lon="3.77557">
        <ele>892</ele>
        <time>2021-05-24T07:25:49Z</time>
      </trkpt>
      <trkpt lat="44.04744" lon="3.77554">
        <ele>892</ele>
        <time>2021-05-24T07:25:52Z</time>
      </trkpt>
      <trkpt lat="44.04745" lon="3.77551">
        <ele>892</ele>
        <time>2021-05-24T07:25:55Z</time>
      </trkpt>
      <trkpt lat="44.04746" lon="3.77549">
        <ele>892</ele>
        <time>2021-05-24T07:25:59Z</time>
      </trkpt>
      <trkpt lat="44.04747" lon="3.77546">
        <ele>892</ele>
        <time>2021-05-24T07:26:01Z</time>
      </trkpt>
      <trkpt lat="44.04749" lon="3.77544">
        <ele>893</ele>
        <time>2021-05-24T07:26:05Z</time>
      </trkpt>
      <trkpt lat="44.0475" lon="3.77542">
        <ele>893</ele>
        <time>2021-05-24T07:26:08Z</time>
      </trkpt>
      <trkpt lat="44.04752" lon="3.7754">
        <ele>893</ele>
        <time>2021-05-24T07:26:10Z</time>
      </trkpt>
      <trkpt lat="44.04753" lon="3.77537">
        <ele>893</ele>
        <time>2021-05-24T07:26:13Z</time>
      </trkpt>
      <trkpt lat="44.04755" lon="3.77535">
        <ele>893</ele>
        <time>2021-05-24T07:26:17Z</time>
      </trkpt>
      <trkpt lat="44.04757" lon="3.77534">
        <ele>893</ele>
        <time>2021-05-24T07:26:20Z</time>
      </trkpt>
      <trkpt lat="44.04759" lon="3.77533">
        <ele>893</ele>
        <time>2021-05-24T07:26:22Z</time>
      </trkpt>
      <trkpt lat="44.04762" lon="3.77532">
        <ele>893</ele>
        <time>2021-05-24T07:26:24Z</time>
      </trkpt>
      <trkpt lat="44.04763" lon="3.77532">
        <ele>893</ele>
        <time>2021-05-24T07:26:26Z</time>
      </trkpt>
      <trkpt lat="44.04765" lon="3.77531">
        <ele>893</ele>
        <time>2021-05-24T07:26:29Z</time>
      </trkpt>
      <trkpt lat="44.04767" lon="3.77531">
        <ele>893</ele>
        <time>2021-05-24T07:26:32Z</time>
      </trkpt>
      <trkpt lat="44.04769" lon="3.7753">
        <ele>893</ele>
        <time>2021-05-24T07:26:57Z</time>
      </trkpt>
      <trkpt lat="44.0477" lon="3.77528">
        <ele>893</ele>
        <time>2021-05-24T07:27:34Z</time>
      </trkpt>
      <trkpt lat="44.04771" lon="3.7753">
        <ele>893</ele>
        <time>2021-05-24T07:29:13Z</time>
      </trkpt>
      <trkpt lat="44.0477" lon="3.77532">
        <ele>893</ele>
        <time>2021-05-24T07:29:57Z</time>
      </trkpt>
      <trkpt lat="44.04771" lon="3.77529">
        <ele>893</ele>
        <time>2021-05-24T07:30:46Z</time>
      </trkpt>
      <trkpt lat="44.04774" lon="3.77529">
        <ele>893</ele>
        <time>2021-05-24T07:30:49Z</time>
      </trkpt>
      <trkpt lat="44.04776" lon="3.77528">
        <ele>893</ele>
        <time>2021-05-24T07:30:51Z</time>
      </trkpt>
      <trkpt lat="44.04778" lon="3.77527">
        <ele>893</ele>
        <time>2021-05-24T07:30:53Z</time>
      </trkpt>
      <trkpt lat="44.0478" lon="3.77526">
        <ele>897</ele>
        <time>2021-05-24T07:30:55Z</time>
      </trkpt>
      <trkpt lat="44.04782" lon="3.77525">
        <ele>897</ele>
        <time>2021-05-24T07:30:58Z</time>
      </trkpt>
      <trkpt lat="44.04784" lon="3.77524">
        <ele>897</ele>
        <time>2021-05-24T07:31:00Z</time>
      </trkpt>
      <trkpt lat="44.04786" lon="3.77523">
        <ele>897</ele>
        <time>2021-05-24T07:31:03Z</time>
      </trkpt>
      <trkpt lat="44.04788" lon="3.77524">
        <ele>897</ele>
        <time>2021-05-24T07:31:04Z</time>
      </trkpt>
      <trkpt lat="44.04791" lon="3.77524">
        <ele>897</ele>
        <time>2021-05-24T07:31:06Z</time>
      </trkpt>
      <trkpt lat="44.04793" lon="3.77525">
        <ele>897</ele>
        <time>2021-05-24T07:31:08Z</time>
      </trkpt>
      <trkpt lat="44.04795" lon="3.77525">
        <ele>897</ele>
        <time>2021-05-24T07:31:10Z</time>
      </trkpt>
      <trkpt lat="44.04797" lon="3.77525">
        <ele>897</ele>
        <time>2021-05-24T07:31:12Z</time>
      </trkpt>
      <trkpt lat="44.048" lon="3.77524">
        <ele>897</ele>
        <time>2021-05-24T07:31:14Z</time>
      </trkpt>
      <trkpt lat="44.04802" lon="3.77524">
        <ele>897</ele>
        <time>2021-05-24T07:31:16Z</time>
      </trkpt>
      <trkpt lat="44.04805" lon="3.77525">
        <ele>897</ele>
        <time>2021-05-24T07:31:18Z</time>
      </trkpt>
      <trkpt lat="44.04807" lon="3.77526">
        <ele>897</ele>
        <time>2021-05-24T07:31:20Z</time>
      </trkpt>
      <trkpt lat="44.0481" lon="3.77526">
        <ele>897</ele>
        <time>2021-05-24T07:31:22Z</time>
      </trkpt>
      <trkpt lat="44.04812" lon="3.77526">
        <ele>897</ele>
        <time>2021-05-24T07:31:24Z</time>
      </trkpt>
      <trkpt lat="44.04814" lon="3.77526">
        <ele>897</ele>
        <time>2021-05-24T07:31:26Z</time>
      </trkpt>
      <trkpt lat="44.04816" lon="3.77527">
        <ele>897</ele>
        <time>2021-05-24T07:31:28Z</time>
      </trkpt>
      <trkpt lat="44.04818" lon="3.77528">
        <ele>897</ele>
        <time>2021-05-24T07:31:30Z</time>
      </trkpt>
      <trkpt lat="44.0482" lon="3.77528">
        <ele>897</ele>
        <time>2021-05-24T07:31:33Z</time>
      </trkpt>
      <trkpt lat="44.04822" lon="3.77529">
        <ele>899</ele>
        <time>2021-05-24T07:31:35Z</time>
      </trkpt>
      <trkpt lat="44.04824" lon="3.7753">
        <ele>899</ele>
        <time>2021-05-24T07:31:37Z</time>
      </trkpt>
      <trkpt lat="44.04826" lon="3.7753">
        <ele>899</ele>
        <time>2021-05-24T07:31:39Z</time>
      </trkpt>
      <trkpt lat="44.04828" lon="3.77529">
        <ele>899</ele>
        <time>2021-05-24T07:31:41Z</time>
      </trkpt>
      <trkpt lat="44.0483" lon="3.77529">
        <ele>899</ele>
        <time>2021-05-24T07:31:43Z</time>
      </trkpt>
      <trkpt lat="44.04832" lon="3.77529">
        <ele>900</ele>
        <time>2021-05-24T07:31:45Z</time>
      </trkpt>
      <trkpt lat="44.04834" lon="3.7753">
        <ele>900</ele>
        <time>2021-05-24T07:31:47Z</time>
      </trkpt>
      <trkpt lat="44.04836" lon="3.77531">
        <ele>900</ele>
        <time>2021-05-24T07:31:49Z</time>
      </trkpt>
      <trkpt lat="44.04839" lon="3.77532">
        <ele>900</ele>
        <time>2021-05-24T07:31:52Z</time>
      </trkpt>
      <trkpt lat="44.04841" lon="3.77534">
        <ele>900</ele>
        <time>2021-05-24T07:31:54Z</time>
      </trkpt>
      <trkpt lat="44.04842" lon="3.77535">
        <ele>900</ele>
        <time>2021-05-24T07:31:56Z</time>
      </trkpt>
      <trkpt lat="44.04844" lon="3.77538">
        <ele>900</ele>
        <time>2021-05-24T07:32:00Z</time>
      </trkpt>
      <trkpt lat="44.04845" lon="3.7754">
        <ele>900</ele>
        <time>2021-05-24T07:32:02Z</time>
      </trkpt>
      <trkpt lat="44.04846" lon="3.77543">
        <ele>899</ele>
        <time>2021-05-24T07:32:05Z</time>
      </trkpt>
      <trkpt lat="44.04848" lon="3.77546">
        <ele>899</ele>
        <time>2021-05-24T07:32:08Z</time>
      </trkpt>
      <trkpt lat="44.04849" lon="3.77548">
        <ele>899</ele>
        <time>2021-05-24T07:32:10Z</time>
      </trkpt>
      <trkpt lat="44.0485" lon="3.77549">
        <ele>899</ele>
        <time>2021-05-24T07:32:12Z</time>
      </trkpt>
      <trkpt lat="44.04853" lon="3.77551">
        <ele>896</ele>
        <time>2021-05-24T07:32:15Z</time>
      </trkpt>
      <trkpt lat="44.04855" lon="3.77553">
        <ele>896</ele>
        <time>2021-05-24T07:32:19Z</time>
      </trkpt>
      <trkpt lat="44.04856" lon="3.77555">
        <ele>896</ele>
        <time>2021-05-24T07:32:21Z</time>
      </trkpt>
      <trkpt lat="44.04858" lon="3.77557">
        <ele>896</ele>
        <time>2021-05-24T07:32:24Z</time>
      </trkpt>
      <trkpt lat="44.0486" lon="3.77559">
        <ele>896</ele>
        <time>2021-05-24T07:32:27Z</time>
      </trkpt>
      <trkpt lat="44.04862" lon="3.77561">
        <ele>896</ele>
        <time>2021-05-24T07:32:30Z</time>
      </trkpt>
      <trkpt lat="44.04863" lon="3.77563">
        <ele>896</ele>
        <time>2021-05-24T07:32:33Z</time>
      </trkpt>
      <trkpt lat="44.04864" lon="3.77566">
        <ele>896</ele>
        <time>2021-05-24T07:32:36Z</time>
      </trkpt>
      <trkpt lat="44.04865" lon="3.7757">
        <ele>896</ele>
        <time>2021-05-24T07:32:39Z</time>
      </trkpt>
      <trkpt lat="44.04864" lon="3.77572">
        <ele>896</ele>
        <time>2021-05-24T07:32:41Z</time>
      </trkpt>
      <trkpt lat="44.04864" lon="3.77575">
        <ele>896</ele>
        <time>2021-05-24T07:32:43Z</time>
      </trkpt>
      <trkpt lat="44.04864" lon="3.77578">
        <ele>896</ele>
        <time>2021-05-24T07:32:46Z</time>
      </trkpt>
      <trkpt lat="44.04864" lon="3.77581">
        <ele>896</ele>
        <time>2021-05-24T07:32:49Z</time>
      </trkpt>
      <trkpt lat="44.04866" lon="3.77583">
        <ele>896</ele>
        <time>2021-05-24T07:32:52Z</time>
      </trkpt>
      <trkpt lat="44.04866" lon="3.77587">
        <ele>896</ele>
        <time>2021-05-24T07:32:56Z</time>
      </trkpt>
      <trkpt lat="44.04866" lon="3.7759">
        <ele>896</ele>
        <time>2021-05-24T07:32:57Z</time>
      </trkpt>
      <trkpt lat="44.04866" lon="3.77593">
        <ele>896</ele>
        <time>2021-05-24T07:32:59Z</time>
      </trkpt>
      <trkpt lat="44.04866" lon="3.77596">
        <ele>896</ele>
        <time>2021-05-24T07:33:01Z</time>
      </trkpt>
      <trkpt lat="44.04866" lon="3.77599">
        <ele>896</ele>
        <time>2021-05-24T07:33:03Z</time>
      </trkpt>
      <trkpt lat="44.04866" lon="3.77602">
        <ele>886</ele>
        <time>2021-05-24T07:33:05Z</time>
      </trkpt>
      <trkpt lat="44.04867" lon="3.77606">
        <ele>886</ele>
        <time>2021-05-24T07:33:08Z</time>
      </trkpt>
      <trkpt lat="44.04868" lon="3.77609">
        <ele>886</ele>
        <time>2021-05-24T07:33:11Z</time>
      </trkpt>
      <trkpt lat="44.0487" lon="3.77611">
        <ele>886</ele>
        <time>2021-05-24T07:33:14Z</time>
      </trkpt>
      <trkpt lat="44.04872" lon="3.77612">
        <ele>886</ele>
        <time>2021-05-24T07:33:16Z</time>
      </trkpt>
      <trkpt lat="44.04874" lon="3.7761">
        <ele>886</ele>
        <time>2021-05-24T07:33:18Z</time>
      </trkpt>
      <trkpt lat="44.04876" lon="3.77608">
        <ele>886</ele>
        <time>2021-05-24T07:33:20Z</time>
      </trkpt>
      <trkpt lat="44.04876" lon="3.77605">
        <ele>886</ele>
        <time>2021-05-24T07:33:22Z</time>
      </trkpt>
      <trkpt lat="44.04877" lon="3.77601">
        <ele>886</ele>
        <time>2021-05-24T07:33:24Z</time>
      </trkpt>
      <trkpt lat="44.04877" lon="3.77597">
        <ele>886</ele>
        <time>2021-05-24T07:33:26Z</time>
      </trkpt>
      <trkpt lat="44.04877" lon="3.77594">
        <ele>886</ele>
        <time>2021-05-24T07:33:28Z</time>
      </trkpt>
      <trkpt lat="44.04877" lon="3.7759">
        <ele>886</ele>
        <time>2021-05-24T07:33:30Z</time>
      </trkpt>
      <trkpt lat="44.04877" lon="3.77586">
        <ele>886</ele>
        <time>2021-05-24T07:33:32Z</time>
      </trkpt>
      <trkpt lat="44.04877" lon="3.77582">
        <ele>882</ele>
        <time>2021-05-24T07:33:35Z</time>
      </trkpt>
      <trkpt lat="44.04878" lon="3.77578">
        <ele>882</ele>
        <time>2021-05-24T07:33:36Z</time>
      </trkpt>
      <trkpt lat="44.04878" lon="3.77575">
        <ele>882</ele>
        <time>2021-05-24T07:33:38Z</time>
      </trkpt>
      <trkpt lat="44.04879" lon="3.77572">
        <ele>882</ele>
        <time>2021-05-24T07:33:40Z</time>
      </trkpt>
      <trkpt lat="44.0488" lon="3.77568">
        <ele>882</ele>
        <time>2021-05-24T07:33:42Z</time>
      </trkpt>
      <trkpt lat="44.0488" lon="3.77565">
        <ele>882</ele>
        <time>2021-05-24T07:33:44Z</time>
      </trkpt>
      <trkpt lat="44.04881" lon="3.77562">
        <ele>882</ele>
        <time>2021-05-24T07:33:46Z</time>
      </trkpt>
      <trkpt lat="44.04882" lon="3.77559">
        <ele>882</ele>
        <time>2021-05-24T07:33:48Z</time>
      </trkpt>
      <trkpt lat="44.04883" lon="3.77556">
        <ele>882</ele>
        <time>2021-05-24T07:33:50Z</time>
      </trkpt>
      <trkpt lat="44.04884" lon="3.77553">
        <ele>882</ele>
        <time>2021-05-24T07:33:52Z</time>
      </trkpt>
      <trkpt lat="44.04884" lon="3.7755">
        <ele>882</ele>
        <time>2021-05-24T07:33:54Z</time>
      </trkpt>
      <trkpt lat="44.04885" lon="3.77546">
        <ele>882</ele>
        <time>2021-05-24T07:33:56Z</time>
      </trkpt>
      <trkpt lat="44.04885" lon="3.77542">
        <ele>882</ele>
        <time>2021-05-24T07:33:58Z</time>
      </trkpt>
      <trkpt lat="44.04885" lon="3.77539">
        <ele>882</ele>
        <time>2021-05-24T07:34:00Z</time>
      </trkpt>
      <trkpt lat="44.04885" lon="3.77535">
        <ele>882</ele>
        <time>2021-05-24T07:34:02Z</time>
      </trkpt>
      <trkpt lat="44.04885" lon="3.77531">
        <ele>884</ele>
        <time>2021-05-24T07:34:05Z</time>
      </trkpt>
      <trkpt lat="44.04885" lon="3.77527">
        <ele>884</ele>
        <time>2021-05-24T07:34:06Z</time>
      </trkpt>
      <trkpt lat="44.04884" lon="3.77523">
        <ele>884</ele>
        <time>2021-05-24T07:34:08Z</time>
      </trkpt>
      <trkpt lat="44.04884" lon="3.77519">
        <ele>884</ele>
        <time>2021-05-24T07:34:10Z</time>
      </trkpt>
      <trkpt lat="44.04884" lon="3.77515">
        <ele>884</ele>
        <time>2021-05-24T07:34:13Z</time>
      </trkpt>
      <trkpt lat="44.04885" lon="3.77511">
        <ele>884</ele>
        <time>2021-05-24T07:34:14Z</time>
      </trkpt>
      <trkpt lat="44.04885" lon="3.77507">
        <ele>884</ele>
        <time>2021-05-24T07:34:16Z</time>
      </trkpt>
      <trkpt lat="44.04885" lon="3.77503">
        <ele>884</ele>
        <time>2021-05-24T07:34:18Z</time>
      </trkpt>
      <trkpt lat="44.04885" lon="3.775">
        <ele>884</ele>
        <time>2021-05-24T07:34:20Z</time>
      </trkpt>
      <trkpt lat="44.04886" lon="3.77496">
        <ele>884</ele>
        <time>2021-05-24T07:34:22Z</time>
      </trkpt>
      <trkpt lat="44.04886" lon="3.77493">
        <ele>884</ele>
        <time>2021-05-24T07:34:24Z</time>
      </trkpt>
      <trkpt lat="44.04887" lon="3.7749">
        <ele>884</ele>
        <time>2021-05-24T07:34:26Z</time>
      </trkpt>
      <trkpt lat="44.04887" lon="3.77486">
        <ele>884</ele>
        <time>2021-05-24T07:34:28Z</time>
      </trkpt>
      <trkpt lat="44.04887" lon="3.77482">
        <ele>884</ele>
        <time>2021-05-24T07:34:30Z</time>
      </trkpt>
      <trkpt lat="44.04888" lon="3.77478">
        <ele>884</ele>
        <time>2021-05-24T07:34:32Z</time>
      </trkpt>
      <trkpt lat="44.04888" lon="3.77475">
        <ele>884</ele>
        <time>2021-05-24T07:34:34Z</time>
      </trkpt>
      <trkpt lat="44.04888" lon="3.77472">
        <ele>884</ele>
        <time>2021-05-24T07:34:36Z</time>
      </trkpt>
      <trkpt lat="44.04889" lon="3.77469">
        <ele>884</ele>
        <time>2021-05-24T07:34:38Z</time>
      </trkpt>
      <trkpt lat="44.0489" lon="3.77466">
        <ele>884</ele>
        <time>2021-05-24T07:34:40Z</time>
      </trkpt>
      <trkpt lat="44.04892" lon="3.77463">
        <ele>884</ele>
        <time>2021-05-24T07:34:42Z</time>
      </trkpt>
      <trkpt lat="44.04893" lon="3.77462">
        <ele>884</ele>
        <time>2021-05-24T07:34:43Z</time>
      </trkpt>
      <trkpt lat="44.04896" lon="3.7746">
        <ele>885</ele>
        <time>2021-05-24T07:34:45Z</time>
      </trkpt>
      <trkpt lat="44.04898" lon="3.77458">
        <ele>885</ele>
        <time>2021-05-24T07:34:47Z</time>
      </trkpt>
      <trkpt lat="44.04901" lon="3.77457">
        <ele>885</ele>
        <time>2021-05-24T07:34:49Z</time>
      </trkpt>
      <trkpt lat="44.04904" lon="3.77456">
        <ele>885</ele>
        <time>2021-05-24T07:34:51Z</time>
      </trkpt>
      <trkpt lat="44.04907" lon="3.77455">
        <ele>885</ele>
        <time>2021-05-24T07:34:53Z</time>
      </trkpt>
      <trkpt lat="44.04909" lon="3.77454">
        <ele>885</ele>
        <time>2021-05-24T07:34:55Z</time>
      </trkpt>
      <trkpt lat="44.04911" lon="3.77453">
        <ele>885</ele>
        <time>2021-05-24T07:34:57Z</time>
      </trkpt>
      <trkpt lat="44.04914" lon="3.77452">
        <ele>885</ele>
        <time>2021-05-24T07:34:59Z</time>
      </trkpt>
      <trkpt lat="44.04916" lon="3.77451">
        <ele>885</ele>
        <time>2021-05-24T07:35:01Z</time>
      </trkpt>
      <trkpt lat="44.04919" lon="3.7745">
        <ele>886</ele>
        <time>2021-05-24T07:35:05Z</time>
      </trkpt>
      <trkpt lat="44.04922" lon="3.77448">
        <ele>886</ele>
        <time>2021-05-24T07:35:07Z</time>
      </trkpt>
      <trkpt lat="44.04924" lon="3.77447">
        <ele>886</ele>
        <time>2021-05-24T07:35:09Z</time>
      </trkpt>
      <trkpt lat="44.04927" lon="3.77445">
        <ele>886</ele>
        <time>2021-05-24T07:35:11Z</time>
      </trkpt>
      <trkpt lat="44.0493" lon="3.77443">
        <ele>886</ele>
        <time>2021-05-24T07:35:13Z</time>
      </trkpt>
      <trkpt lat="44.04932" lon="3.77441">
        <ele>886</ele>
        <time>2021-05-24T07:35:15Z</time>
      </trkpt>
      <trkpt lat="44.04934" lon="3.77439">
        <ele>886</ele>
        <time>2021-05-24T07:35:17Z</time>
      </trkpt>
      <trkpt lat="44.04936" lon="3.77437">
        <ele>886</ele>
        <time>2021-05-24T07:35:19Z</time>
      </trkpt>
      <trkpt lat="44.04938" lon="3.77434">
        <ele>886</ele>
        <time>2021-05-24T07:35:21Z</time>
      </trkpt>
      <trkpt lat="44.0494" lon="3.77431">
        <ele>886</ele>
        <time>2021-05-24T07:35:23Z</time>
      </trkpt>
      <trkpt lat="44.04941" lon="3.77428">
        <ele>887</ele>
        <time>2021-05-24T07:35:25Z</time>
      </trkpt>
      <trkpt lat="44.04942" lon="3.77425">
        <ele>887</ele>
        <time>2021-05-24T07:35:27Z</time>
      </trkpt>
      <trkpt lat="44.04943" lon="3.77422">
        <ele>887</ele>
        <time>2021-05-24T07:35:29Z</time>
      </trkpt>
      <trkpt lat="44.04944" lon="3.77419">
        <ele>887</ele>
        <time>2021-05-24T07:35:31Z</time>
      </trkpt>
      <trkpt lat="44.04944" lon="3.77415">
        <ele>887</ele>
        <time>2021-05-24T07:35:33Z</time>
      </trkpt>
      <trkpt lat="44.04944" lon="3.77411">
        <ele>888</ele>
        <time>2021-05-24T07:35:35Z</time>
      </trkpt>
      <trkpt lat="44.04944" lon="3.77407">
        <ele>888</ele>
        <time>2021-05-24T07:35:37Z</time>
      </trkpt>
      <trkpt lat="44.04943" lon="3.77403">
        <ele>888</ele>
        <time>2021-05-24T07:35:39Z</time>
      </trkpt>
      <trkpt lat="44.04943" lon="3.77399">
        <ele>888</ele>
        <time>2021-05-24T07:35:41Z</time>
      </trkpt>
      <trkpt lat="44.04943" lon="3.77396">
        <ele>888</ele>
        <time>2021-05-24T07:35:43Z</time>
      </trkpt>
      <trkpt lat="44.04943" lon="3.77393">
        <ele>888</ele>
        <time>2021-05-24T07:35:45Z</time>
      </trkpt>
      <trkpt lat="44.04942" lon="3.77389">
        <ele>888</ele>
        <time>2021-05-24T07:35:47Z</time>
      </trkpt>
      <trkpt lat="44.04942" lon="3.77386">
        <ele>888</ele>
        <time>2021-05-24T07:35:49Z</time>
      </trkpt>
      <trkpt lat="44.0494" lon="3.77383">
        <ele>888</ele>
        <time>2021-05-24T07:35:51Z</time>
      </trkpt>
      <trkpt lat="44.04939" lon="3.77379">
        <ele>888</ele>
        <time>2021-05-24T07:35:53Z</time>
      </trkpt>
      <trkpt lat="44.04938" lon="3.77376">
        <ele>889</ele>
        <time>2021-05-24T07:35:55Z</time>
      </trkpt>
      <trkpt lat="44.04937" lon="3.77373">
        <ele>889</ele>
        <time>2021-05-24T07:35:57Z</time>
      </trkpt>
      <trkpt lat="44.04936" lon="3.77371">
        <ele>889</ele>
        <time>2021-05-24T07:35:59Z</time>
      </trkpt>
      <trkpt lat="44.04935" lon="3.77367">
        <ele>889</ele>
        <time>2021-05-24T07:36:01Z</time>
      </trkpt>
      <trkpt lat="44.04935" lon="3.77364">
        <ele>889</ele>
        <time>2021-05-24T07:36:03Z</time>
      </trkpt>
      <trkpt lat="44.04934" lon="3.77362">
        <ele>890</ele>
        <time>2021-05-24T07:36:05Z</time>
      </trkpt>
      <trkpt lat="44.04934" lon="3.77358">
        <ele>890</ele>
        <time>2021-05-24T07:36:07Z</time>
      </trkpt>
      <trkpt lat="44.04934" lon="3.77355">
        <ele>890</ele>
        <time>2021-05-24T07:36:09Z</time>
      </trkpt>
      <trkpt lat="44.04934" lon="3.77352">
        <ele>890</ele>
        <time>2021-05-24T07:36:11Z</time>
      </trkpt>
      <trkpt lat="44.04935" lon="3.77348">
        <ele>890</ele>
        <time>2021-05-24T07:36:13Z</time>
      </trkpt>
      <trkpt lat="44.04935" lon="3.77345">
        <ele>891</ele>
        <time>2021-05-24T07:36:15Z</time>
      </trkpt>
      <trkpt lat="44.04936" lon="3.77342">
        <ele>891</ele>
        <time>2021-05-24T07:36:17Z</time>
      </trkpt>
      <trkpt lat="44.04938" lon="3.77339">
        <ele>891</ele>
        <time>2021-05-24T07:36:19Z</time>
      </trkpt>
      <trkpt lat="44.04938" lon="3.77336">
        <ele>891</ele>
        <time>2021-05-24T07:36:21Z</time>
      </trkpt>
      <trkpt lat="44.04939" lon="3.77333">
        <ele>891</ele>
        <time>2021-05-24T07:36:23Z</time>
      </trkpt>
      <trkpt lat="44.0494" lon="3.77328">
        <ele>891</ele>
        <time>2021-05-24T07:36:25Z</time>
      </trkpt>
      <trkpt lat="44.04941" lon="3.77324">
        <ele>891</ele>
        <time>2021-05-24T07:36:26Z</time>
      </trkpt>
      <trkpt lat="44.04943" lon="3.77321">
        <ele>891</ele>
        <time>2021-05-24T07:36:28Z</time>
      </trkpt>
      <trkpt lat="44.04945" lon="3.77316">
        <ele>891</ele>
        <time>2021-05-24T07:36:32Z</time>
      </trkpt>
      <trkpt lat="44.04946" lon="3.77313">
        <ele>891</ele>
        <time>2021-05-24T07:36:34Z</time>
      </trkpt>
      <trkpt lat="44.04949" lon="3.77304">
        <ele>891</ele>
        <time>2021-05-24T07:36:39Z</time>
      </trkpt>
      <trkpt lat="44.0495" lon="3.77301">
        <ele>891</ele>
        <time>2021-05-24T07:36:41Z</time>
      </trkpt>
      <trkpt lat="44.04951" lon="3.77299">
        <ele>891</ele>
        <time>2021-05-24T07:36:43Z</time>
      </trkpt>
      <trkpt lat="44.04951" lon="3.77296">
        <ele>891</ele>
        <time>2021-05-24T07:36:45Z</time>
      </trkpt>
      <trkpt lat="44.04953" lon="3.77293">
        <ele>891</ele>
        <time>2021-05-24T07:36:47Z</time>
      </trkpt>
      <trkpt lat="44.04955" lon="3.7729">
        <ele>891</ele>
        <time>2021-05-24T07:36:50Z</time>
      </trkpt>
      <trkpt lat="44.04956" lon="3.77286">
        <ele>891</ele>
        <time>2021-05-24T07:36:52Z</time>
      </trkpt>
      <trkpt lat="44.04958" lon="3.77284">
        <ele>891</ele>
        <time>2021-05-24T07:36:54Z</time>
      </trkpt>
      <trkpt lat="44.0496" lon="3.77282">
        <ele>891</ele>
        <time>2021-05-24T07:36:56Z</time>
      </trkpt>
      <trkpt lat="44.04961" lon="3.77279">
        <ele>891</ele>
        <time>2021-05-24T07:36:58Z</time>
      </trkpt>
      <trkpt lat="44.04962" lon="3.77276">
        <ele>891</ele>
        <time>2021-05-24T07:37:00Z</time>
      </trkpt>
      <trkpt lat="44.04963" lon="3.77266">
        <ele>891</ele>
        <time>2021-05-24T07:37:06Z</time>
      </trkpt>
      <trkpt lat="44.04963" lon="3.77264">
        <ele>891</ele>
        <time>2021-05-24T07:37:08Z</time>
      </trkpt>
      <trkpt lat="44.04964" lon="3.7726">
        <ele>891</ele>
        <time>2021-05-24T07:37:10Z</time>
      </trkpt>
      <trkpt lat="44.04965" lon="3.77257">
        <ele>891</ele>
        <time>2021-05-24T07:37:12Z</time>
      </trkpt>
      <trkpt lat="44.04966" lon="3.77255">
        <ele>891</ele>
        <time>2021-05-24T07:37:14Z</time>
      </trkpt>
      <trkpt lat="44.04966" lon="3.77252">
        <ele>891</ele>
        <time>2021-05-24T07:37:16Z</time>
      </trkpt>
      <trkpt lat="44.04967" lon="3.77249">
        <ele>891</ele>
        <time>2021-05-24T07:37:18Z</time>
      </trkpt>
      <trkpt lat="44.04968" lon="3.77245">
        <ele>891</ele>
        <time>2021-05-24T07:37:20Z</time>
      </trkpt>
      <trkpt lat="44.04971" lon="3.7724">
        <ele>891</ele>
        <time>2021-05-24T07:37:23Z</time>
      </trkpt>
      <trkpt lat="44.04973" lon="3.77238">
        <ele>895</ele>
        <time>2021-05-24T07:37:25Z</time>
      </trkpt>
      <trkpt lat="44.04975" lon="3.77236">
        <ele>895</ele>
        <time>2021-05-24T07:37:27Z</time>
      </trkpt>
      <trkpt lat="44.04976" lon="3.77234">
        <ele>895</ele>
        <time>2021-05-24T07:37:29Z</time>
      </trkpt>
      <trkpt lat="44.04977" lon="3.77232">
        <ele>895</ele>
        <time>2021-05-24T07:37:31Z</time>
      </trkpt>
      <trkpt lat="44.04979" lon="3.77229">
        <ele>895</ele>
        <time>2021-05-24T07:37:33Z</time>
      </trkpt>
      <trkpt lat="44.0498" lon="3.77227">
        <ele>895</ele>
        <time>2021-05-24T07:37:35Z</time>
      </trkpt>
      <trkpt lat="44.04981" lon="3.77224">
        <ele>895</ele>
        <time>2021-05-24T07:37:37Z</time>
      </trkpt>
      <trkpt lat="44.04982" lon="3.77221">
        <ele>895</ele>
        <time>2021-05-24T07:37:39Z</time>
      </trkpt>
      <trkpt lat="44.04983" lon="3.77218">
        <ele>895</ele>
        <time>2021-05-24T07:37:42Z</time>
      </trkpt>
      <trkpt lat="44.04984" lon="3.77215">
        <ele>895</ele>
        <time>2021-05-24T07:37:43Z</time>
      </trkpt>
      <trkpt lat="44.04986" lon="3.77213">
        <ele>897</ele>
        <time>2021-05-24T07:37:45Z</time>
      </trkpt>
      <trkpt lat="44.04987" lon="3.77211">
        <ele>897</ele>
        <time>2021-05-24T07:37:47Z</time>
      </trkpt>
      <trkpt lat="44.04989" lon="3.77209">
        <ele>897</ele>
        <time>2021-05-24T07:37:49Z</time>
      </trkpt>
      <trkpt lat="44.0499" lon="3.77206">
        <ele>897</ele>
        <time>2021-05-24T07:37:51Z</time>
      </trkpt>
      <trkpt lat="44.04992" lon="3.77204">
        <ele>897</ele>
        <time>2021-05-24T07:37:53Z</time>
      </trkpt>
      <trkpt lat="44.04993" lon="3.77202">
        <ele>898</ele>
        <time>2021-05-24T07:37:55Z</time>
      </trkpt>
      <trkpt lat="44.04994" lon="3.77199">
        <ele>898</ele>
        <time>2021-05-24T07:37:57Z</time>
      </trkpt>
      <trkpt lat="44.04996" lon="3.77198">
        <ele>898</ele>
        <time>2021-05-24T07:37:59Z</time>
      </trkpt>
      <trkpt lat="44.04998" lon="3.77196">
        <ele>898</ele>
        <time>2021-05-24T07:38:01Z</time>
      </trkpt>
      <trkpt lat="44.05" lon="3.77195">
        <ele>898</ele>
        <time>2021-05-24T07:38:03Z</time>
      </trkpt>
      <trkpt lat="44.05002" lon="3.77194">
        <ele>898</ele>
        <time>2021-05-24T07:38:05Z</time>
      </trkpt>
      <trkpt lat="44.05004" lon="3.77194">
        <ele>898</ele>
        <time>2021-05-24T07:38:07Z</time>
      </trkpt>
      <trkpt lat="44.0501" lon="3.77194">
        <ele>898</ele>
        <time>2021-05-24T07:38:11Z</time>
      </trkpt>
      <trkpt lat="44.05012" lon="3.77193">
        <ele>898</ele>
        <time>2021-05-24T07:38:13Z</time>
      </trkpt>
      <trkpt lat="44.05014" lon="3.77193">
        <ele>899</ele>
        <time>2021-05-24T07:38:15Z</time>
      </trkpt>
      <trkpt lat="44.05017" lon="3.77193">
        <ele>899</ele>
        <time>2021-05-24T07:38:17Z</time>
      </trkpt>
      <trkpt lat="44.0502" lon="3.77192">
        <ele>899</ele>
        <time>2021-05-24T07:38:20Z</time>
      </trkpt>
      <trkpt lat="44.05023" lon="3.77191">
        <ele>899</ele>
        <time>2021-05-24T07:38:21Z</time>
      </trkpt>
      <trkpt lat="44.05025" lon="3.77192">
        <ele>899</ele>
        <time>2021-05-24T07:38:23Z</time>
      </trkpt>
      <trkpt lat="44.05028" lon="3.77191">
        <ele>900</ele>
        <time>2021-05-24T07:38:25Z</time>
      </trkpt>
      <trkpt lat="44.05031" lon="3.77191">
        <ele>900</ele>
        <time>2021-05-24T07:38:27Z</time>
      </trkpt>
      <trkpt lat="44.05033" lon="3.77191">
        <ele>900</ele>
        <time>2021-05-24T07:38:29Z</time>
      </trkpt>
      <trkpt lat="44.05035" lon="3.7719">
        <ele>900</ele>
        <time>2021-05-24T07:38:31Z</time>
      </trkpt>
      <trkpt lat="44.05038" lon="3.7719">
        <ele>900</ele>
        <time>2021-05-24T07:38:33Z</time>
      </trkpt>
      <trkpt lat="44.05041" lon="3.7719">
        <ele>900</ele>
        <time>2021-05-24T07:38:35Z</time>
      </trkpt>
      <trkpt lat="44.05044" lon="3.77189">
        <ele>900</ele>
        <time>2021-05-24T07:38:37Z</time>
      </trkpt>
      <trkpt lat="44.05047" lon="3.77189">
        <ele>900</ele>
        <time>2021-05-24T07:38:39Z</time>
      </trkpt>
      <trkpt lat="44.05049" lon="3.77189">
        <ele>900</ele>
        <time>2021-05-24T07:38:41Z</time>
      </trkpt>
      <trkpt lat="44.05052" lon="3.7719">
        <ele>900</ele>
        <time>2021-05-24T07:38:43Z</time>
      </trkpt>
      <trkpt lat="44.05054" lon="3.7719">
        <ele>900</ele>
        <time>2021-05-24T07:38:45Z</time>
      </trkpt>
      <trkpt lat="44.05057" lon="3.7719">
        <ele>900</ele>
        <time>2021-05-24T07:38:47Z</time>
      </trkpt>
      <trkpt lat="44.05059" lon="3.77191">
        <ele>900</ele>
        <time>2021-05-24T07:38:49Z</time>
      </trkpt>
      <trkpt lat="44.05061" lon="3.77192">
        <ele>900</ele>
        <time>2021-05-24T07:38:52Z</time>
      </trkpt>
      <trkpt lat="44.05063" lon="3.77192">
        <ele>900</ele>
        <time>2021-05-24T07:38:54Z</time>
      </trkpt>
      <trkpt lat="44.05065" lon="3.77193">
        <ele>900</ele>
        <time>2021-05-24T07:38:56Z</time>
      </trkpt>
      <trkpt lat="44.05068" lon="3.77193">
        <ele>900</ele>
        <time>2021-05-24T07:38:58Z</time>
      </trkpt>
      <trkpt lat="44.0507" lon="3.77194">
        <ele>900</ele>
        <time>2021-05-24T07:39:00Z</time>
      </trkpt>
      <trkpt lat="44.05073" lon="3.77195">
        <ele>900</ele>
        <time>2021-05-24T07:39:02Z</time>
      </trkpt>
      <trkpt lat="44.05076" lon="3.77196">
        <ele>900</ele>
        <time>2021-05-24T07:39:04Z</time>
      </trkpt>
      <trkpt lat="44.05078" lon="3.77196">
        <ele>900</ele>
        <time>2021-05-24T07:39:06Z</time>
      </trkpt>
      <trkpt lat="44.0508" lon="3.77197">
        <ele>900</ele>
        <time>2021-05-24T07:39:08Z</time>
      </trkpt>
      <trkpt lat="44.05083" lon="3.77198">
        <ele>900</ele>
        <time>2021-05-24T07:39:10Z</time>
      </trkpt>
      <trkpt lat="44.05085" lon="3.77198">
        <ele>900</ele>
        <time>2021-05-24T07:39:12Z</time>
      </trkpt>
      <trkpt lat="44.05087" lon="3.77199">
        <ele>900</ele>
        <time>2021-05-24T07:39:14Z</time>
      </trkpt>
      <trkpt lat="44.0509" lon="3.77199">
        <ele>900</ele>
        <time>2021-05-24T07:39:17Z</time>
      </trkpt>
      <trkpt lat="44.05092" lon="3.77199">
        <ele>900</ele>
        <time>2021-05-24T07:39:18Z</time>
      </trkpt>
      <trkpt lat="44.05094" lon="3.772">
        <ele>900</ele>
        <time>2021-05-24T07:39:20Z</time>
      </trkpt>
      <trkpt lat="44.05097" lon="3.772">
        <ele>900</ele>
        <time>2021-05-24T07:39:22Z</time>
      </trkpt>
      <trkpt lat="44.05099" lon="3.772">
        <ele>900</ele>
        <time>2021-05-24T07:39:24Z</time>
      </trkpt>
      <trkpt lat="44.05102" lon="3.772">
        <ele>900</ele>
        <time>2021-05-24T07:39:26Z</time>
      </trkpt>
      <trkpt lat="44.05104" lon="3.772">
        <ele>900</ele>
        <time>2021-05-24T07:39:28Z</time>
      </trkpt>
      <trkpt lat="44.05106" lon="3.772">
        <ele>900</ele>
        <time>2021-05-24T07:39:30Z</time>
      </trkpt>
      <trkpt lat="44.05109" lon="3.77199">
        <ele>900</ele>
        <time>2021-05-24T07:39:32Z</time>
      </trkpt>
      <trkpt lat="44.05111" lon="3.77199">
        <ele>900</ele>
        <time>2021-05-24T07:39:34Z</time>
      </trkpt>
      <trkpt lat="44.05114" lon="3.77199">
        <ele>900</ele>
        <time>2021-05-24T07:39:36Z</time>
      </trkpt>
      <trkpt lat="44.05116" lon="3.77199">
        <ele>900</ele>
        <time>2021-05-24T07:39:38Z</time>
      </trkpt>
      <trkpt lat="44.05118" lon="3.77198">
        <ele>900</ele>
        <time>2021-05-24T07:39:40Z</time>
      </trkpt>
      <trkpt lat="44.05121" lon="3.77198">
        <ele>900</ele>
        <time>2021-05-24T07:39:42Z</time>
      </trkpt>
      <trkpt lat="44.05123" lon="3.77197">
        <ele>900</ele>
        <time>2021-05-24T07:39:44Z</time>
      </trkpt>
      <trkpt lat="44.05126" lon="3.77196">
        <ele>900</ele>
        <time>2021-05-24T07:39:46Z</time>
      </trkpt>
      <trkpt lat="44.05128" lon="3.77196">
        <ele>900</ele>
        <time>2021-05-24T07:39:48Z</time>
      </trkpt>
      <trkpt lat="44.05131" lon="3.77195">
        <ele>900</ele>
        <time>2021-05-24T07:39:50Z</time>
      </trkpt>
      <trkpt lat="44.05134" lon="3.77195">
        <ele>900</ele>
        <time>2021-05-24T07:39:52Z</time>
      </trkpt>
      <trkpt lat="44.05136" lon="3.77194">
        <ele>905</ele>
        <time>2021-05-24T07:39:55Z</time>
      </trkpt>
      <trkpt lat="44.05139" lon="3.77194">
        <ele>905</ele>
        <time>2021-05-24T07:39:56Z</time>
      </trkpt>
      <trkpt lat="44.05141" lon="3.77194">
        <ele>905</ele>
        <time>2021-05-24T07:39:58Z</time>
      </trkpt>
      <trkpt lat="44.05144" lon="3.77194">
        <ele>905</ele>
        <time>2021-05-24T07:40:00Z</time>
      </trkpt>
      <trkpt lat="44.05146" lon="3.77194">
        <ele>905</ele>
        <time>2021-05-24T07:40:02Z</time>
      </trkpt>
      <trkpt lat="44.05148" lon="3.77194">
        <ele>905</ele>
        <time>2021-05-24T07:40:04Z</time>
      </trkpt>
      <trkpt lat="44.0515" lon="3.77194">
        <ele>905</ele>
        <time>2021-05-24T07:40:06Z</time>
      </trkpt>
      <trkpt lat="44.05153" lon="3.77195">
        <ele>905</ele>
        <time>2021-05-24T07:40:08Z</time>
      </trkpt>
      <trkpt lat="44.05155" lon="3.77196">
        <ele>905</ele>
        <time>2021-05-24T07:40:10Z</time>
      </trkpt>
      <trkpt lat="44.05157" lon="3.77196">
        <ele>905</ele>
        <time>2021-05-24T07:40:12Z</time>
      </trkpt>
      <trkpt lat="44.0516" lon="3.77197">
        <ele>905</ele>
        <time>2021-05-24T07:40:14Z</time>
      </trkpt>
      <trkpt lat="44.05162" lon="3.77198">
        <ele>905</ele>
        <time>2021-05-24T07:40:16Z</time>
      </trkpt>
      <trkpt lat="44.05165" lon="3.77199">
        <ele>905</ele>
        <time>2021-05-24T07:40:18Z</time>
      </trkpt>
      <trkpt lat="44.05167" lon="3.772">
        <ele>905</ele>
        <time>2021-05-24T07:40:20Z</time>
      </trkpt>
      <trkpt lat="44.05169" lon="3.77201">
        <ele>905</ele>
        <time>2021-05-24T07:40:22Z</time>
      </trkpt>
      <trkpt lat="44.05172" lon="3.77202">
        <ele>905</ele>
        <time>2021-05-24T07:40:24Z</time>
      </trkpt>
      <trkpt lat="44.05174" lon="3.77203">
        <ele>905</ele>
        <time>2021-05-24T07:40:26Z</time>
      </trkpt>
      <trkpt lat="44.05177" lon="3.77204">
        <ele>905</ele>
        <time>2021-05-24T07:40:28Z</time>
      </trkpt>
      <trkpt lat="44.05179" lon="3.77205">
        <ele>905</ele>
        <time>2021-05-24T07:40:30Z</time>
      </trkpt>
      <trkpt lat="44.05182" lon="3.77206">
        <ele>905</ele>
        <time>2021-05-24T07:40:32Z</time>
      </trkpt>
      <trkpt lat="44.05184" lon="3.77207">
        <ele>905</ele>
        <time>2021-05-24T07:40:34Z</time>
      </trkpt>
      <trkpt lat="44.05187" lon="3.77208">
        <ele>905</ele>
        <time>2021-05-24T07:40:36Z</time>
      </trkpt>
      <trkpt lat="44.05189" lon="3.77208">
        <ele>905</ele>
        <time>2021-05-24T07:40:38Z</time>
      </trkpt>
      <trkpt lat="44.05191" lon="3.77209">
        <ele>905</ele>
        <time>2021-05-24T07:40:40Z</time>
      </trkpt>
      <trkpt lat="44.05194" lon="3.7721">
        <ele>905</ele>
        <time>2021-05-24T07:40:42Z</time>
      </trkpt>
      <trkpt lat="44.05196" lon="3.77211">
        <ele>905</ele>
        <time>2021-05-24T07:40:44Z</time>
      </trkpt>
      <trkpt lat="44.05199" lon="3.77213">
        <ele>905</ele>
        <time>2021-05-24T07:40:46Z</time>
      </trkpt>
      <trkpt lat="44.05201" lon="3.77214">
        <ele>905</ele>
        <time>2021-05-24T07:40:48Z</time>
      </trkpt>
      <trkpt lat="44.05203" lon="3.77215">
        <ele>905</ele>
        <time>2021-05-24T07:40:50Z</time>
      </trkpt>
      <trkpt lat="44.05206" lon="3.77217">
        <ele>905</ele>
        <time>2021-05-24T07:40:52Z</time>
      </trkpt>
      <trkpt lat="44.05208" lon="3.77218">
        <ele>905</ele>
        <time>2021-05-24T07:40:54Z</time>
      </trkpt>
      <trkpt lat="44.0521" lon="3.7722">
        <ele>905</ele>
        <time>2021-05-24T07:40:56Z</time>
      </trkpt>
      <trkpt lat="44.05212" lon="3.77222">
        <ele>905</ele>
        <time>2021-05-24T07:40:58Z</time>
      </trkpt>
      <trkpt lat="44.05214" lon="3.77224">
        <ele>905</ele>
        <time>2021-05-24T07:41:00Z</time>
      </trkpt>
      <trkpt lat="44.05217" lon="3.77226">
        <ele>905</ele>
        <time>2021-05-24T07:41:02Z</time>
      </trkpt>
      <trkpt lat="44.05219" lon="3.77228">
        <ele>905</ele>
        <time>2021-05-24T07:41:04Z</time>
      </trkpt>
      <trkpt lat="44.0522" lon="3.77229">
        <ele>905</ele>
        <time>2021-05-24T07:41:06Z</time>
      </trkpt>
      <trkpt lat="44.05222" lon="3.77231">
        <ele>905</ele>
        <time>2021-05-24T07:41:08Z</time>
      </trkpt>
      <trkpt lat="44.05224" lon="3.77233">
        <ele>905</ele>
        <time>2021-05-24T07:41:11Z</time>
      </trkpt>
      <trkpt lat="44.05226" lon="3.77235">
        <ele>905</ele>
        <time>2021-05-24T07:41:12Z</time>
      </trkpt>
      <trkpt lat="44.05229" lon="3.77236">
        <ele>905</ele>
        <time>2021-05-24T07:41:14Z</time>
      </trkpt>
      <trkpt lat="44.05231" lon="3.77238">
        <ele>905</ele>
        <time>2021-05-24T07:41:16Z</time>
      </trkpt>
      <trkpt lat="44.05233" lon="3.77239">
        <ele>905</ele>
        <time>2021-05-24T07:41:18Z</time>
      </trkpt>
      <trkpt lat="44.05235" lon="3.7724">
        <ele>905</ele>
        <time>2021-05-24T07:41:20Z</time>
      </trkpt>
      <trkpt lat="44.05237" lon="3.77241">
        <ele>905</ele>
        <time>2021-05-24T07:41:22Z</time>
      </trkpt>
      <trkpt lat="44.0524" lon="3.77242">
        <ele>905</ele>
        <time>2021-05-24T07:41:24Z</time>
      </trkpt>
      <trkpt lat="44.05243" lon="3.77243">
        <ele>905</ele>
        <time>2021-05-24T07:41:26Z</time>
      </trkpt>
      <trkpt lat="44.05245" lon="3.77243">
        <ele>905</ele>
        <time>2021-05-24T07:41:28Z</time>
      </trkpt>
      <trkpt lat="44.05248" lon="3.77243">
        <ele>905</ele>
        <time>2021-05-24T07:41:30Z</time>
      </trkpt>
      <trkpt lat="44.0525" lon="3.77242">
        <ele>905</ele>
        <time>2021-05-24T07:41:32Z</time>
      </trkpt>
      <trkpt lat="44.05253" lon="3.77241">
        <ele>905</ele>
        <time>2021-05-24T07:41:34Z</time>
      </trkpt>
      <trkpt lat="44.05255" lon="3.7724">
        <ele>905</ele>
        <time>2021-05-24T07:41:36Z</time>
      </trkpt>
      <trkpt lat="44.05257" lon="3.77239">
        <ele>905</ele>
        <time>2021-05-24T07:41:38Z</time>
      </trkpt>
      <trkpt lat="44.0526" lon="3.77237">
        <ele>905</ele>
        <time>2021-05-24T07:41:40Z</time>
      </trkpt>
      <trkpt lat="44.05262" lon="3.77235">
        <ele>905</ele>
        <time>2021-05-24T07:41:42Z</time>
      </trkpt>
      <trkpt lat="44.05263" lon="3.77233">
        <ele>905</ele>
        <time>2021-05-24T07:41:44Z</time>
      </trkpt>
      <trkpt lat="44.05265" lon="3.77231">
        <ele>905</ele>
        <time>2021-05-24T07:41:46Z</time>
      </trkpt>
      <trkpt lat="44.05266" lon="3.77228">
        <ele>905</ele>
        <time>2021-05-24T07:41:49Z</time>
      </trkpt>
      <trkpt lat="44.05267" lon="3.77225">
        <ele>905</ele>
        <time>2021-05-24T07:41:50Z</time>
      </trkpt>
      <trkpt lat="44.05268" lon="3.77222">
        <ele>905</ele>
        <time>2021-05-24T07:41:52Z</time>
      </trkpt>
      <trkpt lat="44.0527" lon="3.77219">
        <ele>905</ele>
        <time>2021-05-24T07:41:54Z</time>
      </trkpt>
      <trkpt lat="44.05272" lon="3.77217">
        <ele>905</ele>
        <time>2021-05-24T07:41:56Z</time>
      </trkpt>
      <trkpt lat="44.05273" lon="3.77215">
        <ele>905</ele>
        <time>2021-05-24T07:41:58Z</time>
      </trkpt>
      <trkpt lat="44.05274" lon="3.77212">
        <ele>905</ele>
        <time>2021-05-24T07:42:00Z</time>
      </trkpt>
      <trkpt lat="44.05276" lon="3.77209">
        <ele>905</ele>
        <time>2021-05-24T07:42:02Z</time>
      </trkpt>
      <trkpt lat="44.05277" lon="3.77207">
        <ele>905</ele>
        <time>2021-05-24T07:42:04Z</time>
      </trkpt>
      <trkpt lat="44.0528" lon="3.77199">
        <ele>905</ele>
        <time>2021-05-24T07:42:09Z</time>
      </trkpt>
      <trkpt lat="44.05285" lon="3.77191">
        <ele>905</ele>
        <time>2021-05-24T07:42:14Z</time>
      </trkpt>
      <trkpt lat="44.05287" lon="3.77189">
        <ele>905</ele>
        <time>2021-05-24T07:42:16Z</time>
      </trkpt>
      <trkpt lat="44.05289" lon="3.77187">
        <ele>905</ele>
        <time>2021-05-24T07:42:18Z</time>
      </trkpt>
      <trkpt lat="44.05291" lon="3.77186">
        <ele>905</ele>
        <time>2021-05-24T07:42:20Z</time>
      </trkpt>
      <trkpt lat="44.05293" lon="3.77184">
        <ele>905</ele>
        <time>2021-05-24T07:42:22Z</time>
      </trkpt>
      <trkpt lat="44.05295" lon="3.77182">
        <ele>905</ele>
        <time>2021-05-24T07:42:24Z</time>
      </trkpt>
      <trkpt lat="44.05297" lon="3.7718">
        <ele>905</ele>
        <time>2021-05-24T07:42:26Z</time>
      </trkpt>
      <trkpt lat="44.053" lon="3.77179">
        <ele>905</ele>
        <time>2021-05-24T07:42:28Z</time>
      </trkpt>
      <trkpt lat="44.05302" lon="3.77178">
        <ele>905</ele>
        <time>2021-05-24T07:42:30Z</time>
      </trkpt>
      <trkpt lat="44.05304" lon="3.77178">
        <ele>905</ele>
        <time>2021-05-24T07:42:32Z</time>
      </trkpt>
      <trkpt lat="44.05307" lon="3.77177">
        <ele>905</ele>
        <time>2021-05-24T07:42:34Z</time>
      </trkpt>
      <trkpt lat="44.05309" lon="3.77176">
        <ele>905</ele>
        <time>2021-05-24T07:42:36Z</time>
      </trkpt>
      <trkpt lat="44.05311" lon="3.77175">
        <ele>905</ele>
        <time>2021-05-24T07:42:38Z</time>
      </trkpt>
      <trkpt lat="44.05313" lon="3.77175">
        <ele>905</ele>
        <time>2021-05-24T07:42:40Z</time>
      </trkpt>
      <trkpt lat="44.05315" lon="3.77174">
        <ele>905</ele>
        <time>2021-05-24T07:42:42Z</time>
      </trkpt>
      <trkpt lat="44.05318" lon="3.77174">
        <ele>905</ele>
        <time>2021-05-24T07:42:46Z</time>
      </trkpt>
      <trkpt lat="44.05321" lon="3.77174">
        <ele>905</ele>
        <time>2021-05-24T07:42:48Z</time>
      </trkpt>
      <trkpt lat="44.05324" lon="3.77173">
        <ele>905</ele>
        <time>2021-05-24T07:42:50Z</time>
      </trkpt>
      <trkpt lat="44.05326" lon="3.77173">
        <ele>905</ele>
        <time>2021-05-24T07:42:52Z</time>
      </trkpt>
      <trkpt lat="44.05329" lon="3.77173">
        <ele>905</ele>
        <time>2021-05-24T07:42:54Z</time>
      </trkpt>
      <trkpt lat="44.05332" lon="3.77173">
        <ele>905</ele>
        <time>2021-05-24T07:42:56Z</time>
      </trkpt>
      <trkpt lat="44.05334" lon="3.77173">
        <ele>905</ele>
        <time>2021-05-24T07:42:58Z</time>
      </trkpt>
      <trkpt lat="44.05337" lon="3.77173">
        <ele>905</ele>
        <time>2021-05-24T07:43:00Z</time>
      </trkpt>
      <trkpt lat="44.05339" lon="3.77173">
        <ele>905</ele>
        <time>2021-05-24T07:43:02Z</time>
      </trkpt>
      <trkpt lat="44.05342" lon="3.77173">
        <ele>905</ele>
        <time>2021-05-24T07:43:04Z</time>
      </trkpt>
      <trkpt lat="44.05345" lon="3.77174">
        <ele>905</ele>
        <time>2021-05-24T07:43:06Z</time>
      </trkpt>
      <trkpt lat="44.05347" lon="3.77174">
        <ele>905</ele>
        <time>2021-05-24T07:43:08Z</time>
      </trkpt>
      <trkpt lat="44.0535" lon="3.77174">
        <ele>905</ele>
        <time>2021-05-24T07:43:10Z</time>
      </trkpt>
      <trkpt lat="44.05353" lon="3.77174">
        <ele>905</ele>
        <time>2021-05-24T07:43:12Z</time>
      </trkpt>
      <trkpt lat="44.05355" lon="3.77174">
        <ele>905</ele>
        <time>2021-05-24T07:43:14Z</time>
      </trkpt>
      <trkpt lat="44.05358" lon="3.77174">
        <ele>905</ele>
        <time>2021-05-24T07:43:16Z</time>
      </trkpt>
      <trkpt lat="44.05361" lon="3.77174">
        <ele>905</ele>
        <time>2021-05-24T07:43:18Z</time>
      </trkpt>
      <trkpt lat="44.05363" lon="3.77173">
        <ele>905</ele>
        <time>2021-05-24T07:43:20Z</time>
      </trkpt>
      <trkpt lat="44.05366" lon="3.77172">
        <ele>905</ele>
        <time>2021-05-24T07:43:22Z</time>
      </trkpt>
      <trkpt lat="44.05368" lon="3.77172">
        <ele>905</ele>
        <time>2021-05-24T07:43:24Z</time>
      </trkpt>
      <trkpt lat="44.0537" lon="3.77171">
        <ele>905</ele>
        <time>2021-05-24T07:43:26Z</time>
      </trkpt>
      <trkpt lat="44.05373" lon="3.77169">
        <ele>905</ele>
        <time>2021-05-24T07:43:28Z</time>
      </trkpt>
      <trkpt lat="44.05375" lon="3.77168">
        <ele>905</ele>
        <time>2021-05-24T07:43:30Z</time>
      </trkpt>
      <trkpt lat="44.05376" lon="3.77166">
        <ele>905</ele>
        <time>2021-05-24T07:43:32Z</time>
      </trkpt>
      <trkpt lat="44.05377" lon="3.77163">
        <ele>905</ele>
        <time>2021-05-24T07:43:34Z</time>
      </trkpt>
      <trkpt lat="44.05379" lon="3.77161">
        <ele>905</ele>
        <time>2021-05-24T07:43:36Z</time>
      </trkpt>
      <trkpt lat="44.0538" lon="3.77158">
        <ele>905</ele>
        <time>2021-05-24T07:43:38Z</time>
      </trkpt>
      <trkpt lat="44.05381" lon="3.77155">
        <ele>905</ele>
        <time>2021-05-24T07:43:40Z</time>
      </trkpt>
      <trkpt lat="44.05383" lon="3.77152">
        <ele>905</ele>
        <time>2021-05-24T07:43:43Z</time>
      </trkpt>
      <trkpt lat="44.05384" lon="3.7715">
        <ele>921</ele>
        <time>2021-05-24T07:43:45Z</time>
      </trkpt>
      <trkpt lat="44.05385" lon="3.77147">
        <ele>921</ele>
        <time>2021-05-24T07:43:47Z</time>
      </trkpt>
      <trkpt lat="44.05386" lon="3.77144">
        <ele>921</ele>
        <time>2021-05-24T07:43:49Z</time>
      </trkpt>
      <trkpt lat="44.05387" lon="3.77141">
        <ele>921</ele>
        <time>2021-05-24T07:43:51Z</time>
      </trkpt>
      <trkpt lat="44.05388" lon="3.77139">
        <ele>921</ele>
        <time>2021-05-24T07:43:53Z</time>
      </trkpt>
      <trkpt lat="44.05389" lon="3.77135">
        <ele>923</ele>
        <time>2021-05-24T07:43:55Z</time>
      </trkpt>
      <trkpt lat="44.0539" lon="3.77133">
        <ele>923</ele>
        <time>2021-05-24T07:43:57Z</time>
      </trkpt>
      <trkpt lat="44.05392" lon="3.7713">
        <ele>923</ele>
        <time>2021-05-24T07:43:59Z</time>
      </trkpt>
      <trkpt lat="44.05394" lon="3.77128">
        <ele>923</ele>
        <time>2021-05-24T07:44:02Z</time>
      </trkpt>
      <trkpt lat="44.05397" lon="3.77127">
        <ele>923</ele>
        <time>2021-05-24T07:44:09Z</time>
      </trkpt>
      <trkpt lat="44.054" lon="3.77127">
        <ele>923</ele>
        <time>2021-05-24T07:44:11Z</time>
      </trkpt>
      <trkpt lat="44.05403" lon="3.77126">
        <ele>923</ele>
        <time>2021-05-24T07:44:13Z</time>
      </trkpt>
      <trkpt lat="44.05406" lon="3.77126">
        <ele>925</ele>
        <time>2021-05-24T07:44:15Z</time>
      </trkpt>
      <trkpt lat="44.0541" lon="3.77126">
        <ele>925</ele>
        <time>2021-05-24T07:44:17Z</time>
      </trkpt>
      <trkpt lat="44.05413" lon="3.77127">
        <ele>925</ele>
        <time>2021-05-24T07:44:19Z</time>
      </trkpt>
      <trkpt lat="44.05416" lon="3.77127">
        <ele>925</ele>
        <time>2021-05-24T07:44:21Z</time>
      </trkpt>
      <trkpt lat="44.05419" lon="3.77127">
        <ele>925</ele>
        <time>2021-05-24T07:44:23Z</time>
      </trkpt>
      <trkpt lat="44.05421" lon="3.77127">
        <ele>925</ele>
        <time>2021-05-24T07:44:25Z</time>
      </trkpt>
      <trkpt lat="44.05424" lon="3.77126">
        <ele>925</ele>
        <time>2021-05-24T07:44:27Z</time>
      </trkpt>
      <trkpt lat="44.05427" lon="3.77125">
        <ele>925</ele>
        <time>2021-05-24T07:44:29Z</time>
      </trkpt>
      <trkpt lat="44.0543" lon="3.77124">
        <ele>925</ele>
        <time>2021-05-24T07:44:31Z</time>
      </trkpt>
      <trkpt lat="44.05432" lon="3.77123">
        <ele>925</ele>
        <time>2021-05-24T07:44:33Z</time>
      </trkpt>
      <trkpt lat="44.05435" lon="3.77121">
        <ele>925</ele>
        <time>2021-05-24T07:44:35Z</time>
      </trkpt>
      <trkpt lat="44.05437" lon="3.7712">
        <ele>925</ele>
        <time>2021-05-24T07:44:37Z</time>
      </trkpt>
      <trkpt lat="44.0544" lon="3.77119">
        <ele>925</ele>
        <time>2021-05-24T07:44:40Z</time>
      </trkpt>
      <trkpt lat="44.05442" lon="3.77117">
        <ele>925</ele>
        <time>2021-05-24T07:44:41Z</time>
      </trkpt>
      <trkpt lat="44.05445" lon="3.77116">
        <ele>925</ele>
        <time>2021-05-24T07:44:43Z</time>
      </trkpt>
      <trkpt lat="44.05447" lon="3.77114">
        <ele>926</ele>
        <time>2021-05-24T07:44:45Z</time>
      </trkpt>
      <trkpt lat="44.0545" lon="3.77113">
        <ele>926</ele>
        <time>2021-05-24T07:44:47Z</time>
      </trkpt>
      <trkpt lat="44.05452" lon="3.77112">
        <ele>926</ele>
        <time>2021-05-24T07:44:49Z</time>
      </trkpt>
      <trkpt lat="44.05454" lon="3.7711">
        <ele>926</ele>
        <time>2021-05-24T07:44:51Z</time>
      </trkpt>
      <trkpt lat="44.05457" lon="3.77109">
        <ele>926</ele>
        <time>2021-05-24T07:44:53Z</time>
      </trkpt>
      <trkpt lat="44.05459" lon="3.77107">
        <ele>927</ele>
        <time>2021-05-24T07:44:55Z</time>
      </trkpt>
      <trkpt lat="44.05461" lon="3.77105">
        <ele>927</ele>
        <time>2021-05-24T07:44:57Z</time>
      </trkpt>
      <trkpt lat="44.05464" lon="3.77104">
        <ele>927</ele>
        <time>2021-05-24T07:44:59Z</time>
      </trkpt>
      <trkpt lat="44.05466" lon="3.77103">
        <ele>927</ele>
        <time>2021-05-24T07:45:01Z</time>
      </trkpt>
      <trkpt lat="44.05467" lon="3.77101">
        <ele>927</ele>
        <time>2021-05-24T07:45:03Z</time>
      </trkpt>
      <trkpt lat="44.05469" lon="3.771">
        <ele>927</ele>
        <time>2021-05-24T07:45:05Z</time>
      </trkpt>
      <trkpt lat="44.05472" lon="3.77098">
        <ele>927</ele>
        <time>2021-05-24T07:45:07Z</time>
      </trkpt>
      <trkpt lat="44.05474" lon="3.77096">
        <ele>927</ele>
        <time>2021-05-24T07:45:09Z</time>
      </trkpt>
      <trkpt lat="44.05476" lon="3.77094">
        <ele>927</ele>
        <time>2021-05-24T07:45:11Z</time>
      </trkpt>
      <trkpt lat="44.05478" lon="3.77092">
        <ele>927</ele>
        <time>2021-05-24T07:45:13Z</time>
      </trkpt>
      <trkpt lat="44.05479" lon="3.7709">
        <ele>927</ele>
        <time>2021-05-24T07:45:15Z</time>
      </trkpt>
      <trkpt lat="44.05481" lon="3.77089">
        <ele>927</ele>
        <time>2021-05-24T07:45:18Z</time>
      </trkpt>
      <trkpt lat="44.05483" lon="3.77087">
        <ele>927</ele>
        <time>2021-05-24T07:45:19Z</time>
      </trkpt>
      <trkpt lat="44.05484" lon="3.77085">
        <ele>927</ele>
        <time>2021-05-24T07:45:21Z</time>
      </trkpt>
      <trkpt lat="44.05486" lon="3.77083">
        <ele>927</ele>
        <time>2021-05-24T07:45:23Z</time>
      </trkpt>
      <trkpt lat="44.05488" lon="3.77081">
        <ele>927</ele>
        <time>2021-05-24T07:45:25Z</time>
      </trkpt>
      <trkpt lat="44.0549" lon="3.77079">
        <ele>927</ele>
        <time>2021-05-24T07:45:27Z</time>
      </trkpt>
      <trkpt lat="44.05492" lon="3.77077">
        <ele>927</ele>
        <time>2021-05-24T07:45:29Z</time>
      </trkpt>
      <trkpt lat="44.05494" lon="3.77076">
        <ele>927</ele>
        <time>2021-05-24T07:45:31Z</time>
      </trkpt>
      <trkpt lat="44.05496" lon="3.77075">
        <ele>927</ele>
        <time>2021-05-24T07:45:33Z</time>
      </trkpt>
      <trkpt lat="44.05498" lon="3.77073">
        <ele>929</ele>
        <time>2021-05-24T07:45:35Z</time>
      </trkpt>
      <trkpt lat="44.055" lon="3.77072">
        <ele>929</ele>
        <time>2021-05-24T07:45:37Z</time>
      </trkpt>
      <trkpt lat="44.05502" lon="3.7707">
        <ele>929</ele>
        <time>2021-05-24T07:45:39Z</time>
      </trkpt>
      <trkpt lat="44.05504" lon="3.77068">
        <ele>929</ele>
        <time>2021-05-24T07:45:41Z</time>
      </trkpt>
      <trkpt lat="44.05506" lon="3.77066">
        <ele>929</ele>
        <time>2021-05-24T07:45:44Z</time>
      </trkpt>
      <trkpt lat="44.05508" lon="3.77064">
        <ele>929</ele>
        <time>2021-05-24T07:45:46Z</time>
      </trkpt>
      <trkpt lat="44.0551" lon="3.77062">
        <ele>929</ele>
        <time>2021-05-24T07:45:48Z</time>
      </trkpt>
      <trkpt lat="44.05512" lon="3.77061">
        <ele>929</ele>
        <time>2021-05-24T07:45:50Z</time>
      </trkpt>
      <trkpt lat="44.05514" lon="3.77059">
        <ele>929</ele>
        <time>2021-05-24T07:45:52Z</time>
      </trkpt>
      <trkpt lat="44.05515" lon="3.77057">
        <ele>929</ele>
        <time>2021-05-24T07:45:54Z</time>
      </trkpt>
      <trkpt lat="44.05517" lon="3.77054">
        <ele>929</ele>
        <time>2021-05-24T07:45:56Z</time>
      </trkpt>
      <trkpt lat="44.05519" lon="3.77052">
        <ele>929</ele>
        <time>2021-05-24T07:45:58Z</time>
      </trkpt>
      <trkpt lat="44.05521" lon="3.7705">
        <ele>929</ele>
        <time>2021-05-24T07:46:00Z</time>
      </trkpt>
      <trkpt lat="44.05523" lon="3.77048">
        <ele>929</ele>
        <time>2021-05-24T07:46:02Z</time>
      </trkpt>
      <trkpt lat="44.05525" lon="3.77046">
        <ele>929</ele>
        <time>2021-05-24T07:46:04Z</time>
      </trkpt>
      <trkpt lat="44.05527" lon="3.77044">
        <ele>929</ele>
        <time>2021-05-24T07:46:06Z</time>
      </trkpt>
      <trkpt lat="44.05529" lon="3.77042">
        <ele>929</ele>
        <time>2021-05-24T07:46:08Z</time>
      </trkpt>
      <trkpt lat="44.0553" lon="3.77039">
        <ele>929</ele>
        <time>2021-05-24T07:46:10Z</time>
      </trkpt>
      <trkpt lat="44.05531" lon="3.77037">
        <ele>929</ele>
        <time>2021-05-24T07:46:12Z</time>
      </trkpt>
      <trkpt lat="44.05533" lon="3.77034">
        <ele>929</ele>
        <time>2021-05-24T07:46:14Z</time>
      </trkpt>
      <trkpt lat="44.05534" lon="3.77031">
        <ele>929</ele>
        <time>2021-05-24T07:46:16Z</time>
      </trkpt>
      <trkpt lat="44.05535" lon="3.77028">
        <ele>929</ele>
        <time>2021-05-24T07:46:18Z</time>
      </trkpt>
      <trkpt lat="44.05537" lon="3.77025">
        <ele>929</ele>
        <time>2021-05-24T07:46:20Z</time>
      </trkpt>
      <trkpt lat="44.05538" lon="3.77022">
        <ele>929</ele>
        <time>2021-05-24T07:46:22Z</time>
      </trkpt>
      <trkpt lat="44.05539" lon="3.77019">
        <ele>929</ele>
        <time>2021-05-24T07:46:24Z</time>
      </trkpt>
      <trkpt lat="44.05539" lon="3.77016">
        <ele>929</ele>
        <time>2021-05-24T07:46:26Z</time>
      </trkpt>
      <trkpt lat="44.0554" lon="3.77013">
        <ele>929</ele>
        <time>2021-05-24T07:46:28Z</time>
      </trkpt>
      <trkpt lat="44.05541" lon="3.7701">
        <ele>929</ele>
        <time>2021-05-24T07:46:30Z</time>
      </trkpt>
      <trkpt lat="44.05542" lon="3.77006">
        <ele>929</ele>
        <time>2021-05-24T07:46:32Z</time>
      </trkpt>
      <trkpt lat="44.05543" lon="3.77003">
        <ele>929</ele>
        <time>2021-05-24T07:46:34Z</time>
      </trkpt>
      <trkpt lat="44.05545" lon="3.77">
        <ele>929</ele>
        <time>2021-05-24T07:46:36Z</time>
      </trkpt>
      <trkpt lat="44.05546" lon="3.76997">
        <ele>929</ele>
        <time>2021-05-24T07:46:38Z</time>
      </trkpt>
      <trkpt lat="44.05547" lon="3.76994">
        <ele>929</ele>
        <time>2021-05-24T07:46:40Z</time>
      </trkpt>
      <trkpt lat="44.05548" lon="3.76991">
        <ele>929</ele>
        <time>2021-05-24T07:46:42Z</time>
      </trkpt>
      <trkpt lat="44.05548" lon="3.76988">
        <ele>929</ele>
        <time>2021-05-24T07:46:44Z</time>
      </trkpt>
      <trkpt lat="44.05549" lon="3.76985">
        <ele>929</ele>
        <time>2021-05-24T07:46:46Z</time>
      </trkpt>
      <trkpt lat="44.0555" lon="3.76981">
        <ele>929</ele>
        <time>2021-05-24T07:46:48Z</time>
      </trkpt>
      <trkpt lat="44.0555" lon="3.76978">
        <ele>929</ele>
        <time>2021-05-24T07:46:50Z</time>
      </trkpt>
      <trkpt lat="44.05551" lon="3.76975">
        <ele>929</ele>
        <time>2021-05-24T07:46:53Z</time>
      </trkpt>
      <trkpt lat="44.05552" lon="3.76971">
        <ele>929</ele>
        <time>2021-05-24T07:46:54Z</time>
      </trkpt>
      <trkpt lat="44.05553" lon="3.76968">
        <ele>929</ele>
        <time>2021-05-24T07:46:56Z</time>
      </trkpt>
      <trkpt lat="44.05554" lon="3.76965">
        <ele>929</ele>
        <time>2021-05-24T07:46:58Z</time>
      </trkpt>
      <trkpt lat="44.05556" lon="3.76962">
        <ele>929</ele>
        <time>2021-05-24T07:47:00Z</time>
      </trkpt>
      <trkpt lat="44.05556" lon="3.76959">
        <ele>929</ele>
        <time>2021-05-24T07:47:02Z</time>
      </trkpt>
      <trkpt lat="44.05557" lon="3.76956">
        <ele>929</ele>
        <time>2021-05-24T07:47:04Z</time>
      </trkpt>
      <trkpt lat="44.05558" lon="3.76954">
        <ele>929</ele>
        <time>2021-05-24T07:47:06Z</time>
      </trkpt>
      <trkpt lat="44.0556" lon="3.76951">
        <ele>929</ele>
        <time>2021-05-24T07:47:08Z</time>
      </trkpt>
      <trkpt lat="44.05562" lon="3.76949">
        <ele>929</ele>
        <time>2021-05-24T07:47:10Z</time>
      </trkpt>
      <trkpt lat="44.05564" lon="3.76948">
        <ele>929</ele>
        <time>2021-05-24T07:47:12Z</time>
      </trkpt>
      <trkpt lat="44.05567" lon="3.76946">
        <ele>929</ele>
        <time>2021-05-24T07:47:14Z</time>
      </trkpt>
      <trkpt lat="44.05569" lon="3.76944">
        <ele>929</ele>
        <time>2021-05-24T07:47:16Z</time>
      </trkpt>
      <trkpt lat="44.05571" lon="3.76942">
        <ele>929</ele>
        <time>2021-05-24T07:47:18Z</time>
      </trkpt>
      <trkpt lat="44.05573" lon="3.7694">
        <ele>929</ele>
        <time>2021-05-24T07:47:20Z</time>
      </trkpt>
      <trkpt lat="44.05575" lon="3.76939">
        <ele>929</ele>
        <time>2021-05-24T07:47:22Z</time>
      </trkpt>
      <trkpt lat="44.05577" lon="3.76938">
        <ele>929</ele>
        <time>2021-05-24T07:47:24Z</time>
      </trkpt>
      <trkpt lat="44.05579" lon="3.76936">
        <ele>929</ele>
        <time>2021-05-24T07:47:26Z</time>
      </trkpt>
      <trkpt lat="44.05581" lon="3.76935">
        <ele>929</ele>
        <time>2021-05-24T07:47:28Z</time>
      </trkpt>
      <trkpt lat="44.05583" lon="3.76934">
        <ele>929</ele>
        <time>2021-05-24T07:47:30Z</time>
      </trkpt>
      <trkpt lat="44.05585" lon="3.76932">
        <ele>929</ele>
        <time>2021-05-24T07:47:32Z</time>
      </trkpt>
      <trkpt lat="44.05587" lon="3.7693">
        <ele>929</ele>
        <time>2021-05-24T07:47:34Z</time>
      </trkpt>
      <trkpt lat="44.05588" lon="3.76928">
        <ele>929</ele>
        <time>2021-05-24T07:47:36Z</time>
      </trkpt>
      <trkpt lat="44.0559" lon="3.76926">
        <ele>929</ele>
        <time>2021-05-24T07:47:38Z</time>
      </trkpt>
      <trkpt lat="44.05591" lon="3.76924">
        <ele>929</ele>
        <time>2021-05-24T07:47:41Z</time>
      </trkpt>
      <trkpt lat="44.05593" lon="3.76926">
        <ele>937</ele>
        <time>2021-05-24T07:48:55Z</time>
      </trkpt>
      <trkpt lat="44.05603" lon="3.76929">
        <ele>937</ele>
        <time>2021-05-24T07:51:12Z</time>
      </trkpt>
      <trkpt lat="44.05612" lon="3.76925">
        <ele>937</ele>
        <time>2021-05-24T07:51:20Z</time>
      </trkpt>
      <trkpt lat="44.0562" lon="3.76917">
        <ele>937</ele>
        <time>2021-05-24T07:51:28Z</time>
      </trkpt>
      <trkpt lat="44.0563" lon="3.76913">
        <ele>937</ele>
        <time>2021-05-24T07:51:37Z</time>
      </trkpt>
      <trkpt lat="44.05639" lon="3.76911">
        <ele>941</ele>
        <time>2021-05-24T07:51:45Z</time>
      </trkpt>
      <trkpt lat="44.05649" lon="3.76911">
        <ele>941</ele>
        <time>2021-05-24T07:51:53Z</time>
      </trkpt>
      <trkpt lat="44.05658" lon="3.76911">
        <ele>941</ele>
        <time>2021-05-24T07:52:00Z</time>
      </trkpt>
      <trkpt lat="44.05667" lon="3.76912">
        <ele>941</ele>
        <time>2021-05-24T07:52:07Z</time>
      </trkpt>
      <trkpt lat="44.05677" lon="3.76913">
        <ele>941</ele>
        <time>2021-05-24T07:52:14Z</time>
      </trkpt>
      <trkpt lat="44.05687" lon="3.76913">
        <ele>941</ele>
        <time>2021-05-24T07:52:21Z</time>
      </trkpt>
      <trkpt lat="44.05697" lon="3.76913">
        <ele>941</ele>
        <time>2021-05-24T07:52:28Z</time>
      </trkpt>
      <trkpt lat="44.05707" lon="3.76909">
        <ele>941</ele>
        <time>2021-05-24T07:52:38Z</time>
      </trkpt>
      <trkpt lat="44.05716" lon="3.76906">
        <ele>944</ele>
        <time>2021-05-24T07:52:45Z</time>
      </trkpt>
      <trkpt lat="44.05725" lon="3.76901">
        <ele>944</ele>
        <time>2021-05-24T07:52:56Z</time>
      </trkpt>
      <trkpt lat="44.05734" lon="3.76899">
        <ele>944</ele>
        <time>2021-05-24T07:53:04Z</time>
      </trkpt>
      <trkpt lat="44.05743" lon="3.76895">
        <ele>944</ele>
        <time>2021-05-24T07:53:14Z</time>
      </trkpt>
      <trkpt lat="44.0575" lon="3.76889">
        <ele>944</ele>
        <time>2021-05-24T07:53:20Z</time>
      </trkpt>
      <trkpt lat="44.05755" lon="3.76874">
        <ele>944</ele>
        <time>2021-05-24T07:53:28Z</time>
      </trkpt>
      <trkpt lat="44.05763" lon="3.76865">
        <ele>944</ele>
        <time>2021-05-24T07:53:38Z</time>
      </trkpt>
      <trkpt lat="44.05768" lon="3.76854">
        <ele>944</ele>
        <time>2021-05-24T07:53:46Z</time>
      </trkpt>
      <trkpt lat="44.05776" lon="3.76845">
        <ele>944</ele>
        <time>2021-05-24T07:53:56Z</time>
      </trkpt>
      <trkpt lat="44.05782" lon="3.76835">
        <ele>955</ele>
        <time>2021-05-24T07:54:05Z</time>
      </trkpt>
      <trkpt lat="44.05789" lon="3.76825">
        <ele>955</ele>
        <time>2021-05-24T07:54:14Z</time>
      </trkpt>
      <trkpt lat="44.05795" lon="3.76815">
        <ele>955</ele>
        <time>2021-05-24T07:54:21Z</time>
      </trkpt>
      <trkpt lat="44.05802" lon="3.76805">
        <ele>955</ele>
        <time>2021-05-24T07:54:28Z</time>
      </trkpt>
      <trkpt lat="44.05808" lon="3.76795">
        <ele>956</ele>
        <time>2021-05-24T07:54:35Z</time>
      </trkpt>
      <trkpt lat="44.05816" lon="3.76787">
        <ele>957</ele>
        <time>2021-05-24T07:54:45Z</time>
      </trkpt>
      <trkpt lat="44.05824" lon="3.7678">
        <ele>957</ele>
        <time>2021-05-24T07:54:54Z</time>
      </trkpt>
      <trkpt lat="44.05833" lon="3.76776">
        <ele>957</ele>
        <time>2021-05-24T07:55:01Z</time>
      </trkpt>
      <trkpt lat="44.05842" lon="3.76771">
        <ele>957</ele>
        <time>2021-05-24T07:55:08Z</time>
      </trkpt>
      <trkpt lat="44.05851" lon="3.76766">
        <ele>960</ele>
        <time>2021-05-24T07:55:15Z</time>
      </trkpt>
      <trkpt lat="44.05858" lon="3.76757">
        <ele>960</ele>
        <time>2021-05-24T07:55:23Z</time>
      </trkpt>
      <trkpt lat="44.05866" lon="3.76747">
        <ele>960</ele>
        <time>2021-05-24T07:55:31Z</time>
      </trkpt>
      <trkpt lat="44.05873" lon="3.76739">
        <ele>960</ele>
        <time>2021-05-24T07:55:38Z</time>
      </trkpt>
      <trkpt lat="44.05881" lon="3.76731">
        <ele>960</ele>
        <time>2021-05-24T07:55:46Z</time>
      </trkpt>
      <trkpt lat="44.05889" lon="3.76723">
        <ele>960</ele>
        <time>2021-05-24T07:55:54Z</time>
      </trkpt>
      <trkpt lat="44.05898" lon="3.76717">
        <ele>960</ele>
        <time>2021-05-24T07:56:01Z</time>
      </trkpt>
      <trkpt lat="44.05906" lon="3.76708">
        <ele>960</ele>
        <time>2021-05-24T07:56:09Z</time>
      </trkpt>
      <trkpt lat="44.05914" lon="3.76697">
        <ele>960</ele>
        <time>2021-05-24T07:56:18Z</time>
      </trkpt>
      <trkpt lat="44.05916" lon="3.76694">
        <ele>960</ele>
        <time>2021-05-24T07:56:20Z</time>
      </trkpt>
      <trkpt lat="44.05917" lon="3.76692">
        <ele>960</ele>
        <time>2021-05-24T07:56:22Z</time>
      </trkpt>
      <trkpt lat="44.0592" lon="3.7669">
        <ele>960</ele>
        <time>2021-05-24T07:56:24Z</time>
      </trkpt>
      <trkpt lat="44.05922" lon="3.76686">
        <ele>960</ele>
        <time>2021-05-24T07:56:26Z</time>
      </trkpt>
      <trkpt lat="44.05924" lon="3.76684">
        <ele>960</ele>
        <time>2021-05-24T07:56:28Z</time>
      </trkpt>
      <trkpt lat="44.05925" lon="3.76681">
        <ele>960</ele>
        <time>2021-05-24T07:56:30Z</time>
      </trkpt>
      <trkpt lat="44.05927" lon="3.76679">
        <ele>960</ele>
        <time>2021-05-24T07:56:32Z</time>
      </trkpt>
      <trkpt lat="44.05929" lon="3.76676">
        <ele>960</ele>
        <time>2021-05-24T07:56:34Z</time>
      </trkpt>
      <trkpt lat="44.0593" lon="3.76673">
        <ele>960</ele>
        <time>2021-05-24T07:56:36Z</time>
      </trkpt>
      <trkpt lat="44.05932" lon="3.76669">
        <ele>960</ele>
        <time>2021-05-24T07:56:38Z</time>
      </trkpt>
      <trkpt lat="44.05933" lon="3.76665">
        <ele>960</ele>
        <time>2021-05-24T07:56:40Z</time>
      </trkpt>
      <trkpt lat="44.05935" lon="3.76663">
        <ele>960</ele>
        <time>2021-05-24T07:56:42Z</time>
      </trkpt>
      <trkpt lat="44.05936" lon="3.7666">
        <ele>960</ele>
        <time>2021-05-24T07:56:44Z</time>
      </trkpt>
      <trkpt lat="44.05938" lon="3.76658">
        <ele>960</ele>
        <time>2021-05-24T07:56:46Z</time>
      </trkpt>
      <trkpt lat="44.05939" lon="3.76655">
        <ele>960</ele>
        <time>2021-05-24T07:56:48Z</time>
      </trkpt>
      <trkpt lat="44.0594" lon="3.76653">
        <ele>960</ele>
        <time>2021-05-24T07:56:50Z</time>
      </trkpt>
      <trkpt lat="44.05942" lon="3.7665">
        <ele>960</ele>
        <time>2021-05-24T07:56:52Z</time>
      </trkpt>
      <trkpt lat="44.05943" lon="3.76646">
        <ele>960</ele>
        <time>2021-05-24T07:56:54Z</time>
      </trkpt>
      <trkpt lat="44.05944" lon="3.76643">
        <ele>960</ele>
        <time>2021-05-24T07:56:56Z</time>
      </trkpt>
      <trkpt lat="44.05946" lon="3.76641">
        <ele>960</ele>
        <time>2021-05-24T07:56:58Z</time>
      </trkpt>
      <trkpt lat="44.05947" lon="3.76637">
        <ele>960</ele>
        <time>2021-05-24T07:57:00Z</time>
      </trkpt>
      <trkpt lat="44.05948" lon="3.76635">
        <ele>960</ele>
        <time>2021-05-24T07:57:02Z</time>
      </trkpt>
      <trkpt lat="44.0595" lon="3.76632">
        <ele>960</ele>
        <time>2021-05-24T07:57:04Z</time>
      </trkpt>
      <trkpt lat="44.05952" lon="3.7663">
        <ele>960</ele>
        <time>2021-05-24T07:57:06Z</time>
      </trkpt>
      <trkpt lat="44.05952" lon="3.76627">
        <ele>960</ele>
        <time>2021-05-24T07:57:08Z</time>
      </trkpt>
      <trkpt lat="44.05955" lon="3.76624">
        <ele>960</ele>
        <time>2021-05-24T07:57:10Z</time>
      </trkpt>
      <trkpt lat="44.05956" lon="3.7662">
        <ele>960</ele>
        <time>2021-05-24T07:57:12Z</time>
      </trkpt>
      <trkpt lat="44.05957" lon="3.76617">
        <ele>960</ele>
        <time>2021-05-24T07:57:14Z</time>
      </trkpt>
      <trkpt lat="44.05958" lon="3.76614">
        <ele>960</ele>
        <time>2021-05-24T07:57:16Z</time>
      </trkpt>
      <trkpt lat="44.0596" lon="3.76611">
        <ele>960</ele>
        <time>2021-05-24T07:57:18Z</time>
      </trkpt>
      <trkpt lat="44.05962" lon="3.76608">
        <ele>960</ele>
        <time>2021-05-24T07:57:20Z</time>
      </trkpt>
      <trkpt lat="44.05962" lon="3.76606">
        <ele>960</ele>
        <time>2021-05-24T07:57:22Z</time>
      </trkpt>
      <trkpt lat="44.05966" lon="3.76603">
        <ele>960</ele>
        <time>2021-05-24T07:57:24Z</time>
      </trkpt>
      <trkpt lat="44.05967" lon="3.76601">
        <ele>960</ele>
        <time>2021-05-24T07:57:26Z</time>
      </trkpt>
      <trkpt lat="44.05969" lon="3.76598">
        <ele>960</ele>
        <time>2021-05-24T07:57:28Z</time>
      </trkpt>
      <trkpt lat="44.05972" lon="3.76589">
        <ele>960</ele>
        <time>2021-05-24T07:57:32Z</time>
      </trkpt>
      <trkpt lat="44.05974" lon="3.76587">
        <ele>960</ele>
        <time>2021-05-24T07:57:34Z</time>
      </trkpt>
      <trkpt lat="44.05977" lon="3.76583">
        <ele>960</ele>
        <time>2021-05-24T07:57:36Z</time>
      </trkpt>
      <trkpt lat="44.05979" lon="3.76581">
        <ele>960</ele>
        <time>2021-05-24T07:57:38Z</time>
      </trkpt>
      <trkpt lat="44.0598" lon="3.76579">
        <ele>960</ele>
        <time>2021-05-24T07:57:40Z</time>
      </trkpt>
      <trkpt lat="44.05982" lon="3.76577">
        <ele>960</ele>
        <time>2021-05-24T07:57:42Z</time>
      </trkpt>
      <trkpt lat="44.05984" lon="3.76574">
        <ele>960</ele>
        <time>2021-05-24T07:57:44Z</time>
      </trkpt>
      <trkpt lat="44.05985" lon="3.76572">
        <ele>960</ele>
        <time>2021-05-24T07:57:47Z</time>
      </trkpt>
      <trkpt lat="44.05985" lon="3.76567">
        <ele>960</ele>
        <time>2021-05-24T07:57:48Z</time>
      </trkpt>
      <trkpt lat="44.05986" lon="3.76564">
        <ele>960</ele>
        <time>2021-05-24T07:57:49Z</time>
      </trkpt>
      <trkpt lat="44.05987" lon="3.76561">
        <ele>960</ele>
        <time>2021-05-24T07:57:51Z</time>
      </trkpt>
      <trkpt lat="44.05989" lon="3.76559">
        <ele>960</ele>
        <time>2021-05-24T07:57:53Z</time>
      </trkpt>
      <trkpt lat="44.05994" lon="3.76549">
        <ele>960</ele>
        <time>2021-05-24T07:58:00Z</time>
      </trkpt>
      <trkpt lat="44.05998" lon="3.76546">
        <ele>960</ele>
        <time>2021-05-24T07:58:02Z</time>
      </trkpt>
      <trkpt lat="44.06" lon="3.76545">
        <ele>960</ele>
        <time>2021-05-24T07:58:04Z</time>
      </trkpt>
      <trkpt lat="44.06002" lon="3.76543">
        <ele>960</ele>
        <time>2021-05-24T07:58:06Z</time>
      </trkpt>
      <trkpt lat="44.06004" lon="3.76541">
        <ele>960</ele>
        <time>2021-05-24T07:58:09Z</time>
      </trkpt>
      <trkpt lat="44.06006" lon="3.76539">
        <ele>960</ele>
        <time>2021-05-24T07:58:11Z</time>
      </trkpt>
      <trkpt lat="44.06008" lon="3.76535">
        <ele>960</ele>
        <time>2021-05-24T07:58:14Z</time>
      </trkpt>
      <trkpt lat="44.0601" lon="3.76532">
        <ele>960</ele>
        <time>2021-05-24T07:58:16Z</time>
      </trkpt>
      <trkpt lat="44.0601" lon="3.76529">
        <ele>960</ele>
        <time>2021-05-24T07:58:18Z</time>
      </trkpt>
      <trkpt lat="44.06012" lon="3.76526">
        <ele>960</ele>
        <time>2021-05-24T07:58:20Z</time>
      </trkpt>
      <trkpt lat="44.06014" lon="3.76524">
        <ele>960</ele>
        <time>2021-05-24T07:58:22Z</time>
      </trkpt>
      <trkpt lat="44.06015" lon="3.76522">
        <ele>960</ele>
        <time>2021-05-24T07:58:24Z</time>
      </trkpt>
      <trkpt lat="44.06017" lon="3.76519">
        <ele>960</ele>
        <time>2021-05-24T07:58:26Z</time>
      </trkpt>
      <trkpt lat="44.06019" lon="3.76517">
        <ele>960</ele>
        <time>2021-05-24T07:58:28Z</time>
      </trkpt>
      <trkpt lat="44.06021" lon="3.76514">
        <ele>960</ele>
        <time>2021-05-24T07:58:30Z</time>
      </trkpt>
      <trkpt lat="44.06023" lon="3.76512">
        <ele>960</ele>
        <time>2021-05-24T07:58:32Z</time>
      </trkpt>
      <trkpt lat="44.06025" lon="3.76509">
        <ele>960</ele>
        <time>2021-05-24T07:58:34Z</time>
      </trkpt>
      <trkpt lat="44.06026" lon="3.76507">
        <ele>960</ele>
        <time>2021-05-24T07:58:36Z</time>
      </trkpt>
      <trkpt lat="44.06027" lon="3.76505">
        <ele>960</ele>
        <time>2021-05-24T07:58:38Z</time>
      </trkpt>
      <trkpt lat="44.06029" lon="3.76502">
        <ele>960</ele>
        <time>2021-05-24T07:58:40Z</time>
      </trkpt>
      <trkpt lat="44.06031" lon="3.76499">
        <ele>960</ele>
        <time>2021-05-24T07:58:42Z</time>
      </trkpt>
      <trkpt lat="44.06033" lon="3.76496">
        <ele>960</ele>
        <time>2021-05-24T07:58:44Z</time>
      </trkpt>
      <trkpt lat="44.06034" lon="3.76493">
        <ele>960</ele>
        <time>2021-05-24T07:58:46Z</time>
      </trkpt>
      <trkpt lat="44.06036" lon="3.7649">
        <ele>960</ele>
        <time>2021-05-24T07:58:48Z</time>
      </trkpt>
      <trkpt lat="44.06037" lon="3.76486">
        <ele>960</ele>
        <time>2021-05-24T07:58:50Z</time>
      </trkpt>
      <trkpt lat="44.06038" lon="3.76484">
        <ele>960</ele>
        <time>2021-05-24T07:58:52Z</time>
      </trkpt>
      <trkpt lat="44.06039" lon="3.76481">
        <ele>960</ele>
        <time>2021-05-24T07:58:58Z</time>
      </trkpt>
      <trkpt lat="44.06041" lon="3.76479">
        <ele>960</ele>
        <time>2021-05-24T07:59:01Z</time>
      </trkpt>
      <trkpt lat="44.06043" lon="3.76478">
        <ele>960</ele>
        <time>2021-05-24T07:59:03Z</time>
      </trkpt>
      <trkpt lat="44.06044" lon="3.76476">
        <ele>965</ele>
        <time>2021-05-24T07:59:05Z</time>
      </trkpt>
      <trkpt lat="44.06048" lon="3.76461">
        <ele>965</ele>
        <time>2021-05-24T07:59:13Z</time>
      </trkpt>
      <trkpt lat="44.06054" lon="3.76451">
        <ele>965</ele>
        <time>2021-05-24T07:59:20Z</time>
      </trkpt>
      <trkpt lat="44.06051" lon="3.76452">
        <ele>965</ele>
        <time>2021-05-24T07:59:33Z</time>
      </trkpt>
      <trkpt lat="44.06049" lon="3.76452">
        <ele>965</ele>
        <time>2021-05-24T07:59:49Z</time>
      </trkpt>
      <trkpt lat="44.06051" lon="3.76451">
        <ele>965</ele>
        <time>2021-05-24T08:00:08Z</time>
      </trkpt>
      <trkpt lat="44.06053" lon="3.76449">
        <ele>965</ele>
        <time>2021-05-24T08:00:10Z</time>
      </trkpt>
      <trkpt lat="44.06055" lon="3.76447">
        <ele>965</ele>
        <time>2021-05-24T08:00:12Z</time>
      </trkpt>
      <trkpt lat="44.06057" lon="3.76445">
        <ele>965</ele>
        <time>2021-05-24T08:00:14Z</time>
      </trkpt>
      <trkpt lat="44.06059" lon="3.76443">
        <ele>965</ele>
        <time>2021-05-24T08:00:16Z</time>
      </trkpt>
      <trkpt lat="44.06061" lon="3.76441">
        <ele>965</ele>
        <time>2021-05-24T08:00:18Z</time>
      </trkpt>
      <trkpt lat="44.06063" lon="3.76438">
        <ele>965</ele>
        <time>2021-05-24T08:00:20Z</time>
      </trkpt>
      <trkpt lat="44.06065" lon="3.76436">
        <ele>965</ele>
        <time>2021-05-24T08:00:22Z</time>
      </trkpt>
      <trkpt lat="44.06068" lon="3.76433">
        <ele>965</ele>
        <time>2021-05-24T08:00:24Z</time>
      </trkpt>
      <trkpt lat="44.06069" lon="3.76431">
        <ele>965</ele>
        <time>2021-05-24T08:00:26Z</time>
      </trkpt>
      <trkpt lat="44.0607" lon="3.76429">
        <ele>965</ele>
        <time>2021-05-24T08:00:28Z</time>
      </trkpt>
      <trkpt lat="44.06073" lon="3.76427">
        <ele>965</ele>
        <time>2021-05-24T08:00:30Z</time>
      </trkpt>
      <trkpt lat="44.06076" lon="3.76424">
        <ele>965</ele>
        <time>2021-05-24T08:00:32Z</time>
      </trkpt>
      <trkpt lat="44.06078" lon="3.76422">
        <ele>965</ele>
        <time>2021-05-24T08:00:34Z</time>
      </trkpt>
      <trkpt lat="44.06081" lon="3.76419">
        <ele>965</ele>
        <time>2021-05-24T08:00:36Z</time>
      </trkpt>
      <trkpt lat="44.06083" lon="3.76416">
        <ele>965</ele>
        <time>2021-05-24T08:00:38Z</time>
      </trkpt>
      <trkpt lat="44.06084" lon="3.76414">
        <ele>965</ele>
        <time>2021-05-24T08:00:40Z</time>
      </trkpt>
      <trkpt lat="44.06086" lon="3.76411">
        <ele>965</ele>
        <time>2021-05-24T08:00:42Z</time>
      </trkpt>
      <trkpt lat="44.06089" lon="3.76409">
        <ele>965</ele>
        <time>2021-05-24T08:00:44Z</time>
      </trkpt>
      <trkpt lat="44.06091" lon="3.76407">
        <ele>965</ele>
        <time>2021-05-24T08:00:46Z</time>
      </trkpt>
      <trkpt lat="44.06093" lon="3.76404">
        <ele>965</ele>
        <time>2021-05-24T08:00:48Z</time>
      </trkpt>
      <trkpt lat="44.06095" lon="3.76401">
        <ele>965</ele>
        <time>2021-05-24T08:00:50Z</time>
      </trkpt>
      <trkpt lat="44.06097" lon="3.76399">
        <ele>965</ele>
        <time>2021-05-24T08:00:52Z</time>
      </trkpt>
      <trkpt lat="44.06099" lon="3.76396">
        <ele>965</ele>
        <time>2021-05-24T08:00:54Z</time>
      </trkpt>
      <trkpt lat="44.06101" lon="3.76393">
        <ele>965</ele>
        <time>2021-05-24T08:00:56Z</time>
      </trkpt>
      <trkpt lat="44.06103" lon="3.7639">
        <ele>965</ele>
        <time>2021-05-24T08:00:58Z</time>
      </trkpt>
      <trkpt lat="44.06105" lon="3.76387">
        <ele>965</ele>
        <time>2021-05-24T08:01:00Z</time>
      </trkpt>
      <trkpt lat="44.06106" lon="3.76384">
        <ele>965</ele>
        <time>2021-05-24T08:01:02Z</time>
      </trkpt>
      <trkpt lat="44.06108" lon="3.76381">
        <ele>965</ele>
        <time>2021-05-24T08:01:04Z</time>
      </trkpt>
      <trkpt lat="44.0611" lon="3.76378">
        <ele>965</ele>
        <time>2021-05-24T08:01:06Z</time>
      </trkpt>
      <trkpt lat="44.06112" lon="3.76374">
        <ele>965</ele>
        <time>2021-05-24T08:01:08Z</time>
      </trkpt>
      <trkpt lat="44.06114" lon="3.76372">
        <ele>965</ele>
        <time>2021-05-24T08:01:10Z</time>
      </trkpt>
      <trkpt lat="44.06116" lon="3.76369">
        <ele>965</ele>
        <time>2021-05-24T08:01:12Z</time>
      </trkpt>
      <trkpt lat="44.06118" lon="3.76367">
        <ele>965</ele>
        <time>2021-05-24T08:01:14Z</time>
      </trkpt>
      <trkpt lat="44.0612" lon="3.76364">
        <ele>965</ele>
        <time>2021-05-24T08:01:16Z</time>
      </trkpt>
      <trkpt lat="44.06122" lon="3.76363">
        <ele>965</ele>
        <time>2021-05-24T08:01:18Z</time>
      </trkpt>
      <trkpt lat="44.06124" lon="3.7636">
        <ele>965</ele>
        <time>2021-05-24T08:01:20Z</time>
      </trkpt>
      <trkpt lat="44.06126" lon="3.76358">
        <ele>965</ele>
        <time>2021-05-24T08:01:22Z</time>
      </trkpt>
      <trkpt lat="44.06127" lon="3.76355">
        <ele>965</ele>
        <time>2021-05-24T08:01:24Z</time>
      </trkpt>
      <trkpt lat="44.06129" lon="3.76353">
        <ele>965</ele>
        <time>2021-05-24T08:01:27Z</time>
      </trkpt>
      <trkpt lat="44.06131" lon="3.7635">
        <ele>965</ele>
        <time>2021-05-24T08:01:28Z</time>
      </trkpt>
      <trkpt lat="44.06133" lon="3.76348">
        <ele>965</ele>
        <time>2021-05-24T08:01:30Z</time>
      </trkpt>
      <trkpt lat="44.06135" lon="3.76345">
        <ele>965</ele>
        <time>2021-05-24T08:01:32Z</time>
      </trkpt>
      <trkpt lat="44.06137" lon="3.76343">
        <ele>965</ele>
        <time>2021-05-24T08:01:34Z</time>
      </trkpt>
      <trkpt lat="44.06139" lon="3.7634">
        <ele>965</ele>
        <time>2021-05-24T08:01:36Z</time>
      </trkpt>
      <trkpt lat="44.06142" lon="3.76338">
        <ele>965</ele>
        <time>2021-05-24T08:01:38Z</time>
      </trkpt>
      <trkpt lat="44.06143" lon="3.76335">
        <ele>965</ele>
        <time>2021-05-24T08:01:40Z</time>
      </trkpt>
      <trkpt lat="44.06145" lon="3.76332">
        <ele>965</ele>
        <time>2021-05-24T08:01:42Z</time>
      </trkpt>
      <trkpt lat="44.06147" lon="3.76329">
        <ele>965</ele>
        <time>2021-05-24T08:01:44Z</time>
      </trkpt>
      <trkpt lat="44.06148" lon="3.76326">
        <ele>965</ele>
        <time>2021-05-24T08:01:46Z</time>
      </trkpt>
      <trkpt lat="44.0615" lon="3.76324">
        <ele>965</ele>
        <time>2021-05-24T08:01:48Z</time>
      </trkpt>
      <trkpt lat="44.06152" lon="3.76322">
        <ele>965</ele>
        <time>2021-05-24T08:01:50Z</time>
      </trkpt>
      <trkpt lat="44.06154" lon="3.76319">
        <ele>965</ele>
        <time>2021-05-24T08:01:52Z</time>
      </trkpt>
      <trkpt lat="44.06156" lon="3.76317">
        <ele>965</ele>
        <time>2021-05-24T08:01:54Z</time>
      </trkpt>
      <trkpt lat="44.06158" lon="3.76314">
        <ele>965</ele>
        <time>2021-05-24T08:01:56Z</time>
      </trkpt>
      <trkpt lat="44.06161" lon="3.76312">
        <ele>965</ele>
        <time>2021-05-24T08:01:58Z</time>
      </trkpt>
      <trkpt lat="44.06163" lon="3.7631">
        <ele>965</ele>
        <time>2021-05-24T08:02:00Z</time>
      </trkpt>
      <trkpt lat="44.06165" lon="3.76308">
        <ele>965</ele>
        <time>2021-05-24T08:02:02Z</time>
      </trkpt>
      <trkpt lat="44.06167" lon="3.76307">
        <ele>965</ele>
        <time>2021-05-24T08:02:04Z</time>
      </trkpt>
      <trkpt lat="44.0617" lon="3.76304">
        <ele>965</ele>
        <time>2021-05-24T08:02:06Z</time>
      </trkpt>
      <trkpt lat="44.06172" lon="3.76301">
        <ele>965</ele>
        <time>2021-05-24T08:02:08Z</time>
      </trkpt>
      <trkpt lat="44.06173" lon="3.76298">
        <ele>965</ele>
        <time>2021-05-24T08:02:10Z</time>
      </trkpt>
      <trkpt lat="44.06175" lon="3.76296">
        <ele>965</ele>
        <time>2021-05-24T08:02:12Z</time>
      </trkpt>
      <trkpt lat="44.06176" lon="3.76294">
        <ele>965</ele>
        <time>2021-05-24T08:02:14Z</time>
      </trkpt>
      <trkpt lat="44.06178" lon="3.76292">
        <ele>965</ele>
        <time>2021-05-24T08:02:16Z</time>
      </trkpt>
      <trkpt lat="44.0618" lon="3.76289">
        <ele>965</ele>
        <time>2021-05-24T08:02:18Z</time>
      </trkpt>
      <trkpt lat="44.06182" lon="3.76287">
        <ele>965</ele>
        <time>2021-05-24T08:02:20Z</time>
      </trkpt>
      <trkpt lat="44.06183" lon="3.76286">
        <ele>965</ele>
        <time>2021-05-24T08:02:22Z</time>
      </trkpt>
      <trkpt lat="44.06185" lon="3.76283">
        <ele>965</ele>
        <time>2021-05-24T08:02:24Z</time>
      </trkpt>
      <trkpt lat="44.06187" lon="3.76281">
        <ele>965</ele>
        <time>2021-05-24T08:02:26Z</time>
      </trkpt>
      <trkpt lat="44.06189" lon="3.76279">
        <ele>965</ele>
        <time>2021-05-24T08:02:28Z</time>
      </trkpt>
      <trkpt lat="44.06191" lon="3.76276">
        <ele>965</ele>
        <time>2021-05-24T08:02:30Z</time>
      </trkpt>
      <trkpt lat="44.06193" lon="3.76274">
        <ele>965</ele>
        <time>2021-05-24T08:02:32Z</time>
      </trkpt>
      <trkpt lat="44.06195" lon="3.76273">
        <ele>965</ele>
        <time>2021-05-24T08:02:34Z</time>
      </trkpt>
      <trkpt lat="44.06197" lon="3.76271">
        <ele>965</ele>
        <time>2021-05-24T08:02:36Z</time>
      </trkpt>
      <trkpt lat="44.06199" lon="3.7627">
        <ele>965</ele>
        <time>2021-05-24T08:02:38Z</time>
      </trkpt>
      <trkpt lat="44.06201" lon="3.76269">
        <ele>965</ele>
        <time>2021-05-24T08:02:40Z</time>
      </trkpt>
      <trkpt lat="44.06203" lon="3.76269">
        <ele>965</ele>
        <time>2021-05-24T08:02:43Z</time>
      </trkpt>
      <trkpt lat="44.06205" lon="3.76269">
        <ele>965</ele>
        <time>2021-05-24T08:02:47Z</time>
      </trkpt>
      <trkpt lat="44.06207" lon="3.76267">
        <ele>965</ele>
        <time>2021-05-24T08:02:50Z</time>
      </trkpt>
      <trkpt lat="44.06209" lon="3.76266">
        <ele>965</ele>
        <time>2021-05-24T08:02:53Z</time>
      </trkpt>
      <trkpt lat="44.06211" lon="3.76265">
        <ele>967</ele>
        <time>2021-05-24T08:02:55Z</time>
      </trkpt>
      <trkpt lat="44.06214" lon="3.76264">
        <ele>967</ele>
        <time>2021-05-24T08:02:58Z</time>
      </trkpt>
      <trkpt lat="44.06215" lon="3.76264">
        <ele>967</ele>
        <time>2021-05-24T08:03:00Z</time>
      </trkpt>
      <trkpt lat="44.06218" lon="3.76262">
        <ele>967</ele>
        <time>2021-05-24T08:03:03Z</time>
      </trkpt>
      <trkpt lat="44.0622" lon="3.76261">
        <ele>967</ele>
        <time>2021-05-24T08:03:06Z</time>
      </trkpt>
      <trkpt lat="44.06221" lon="3.7626">
        <ele>967</ele>
        <time>2021-05-24T08:03:09Z</time>
      </trkpt>
      <trkpt lat="44.06224" lon="3.76259">
        <ele>967</ele>
        <time>2021-05-24T08:03:13Z</time>
      </trkpt>
      <trkpt lat="44.06226" lon="3.76256">
        <ele>967</ele>
        <time>2021-05-24T08:03:16Z</time>
      </trkpt>
      <trkpt lat="44.06228" lon="3.76254">
        <ele>967</ele>
        <time>2021-05-24T08:03:19Z</time>
      </trkpt>
      <trkpt lat="44.06229" lon="3.76252">
        <ele>967</ele>
        <time>2021-05-24T08:03:21Z</time>
      </trkpt>
      <trkpt lat="44.06231" lon="3.76251">
        <ele>967</ele>
        <time>2021-05-24T08:03:23Z</time>
      </trkpt>
      <trkpt lat="44.06233" lon="3.76251">
        <ele>972</ele>
        <time>2021-05-24T08:03:25Z</time>
      </trkpt>
      <trkpt lat="44.06235" lon="3.7625">
        <ele>972</ele>
        <time>2021-05-24T08:03:27Z</time>
      </trkpt>
      <trkpt lat="44.06236" lon="3.76248">
        <ele>972</ele>
        <time>2021-05-24T08:03:29Z</time>
      </trkpt>
      <trkpt lat="44.06239" lon="3.76247">
        <ele>972</ele>
        <time>2021-05-24T08:03:32Z</time>
      </trkpt>
      <trkpt lat="44.06242" lon="3.76246">
        <ele>973</ele>
        <time>2021-05-24T08:03:35Z</time>
      </trkpt>
      <trkpt lat="44.06244" lon="3.76245">
        <ele>973</ele>
        <time>2021-05-24T08:03:37Z</time>
      </trkpt>
      <trkpt lat="44.06245" lon="3.76244">
        <ele>973</ele>
        <time>2021-05-24T08:03:39Z</time>
      </trkpt>
      <trkpt lat="44.06248" lon="3.76243">
        <ele>973</ele>
        <time>2021-05-24T08:03:41Z</time>
      </trkpt>
      <trkpt lat="44.0625" lon="3.76241">
        <ele>973</ele>
        <time>2021-05-24T08:03:44Z</time>
      </trkpt>
      <trkpt lat="44.06252" lon="3.7624">
        <ele>973</ele>
        <time>2021-05-24T08:03:47Z</time>
      </trkpt>
      <trkpt lat="44.06255" lon="3.76239">
        <ele>973</ele>
        <time>2021-05-24T08:03:50Z</time>
      </trkpt>
      <trkpt lat="44.06256" lon="3.76238">
        <ele>973</ele>
        <time>2021-05-24T08:03:52Z</time>
      </trkpt>
      <trkpt lat="44.06258" lon="3.76236">
        <ele>973</ele>
        <time>2021-05-24T08:03:56Z</time>
      </trkpt>
      <trkpt lat="44.0626" lon="3.76235">
        <ele>973</ele>
        <time>2021-05-24T08:03:59Z</time>
      </trkpt>
      <trkpt lat="44.06262" lon="3.76233">
        <ele>973</ele>
        <time>2021-05-24T08:04:01Z</time>
      </trkpt>
      <trkpt lat="44.06264" lon="3.76232">
        <ele>973</ele>
        <time>2021-05-24T08:04:03Z</time>
      </trkpt>
      <trkpt lat="44.06267" lon="3.76231">
        <ele>976</ele>
        <time>2021-05-24T08:04:05Z</time>
      </trkpt>
      <trkpt lat="44.06268" lon="3.7623">
        <ele>976</ele>
        <time>2021-05-24T08:04:07Z</time>
      </trkpt>
      <trkpt lat="44.0627" lon="3.76228">
        <ele>976</ele>
        <time>2021-05-24T08:04:09Z</time>
      </trkpt>
      <trkpt lat="44.06272" lon="3.76227">
        <ele>976</ele>
        <time>2021-05-24T08:04:11Z</time>
      </trkpt>
      <trkpt lat="44.06274" lon="3.76225">
        <ele>976</ele>
        <time>2021-05-24T08:04:13Z</time>
      </trkpt>
      <trkpt lat="44.06276" lon="3.76225">
        <ele>976</ele>
        <time>2021-05-24T08:04:15Z</time>
      </trkpt>
      <trkpt lat="44.06278" lon="3.76224">
        <ele>976</ele>
        <time>2021-05-24T08:04:18Z</time>
      </trkpt>
      <trkpt lat="44.06281" lon="3.76224">
        <ele>976</ele>
        <time>2021-05-24T08:04:19Z</time>
      </trkpt>
      <trkpt lat="44.06283" lon="3.76223">
        <ele>976</ele>
        <time>2021-05-24T08:04:22Z</time>
      </trkpt>
      <trkpt lat="44.06285" lon="3.76222">
        <ele>976</ele>
        <time>2021-05-24T08:04:24Z</time>
      </trkpt>
      <trkpt lat="44.06288" lon="3.76221">
        <ele>976</ele>
        <time>2021-05-24T08:04:26Z</time>
      </trkpt>
      <trkpt lat="44.0629" lon="3.7622">
        <ele>976</ele>
        <time>2021-05-24T08:04:28Z</time>
      </trkpt>
      <trkpt lat="44.06292" lon="3.76219">
        <ele>976</ele>
        <time>2021-05-24T08:04:31Z</time>
      </trkpt>
      <trkpt lat="44.06294" lon="3.76217">
        <ele>976</ele>
        <time>2021-05-24T08:04:34Z</time>
      </trkpt>
      <trkpt lat="44.06297" lon="3.76216">
        <ele>976</ele>
        <time>2021-05-24T08:04:36Z</time>
      </trkpt>
      <trkpt lat="44.06299" lon="3.76214">
        <ele>976</ele>
        <time>2021-05-24T08:04:39Z</time>
      </trkpt>
      <trkpt lat="44.06302" lon="3.76213">
        <ele>976</ele>
        <time>2021-05-24T08:04:42Z</time>
      </trkpt>
      <trkpt lat="44.0631" lon="3.76209">
        <ele>976</ele>
        <time>2021-05-24T08:04:52Z</time>
      </trkpt>
      <trkpt lat="44.06319" lon="3.76204">
        <ele>976</ele>
        <time>2021-05-24T08:04:58Z</time>
      </trkpt>
      <trkpt lat="44.06327" lon="3.76195">
        <ele>980</ele>
        <time>2021-05-24T08:05:05Z</time>
      </trkpt>
      <trkpt lat="44.06335" lon="3.76188">
        <ele>981</ele>
        <time>2021-05-24T08:05:15Z</time>
      </trkpt>
      <trkpt lat="44.06344" lon="3.76179">
        <ele>981</ele>
        <time>2021-05-24T08:05:24Z</time>
      </trkpt>
      <trkpt lat="44.06353" lon="3.76175">
        <ele>981</ele>
        <time>2021-05-24T08:05:32Z</time>
      </trkpt>
      <trkpt lat="44.06362" lon="3.76175">
        <ele>981</ele>
        <time>2021-05-24T08:05:42Z</time>
      </trkpt>
      <trkpt lat="44.06371" lon="3.76168">
        <ele>981</ele>
        <time>2021-05-24T08:05:50Z</time>
      </trkpt>
      <trkpt lat="44.06381" lon="3.76168">
        <ele>981</ele>
        <time>2021-05-24T08:05:58Z</time>
      </trkpt>
      <trkpt lat="44.0639" lon="3.76163">
        <ele>981</ele>
        <time>2021-05-24T08:06:08Z</time>
      </trkpt>
      <trkpt lat="44.06399" lon="3.76159">
        <ele>981</ele>
        <time>2021-05-24T08:06:20Z</time>
      </trkpt>
      <trkpt lat="44.06408" lon="3.76152">
        <ele>981</ele>
        <time>2021-05-24T08:06:28Z</time>
      </trkpt>
      <trkpt lat="44.06418" lon="3.7615">
        <ele>981</ele>
        <time>2021-05-24T08:06:36Z</time>
      </trkpt>
      <trkpt lat="44.06428" lon="3.76148">
        <ele>981</ele>
        <time>2021-05-24T08:06:44Z</time>
      </trkpt>
      <trkpt lat="44.06437" lon="3.76141">
        <ele>981</ele>
        <time>2021-05-24T08:06:54Z</time>
      </trkpt>
      <trkpt lat="44.06445" lon="3.76136">
        <ele>981</ele>
        <time>2021-05-24T08:07:00Z</time>
      </trkpt>
      <trkpt lat="44.06453" lon="3.76131">
        <ele>981</ele>
        <time>2021-05-24T08:07:12Z</time>
      </trkpt>
      <trkpt lat="44.06463" lon="3.76129">
        <ele>981</ele>
        <time>2021-05-24T08:07:22Z</time>
      </trkpt>
      <trkpt lat="44.06472" lon="3.76125">
        <ele>981</ele>
        <time>2021-05-24T08:07:31Z</time>
      </trkpt>
      <trkpt lat="44.0648" lon="3.76117">
        <ele>981</ele>
        <time>2021-05-24T08:07:41Z</time>
      </trkpt>
      <trkpt lat="44.06487" lon="3.76109">
        <ele>981</ele>
        <time>2021-05-24T08:07:52Z</time>
      </trkpt>
      <trkpt lat="44.06495" lon="3.761">
        <ele>981</ele>
        <time>2021-05-24T08:08:03Z</time>
      </trkpt>
      <trkpt lat="44.06504" lon="3.76096">
        <ele>981</ele>
        <time>2021-05-24T08:08:13Z</time>
      </trkpt>
      <trkpt lat="44.06513" lon="3.76093">
        <ele>981</ele>
        <time>2021-05-24T08:08:26Z</time>
      </trkpt>
      <trkpt lat="44.06517" lon="3.76081">
        <ele>981</ele>
        <time>2021-05-24T08:08:40Z</time>
      </trkpt>
      <trkpt lat="44.06524" lon="3.76073">
        <ele>981</ele>
        <time>2021-05-24T08:08:53Z</time>
      </trkpt>
      <trkpt lat="44.06526" lon="3.7606">
        <ele>981</ele>
        <time>2021-05-24T08:09:02Z</time>
      </trkpt>
      <trkpt lat="44.06531" lon="3.7605">
        <ele>1000</ele>
        <time>2021-05-24T08:09:15Z</time>
      </trkpt>
      <trkpt lat="44.06539" lon="3.76041">
        <ele>1000</ele>
        <time>2021-05-24T08:09:30Z</time>
      </trkpt>
      <trkpt lat="44.06545" lon="3.76031">
        <ele>1000</ele>
        <time>2021-05-24T08:09:43Z</time>
      </trkpt>
      <trkpt lat="44.06548" lon="3.76019">
        <ele>1007</ele>
        <time>2021-05-24T08:09:55Z</time>
      </trkpt>
      <trkpt lat="44.06552" lon="3.76006">
        <ele>1007</ele>
        <time>2021-05-24T08:10:10Z</time>
      </trkpt>
      <trkpt lat="44.06555" lon="3.75994">
        <ele>1007</ele>
        <time>2021-05-24T08:10:22Z</time>
      </trkpt>
      <trkpt lat="44.06557" lon="3.75981">
        <ele>1011</ele>
        <time>2021-05-24T08:10:35Z</time>
      </trkpt>
      <trkpt lat="44.0656" lon="3.75968">
        <ele>1011</ele>
        <time>2021-05-24T08:10:43Z</time>
      </trkpt>
      <trkpt lat="44.06562" lon="3.75955">
        <ele>1013</ele>
        <time>2021-05-24T08:10:55Z</time>
      </trkpt>
      <trkpt lat="44.06565" lon="3.75943">
        <ele>1013</ele>
        <time>2021-05-24T08:11:09Z</time>
      </trkpt>
      <trkpt lat="44.06565" lon="3.7593">
        <ele>1013</ele>
        <time>2021-05-24T08:11:19Z</time>
      </trkpt>
      <trkpt lat="44.06568" lon="3.75918">
        <ele>1013</ele>
        <time>2021-05-24T08:11:29Z</time>
      </trkpt>
      <trkpt lat="44.06571" lon="3.75906">
        <ele>1013</ele>
        <time>2021-05-24T08:11:38Z</time>
      </trkpt>
      <trkpt lat="44.06572" lon="3.75893">
        <ele>1013</ele>
        <time>2021-05-24T08:11:47Z</time>
      </trkpt>
      <trkpt lat="44.06574" lon="3.75878">
        <ele>1013</ele>
        <time>2021-05-24T08:11:58Z</time>
      </trkpt>
      <trkpt lat="44.06575" lon="3.75866">
        <ele>1013</ele>
        <time>2021-05-24T08:12:07Z</time>
      </trkpt>
      <trkpt lat="44.0658" lon="3.75855">
        <ele>1013</ele>
        <time>2021-05-24T08:12:24Z</time>
      </trkpt>
      <trkpt lat="44.06581" lon="3.75841">
        <ele>1013</ele>
        <time>2021-05-24T08:12:33Z</time>
      </trkpt>
      <trkpt lat="44.06583" lon="3.75829">
        <ele>1013</ele>
        <time>2021-05-24T08:12:47Z</time>
      </trkpt>
      <trkpt lat="44.06583" lon="3.75816">
        <ele>1013</ele>
        <time>2021-05-24T08:12:56Z</time>
      </trkpt>
      <trkpt lat="44.06582" lon="3.75803">
        <ele>1013</ele>
        <time>2021-05-24T08:13:13Z</time>
      </trkpt>
      <trkpt lat="44.06583" lon="3.7579">
        <ele>1033</ele>
        <time>2021-05-24T08:13:25Z</time>
      </trkpt>
      <trkpt lat="44.06584" lon="3.75776">
        <ele>1033</ele>
        <time>2021-05-24T08:13:34Z</time>
      </trkpt>
      <trkpt lat="44.06589" lon="3.75766">
        <ele>1033</ele>
        <time>2021-05-24T08:13:51Z</time>
      </trkpt>
      <trkpt lat="44.06595" lon="3.75753">
        <ele>1033</ele>
        <time>2021-05-24T08:14:10Z</time>
      </trkpt>
      <trkpt lat="44.06595" lon="3.7574">
        <ele>1033</ele>
        <time>2021-05-24T08:14:23Z</time>
      </trkpt>
      <trkpt lat="44.06596" lon="3.75726">
        <ele>1033</ele>
        <time>2021-05-24T08:14:37Z</time>
      </trkpt>
      <trkpt lat="44.066" lon="3.75714">
        <ele>1033</ele>
        <time>2021-05-24T08:14:51Z</time>
      </trkpt>
      <trkpt lat="44.06605" lon="3.75703">
        <ele>1033</ele>
        <time>2021-05-24T08:15:10Z</time>
      </trkpt>
      <trkpt lat="44.06609" lon="3.7569">
        <ele>1033</ele>
        <time>2021-05-24T08:15:23Z</time>
      </trkpt>
      <trkpt lat="44.06613" lon="3.75679">
        <ele>1033</ele>
        <time>2021-05-24T08:15:33Z</time>
      </trkpt>
      <trkpt lat="44.06617" lon="3.75667">
        <ele>1033</ele>
        <time>2021-05-24T08:15:48Z</time>
      </trkpt>
      <trkpt lat="44.06616" lon="3.75654">
        <ele>1033</ele>
        <time>2021-05-24T08:15:59Z</time>
      </trkpt>
      <trkpt lat="44.06619" lon="3.75641">
        <ele>1033</ele>
        <time>2021-05-24T08:16:11Z</time>
      </trkpt>
      <trkpt lat="44.06622" lon="3.75629">
        <ele>1033</ele>
        <time>2021-05-24T08:16:22Z</time>
      </trkpt>
      <trkpt lat="44.06626" lon="3.75617">
        <ele>1033</ele>
        <time>2021-05-24T08:16:36Z</time>
      </trkpt>
      <trkpt lat="44.06631" lon="3.75606">
        <ele>1033</ele>
        <time>2021-05-24T08:16:49Z</time>
      </trkpt>
      <trkpt lat="44.06638" lon="3.75597">
        <ele>1033</ele>
        <time>2021-05-24T08:17:00Z</time>
      </trkpt>
      <trkpt lat="44.06645" lon="3.75589">
        <ele>1033</ele>
        <time>2021-05-24T08:17:13Z</time>
      </trkpt>
      <trkpt lat="44.06652" lon="3.7558">
        <ele>1068</ele>
        <time>2021-05-24T08:17:25Z</time>
      </trkpt>
      <trkpt lat="44.06658" lon="3.75571">
        <ele>1068</ele>
        <time>2021-05-24T08:17:37Z</time>
      </trkpt>
      <trkpt lat="44.06666" lon="3.75564">
        <ele>1068</ele>
        <time>2021-05-24T08:17:51Z</time>
      </trkpt>
      <trkpt lat="44.06672" lon="3.75555">
        <ele>1073</ele>
        <time>2021-05-24T08:18:05Z</time>
      </trkpt>
      <trkpt lat="44.06677" lon="3.75544">
        <ele>1073</ele>
        <time>2021-05-24T08:18:16Z</time>
      </trkpt>
      <trkpt lat="44.0668" lon="3.75532">
        <ele>1073</ele>
        <time>2021-05-24T08:18:29Z</time>
      </trkpt>
      <trkpt lat="44.06685" lon="3.75518">
        <ele>1073</ele>
        <time>2021-05-24T08:18:42Z</time>
      </trkpt>
      <trkpt lat="44.06689" lon="3.75506">
        <ele>1073</ele>
        <time>2021-05-24T08:18:52Z</time>
      </trkpt>
      <trkpt lat="44.06696" lon="3.75497">
        <ele>1080</ele>
        <time>2021-05-24T08:19:05Z</time>
      </trkpt>
      <trkpt lat="44.06701" lon="3.75486">
        <ele>1080</ele>
        <time>2021-05-24T08:19:20Z</time>
      </trkpt>
      <trkpt lat="44.06707" lon="3.75476">
        <ele>1080</ele>
        <time>2021-05-24T08:19:33Z</time>
      </trkpt>
      <trkpt lat="44.06712" lon="3.75465">
        <ele>1080</ele>
        <time>2021-05-24T08:19:48Z</time>
      </trkpt>
      <trkpt lat="44.06717" lon="3.75453">
        <ele>1080</ele>
        <time>2021-05-24T08:20:00Z</time>
      </trkpt>
      <trkpt lat="44.06723" lon="3.75443">
        <ele>1080</ele>
        <time>2021-05-24T08:20:17Z</time>
      </trkpt>
      <trkpt lat="44.06729" lon="3.75434">
        <ele>1080</ele>
        <time>2021-05-24T08:20:30Z</time>
      </trkpt>
      <trkpt lat="44.06733" lon="3.75423">
        <ele>1080</ele>
        <time>2021-05-24T08:20:44Z</time>
      </trkpt>
      <trkpt lat="44.0674" lon="3.75414">
        <ele>1080</ele>
        <time>2021-05-24T08:20:56Z</time>
      </trkpt>
      <trkpt lat="44.06748" lon="3.75408">
        <ele>1080</ele>
        <time>2021-05-24T08:21:11Z</time>
      </trkpt>
      <trkpt lat="44.06759" lon="3.75402">
        <ele>1080</ele>
        <time>2021-05-24T08:21:26Z</time>
      </trkpt>
      <trkpt lat="44.06761" lon="3.75402">
        <ele>1080</ele>
        <time>2021-05-24T08:21:29Z</time>
      </trkpt>
      <trkpt lat="44.06763" lon="3.75402">
        <ele>1080</ele>
        <time>2021-05-24T08:21:32Z</time>
      </trkpt>
      <trkpt lat="44.06779" lon="3.75405">
        <ele>1080</ele>
        <time>2021-05-24T08:22:12Z</time>
      </trkpt>
      <trkpt lat="44.06781" lon="3.75405">
        <ele>1080</ele>
        <time>2021-05-24T08:22:27Z</time>
      </trkpt>
      <trkpt lat="44.06783" lon="3.75405">
        <ele>1080</ele>
        <time>2021-05-24T08:22:29Z</time>
      </trkpt>
      <trkpt lat="44.06785" lon="3.75405">
        <ele>1080</ele>
        <time>2021-05-24T08:22:32Z</time>
      </trkpt>
      <trkpt lat="44.06787" lon="3.75404">
        <ele>1080</ele>
        <time>2021-05-24T08:22:36Z</time>
      </trkpt>
      <trkpt lat="44.06789" lon="3.75402">
        <ele>1080</ele>
        <time>2021-05-24T08:22:39Z</time>
      </trkpt>
      <trkpt lat="44.06792" lon="3.75401">
        <ele>1080</ele>
        <time>2021-05-24T08:22:42Z</time>
      </trkpt>
      <trkpt lat="44.06793" lon="3.75401">
        <ele>1080</ele>
        <time>2021-05-24T08:22:44Z</time>
      </trkpt>
      <trkpt lat="44.06796" lon="3.75399">
        <ele>1080</ele>
        <time>2021-05-24T08:22:47Z</time>
      </trkpt>
      <trkpt lat="44.06798" lon="3.75399">
        <ele>1080</ele>
        <time>2021-05-24T08:22:49Z</time>
      </trkpt>
      <trkpt lat="44.068" lon="3.75399">
        <ele>1080</ele>
        <time>2021-05-24T08:22:51Z</time>
      </trkpt>
      <trkpt lat="44.06802" lon="3.75399">
        <ele>1080</ele>
        <time>2021-05-24T08:22:54Z</time>
      </trkpt>
      <trkpt lat="44.06805" lon="3.75399">
        <ele>1080</ele>
        <time>2021-05-24T08:22:57Z</time>
      </trkpt>
      <trkpt lat="44.06807" lon="3.75399">
        <ele>1080</ele>
        <time>2021-05-24T08:23:00Z</time>
      </trkpt>
      <trkpt lat="44.0681" lon="3.75399">
        <ele>1080</ele>
        <time>2021-05-24T08:23:03Z</time>
      </trkpt>
      <trkpt lat="44.06812" lon="3.75399">
        <ele>1104</ele>
        <time>2021-05-24T08:23:05Z</time>
      </trkpt>
      <trkpt lat="44.06814" lon="3.75399">
        <ele>1104</ele>
        <time>2021-05-24T08:23:08Z</time>
      </trkpt>
      <trkpt lat="44.06816" lon="3.75399">
        <ele>1104</ele>
        <time>2021-05-24T08:23:11Z</time>
      </trkpt>
      <trkpt lat="44.06818" lon="3.75398">
        <ele>1104</ele>
        <time>2021-05-24T08:23:14Z</time>
      </trkpt>
      <trkpt lat="44.06821" lon="3.75398">
        <ele>1104</ele>
        <time>2021-05-24T08:23:17Z</time>
      </trkpt>
      <trkpt lat="44.06823" lon="3.75398">
        <ele>1104</ele>
        <time>2021-05-24T08:23:21Z</time>
      </trkpt>
      <trkpt lat="44.06825" lon="3.75398">
        <ele>1104</ele>
        <time>2021-05-24T08:23:24Z</time>
      </trkpt>
      <trkpt lat="44.06827" lon="3.75398">
        <ele>1104</ele>
        <time>2021-05-24T08:23:27Z</time>
      </trkpt>
      <trkpt lat="44.06829" lon="3.75398">
        <ele>1104</ele>
        <time>2021-05-24T08:23:33Z</time>
      </trkpt>
      <trkpt lat="44.06831" lon="3.75397">
        <ele>1104</ele>
        <time>2021-05-24T08:23:37Z</time>
      </trkpt>
      <trkpt lat="44.06832" lon="3.75397">
        <ele>1104</ele>
        <time>2021-05-24T08:23:40Z</time>
      </trkpt>
      <trkpt lat="44.06835" lon="3.75396">
        <ele>1104</ele>
        <time>2021-05-24T08:23:43Z</time>
      </trkpt>
      <trkpt lat="44.06837" lon="3.75396">
        <ele>1104</ele>
        <time>2021-05-24T08:23:46Z</time>
      </trkpt>
      <trkpt lat="44.06839" lon="3.75396">
        <ele>1104</ele>
        <time>2021-05-24T08:23:49Z</time>
      </trkpt>
      <trkpt lat="44.06841" lon="3.75397">
        <ele>1104</ele>
        <time>2021-05-24T08:23:52Z</time>
      </trkpt>
      <trkpt lat="44.06843" lon="3.75396">
        <ele>1110</ele>
        <time>2021-05-24T08:23:55Z</time>
      </trkpt>
      <trkpt lat="44.06845" lon="3.75396">
        <ele>1110</ele>
        <time>2021-05-24T08:23:58Z</time>
      </trkpt>
      <trkpt lat="44.06848" lon="3.75396">
        <ele>1110</ele>
        <time>2021-05-24T08:24:01Z</time>
      </trkpt>
      <trkpt lat="44.0685" lon="3.75396">
        <ele>1110</ele>
        <time>2021-05-24T08:24:04Z</time>
      </trkpt>
      <trkpt lat="44.06853" lon="3.75397">
        <ele>1110</ele>
        <time>2021-05-24T08:24:07Z</time>
      </trkpt>
      <trkpt lat="44.06855" lon="3.75396">
        <ele>1110</ele>
        <time>2021-05-24T08:24:10Z</time>
      </trkpt>
      <trkpt lat="44.06857" lon="3.75398">
        <ele>1110</ele>
        <time>2021-05-24T08:24:13Z</time>
      </trkpt>
      <trkpt lat="44.0686" lon="3.75398">
        <ele>1110</ele>
        <time>2021-05-24T08:24:16Z</time>
      </trkpt>
      <trkpt lat="44.06861" lon="3.75398">
        <ele>1110</ele>
        <time>2021-05-24T08:24:19Z</time>
      </trkpt>
      <trkpt lat="44.06864" lon="3.75399">
        <ele>1110</ele>
        <time>2021-05-24T08:24:22Z</time>
      </trkpt>
      <trkpt lat="44.06866" lon="3.75399">
        <ele>1110</ele>
        <time>2021-05-24T08:24:26Z</time>
      </trkpt>
      <trkpt lat="44.06868" lon="3.75399">
        <ele>1110</ele>
        <time>2021-05-24T08:24:29Z</time>
      </trkpt>
      <trkpt lat="44.0687" lon="3.75398">
        <ele>1110</ele>
        <time>2021-05-24T08:24:31Z</time>
      </trkpt>
      <trkpt lat="44.06872" lon="3.75397">
        <ele>1110</ele>
        <time>2021-05-24T08:24:34Z</time>
      </trkpt>
      <trkpt lat="44.06874" lon="3.75397">
        <ele>1110</ele>
        <time>2021-05-24T08:24:37Z</time>
      </trkpt>
      <trkpt lat="44.06876" lon="3.75397">
        <ele>1110</ele>
        <time>2021-05-24T08:24:40Z</time>
      </trkpt>
      <trkpt lat="44.06878" lon="3.75397">
        <ele>1110</ele>
        <time>2021-05-24T08:24:43Z</time>
      </trkpt>
      <trkpt lat="44.0688" lon="3.75398">
        <ele>1115</ele>
        <time>2021-05-24T08:24:45Z</time>
      </trkpt>
      <trkpt lat="44.06883" lon="3.75399">
        <ele>1115</ele>
        <time>2021-05-24T08:24:48Z</time>
      </trkpt>
      <trkpt lat="44.06885" lon="3.75401">
        <ele>1115</ele>
        <time>2021-05-24T08:24:50Z</time>
      </trkpt>
      <trkpt lat="44.06886" lon="3.75402">
        <ele>1115</ele>
        <time>2021-05-24T08:24:53Z</time>
      </trkpt>
      <trkpt lat="44.06888" lon="3.75404">
        <ele>1115</ele>
        <time>2021-05-24T08:24:54Z</time>
      </trkpt>
      <trkpt lat="44.0689" lon="3.75406">
        <ele>1115</ele>
        <time>2021-05-24T08:24:56Z</time>
      </trkpt>
      <trkpt lat="44.06892" lon="3.75407">
        <ele>1115</ele>
        <time>2021-05-24T08:24:58Z</time>
      </trkpt>
      <trkpt lat="44.06894" lon="3.7541">
        <ele>1115</ele>
        <time>2021-05-24T08:25:00Z</time>
      </trkpt>
      <trkpt lat="44.06895" lon="3.75412">
        <ele>1115</ele>
        <time>2021-05-24T08:25:02Z</time>
      </trkpt>
      <trkpt lat="44.06896" lon="3.75414">
        <ele>1115</ele>
        <time>2021-05-24T08:25:04Z</time>
      </trkpt>
      <trkpt lat="44.06898" lon="3.75417">
        <ele>1115</ele>
        <time>2021-05-24T08:25:06Z</time>
      </trkpt>
      <trkpt lat="44.06899" lon="3.75419">
        <ele>1115</ele>
        <time>2021-05-24T08:25:08Z</time>
      </trkpt>
      <trkpt lat="44.069" lon="3.75422">
        <ele>1115</ele>
        <time>2021-05-24T08:25:10Z</time>
      </trkpt>
      <trkpt lat="44.069" lon="3.75424">
        <ele>1115</ele>
        <time>2021-05-24T08:25:12Z</time>
      </trkpt>
      <trkpt lat="44.06901" lon="3.75427">
        <ele>1115</ele>
        <time>2021-05-24T08:25:14Z</time>
      </trkpt>
      <trkpt lat="44.06902" lon="3.7543">
        <ele>1115</ele>
        <time>2021-05-24T08:25:16Z</time>
      </trkpt>
      <trkpt lat="44.06903" lon="3.75433">
        <ele>1115</ele>
        <time>2021-05-24T08:25:18Z</time>
      </trkpt>
      <trkpt lat="44.06903" lon="3.75436">
        <ele>1115</ele>
        <time>2021-05-24T08:25:20Z</time>
      </trkpt>
      <trkpt lat="44.06904" lon="3.75438">
        <ele>1115</ele>
        <time>2021-05-24T08:25:22Z</time>
      </trkpt>
      <trkpt lat="44.06905" lon="3.75441">
        <ele>1115</ele>
        <time>2021-05-24T08:25:24Z</time>
      </trkpt>
      <trkpt lat="44.06906" lon="3.75444">
        <ele>1115</ele>
        <time>2021-05-24T08:25:26Z</time>
      </trkpt>
      <trkpt lat="44.06908" lon="3.75446">
        <ele>1115</ele>
        <time>2021-05-24T08:25:28Z</time>
      </trkpt>
      <trkpt lat="44.06909" lon="3.75449">
        <ele>1115</ele>
        <time>2021-05-24T08:25:31Z</time>
      </trkpt>
      <trkpt lat="44.0691" lon="3.75451">
        <ele>1115</ele>
        <time>2021-05-24T08:25:32Z</time>
      </trkpt>
      <trkpt lat="44.06912" lon="3.75453">
        <ele>1115</ele>
        <time>2021-05-24T08:25:34Z</time>
      </trkpt>
      <trkpt lat="44.06913" lon="3.75455">
        <ele>1115</ele>
        <time>2021-05-24T08:25:36Z</time>
      </trkpt>
      <trkpt lat="44.06915" lon="3.75457">
        <ele>1115</ele>
        <time>2021-05-24T08:25:38Z</time>
      </trkpt>
      <trkpt lat="44.06917" lon="3.75459">
        <ele>1115</ele>
        <time>2021-05-24T08:25:40Z</time>
      </trkpt>
      <trkpt lat="44.06919" lon="3.75461">
        <ele>1115</ele>
        <time>2021-05-24T08:25:42Z</time>
      </trkpt>
      <trkpt lat="44.06921" lon="3.75462">
        <ele>1115</ele>
        <time>2021-05-24T08:25:44Z</time>
      </trkpt>
      <trkpt lat="44.06923" lon="3.75463">
        <ele>1115</ele>
        <time>2021-05-24T08:25:46Z</time>
      </trkpt>
      <trkpt lat="44.06925" lon="3.75463">
        <ele>1115</ele>
        <time>2021-05-24T08:25:48Z</time>
      </trkpt>
      <trkpt lat="44.06927" lon="3.75464">
        <ele>1115</ele>
        <time>2021-05-24T08:25:50Z</time>
      </trkpt>
      <trkpt lat="44.06929" lon="3.75463">
        <ele>1115</ele>
        <time>2021-05-24T08:25:52Z</time>
      </trkpt>
      <trkpt lat="44.06932" lon="3.75463">
        <ele>1115</ele>
        <time>2021-05-24T08:25:54Z</time>
      </trkpt>
      <trkpt lat="44.06934" lon="3.75463">
        <ele>1115</ele>
        <time>2021-05-24T08:25:56Z</time>
      </trkpt>
      <trkpt lat="44.06936" lon="3.75463">
        <ele>1115</ele>
        <time>2021-05-24T08:25:58Z</time>
      </trkpt>
      <trkpt lat="44.06938" lon="3.75463">
        <ele>1115</ele>
        <time>2021-05-24T08:26:00Z</time>
      </trkpt>
      <trkpt lat="44.0694" lon="3.75462">
        <ele>1115</ele>
        <time>2021-05-24T08:26:03Z</time>
      </trkpt>
      <trkpt lat="44.06943" lon="3.75461">
        <ele>1115</ele>
        <time>2021-05-24T08:26:06Z</time>
      </trkpt>
      <trkpt lat="44.06945" lon="3.7546">
        <ele>1115</ele>
        <time>2021-05-24T08:26:09Z</time>
      </trkpt>
      <trkpt lat="44.06947" lon="3.75459">
        <ele>1115</ele>
        <time>2021-05-24T08:26:12Z</time>
      </trkpt>
      <trkpt lat="44.0695" lon="3.75458">
        <ele>1121</ele>
        <time>2021-05-24T08:26:15Z</time>
      </trkpt>
      <trkpt lat="44.06952" lon="3.75456">
        <ele>1121</ele>
        <time>2021-05-24T08:26:18Z</time>
      </trkpt>
      <trkpt lat="44.06954" lon="3.75455">
        <ele>1121</ele>
        <time>2021-05-24T08:26:20Z</time>
      </trkpt>
      <trkpt lat="44.06956" lon="3.75453">
        <ele>1121</ele>
        <time>2021-05-24T08:26:23Z</time>
      </trkpt>
      <trkpt lat="44.06958" lon="3.75451">
        <ele>1122</ele>
        <time>2021-05-24T08:26:25Z</time>
      </trkpt>
      <trkpt lat="44.0696" lon="3.75449">
        <ele>1122</ele>
        <time>2021-05-24T08:26:28Z</time>
      </trkpt>
      <trkpt lat="44.06962" lon="3.75448">
        <ele>1122</ele>
        <time>2021-05-24T08:26:30Z</time>
      </trkpt>
      <trkpt lat="44.06965" lon="3.75446">
        <ele>1122</ele>
        <time>2021-05-24T08:26:33Z</time>
      </trkpt>
      <trkpt lat="44.06967" lon="3.75445">
        <ele>1122</ele>
        <time>2021-05-24T08:26:37Z</time>
      </trkpt>
      <trkpt lat="44.06969" lon="3.75444">
        <ele>1122</ele>
        <time>2021-05-24T08:26:39Z</time>
      </trkpt>
      <trkpt lat="44.0697" lon="3.75443">
        <ele>1122</ele>
        <time>2021-05-24T08:26:41Z</time>
      </trkpt>
      <trkpt lat="44.06972" lon="3.75441">
        <ele>1122</ele>
        <time>2021-05-24T08:26:43Z</time>
      </trkpt>
      <trkpt lat="44.06974" lon="3.75439">
        <ele>1124</ele>
        <time>2021-05-24T08:26:45Z</time>
      </trkpt>
      <trkpt lat="44.06976" lon="3.75438">
        <ele>1124</ele>
        <time>2021-05-24T08:26:47Z</time>
      </trkpt>
      <trkpt lat="44.06978" lon="3.75438">
        <ele>1124</ele>
        <time>2021-05-24T08:26:49Z</time>
      </trkpt>
      <trkpt lat="44.0698" lon="3.75437">
        <ele>1124</ele>
        <time>2021-05-24T08:26:51Z</time>
      </trkpt>
      <trkpt lat="44.06983" lon="3.75436">
        <ele>1124</ele>
        <time>2021-05-24T08:26:54Z</time>
      </trkpt>
      <trkpt lat="44.06985" lon="3.75435">
        <ele>1124</ele>
        <time>2021-05-24T08:26:56Z</time>
      </trkpt>
      <trkpt lat="44.06987" lon="3.75433">
        <ele>1124</ele>
        <time>2021-05-24T08:26:58Z</time>
      </trkpt>
      <trkpt lat="44.06989" lon="3.75432">
        <ele>1124</ele>
        <time>2021-05-24T08:27:00Z</time>
      </trkpt>
      <trkpt lat="44.06991" lon="3.75431">
        <ele>1124</ele>
        <time>2021-05-24T08:27:02Z</time>
      </trkpt>
      <trkpt lat="44.06993" lon="3.7543">
        <ele>1124</ele>
        <time>2021-05-24T08:27:04Z</time>
      </trkpt>
      <trkpt lat="44.06995" lon="3.75429">
        <ele>1124</ele>
        <time>2021-05-24T08:27:06Z</time>
      </trkpt>
      <trkpt lat="44.06998" lon="3.75428">
        <ele>1124</ele>
        <time>2021-05-24T08:27:08Z</time>
      </trkpt>
      <trkpt lat="44.07" lon="3.75428">
        <ele>1124</ele>
        <time>2021-05-24T08:27:10Z</time>
      </trkpt>
      <trkpt lat="44.07002" lon="3.75426">
        <ele>1124</ele>
        <time>2021-05-24T08:27:12Z</time>
      </trkpt>
      <trkpt lat="44.07004" lon="3.75425">
        <ele>1124</ele>
        <time>2021-05-24T08:27:14Z</time>
      </trkpt>
      <trkpt lat="44.07006" lon="3.75424">
        <ele>1124</ele>
        <time>2021-05-24T08:27:16Z</time>
      </trkpt>
      <trkpt lat="44.07008" lon="3.75423">
        <ele>1124</ele>
        <time>2021-05-24T08:27:18Z</time>
      </trkpt>
      <trkpt lat="44.0701" lon="3.75422">
        <ele>1124</ele>
        <time>2021-05-24T08:27:20Z</time>
      </trkpt>
      <trkpt lat="44.07012" lon="3.75421">
        <ele>1124</ele>
        <time>2021-05-24T08:27:22Z</time>
      </trkpt>
      <trkpt lat="44.07014" lon="3.7542">
        <ele>1129</ele>
        <time>2021-05-24T08:27:25Z</time>
      </trkpt>
      <trkpt lat="44.07016" lon="3.75419">
        <ele>1129</ele>
        <time>2021-05-24T08:27:26Z</time>
      </trkpt>
      <trkpt lat="44.07018" lon="3.75419">
        <ele>1129</ele>
        <time>2021-05-24T08:27:29Z</time>
      </trkpt>
      <trkpt lat="44.0702" lon="3.75418">
        <ele>1129</ele>
        <time>2021-05-24T08:27:31Z</time>
      </trkpt>
      <trkpt lat="44.07022" lon="3.75416">
        <ele>1129</ele>
        <time>2021-05-24T08:27:33Z</time>
      </trkpt>
      <trkpt lat="44.07024" lon="3.75415">
        <ele>1130</ele>
        <time>2021-05-24T08:27:35Z</time>
      </trkpt>
      <trkpt lat="44.07025" lon="3.75413">
        <ele>1130</ele>
        <time>2021-05-24T08:27:37Z</time>
      </trkpt>
      <trkpt lat="44.07027" lon="3.75412">
        <ele>1130</ele>
        <time>2021-05-24T08:27:39Z</time>
      </trkpt>
      <trkpt lat="44.07029" lon="3.7541">
        <ele>1130</ele>
        <time>2021-05-24T08:27:41Z</time>
      </trkpt>
      <trkpt lat="44.07031" lon="3.75409">
        <ele>1130</ele>
        <time>2021-05-24T08:27:44Z</time>
      </trkpt>
      <trkpt lat="44.07034" lon="3.75407">
        <ele>1130</ele>
        <time>2021-05-24T08:27:45Z</time>
      </trkpt>
      <trkpt lat="44.07036" lon="3.75406">
        <ele>1130</ele>
        <time>2021-05-24T08:27:47Z</time>
      </trkpt>
      <trkpt lat="44.07038" lon="3.75404">
        <ele>1130</ele>
        <time>2021-05-24T08:27:49Z</time>
      </trkpt>
      <trkpt lat="44.0704" lon="3.75403">
        <ele>1130</ele>
        <time>2021-05-24T08:27:51Z</time>
      </trkpt>
      <trkpt lat="44.07042" lon="3.75401">
        <ele>1130</ele>
        <time>2021-05-24T08:27:53Z</time>
      </trkpt>
      <trkpt lat="44.07044" lon="3.75399">
        <ele>1130</ele>
        <time>2021-05-24T08:27:56Z</time>
      </trkpt>
      <trkpt lat="44.07046" lon="3.75398">
        <ele>1130</ele>
        <time>2021-05-24T08:27:58Z</time>
      </trkpt>
      <trkpt lat="44.07048" lon="3.75397">
        <ele>1130</ele>
        <time>2021-05-24T08:28:00Z</time>
      </trkpt>
      <trkpt lat="44.0705" lon="3.75395">
        <ele>1130</ele>
        <time>2021-05-24T08:28:02Z</time>
      </trkpt>
      <trkpt lat="44.07051" lon="3.75393">
        <ele>1130</ele>
        <time>2021-05-24T08:28:04Z</time>
      </trkpt>
      <trkpt lat="44.07053" lon="3.75392">
        <ele>1130</ele>
        <time>2021-05-24T08:28:06Z</time>
      </trkpt>
      <trkpt lat="44.07055" lon="3.75392">
        <ele>1130</ele>
        <time>2021-05-24T08:28:08Z</time>
      </trkpt>
      <trkpt lat="44.07057" lon="3.7539">
        <ele>1130</ele>
        <time>2021-05-24T08:28:10Z</time>
      </trkpt>
      <trkpt lat="44.07059" lon="3.75389">
        <ele>1130</ele>
        <time>2021-05-24T08:28:12Z</time>
      </trkpt>
      <trkpt lat="44.0706" lon="3.75387">
        <ele>1130</ele>
        <time>2021-05-24T08:28:14Z</time>
      </trkpt>
      <trkpt lat="44.07062" lon="3.75385">
        <ele>1130</ele>
        <time>2021-05-24T08:28:16Z</time>
      </trkpt>
      <trkpt lat="44.07064" lon="3.75383">
        <ele>1130</ele>
        <time>2021-05-24T08:28:18Z</time>
      </trkpt>
      <trkpt lat="44.07066" lon="3.75382">
        <ele>1130</ele>
        <time>2021-05-24T08:28:20Z</time>
      </trkpt>
      <trkpt lat="44.07067" lon="3.75381">
        <ele>1130</ele>
        <time>2021-05-24T08:28:22Z</time>
      </trkpt>
      <trkpt lat="44.07069" lon="3.7538">
        <ele>1130</ele>
        <time>2021-05-24T08:28:24Z</time>
      </trkpt>
      <trkpt lat="44.07071" lon="3.75378">
        <ele>1130</ele>
        <time>2021-05-24T08:28:26Z</time>
      </trkpt>
      <trkpt lat="44.07073" lon="3.75377">
        <ele>1130</ele>
        <time>2021-05-24T08:28:28Z</time>
      </trkpt>
      <trkpt lat="44.07075" lon="3.75376">
        <ele>1130</ele>
        <time>2021-05-24T08:28:30Z</time>
      </trkpt>
      <trkpt lat="44.07077" lon="3.75375">
        <ele>1130</ele>
        <time>2021-05-24T08:28:32Z</time>
      </trkpt>
      <trkpt lat="44.07079" lon="3.75374">
        <ele>1130</ele>
        <time>2021-05-24T08:28:34Z</time>
      </trkpt>
      <trkpt lat="44.07082" lon="3.75373">
        <ele>1130</ele>
        <time>2021-05-24T08:28:36Z</time>
      </trkpt>
      <trkpt lat="44.07083" lon="3.75372">
        <ele>1130</ele>
        <time>2021-05-24T08:28:38Z</time>
      </trkpt>
      <trkpt lat="44.07086" lon="3.75371">
        <ele>1130</ele>
        <time>2021-05-24T08:28:41Z</time>
      </trkpt>
      <trkpt lat="44.07088" lon="3.7537">
        <ele>1130</ele>
        <time>2021-05-24T08:28:42Z</time>
      </trkpt>
      <trkpt lat="44.0709" lon="3.75369">
        <ele>1130</ele>
        <time>2021-05-24T08:28:44Z</time>
      </trkpt>
      <trkpt lat="44.07092" lon="3.75368">
        <ele>1130</ele>
        <time>2021-05-24T08:28:46Z</time>
      </trkpt>
      <trkpt lat="44.07094" lon="3.75367">
        <ele>1130</ele>
        <time>2021-05-24T08:28:48Z</time>
      </trkpt>
      <trkpt lat="44.07097" lon="3.75367">
        <ele>1130</ele>
        <time>2021-05-24T08:28:50Z</time>
      </trkpt>
      <trkpt lat="44.07099" lon="3.75366">
        <ele>1130</ele>
        <time>2021-05-24T08:28:52Z</time>
      </trkpt>
      <trkpt lat="44.07101" lon="3.75365">
        <ele>1130</ele>
        <time>2021-05-24T08:28:54Z</time>
      </trkpt>
      <trkpt lat="44.07103" lon="3.75364">
        <ele>1130</ele>
        <time>2021-05-24T08:28:56Z</time>
      </trkpt>
      <trkpt lat="44.07105" lon="3.75363">
        <ele>1130</ele>
        <time>2021-05-24T08:28:58Z</time>
      </trkpt>
      <trkpt lat="44.07107" lon="3.75362">
        <ele>1130</ele>
        <time>2021-05-24T08:29:00Z</time>
      </trkpt>
      <trkpt lat="44.07109" lon="3.75361">
        <ele>1130</ele>
        <time>2021-05-24T08:29:02Z</time>
      </trkpt>
      <trkpt lat="44.07111" lon="3.7536">
        <ele>1130</ele>
        <time>2021-05-24T08:29:04Z</time>
      </trkpt>
      <trkpt lat="44.07113" lon="3.75359">
        <ele>1130</ele>
        <time>2021-05-24T08:29:06Z</time>
      </trkpt>
      <trkpt lat="44.07116" lon="3.75358">
        <ele>1130</ele>
        <time>2021-05-24T08:29:09Z</time>
      </trkpt>
      <trkpt lat="44.07117" lon="3.75356">
        <ele>1130</ele>
        <time>2021-05-24T08:29:11Z</time>
      </trkpt>
      <trkpt lat="44.0712" lon="3.75355">
        <ele>1130</ele>
        <time>2021-05-24T08:29:13Z</time>
      </trkpt>
      <trkpt lat="44.07122" lon="3.75354">
        <ele>1136</ele>
        <time>2021-05-24T08:29:15Z</time>
      </trkpt>
      <trkpt lat="44.07124" lon="3.75353">
        <ele>1136</ele>
        <time>2021-05-24T08:29:17Z</time>
      </trkpt>
      <trkpt lat="44.07126" lon="3.75353">
        <ele>1136</ele>
        <time>2021-05-24T08:29:19Z</time>
      </trkpt>
      <trkpt lat="44.07128" lon="3.75352">
        <ele>1136</ele>
        <time>2021-05-24T08:29:21Z</time>
      </trkpt>
      <trkpt lat="44.0713" lon="3.75351">
        <ele>1136</ele>
        <time>2021-05-24T08:29:23Z</time>
      </trkpt>
      <trkpt lat="44.07132" lon="3.7535">
        <ele>1137</ele>
        <time>2021-05-24T08:29:25Z</time>
      </trkpt>
      <trkpt lat="44.07134" lon="3.75349">
        <ele>1137</ele>
        <time>2021-05-24T08:29:27Z</time>
      </trkpt>
      <trkpt lat="44.07137" lon="3.75348">
        <ele>1137</ele>
        <time>2021-05-24T08:29:29Z</time>
      </trkpt>
      <trkpt lat="44.07139" lon="3.75347">
        <ele>1137</ele>
        <time>2021-05-24T08:29:31Z</time>
      </trkpt>
      <trkpt lat="44.07141" lon="3.75346">
        <ele>1137</ele>
        <time>2021-05-24T08:29:33Z</time>
      </trkpt>
      <trkpt lat="44.07143" lon="3.75345">
        <ele>1138</ele>
        <time>2021-05-24T08:29:35Z</time>
      </trkpt>
      <trkpt lat="44.07145" lon="3.75343">
        <ele>1138</ele>
        <time>2021-05-24T08:29:38Z</time>
      </trkpt>
      <trkpt lat="44.07147" lon="3.75342">
        <ele>1138</ele>
        <time>2021-05-24T08:29:39Z</time>
      </trkpt>
      <trkpt lat="44.07149" lon="3.75341">
        <ele>1138</ele>
        <time>2021-05-24T08:29:41Z</time>
      </trkpt>
      <trkpt lat="44.07151" lon="3.75341">
        <ele>1138</ele>
        <time>2021-05-24T08:29:43Z</time>
      </trkpt>
      <trkpt lat="44.07153" lon="3.7534">
        <ele>1138</ele>
        <time>2021-05-24T08:29:45Z</time>
      </trkpt>
      <trkpt lat="44.07155" lon="3.75339">
        <ele>1138</ele>
        <time>2021-05-24T08:29:47Z</time>
      </trkpt>
      <trkpt lat="44.07157" lon="3.75339">
        <ele>1138</ele>
        <time>2021-05-24T08:29:49Z</time>
      </trkpt>
      <trkpt lat="44.07159" lon="3.75338">
        <ele>1138</ele>
        <time>2021-05-24T08:29:51Z</time>
      </trkpt>
      <trkpt lat="44.07162" lon="3.75337">
        <ele>1138</ele>
        <time>2021-05-24T08:29:53Z</time>
      </trkpt>
      <trkpt lat="44.07164" lon="3.75336">
        <ele>1139</ele>
        <time>2021-05-24T08:29:55Z</time>
      </trkpt>
      <trkpt lat="44.07166" lon="3.75334">
        <ele>1139</ele>
        <time>2021-05-24T08:29:57Z</time>
      </trkpt>
      <trkpt lat="44.07169" lon="3.75333">
        <ele>1139</ele>
        <time>2021-05-24T08:29:59Z</time>
      </trkpt>
      <trkpt lat="44.07171" lon="3.75332">
        <ele>1139</ele>
        <time>2021-05-24T08:30:01Z</time>
      </trkpt>
      <trkpt lat="44.07173" lon="3.75331">
        <ele>1139</ele>
        <time>2021-05-24T08:30:03Z</time>
      </trkpt>
      <trkpt lat="44.07176" lon="3.7533">
        <ele>1140</ele>
        <time>2021-05-24T08:30:05Z</time>
      </trkpt>
      <trkpt lat="44.07178" lon="3.75329">
        <ele>1140</ele>
        <time>2021-05-24T08:30:07Z</time>
      </trkpt>
      <trkpt lat="44.0718" lon="3.75328">
        <ele>1140</ele>
        <time>2021-05-24T08:30:09Z</time>
      </trkpt>
      <trkpt lat="44.07182" lon="3.75328">
        <ele>1140</ele>
        <time>2021-05-24T08:30:11Z</time>
      </trkpt>
      <trkpt lat="44.07185" lon="3.75326">
        <ele>1140</ele>
        <time>2021-05-24T08:30:13Z</time>
      </trkpt>
      <trkpt lat="44.07187" lon="3.75325">
        <ele>1140</ele>
        <time>2021-05-24T08:30:16Z</time>
      </trkpt>
      <trkpt lat="44.07189" lon="3.75324">
        <ele>1140</ele>
        <time>2021-05-24T08:30:17Z</time>
      </trkpt>
      <trkpt lat="44.07191" lon="3.75323">
        <ele>1140</ele>
        <time>2021-05-24T08:30:19Z</time>
      </trkpt>
      <trkpt lat="44.07194" lon="3.75322">
        <ele>1140</ele>
        <time>2021-05-24T08:30:21Z</time>
      </trkpt>
      <trkpt lat="44.07196" lon="3.75321">
        <ele>1140</ele>
        <time>2021-05-24T08:30:23Z</time>
      </trkpt>
      <trkpt lat="44.07198" lon="3.7532">
        <ele>1142</ele>
        <time>2021-05-24T08:30:25Z</time>
      </trkpt>
      <trkpt lat="44.072" lon="3.75319">
        <ele>1142</ele>
        <time>2021-05-24T08:30:27Z</time>
      </trkpt>
      <trkpt lat="44.07202" lon="3.75318">
        <ele>1142</ele>
        <time>2021-05-24T08:30:29Z</time>
      </trkpt>
      <trkpt lat="44.07204" lon="3.75317">
        <ele>1142</ele>
        <time>2021-05-24T08:30:31Z</time>
      </trkpt>
      <trkpt lat="44.07206" lon="3.75316">
        <ele>1142</ele>
        <time>2021-05-24T08:30:33Z</time>
      </trkpt>
      <trkpt lat="44.07208" lon="3.75315">
        <ele>1142</ele>
        <time>2021-05-24T08:30:35Z</time>
      </trkpt>
      <trkpt lat="44.0721" lon="3.75314">
        <ele>1142</ele>
        <time>2021-05-24T08:30:37Z</time>
      </trkpt>
      <trkpt lat="44.07212" lon="3.75313">
        <ele>1142</ele>
        <time>2021-05-24T08:30:39Z</time>
      </trkpt>
      <trkpt lat="44.07213" lon="3.75312">
        <ele>1142</ele>
        <time>2021-05-24T08:30:41Z</time>
      </trkpt>
      <trkpt lat="44.07215" lon="3.75311">
        <ele>1142</ele>
        <time>2021-05-24T08:30:43Z</time>
      </trkpt>
      <trkpt lat="44.07217" lon="3.7531">
        <ele>1143</ele>
        <time>2021-05-24T08:30:45Z</time>
      </trkpt>
      <trkpt lat="44.07219" lon="3.75308">
        <ele>1143</ele>
        <time>2021-05-24T08:30:48Z</time>
      </trkpt>
      <trkpt lat="44.07221" lon="3.75307">
        <ele>1143</ele>
        <time>2021-05-24T08:30:50Z</time>
      </trkpt>
      <trkpt lat="44.07223" lon="3.75306">
        <ele>1143</ele>
        <time>2021-05-24T08:30:53Z</time>
      </trkpt>
      <trkpt lat="44.07234" lon="3.75305">
        <ele>1143</ele>
        <time>2021-05-24T08:31:06Z</time>
      </trkpt>
      <trkpt lat="44.07243" lon="3.75303">
        <ele>1143</ele>
        <time>2021-05-24T08:31:14Z</time>
      </trkpt>
      <trkpt lat="44.07252" lon="3.75298">
        <ele>1143</ele>
        <time>2021-05-24T08:31:32Z</time>
      </trkpt>
      <trkpt lat="44.07262" lon="3.75297">
        <ele>1150</ele>
        <time>2021-05-24T08:46:45Z</time>
      </trkpt>
      <trkpt lat="44.0727" lon="3.75292">
        <ele>1150</ele>
        <time>2021-05-24T08:47:26Z</time>
      </trkpt>
      <trkpt lat="44.07278" lon="3.75285">
        <ele>1150</ele>
        <time>2021-05-24T08:48:00Z</time>
      </trkpt>
      <trkpt lat="44.07286" lon="3.75279">
        <ele>1150</ele>
        <time>2021-05-24T08:48:07Z</time>
      </trkpt>
      <trkpt lat="44.07295" lon="3.75274">
        <ele>1142</ele>
        <time>2021-05-24T08:48:15Z</time>
      </trkpt>
      <trkpt lat="44.07304" lon="3.75269">
        <ele>1142</ele>
        <time>2021-05-24T08:48:31Z</time>
      </trkpt>
      <trkpt lat="44.07313" lon="3.75262">
        <ele>1142</ele>
        <time>2021-05-24T08:48:39Z</time>
      </trkpt>
      <trkpt lat="44.07321" lon="3.75258">
        <ele>1142</ele>
        <time>2021-05-24T08:48:49Z</time>
      </trkpt>
      <trkpt lat="44.0733" lon="3.75255">
        <ele>1142</ele>
        <time>2021-05-24T08:48:58Z</time>
      </trkpt>
      <trkpt lat="44.0734" lon="3.75252">
        <ele>1131</ele>
        <time>2021-05-24T08:49:05Z</time>
      </trkpt>
      <trkpt lat="44.07349" lon="3.75249">
        <ele>1131</ele>
        <time>2021-05-24T08:49:12Z</time>
      </trkpt>
      <trkpt lat="44.07358" lon="3.75246">
        <ele>1131</ele>
        <time>2021-05-24T08:49:19Z</time>
      </trkpt>
      <trkpt lat="44.07368" lon="3.75247">
        <ele>1131</ele>
        <time>2021-05-24T08:49:29Z</time>
      </trkpt>
      <trkpt lat="44.07377" lon="3.75251">
        <ele>1131</ele>
        <time>2021-05-24T08:49:38Z</time>
      </trkpt>
      <trkpt lat="44.07386" lon="3.7525">
        <ele>1131</ele>
        <time>2021-05-24T08:49:47Z</time>
      </trkpt>
      <trkpt lat="44.07395" lon="3.75243">
        <ele>1131</ele>
        <time>2021-05-24T08:49:56Z</time>
      </trkpt>
      <trkpt lat="44.07403" lon="3.75236">
        <ele>1121</ele>
        <time>2021-05-24T08:50:05Z</time>
      </trkpt>
      <trkpt lat="44.07408" lon="3.75224">
        <ele>1121</ele>
        <time>2021-05-24T08:50:11Z</time>
      </trkpt>
      <trkpt lat="44.07417" lon="3.75221">
        <ele>1121</ele>
        <time>2021-05-24T08:50:20Z</time>
      </trkpt>
      <trkpt lat="44.07426" lon="3.75225">
        <ele>1121</ele>
        <time>2021-05-24T08:50:29Z</time>
      </trkpt>
      <trkpt lat="44.07434" lon="3.75217">
        <ele>1121</ele>
        <time>2021-05-24T08:50:37Z</time>
      </trkpt>
      <trkpt lat="44.07444" lon="3.75219">
        <ele>1114</ele>
        <time>2021-05-24T08:50:45Z</time>
      </trkpt>
      <trkpt lat="44.07455" lon="3.75212">
        <ele>1112</ele>
        <time>2021-05-24T08:50:55Z</time>
      </trkpt>
      <trkpt lat="44.07465" lon="3.75213">
        <ele>1112</ele>
        <time>2021-05-24T08:51:04Z</time>
      </trkpt>
      <trkpt lat="44.07474" lon="3.75208">
        <ele>1112</ele>
        <time>2021-05-24T08:51:12Z</time>
      </trkpt>
      <trkpt lat="44.07486" lon="3.75203">
        <ele>1112</ele>
        <time>2021-05-24T08:51:24Z</time>
      </trkpt>
      <trkpt lat="44.07494" lon="3.75197">
        <ele>1112</ele>
        <time>2021-05-24T08:51:33Z</time>
      </trkpt>
      <trkpt lat="44.07504" lon="3.75198">
        <ele>1112</ele>
        <time>2021-05-24T08:51:42Z</time>
      </trkpt>
      <trkpt lat="44.07513" lon="3.75193">
        <ele>1112</ele>
        <time>2021-05-24T08:51:49Z</time>
      </trkpt>
      <trkpt lat="44.07522" lon="3.7519">
        <ele>1112</ele>
        <time>2021-05-24T08:51:57Z</time>
      </trkpt>
      <trkpt lat="44.07532" lon="3.75188">
        <ele>1100</ele>
        <time>2021-05-24T08:52:05Z</time>
      </trkpt>
      <trkpt lat="44.07538" lon="3.75177">
        <ele>1100</ele>
        <time>2021-05-24T08:52:18Z</time>
      </trkpt>
      <trkpt lat="44.07545" lon="3.75167">
        <ele>1100</ele>
        <time>2021-05-24T08:52:32Z</time>
      </trkpt>
      <trkpt lat="44.0755" lon="3.75157">
        <ele>1100</ele>
        <time>2021-05-24T08:52:43Z</time>
      </trkpt>
      <trkpt lat="44.07557" lon="3.75146">
        <ele>1100</ele>
        <time>2021-05-24T08:52:59Z</time>
      </trkpt>
      <trkpt lat="44.07563" lon="3.75136">
        <ele>1100</ele>
        <time>2021-05-24T08:53:12Z</time>
      </trkpt>
      <trkpt lat="44.07568" lon="3.75124">
        <ele>1100</ele>
        <time>2021-05-24T08:53:21Z</time>
      </trkpt>
      <trkpt lat="44.07577" lon="3.75119">
        <ele>1100</ele>
        <time>2021-05-24T08:53:29Z</time>
      </trkpt>
      <trkpt lat="44.07584" lon="3.75111">
        <ele>1100</ele>
        <time>2021-05-24T08:53:37Z</time>
      </trkpt>
      <trkpt lat="44.07592" lon="3.75102">
        <ele>1100</ele>
        <time>2021-05-24T08:53:46Z</time>
      </trkpt>
      <trkpt lat="44.07601" lon="3.75095">
        <ele>1100</ele>
        <time>2021-05-24T08:53:58Z</time>
      </trkpt>
      <trkpt lat="44.0761" lon="3.7509">
        <ele>1100</ele>
        <time>2021-05-24T08:54:08Z</time>
      </trkpt>
      <trkpt lat="44.07618" lon="3.75084">
        <ele>1100</ele>
        <time>2021-05-24T08:54:17Z</time>
      </trkpt>
      <trkpt lat="44.07625" lon="3.75074">
        <ele>1100</ele>
        <time>2021-05-24T08:54:26Z</time>
      </trkpt>
      <trkpt lat="44.07632" lon="3.75064">
        <ele>1100</ele>
        <time>2021-05-24T08:54:34Z</time>
      </trkpt>
      <trkpt lat="44.0764" lon="3.7506">
        <ele>1100</ele>
        <time>2021-05-24T08:54:43Z</time>
      </trkpt>
      <trkpt lat="44.07646" lon="3.7505">
        <ele>1100</ele>
        <time>2021-05-24T08:54:56Z</time>
      </trkpt>
      <trkpt lat="44.07651" lon="3.75039">
        <ele>1044</ele>
        <time>2021-05-24T08:55:05Z</time>
      </trkpt>
      <trkpt lat="44.07653" lon="3.75026">
        <ele>1044</ele>
        <time>2021-05-24T08:55:20Z</time>
      </trkpt>
      <trkpt lat="44.07653" lon="3.75013">
        <ele>1036</ele>
        <time>2021-05-24T08:55:35Z</time>
      </trkpt>
      <trkpt lat="44.07652" lon="3.75">
        <ele>1036</ele>
        <time>2021-05-24T08:55:49Z</time>
      </trkpt>
      <trkpt lat="44.07657" lon="3.74989">
        <ele>1036</ele>
        <time>2021-05-24T08:56:03Z</time>
      </trkpt>
      <trkpt lat="44.07665" lon="3.74983">
        <ele>1036</ele>
        <time>2021-05-24T08:56:19Z</time>
      </trkpt>
      <trkpt lat="44.07671" lon="3.74973">
        <ele>1036</ele>
        <time>2021-05-24T08:56:32Z</time>
      </trkpt>
      <trkpt lat="44.07672" lon="3.7496">
        <ele>1036</ele>
        <time>2021-05-24T08:56:46Z</time>
      </trkpt>
      <trkpt lat="44.07676" lon="3.74948">
        <ele>1036</ele>
        <time>2021-05-24T08:57:01Z</time>
      </trkpt>
      <trkpt lat="44.07682" lon="3.74938">
        <ele>1036</ele>
        <time>2021-05-24T08:57:14Z</time>
      </trkpt>
      <trkpt lat="44.07687" lon="3.74927">
        <ele>1036</ele>
        <time>2021-05-24T08:57:28Z</time>
      </trkpt>
      <trkpt lat="44.07695" lon="3.74919">
        <ele>1036</ele>
        <time>2021-05-24T08:57:41Z</time>
      </trkpt>
      <trkpt lat="44.07699" lon="3.74908">
        <ele>1036</ele>
        <time>2021-05-24T08:57:57Z</time>
      </trkpt>
      <trkpt lat="44.07704" lon="3.74897">
        <ele>1036</ele>
        <time>2021-05-24T08:58:08Z</time>
      </trkpt>
      <trkpt lat="44.07707" lon="3.74884">
        <ele>1036</ele>
        <time>2021-05-24T08:58:22Z</time>
      </trkpt>
      <trkpt lat="44.07711" lon="3.74873">
        <ele>1036</ele>
        <time>2021-05-24T08:58:37Z</time>
      </trkpt>
      <trkpt lat="44.07721" lon="3.74867">
        <ele>1036</ele>
        <time>2021-05-24T08:58:46Z</time>
      </trkpt>
      <trkpt lat="44.07729" lon="3.74859">
        <ele>1036</ele>
        <time>2021-05-24T08:58:59Z</time>
      </trkpt>
      <trkpt lat="44.07736" lon="3.7485">
        <ele>1036</ele>
        <time>2021-05-24T08:59:11Z</time>
      </trkpt>
      <trkpt lat="44.07743" lon="3.74841">
        <ele>1036</ele>
        <time>2021-05-24T08:59:21Z</time>
      </trkpt>
      <trkpt lat="44.0775" lon="3.74832">
        <ele>1036</ele>
        <time>2021-05-24T08:59:29Z</time>
      </trkpt>
      <trkpt lat="44.07759" lon="3.74825">
        <ele>1036</ele>
        <time>2021-05-24T08:59:37Z</time>
      </trkpt>
      <trkpt lat="44.07765" lon="3.74815">
        <ele>1036</ele>
        <time>2021-05-24T08:59:47Z</time>
      </trkpt>
      <trkpt lat="44.07771" lon="3.74805">
        <ele>1036</ele>
        <time>2021-05-24T08:59:58Z</time>
      </trkpt>
      <trkpt lat="44.07773" lon="3.74792">
        <ele>1036</ele>
        <time>2021-05-24T09:00:10Z</time>
      </trkpt>
      <trkpt lat="44.07779" lon="3.74781">
        <ele>1036</ele>
        <time>2021-05-24T09:00:20Z</time>
      </trkpt>
      <trkpt lat="44.07777" lon="3.74769">
        <ele>1036</ele>
        <time>2021-05-24T09:00:34Z</time>
      </trkpt>
      <trkpt lat="44.07774" lon="3.74757">
        <ele>1036</ele>
        <time>2021-05-24T09:00:52Z</time>
      </trkpt>
      <trkpt lat="44.07768" lon="3.74747">
        <ele>1036</ele>
        <time>2021-05-24T09:01:09Z</time>
      </trkpt>
      <trkpt lat="44.07766" lon="3.74734">
        <ele>1036</ele>
        <time>2021-05-24T09:01:24Z</time>
      </trkpt>
      <trkpt lat="44.07764" lon="3.74721">
        <ele>1036</ele>
        <time>2021-05-24T09:01:47Z</time>
      </trkpt>
      <trkpt lat="44.07762" lon="3.74709">
        <ele>1036</ele>
        <time>2021-05-24T09:02:06Z</time>
      </trkpt>
      <trkpt lat="44.07761" lon="3.74696">
        <ele>1036</ele>
        <time>2021-05-24T09:02:27Z</time>
      </trkpt>
      <trkpt lat="44.0776" lon="3.74684">
        <ele>1036</ele>
        <time>2021-05-24T09:03:03Z</time>
      </trkpt>
      <trkpt lat="44.07759" lon="3.74671">
        <ele>1036</ele>
        <time>2021-05-24T09:03:26Z</time>
      </trkpt>
      <trkpt lat="44.0776" lon="3.74658">
        <ele>1036</ele>
        <time>2021-05-24T09:03:40Z</time>
      </trkpt>
      <trkpt lat="44.07758" lon="3.74646">
        <ele>1036</ele>
        <time>2021-05-24T09:04:03Z</time>
      </trkpt>
      <trkpt lat="44.07758" lon="3.74633">
        <ele>1036</ele>
        <time>2021-05-24T09:04:23Z</time>
      </trkpt>
      <trkpt lat="44.07758" lon="3.7462">
        <ele>1036</ele>
        <time>2021-05-24T09:04:39Z</time>
      </trkpt>
      <trkpt lat="44.07757" lon="3.74607">
        <ele>1036</ele>
        <time>2021-05-24T09:04:52Z</time>
      </trkpt>
      <trkpt lat="44.07759" lon="3.74594">
        <ele>1036</ele>
        <time>2021-05-24T09:05:20Z</time>
      </trkpt>
      <trkpt lat="44.07757" lon="3.74582">
        <ele>1036</ele>
        <time>2021-05-24T09:06:46Z</time>
      </trkpt>
      <trkpt lat="44.07758" lon="3.74568">
        <ele>1036</ele>
        <time>2021-05-24T09:06:58Z</time>
      </trkpt>
      <trkpt lat="44.07759" lon="3.74556">
        <ele>1036</ele>
        <time>2021-05-24T09:07:07Z</time>
      </trkpt>
      <trkpt lat="44.07757" lon="3.74542">
        <ele>1036</ele>
        <time>2021-05-24T09:07:16Z</time>
      </trkpt>
      <trkpt lat="44.07755" lon="3.74529">
        <ele>923</ele>
        <time>2021-05-24T09:07:25Z</time>
      </trkpt>
      <trkpt lat="44.07754" lon="3.74517">
        <ele>923</ele>
        <time>2021-05-24T09:07:33Z</time>
      </trkpt>
      <trkpt lat="44.07752" lon="3.74503">
        <ele>923</ele>
        <time>2021-05-24T09:07:43Z</time>
      </trkpt>
      <trkpt lat="44.07747" lon="3.74491">
        <ele>923</ele>
        <time>2021-05-24T09:07:53Z</time>
      </trkpt>
      <trkpt lat="44.07748" lon="3.74478">
        <ele>923</ele>
        <time>2021-05-24T09:08:03Z</time>
      </trkpt>
      <trkpt lat="44.07744" lon="3.74466">
        <ele>923</ele>
        <time>2021-05-24T09:08:14Z</time>
      </trkpt>
      <trkpt lat="44.07744" lon="3.74453">
        <ele>923</ele>
        <time>2021-05-24T09:08:23Z</time>
      </trkpt>
      <trkpt lat="44.07746" lon="3.7444">
        <ele>923</ele>
        <time>2021-05-24T09:08:32Z</time>
      </trkpt>
      <trkpt lat="44.07747" lon="3.74427">
        <ele>923</ele>
        <time>2021-05-24T09:08:40Z</time>
      </trkpt>
      <trkpt lat="44.07737" lon="3.74415">
        <ele>923</ele>
        <time>2021-05-24T09:09:32Z</time>
      </trkpt>
      <trkpt lat="44.0773" lon="3.74406">
        <ele>915</ele>
        <time>2021-05-24T09:09:45Z</time>
      </trkpt>
      <trkpt lat="44.07724" lon="3.74418">
        <ele>915</ele>
        <time>2021-05-24T09:09:53Z</time>
      </trkpt>
      <trkpt lat="44.07722" lon="3.74432">
        <ele>915</ele>
        <time>2021-05-24T09:10:01Z</time>
      </trkpt>
      <trkpt lat="44.07719" lon="3.74445">
        <ele>915</ele>
        <time>2021-05-24T09:10:11Z</time>
      </trkpt>
      <trkpt lat="44.07719" lon="3.74459">
        <ele>915</ele>
        <time>2021-05-24T09:10:20Z</time>
      </trkpt>
      <trkpt lat="44.07721" lon="3.74471">
        <ele>915</ele>
        <time>2021-05-24T09:10:27Z</time>
      </trkpt>
      <trkpt lat="44.0772" lon="3.74484">
        <ele>905</ele>
        <time>2021-05-24T09:10:35Z</time>
      </trkpt>
      <trkpt lat="44.07722" lon="3.74497">
        <ele>905</ele>
        <time>2021-05-24T09:10:42Z</time>
      </trkpt>
      <trkpt lat="44.07723" lon="3.74483">
        <ele>905</ele>
        <time>2021-05-24T09:11:03Z</time>
      </trkpt>
      <trkpt lat="44.07723" lon="3.7447">
        <ele>905</ele>
        <time>2021-05-24T09:11:11Z</time>
      </trkpt>
      <trkpt lat="44.07725" lon="3.74456">
        <ele>905</ele>
        <time>2021-05-24T09:11:18Z</time>
      </trkpt>
      <trkpt lat="44.07726" lon="3.74443">
        <ele>905</ele>
        <time>2021-05-24T09:11:26Z</time>
      </trkpt>
      <trkpt lat="44.07726" lon="3.74431">
        <ele>905</ele>
        <time>2021-05-24T09:11:47Z</time>
      </trkpt>
      <trkpt lat="44.07725" lon="3.74432">
        <ele>910</ele>
        <time>2021-05-24T09:25:29Z</time>
      </trkpt>
      <trkpt lat="44.07728" lon="3.74417">
        <ele>910</ele>
        <time>2021-05-24T09:25:44Z</time>
      </trkpt>
      <trkpt lat="44.07729" lon="3.74404">
        <ele>911</ele>
        <time>2021-05-24T09:25:58Z</time>
      </trkpt>
      <trkpt lat="44.07732" lon="3.74392">
        <ele>911</ele>
        <time>2021-05-24T09:26:14Z</time>
      </trkpt>
      <trkpt lat="44.07731" lon="3.74379">
        <ele>911</ele>
        <time>2021-05-24T09:26:24Z</time>
      </trkpt>
      <trkpt lat="44.0773" lon="3.74365">
        <ele>911</ele>
        <time>2021-05-24T09:26:36Z</time>
      </trkpt>
      <trkpt lat="44.07732" lon="3.74353">
        <ele>911</ele>
        <time>2021-05-24T09:26:55Z</time>
      </trkpt>
      <trkpt lat="44.07736" lon="3.74341">
        <ele>911</ele>
        <time>2021-05-24T09:27:19Z</time>
      </trkpt>
      <trkpt lat="44.07737" lon="3.74328">
        <ele>924</ele>
        <time>2021-05-24T09:27:28Z</time>
      </trkpt>
      <trkpt lat="44.0774" lon="3.74315">
        <ele>924</ele>
        <time>2021-05-24T09:27:40Z</time>
      </trkpt>
      <trkpt lat="44.0774" lon="3.74298">
        <ele>924</ele>
        <time>2021-05-24T09:27:52Z</time>
      </trkpt>
      <trkpt lat="44.07741" lon="3.74295">
        <ele>924</ele>
        <time>2021-05-24T09:27:55Z</time>
      </trkpt>
      <trkpt lat="44.07741" lon="3.74292">
        <ele>924</ele>
        <time>2021-05-24T09:27:57Z</time>
      </trkpt>
      <trkpt lat="44.07742" lon="3.74289">
        <ele>924</ele>
        <time>2021-05-24T09:27:59Z</time>
      </trkpt>
      <trkpt lat="44.07742" lon="3.74287">
        <ele>924</ele>
        <time>2021-05-24T09:28:01Z</time>
      </trkpt>
      <trkpt lat="44.07743" lon="3.74284">
        <ele>924</ele>
        <time>2021-05-24T09:28:04Z</time>
      </trkpt>
      <trkpt lat="44.07743" lon="3.74281">
        <ele>924</ele>
        <time>2021-05-24T09:28:07Z</time>
      </trkpt>
      <trkpt lat="44.07742" lon="3.74278">
        <ele>924</ele>
        <time>2021-05-24T09:28:09Z</time>
      </trkpt>
      <trkpt lat="44.07742" lon="3.74276">
        <ele>924</ele>
        <time>2021-05-24T09:28:11Z</time>
      </trkpt>
      <trkpt lat="44.07742" lon="3.74273">
        <ele>924</ele>
        <time>2021-05-24T09:28:13Z</time>
      </trkpt>
      <trkpt lat="44.07742" lon="3.74271">
        <ele>924</ele>
        <time>2021-05-24T09:28:15Z</time>
      </trkpt>
      <trkpt lat="44.07742" lon="3.74268">
        <ele>927</ele>
        <time>2021-05-24T09:28:18Z</time>
      </trkpt>
      <trkpt lat="44.07743" lon="3.74264">
        <ele>927</ele>
        <time>2021-05-24T09:28:21Z</time>
      </trkpt>
      <trkpt lat="44.07743" lon="3.74261">
        <ele>927</ele>
        <time>2021-05-24T09:28:25Z</time>
      </trkpt>
      <trkpt lat="44.07743" lon="3.74257">
        <ele>927</ele>
        <time>2021-05-24T09:28:27Z</time>
      </trkpt>
      <trkpt lat="44.07743" lon="3.74255">
        <ele>927</ele>
        <time>2021-05-24T09:28:29Z</time>
      </trkpt>
      <trkpt lat="44.07742" lon="3.74251">
        <ele>927</ele>
        <time>2021-05-24T09:28:32Z</time>
      </trkpt>
      <trkpt lat="44.07742" lon="3.74248">
        <ele>927</ele>
        <time>2021-05-24T09:28:36Z</time>
      </trkpt>
      <trkpt lat="44.07742" lon="3.74246">
        <ele>929</ele>
        <time>2021-05-24T09:28:38Z</time>
      </trkpt>
      <trkpt lat="44.07741" lon="3.74243">
        <ele>929</ele>
        <time>2021-05-24T09:28:41Z</time>
      </trkpt>
      <trkpt lat="44.07741" lon="3.74239">
        <ele>929</ele>
        <time>2021-05-24T09:28:43Z</time>
      </trkpt>
      <trkpt lat="44.07741" lon="3.74236">
        <ele>929</ele>
        <time>2021-05-24T09:28:45Z</time>
      </trkpt>
      <trkpt lat="44.07741" lon="3.74234">
        <ele>929</ele>
        <time>2021-05-24T09:28:46Z</time>
      </trkpt>
      <trkpt lat="44.0774" lon="3.74231">
        <ele>930</ele>
        <time>2021-05-24T09:28:48Z</time>
      </trkpt>
      <trkpt lat="44.0774" lon="3.74228">
        <ele>930</ele>
        <time>2021-05-24T09:28:51Z</time>
      </trkpt>
      <trkpt lat="44.07739" lon="3.74225">
        <ele>930</ele>
        <time>2021-05-24T09:28:53Z</time>
      </trkpt>
      <trkpt lat="44.07738" lon="3.74222">
        <ele>930</ele>
        <time>2021-05-24T09:28:57Z</time>
      </trkpt>
      <trkpt lat="44.07738" lon="3.74219">
        <ele>930</ele>
        <time>2021-05-24T09:28:59Z</time>
      </trkpt>
      <trkpt lat="44.07739" lon="3.74216">
        <ele>930</ele>
        <time>2021-05-24T09:29:01Z</time>
      </trkpt>
      <trkpt lat="44.07739" lon="3.74213">
        <ele>930</ele>
        <time>2021-05-24T09:29:04Z</time>
      </trkpt>
      <trkpt lat="44.07741" lon="3.7421">
        <ele>930</ele>
        <time>2021-05-24T09:29:07Z</time>
      </trkpt>
      <trkpt lat="44.07741" lon="3.74208">
        <ele>930</ele>
        <time>2021-05-24T09:29:11Z</time>
      </trkpt>
      <trkpt lat="44.0774" lon="3.74205">
        <ele>930</ele>
        <time>2021-05-24T09:29:14Z</time>
      </trkpt>
      <trkpt lat="44.07739" lon="3.74202">
        <ele>930</ele>
        <time>2021-05-24T09:29:17Z</time>
      </trkpt>
      <trkpt lat="44.07739" lon="3.742">
        <ele>930</ele>
        <time>2021-05-24T09:29:19Z</time>
      </trkpt>
      <trkpt lat="44.07738" lon="3.74198">
        <ele>930</ele>
        <time>2021-05-24T09:29:22Z</time>
      </trkpt>
      <trkpt lat="44.07737" lon="3.74195">
        <ele>930</ele>
        <time>2021-05-24T09:29:24Z</time>
      </trkpt>
      <trkpt lat="44.07736" lon="3.74193">
        <ele>930</ele>
        <time>2021-05-24T09:29:26Z</time>
      </trkpt>
      <trkpt lat="44.07735" lon="3.74191">
        <ele>930</ele>
        <time>2021-05-24T09:29:29Z</time>
      </trkpt>
      <trkpt lat="44.07735" lon="3.74188">
        <ele>930</ele>
        <time>2021-05-24T09:29:33Z</time>
      </trkpt>
      <trkpt lat="44.07734" lon="3.74186">
        <ele>930</ele>
        <time>2021-05-24T09:29:36Z</time>
      </trkpt>
      <trkpt lat="44.07733" lon="3.74182">
        <ele>930</ele>
        <time>2021-05-24T09:29:40Z</time>
      </trkpt>
      <trkpt lat="44.07733" lon="3.7418">
        <ele>930</ele>
        <time>2021-05-24T09:29:43Z</time>
      </trkpt>
      <trkpt lat="44.07732" lon="3.74178">
        <ele>930</ele>
        <time>2021-05-24T09:29:47Z</time>
      </trkpt>
      <trkpt lat="44.07731" lon="3.74175">
        <ele>930</ele>
        <time>2021-05-24T09:29:49Z</time>
      </trkpt>
      <trkpt lat="44.07731" lon="3.74171">
        <ele>930</ele>
        <time>2021-05-24T09:29:52Z</time>
      </trkpt>
      <trkpt lat="44.0773" lon="3.74168">
        <ele>930</ele>
        <time>2021-05-24T09:29:55Z</time>
      </trkpt>
      <trkpt lat="44.0773" lon="3.74165">
        <ele>930</ele>
        <time>2021-05-24T09:29:57Z</time>
      </trkpt>
      <trkpt lat="44.07729" lon="3.74162">
        <ele>930</ele>
        <time>2021-05-24T09:30:00Z</time>
      </trkpt>
      <trkpt lat="44.07728" lon="3.74158">
        <ele>930</ele>
        <time>2021-05-24T09:30:02Z</time>
      </trkpt>
      <trkpt lat="44.07728" lon="3.74155">
        <ele>930</ele>
        <time>2021-05-24T09:30:05Z</time>
      </trkpt>
      <trkpt lat="44.07727" lon="3.74152">
        <ele>940</ele>
        <time>2021-05-24T09:30:08Z</time>
      </trkpt>
      <trkpt lat="44.07727" lon="3.74149">
        <ele>940</ele>
        <time>2021-05-24T09:30:10Z</time>
      </trkpt>
      <trkpt lat="44.07727" lon="3.74146">
        <ele>940</ele>
        <time>2021-05-24T09:30:12Z</time>
      </trkpt>
      <trkpt lat="44.07727" lon="3.74143">
        <ele>940</ele>
        <time>2021-05-24T09:30:14Z</time>
      </trkpt>
      <trkpt lat="44.07728" lon="3.7414">
        <ele>940</ele>
        <time>2021-05-24T09:30:18Z</time>
      </trkpt>
      <trkpt lat="44.07725" lon="3.74141">
        <ele>940</ele>
        <time>2021-05-24T09:30:36Z</time>
      </trkpt>
      <trkpt lat="44.07724" lon="3.74143">
        <ele>940</ele>
        <time>2021-05-24T09:30:42Z</time>
      </trkpt>
      <trkpt lat="44.07726" lon="3.74143">
        <ele>940</ele>
        <time>2021-05-24T09:31:04Z</time>
      </trkpt>
      <trkpt lat="44.07728" lon="3.74145">
        <ele>940</ele>
        <time>2021-05-24T09:31:13Z</time>
      </trkpt>
      <trkpt lat="44.07726" lon="3.74143">
        <ele>940</ele>
        <time>2021-05-24T09:31:17Z</time>
      </trkpt>
      <trkpt lat="44.07726" lon="3.7414">
        <ele>940</ele>
        <time>2021-05-24T09:32:20Z</time>
      </trkpt>
      <trkpt lat="44.07725" lon="3.74138">
        <ele>940</ele>
        <time>2021-05-24T09:32:22Z</time>
      </trkpt>
      <trkpt lat="44.07725" lon="3.74135">
        <ele>940</ele>
        <time>2021-05-24T09:32:25Z</time>
      </trkpt>
      <trkpt lat="44.07725" lon="3.74132">
        <ele>940</ele>
        <time>2021-05-24T09:32:27Z</time>
      </trkpt>
      <trkpt lat="44.07725" lon="3.7413">
        <ele>940</ele>
        <time>2021-05-24T09:32:30Z</time>
      </trkpt>
      <trkpt lat="44.07727" lon="3.74128">
        <ele>940</ele>
        <time>2021-05-24T09:32:32Z</time>
      </trkpt>
      <trkpt lat="44.07727" lon="3.74125">
        <ele>940</ele>
        <time>2021-05-24T09:32:35Z</time>
      </trkpt>
      <trkpt lat="44.07728" lon="3.74122">
        <ele>940</ele>
        <time>2021-05-24T09:32:37Z</time>
      </trkpt>
      <trkpt lat="44.07728" lon="3.74118">
        <ele>940</ele>
        <time>2021-05-24T09:32:40Z</time>
      </trkpt>
      <trkpt lat="44.07727" lon="3.74115">
        <ele>940</ele>
        <time>2021-05-24T09:32:43Z</time>
      </trkpt>
      <trkpt lat="44.07727" lon="3.74113">
        <ele>940</ele>
        <time>2021-05-24T09:32:46Z</time>
      </trkpt>
      <trkpt lat="44.07727" lon="3.7411">
        <ele>940</ele>
        <time>2021-05-24T09:32:49Z</time>
      </trkpt>
      <trkpt lat="44.07727" lon="3.74107">
        <ele>940</ele>
        <time>2021-05-24T09:32:51Z</time>
      </trkpt>
      <trkpt lat="44.07728" lon="3.74103">
        <ele>940</ele>
        <time>2021-05-24T09:32:54Z</time>
      </trkpt>
      <trkpt lat="44.07729" lon="3.741">
        <ele>940</ele>
        <time>2021-05-24T09:32:57Z</time>
      </trkpt>
      <trkpt lat="44.07729" lon="3.74097">
        <ele>940</ele>
        <time>2021-05-24T09:32:59Z</time>
      </trkpt>
      <trkpt lat="44.07729" lon="3.74094">
        <ele>940</ele>
        <time>2021-05-24T09:33:01Z</time>
      </trkpt>
      <trkpt lat="44.0773" lon="3.74091">
        <ele>940</ele>
        <time>2021-05-24T09:33:04Z</time>
      </trkpt>
      <trkpt lat="44.07731" lon="3.74088">
        <ele>940</ele>
        <time>2021-05-24T09:33:06Z</time>
      </trkpt>
      <trkpt lat="44.07731" lon="3.74085">
        <ele>940</ele>
        <time>2021-05-24T09:33:09Z</time>
      </trkpt>
      <trkpt lat="44.07732" lon="3.74082">
        <ele>940</ele>
        <time>2021-05-24T09:33:12Z</time>
      </trkpt>
      <trkpt lat="44.07733" lon="3.7408">
        <ele>940</ele>
        <time>2021-05-24T09:33:14Z</time>
      </trkpt>
      <trkpt lat="44.07734" lon="3.74078">
        <ele>940</ele>
        <time>2021-05-24T09:33:17Z</time>
      </trkpt>
      <trkpt lat="44.07735" lon="3.74076">
        <ele>940</ele>
        <time>2021-05-24T09:33:20Z</time>
      </trkpt>
      <trkpt lat="44.07736" lon="3.74073">
        <ele>940</ele>
        <time>2021-05-24T09:33:23Z</time>
      </trkpt>
      <trkpt lat="44.07736" lon="3.7407">
        <ele>940</ele>
        <time>2021-05-24T09:33:25Z</time>
      </trkpt>
      <trkpt lat="44.07737" lon="3.74067">
        <ele>940</ele>
        <time>2021-05-24T09:33:27Z</time>
      </trkpt>
      <trkpt lat="44.07738" lon="3.74064">
        <ele>940</ele>
        <time>2021-05-24T09:33:30Z</time>
      </trkpt>
      <trkpt lat="44.07738" lon="3.74062">
        <ele>940</ele>
        <time>2021-05-24T09:33:32Z</time>
      </trkpt>
      <trkpt lat="44.07738" lon="3.7406">
        <ele>940</ele>
        <time>2021-05-24T09:33:33Z</time>
      </trkpt>
      <trkpt lat="44.07739" lon="3.74056">
        <ele>940</ele>
        <time>2021-05-24T09:33:36Z</time>
      </trkpt>
      <trkpt lat="44.0774" lon="3.74053">
        <ele>948</ele>
        <time>2021-05-24T09:33:38Z</time>
      </trkpt>
      <trkpt lat="44.0774" lon="3.7405">
        <ele>948</ele>
        <time>2021-05-24T09:33:40Z</time>
      </trkpt>
      <trkpt lat="44.07741" lon="3.74048">
        <ele>948</ele>
        <time>2021-05-24T09:33:43Z</time>
      </trkpt>
      <trkpt lat="44.07741" lon="3.74045">
        <ele>948</ele>
        <time>2021-05-24T09:33:45Z</time>
      </trkpt>
      <trkpt lat="44.07741" lon="3.74042">
        <ele>948</ele>
        <time>2021-05-24T09:33:47Z</time>
      </trkpt>
      <trkpt lat="44.07742" lon="3.74039">
        <ele>948</ele>
        <time>2021-05-24T09:33:50Z</time>
      </trkpt>
      <trkpt lat="44.07743" lon="3.74037">
        <ele>948</ele>
        <time>2021-05-24T09:33:53Z</time>
      </trkpt>
      <trkpt lat="44.07744" lon="3.74034">
        <ele>948</ele>
        <time>2021-05-24T09:33:55Z</time>
      </trkpt>
      <trkpt lat="44.07746" lon="3.74031">
        <ele>948</ele>
        <time>2021-05-24T09:33:58Z</time>
      </trkpt>
      <trkpt lat="44.07746" lon="3.74028">
        <ele>948</ele>
        <time>2021-05-24T09:34:01Z</time>
      </trkpt>
      <trkpt lat="44.07747" lon="3.74025">
        <ele>948</ele>
        <time>2021-05-24T09:34:04Z</time>
      </trkpt>
      <trkpt lat="44.07748" lon="3.74022">
        <ele>948</ele>
        <time>2021-05-24T09:34:06Z</time>
      </trkpt>
      <trkpt lat="44.07749" lon="3.7402">
        <ele>948</ele>
        <time>2021-05-24T09:34:08Z</time>
      </trkpt>
      <trkpt lat="44.0775" lon="3.74016">
        <ele>948</ele>
        <time>2021-05-24T09:34:11Z</time>
      </trkpt>
      <trkpt lat="44.07751" lon="3.74013">
        <ele>948</ele>
        <time>2021-05-24T09:34:13Z</time>
      </trkpt>
      <trkpt lat="44.07752" lon="3.7401">
        <ele>948</ele>
        <time>2021-05-24T09:34:15Z</time>
      </trkpt>
      <trkpt lat="44.07753" lon="3.74008">
        <ele>948</ele>
        <time>2021-05-24T09:34:17Z</time>
      </trkpt>
      <trkpt lat="44.07754" lon="3.74005">
        <ele>948</ele>
        <time>2021-05-24T09:34:19Z</time>
      </trkpt>
      <trkpt lat="44.07754" lon="3.74002">
        <ele>948</ele>
        <time>2021-05-24T09:34:21Z</time>
      </trkpt>
      <trkpt lat="44.07755" lon="3.74">
        <ele>948</ele>
        <time>2021-05-24T09:34:23Z</time>
      </trkpt>
      <trkpt lat="44.07757" lon="3.73997">
        <ele>948</ele>
        <time>2021-05-24T09:34:25Z</time>
      </trkpt>
      <trkpt lat="44.07758" lon="3.73995">
        <ele>948</ele>
        <time>2021-05-24T09:34:27Z</time>
      </trkpt>
      <trkpt lat="44.07759" lon="3.73992">
        <ele>948</ele>
        <time>2021-05-24T09:34:29Z</time>
      </trkpt>
      <trkpt lat="44.07759" lon="3.73989">
        <ele>948</ele>
        <time>2021-05-24T09:34:31Z</time>
      </trkpt>
      <trkpt lat="44.0776" lon="3.73986">
        <ele>948</ele>
        <time>2021-05-24T09:34:33Z</time>
      </trkpt>
      <trkpt lat="44.07762" lon="3.73983">
        <ele>948</ele>
        <time>2021-05-24T09:34:36Z</time>
      </trkpt>
      <trkpt lat="44.07763" lon="3.7398">
        <ele>950</ele>
        <time>2021-05-24T09:34:38Z</time>
      </trkpt>
      <trkpt lat="44.07764" lon="3.73978">
        <ele>950</ele>
        <time>2021-05-24T09:34:40Z</time>
      </trkpt>
      <trkpt lat="44.07764" lon="3.73974">
        <ele>950</ele>
        <time>2021-05-24T09:34:43Z</time>
      </trkpt>
      <trkpt lat="44.07765" lon="3.73971">
        <ele>950</ele>
        <time>2021-05-24T09:34:45Z</time>
      </trkpt>
      <trkpt lat="44.07765" lon="3.73968">
        <ele>950</ele>
        <time>2021-05-24T09:34:47Z</time>
      </trkpt>
      <trkpt lat="44.07766" lon="3.73966">
        <ele>950</ele>
        <time>2021-05-24T09:34:49Z</time>
      </trkpt>
      <trkpt lat="44.07767" lon="3.73962">
        <ele>950</ele>
        <time>2021-05-24T09:34:51Z</time>
      </trkpt>
      <trkpt lat="44.07767" lon="3.73959">
        <ele>950</ele>
        <time>2021-05-24T09:34:53Z</time>
      </trkpt>
      <trkpt lat="44.07768" lon="3.73956">
        <ele>950</ele>
        <time>2021-05-24T09:34:55Z</time>
      </trkpt>
      <trkpt lat="44.07768" lon="3.73953">
        <ele>950</ele>
        <time>2021-05-24T09:34:57Z</time>
      </trkpt>
      <trkpt lat="44.07768" lon="3.73949">
        <ele>950</ele>
        <time>2021-05-24T09:34:59Z</time>
      </trkpt>
      <trkpt lat="44.0777" lon="3.73946">
        <ele>950</ele>
        <time>2021-05-24T09:35:02Z</time>
      </trkpt>
      <trkpt lat="44.0777" lon="3.73942">
        <ele>950</ele>
        <time>2021-05-24T09:35:04Z</time>
      </trkpt>
      <trkpt lat="44.07771" lon="3.73939">
        <ele>950</ele>
        <time>2021-05-24T09:35:06Z</time>
      </trkpt>
      <trkpt lat="44.07772" lon="3.73936">
        <ele>951</ele>
        <time>2021-05-24T09:35:08Z</time>
      </trkpt>
      <trkpt lat="44.07772" lon="3.73933">
        <ele>951</ele>
        <time>2021-05-24T09:35:10Z</time>
      </trkpt>
      <trkpt lat="44.07773" lon="3.7393">
        <ele>951</ele>
        <time>2021-05-24T09:35:12Z</time>
      </trkpt>
      <trkpt lat="44.07775" lon="3.73927">
        <ele>951</ele>
        <time>2021-05-24T09:35:15Z</time>
      </trkpt>
      <trkpt lat="44.07777" lon="3.73923">
        <ele>951</ele>
        <time>2021-05-24T09:35:18Z</time>
      </trkpt>
      <trkpt lat="44.07777" lon="3.73921">
        <ele>951</ele>
        <time>2021-05-24T09:35:20Z</time>
      </trkpt>
      <trkpt lat="44.07778" lon="3.73917">
        <ele>951</ele>
        <time>2021-05-24T09:35:22Z</time>
      </trkpt>
      <trkpt lat="44.07778" lon="3.73915">
        <ele>951</ele>
        <time>2021-05-24T09:35:24Z</time>
      </trkpt>
      <trkpt lat="44.07779" lon="3.73912">
        <ele>951</ele>
        <time>2021-05-24T09:35:27Z</time>
      </trkpt>
      <trkpt lat="44.07779" lon="3.73909">
        <ele>951</ele>
        <time>2021-05-24T09:35:30Z</time>
      </trkpt>
      <trkpt lat="44.07779" lon="3.73906">
        <ele>951</ele>
        <time>2021-05-24T09:35:33Z</time>
      </trkpt>
      <trkpt lat="44.0778" lon="3.73903">
        <ele>951</ele>
        <time>2021-05-24T09:35:35Z</time>
      </trkpt>
      <trkpt lat="44.07781" lon="3.739">
        <ele>952</ele>
        <time>2021-05-24T09:35:38Z</time>
      </trkpt>
      <trkpt lat="44.07781" lon="3.73896">
        <ele>952</ele>
        <time>2021-05-24T09:35:40Z</time>
      </trkpt>
      <trkpt lat="44.07781" lon="3.73893">
        <ele>952</ele>
        <time>2021-05-24T09:35:42Z</time>
      </trkpt>
      <trkpt lat="44.07781" lon="3.7389">
        <ele>952</ele>
        <time>2021-05-24T09:35:44Z</time>
      </trkpt>
      <trkpt lat="44.0778" lon="3.73888">
        <ele>952</ele>
        <time>2021-05-24T09:35:46Z</time>
      </trkpt>
      <trkpt lat="44.07781" lon="3.73885">
        <ele>954</ele>
        <time>2021-05-24T09:35:48Z</time>
      </trkpt>
      <trkpt lat="44.07781" lon="3.73881">
        <ele>954</ele>
        <time>2021-05-24T09:35:51Z</time>
      </trkpt>
      <trkpt lat="44.07783" lon="3.73877">
        <ele>954</ele>
        <time>2021-05-24T09:35:54Z</time>
      </trkpt>
      <trkpt lat="44.07783" lon="3.73874">
        <ele>954</ele>
        <time>2021-05-24T09:35:57Z</time>
      </trkpt>
      <trkpt lat="44.07783" lon="3.73872">
        <ele>954</ele>
        <time>2021-05-24T09:35:59Z</time>
      </trkpt>
      <trkpt lat="44.07784" lon="3.73869">
        <ele>954</ele>
        <time>2021-05-24T09:36:02Z</time>
      </trkpt>
      <trkpt lat="44.07785" lon="3.73866">
        <ele>954</ele>
        <time>2021-05-24T09:36:04Z</time>
      </trkpt>
      <trkpt lat="44.07785" lon="3.73864">
        <ele>954</ele>
        <time>2021-05-24T09:36:07Z</time>
      </trkpt>
      <trkpt lat="44.07786" lon="3.73861">
        <ele>954</ele>
        <time>2021-05-24T09:36:09Z</time>
      </trkpt>
      <trkpt lat="44.07786" lon="3.73858">
        <ele>954</ele>
        <time>2021-05-24T09:36:11Z</time>
      </trkpt>
      <trkpt lat="44.07786" lon="3.73855">
        <ele>954</ele>
        <time>2021-05-24T09:36:13Z</time>
      </trkpt>
      <trkpt lat="44.07787" lon="3.73851">
        <ele>954</ele>
        <time>2021-05-24T09:36:16Z</time>
      </trkpt>
      <trkpt lat="44.07787" lon="3.73849">
        <ele>954</ele>
        <time>2021-05-24T09:36:19Z</time>
      </trkpt>
      <trkpt lat="44.07788" lon="3.73846">
        <ele>954</ele>
        <time>2021-05-24T09:36:22Z</time>
      </trkpt>
      <trkpt lat="44.07789" lon="3.73842">
        <ele>954</ele>
        <time>2021-05-24T09:36:25Z</time>
      </trkpt>
      <trkpt lat="44.07789" lon="3.73839">
        <ele>954</ele>
        <time>2021-05-24T09:36:27Z</time>
      </trkpt>
      <trkpt lat="44.0779" lon="3.73837">
        <ele>954</ele>
        <time>2021-05-24T09:36:29Z</time>
      </trkpt>
      <trkpt lat="44.07792" lon="3.73834">
        <ele>954</ele>
        <time>2021-05-24T09:36:31Z</time>
      </trkpt>
      <trkpt lat="44.07793" lon="3.73832">
        <ele>954</ele>
        <time>2021-05-24T09:36:33Z</time>
      </trkpt>
      <trkpt lat="44.07793" lon="3.73828">
        <ele>954</ele>
        <time>2021-05-24T09:36:35Z</time>
      </trkpt>
      <trkpt lat="44.07794" lon="3.73823">
        <ele>954</ele>
        <time>2021-05-24T09:36:37Z</time>
      </trkpt>
      <trkpt lat="44.07795" lon="3.73821">
        <ele>954</ele>
        <time>2021-05-24T09:36:39Z</time>
      </trkpt>
      <trkpt lat="44.07796" lon="3.73818">
        <ele>954</ele>
        <time>2021-05-24T09:36:41Z</time>
      </trkpt>
      <trkpt lat="44.07798" lon="3.73816">
        <ele>954</ele>
        <time>2021-05-24T09:36:43Z</time>
      </trkpt>
      <trkpt lat="44.07799" lon="3.73812">
        <ele>954</ele>
        <time>2021-05-24T09:36:45Z</time>
      </trkpt>
      <trkpt lat="44.078" lon="3.7381">
        <ele>954</ele>
        <time>2021-05-24T09:36:47Z</time>
      </trkpt>
      <trkpt lat="44.07802" lon="3.73807">
        <ele>954</ele>
        <time>2021-05-24T09:36:49Z</time>
      </trkpt>
      <trkpt lat="44.07803" lon="3.73805">
        <ele>954</ele>
        <time>2021-05-24T09:36:51Z</time>
      </trkpt>
      <trkpt lat="44.07805" lon="3.73803">
        <ele>954</ele>
        <time>2021-05-24T09:36:53Z</time>
      </trkpt>
      <trkpt lat="44.07806" lon="3.738">
        <ele>954</ele>
        <time>2021-05-24T09:36:55Z</time>
      </trkpt>
      <trkpt lat="44.07807" lon="3.73797">
        <ele>954</ele>
        <time>2021-05-24T09:36:57Z</time>
      </trkpt>
      <trkpt lat="44.07808" lon="3.73793">
        <ele>954</ele>
        <time>2021-05-24T09:36:59Z</time>
      </trkpt>
      <trkpt lat="44.07808" lon="3.7379">
        <ele>954</ele>
        <time>2021-05-24T09:37:01Z</time>
      </trkpt>
      <trkpt lat="44.07808" lon="3.73787">
        <ele>954</ele>
        <time>2021-05-24T09:37:03Z</time>
      </trkpt>
      <trkpt lat="44.07809" lon="3.73784">
        <ele>954</ele>
        <time>2021-05-24T09:37:05Z</time>
      </trkpt>
      <trkpt lat="44.07809" lon="3.7378">
        <ele>954</ele>
        <time>2021-05-24T09:37:07Z</time>
      </trkpt>
      <trkpt lat="44.07809" lon="3.73777">
        <ele>954</ele>
        <time>2021-05-24T09:37:09Z</time>
      </trkpt>
      <trkpt lat="44.0781" lon="3.73774">
        <ele>954</ele>
        <time>2021-05-24T09:37:11Z</time>
      </trkpt>
      <trkpt lat="44.07811" lon="3.73771">
        <ele>954</ele>
        <time>2021-05-24T09:37:13Z</time>
      </trkpt>
      <trkpt lat="44.07812" lon="3.73769">
        <ele>954</ele>
        <time>2021-05-24T09:37:15Z</time>
      </trkpt>
      <trkpt lat="44.07812" lon="3.73765">
        <ele>954</ele>
        <time>2021-05-24T09:37:17Z</time>
      </trkpt>
      <trkpt lat="44.07813" lon="3.73762">
        <ele>954</ele>
        <time>2021-05-24T09:37:19Z</time>
      </trkpt>
      <trkpt lat="44.07813" lon="3.73759">
        <ele>954</ele>
        <time>2021-05-24T09:37:21Z</time>
      </trkpt>
      <trkpt lat="44.07814" lon="3.73756">
        <ele>954</ele>
        <time>2021-05-24T09:37:23Z</time>
      </trkpt>
      <trkpt lat="44.07814" lon="3.73753">
        <ele>954</ele>
        <time>2021-05-24T09:37:25Z</time>
      </trkpt>
      <trkpt lat="44.07814" lon="3.7375">
        <ele>954</ele>
        <time>2021-05-24T09:37:27Z</time>
      </trkpt>
      <trkpt lat="44.07814" lon="3.73747">
        <ele>954</ele>
        <time>2021-05-24T09:37:29Z</time>
      </trkpt>
      <trkpt lat="44.07814" lon="3.73744">
        <ele>954</ele>
        <time>2021-05-24T09:37:31Z</time>
      </trkpt>
      <trkpt lat="44.07814" lon="3.73741">
        <ele>954</ele>
        <time>2021-05-24T09:37:33Z</time>
      </trkpt>
      <trkpt lat="44.07814" lon="3.73738">
        <ele>954</ele>
        <time>2021-05-24T09:37:35Z</time>
      </trkpt>
      <trkpt lat="44.07813" lon="3.73735">
        <ele>954</ele>
        <time>2021-05-24T09:37:37Z</time>
      </trkpt>
      <trkpt lat="44.07813" lon="3.73731">
        <ele>954</ele>
        <time>2021-05-24T09:37:39Z</time>
      </trkpt>
      <trkpt lat="44.07813" lon="3.73729">
        <ele>954</ele>
        <time>2021-05-24T09:37:41Z</time>
      </trkpt>
      <trkpt lat="44.07814" lon="3.73726">
        <ele>954</ele>
        <time>2021-05-24T09:37:43Z</time>
      </trkpt>
      <trkpt lat="44.07816" lon="3.73723">
        <ele>954</ele>
        <time>2021-05-24T09:37:46Z</time>
      </trkpt>
      <trkpt lat="44.07818" lon="3.73722">
        <ele>964</ele>
        <time>2021-05-24T09:37:48Z</time>
      </trkpt>
      <trkpt lat="44.07819" lon="3.7372">
        <ele>964</ele>
        <time>2021-05-24T09:37:52Z</time>
      </trkpt>
      <trkpt lat="44.07821" lon="3.73718">
        <ele>964</ele>
        <time>2021-05-24T09:37:56Z</time>
      </trkpt>
      <trkpt lat="44.07823" lon="3.73715">
        <ele>964</ele>
        <time>2021-05-24T09:37:59Z</time>
      </trkpt>
      <trkpt lat="44.07823" lon="3.73713">
        <ele>964</ele>
        <time>2021-05-24T09:38:02Z</time>
      </trkpt>
      <trkpt lat="44.07825" lon="3.73709">
        <ele>964</ele>
        <time>2021-05-24T09:38:04Z</time>
      </trkpt>
      <trkpt lat="44.07825" lon="3.73706">
        <ele>964</ele>
        <time>2021-05-24T09:38:06Z</time>
      </trkpt>
      <trkpt lat="44.07826" lon="3.73703">
        <ele>966</ele>
        <time>2021-05-24T09:38:08Z</time>
      </trkpt>
      <trkpt lat="44.07826" lon="3.73699">
        <ele>966</ele>
        <time>2021-05-24T09:38:11Z</time>
      </trkpt>
      <trkpt lat="44.07827" lon="3.73696">
        <ele>966</ele>
        <time>2021-05-24T09:38:14Z</time>
      </trkpt>
      <trkpt lat="44.07827" lon="3.73693">
        <ele>966</ele>
        <time>2021-05-24T09:38:16Z</time>
      </trkpt>
      <trkpt lat="44.07828" lon="3.7369">
        <ele>967</ele>
        <time>2021-05-24T09:38:18Z</time>
      </trkpt>
      <trkpt lat="44.07829" lon="3.73687">
        <ele>967</ele>
        <time>2021-05-24T09:38:20Z</time>
      </trkpt>
      <trkpt lat="44.0783" lon="3.73684">
        <ele>967</ele>
        <time>2021-05-24T09:38:22Z</time>
      </trkpt>
      <trkpt lat="44.07831" lon="3.73681">
        <ele>967</ele>
        <time>2021-05-24T09:38:24Z</time>
      </trkpt>
      <trkpt lat="44.07831" lon="3.73678">
        <ele>967</ele>
        <time>2021-05-24T09:38:26Z</time>
      </trkpt>
      <trkpt lat="44.07833" lon="3.73675">
        <ele>967</ele>
        <time>2021-05-24T09:38:28Z</time>
      </trkpt>
      <trkpt lat="44.07833" lon="3.73671">
        <ele>967</ele>
        <time>2021-05-24T09:38:30Z</time>
      </trkpt>
      <trkpt lat="44.07834" lon="3.73668">
        <ele>967</ele>
        <time>2021-05-24T09:38:32Z</time>
      </trkpt>
      <trkpt lat="44.07835" lon="3.73666">
        <ele>967</ele>
        <time>2021-05-24T09:38:34Z</time>
      </trkpt>
      <trkpt lat="44.07836" lon="3.73663">
        <ele>967</ele>
        <time>2021-05-24T09:38:36Z</time>
      </trkpt>
      <trkpt lat="44.07838" lon="3.7366">
        <ele>967</ele>
        <time>2021-05-24T09:38:38Z</time>
      </trkpt>
      <trkpt lat="44.07839" lon="3.73658">
        <ele>967</ele>
        <time>2021-05-24T09:38:40Z</time>
      </trkpt>
      <trkpt lat="44.07842" lon="3.73656">
        <ele>967</ele>
        <time>2021-05-24T09:38:42Z</time>
      </trkpt>
      <trkpt lat="44.07843" lon="3.73652">
        <ele>967</ele>
        <time>2021-05-24T09:38:45Z</time>
      </trkpt>
      <trkpt lat="44.07845" lon="3.7365">
        <ele>967</ele>
        <time>2021-05-24T09:38:47Z</time>
      </trkpt>
      <trkpt lat="44.07846" lon="3.73646">
        <ele>967</ele>
        <time>2021-05-24T09:38:50Z</time>
      </trkpt>
      <trkpt lat="44.07847" lon="3.73643">
        <ele>967</ele>
        <time>2021-05-24T09:38:52Z</time>
      </trkpt>
      <trkpt lat="44.07848" lon="3.73641">
        <ele>967</ele>
        <time>2021-05-24T09:38:54Z</time>
      </trkpt>
      <trkpt lat="44.0785" lon="3.73637">
        <ele>967</ele>
        <time>2021-05-24T09:38:57Z</time>
      </trkpt>
      <trkpt lat="44.07851" lon="3.73635">
        <ele>967</ele>
        <time>2021-05-24T09:38:59Z</time>
      </trkpt>
      <trkpt lat="44.07852" lon="3.73633">
        <ele>967</ele>
        <time>2021-05-24T09:39:01Z</time>
      </trkpt>
      <trkpt lat="44.07853" lon="3.7363">
        <ele>967</ele>
        <time>2021-05-24T09:39:04Z</time>
      </trkpt>
      <trkpt lat="44.07855" lon="3.73628">
        <ele>967</ele>
        <time>2021-05-24T09:39:07Z</time>
      </trkpt>
      <trkpt lat="44.07857" lon="3.73625">
        <ele>967</ele>
        <time>2021-05-24T09:39:09Z</time>
      </trkpt>
      <trkpt lat="44.07858" lon="3.73623">
        <ele>967</ele>
        <time>2021-05-24T09:39:11Z</time>
      </trkpt>
      <trkpt lat="44.0786" lon="3.7362">
        <ele>967</ele>
        <time>2021-05-24T09:39:14Z</time>
      </trkpt>
      <trkpt lat="44.07861" lon="3.73618">
        <ele>967</ele>
        <time>2021-05-24T09:39:16Z</time>
      </trkpt>
      <trkpt lat="44.07862" lon="3.73615">
        <ele>971</ele>
        <time>2021-05-24T09:39:18Z</time>
      </trkpt>
      <trkpt lat="44.07863" lon="3.73612">
        <ele>971</ele>
        <time>2021-05-24T09:39:21Z</time>
      </trkpt>
      <trkpt lat="44.07864" lon="3.73609">
        <ele>971</ele>
        <time>2021-05-24T09:39:23Z</time>
      </trkpt>
      <trkpt lat="44.07865" lon="3.73607">
        <ele>971</ele>
        <time>2021-05-24T09:39:25Z</time>
      </trkpt>
      <trkpt lat="44.07866" lon="3.73605">
        <ele>971</ele>
        <time>2021-05-24T09:39:27Z</time>
      </trkpt>
      <trkpt lat="44.07868" lon="3.73602">
        <ele>971</ele>
        <time>2021-05-24T09:39:30Z</time>
      </trkpt>
      <trkpt lat="44.07869" lon="3.736">
        <ele>971</ele>
        <time>2021-05-24T09:39:32Z</time>
      </trkpt>
      <trkpt lat="44.07871" lon="3.73598">
        <ele>971</ele>
        <time>2021-05-24T09:39:34Z</time>
      </trkpt>
      <trkpt lat="44.07873" lon="3.73597">
        <ele>971</ele>
        <time>2021-05-24T09:39:37Z</time>
      </trkpt>
      <trkpt lat="44.07875" lon="3.73593">
        <ele>971</ele>
        <time>2021-05-24T09:39:41Z</time>
      </trkpt>
      <trkpt lat="44.07876" lon="3.7359">
        <ele>971</ele>
        <time>2021-05-24T09:39:44Z</time>
      </trkpt>
      <trkpt lat="44.07878" lon="3.73587">
        <ele>971</ele>
        <time>2021-05-24T09:39:47Z</time>
      </trkpt>
      <trkpt lat="44.07878" lon="3.73584">
        <ele>971</ele>
        <time>2021-05-24T09:39:49Z</time>
      </trkpt>
      <trkpt lat="44.07879" lon="3.73582">
        <ele>971</ele>
        <time>2021-05-24T09:39:51Z</time>
      </trkpt>
      <trkpt lat="44.0788" lon="3.73579">
        <ele>971</ele>
        <time>2021-05-24T09:39:54Z</time>
      </trkpt>
      <trkpt lat="44.07881" lon="3.73576">
        <ele>971</ele>
        <time>2021-05-24T09:39:56Z</time>
      </trkpt>
      <trkpt lat="44.07882" lon="3.73574">
        <ele>971</ele>
        <time>2021-05-24T09:39:59Z</time>
      </trkpt>
      <trkpt lat="44.07883" lon="3.73572">
        <ele>971</ele>
        <time>2021-05-24T09:40:02Z</time>
      </trkpt>
      <trkpt lat="44.07885" lon="3.73569">
        <ele>971</ele>
        <time>2021-05-24T09:40:05Z</time>
      </trkpt>
      <trkpt lat="44.07885" lon="3.73565">
        <ele>977</ele>
        <time>2021-05-24T09:40:08Z</time>
      </trkpt>
      <trkpt lat="44.07888" lon="3.73557">
        <ele>977</ele>
        <time>2021-05-24T09:40:14Z</time>
      </trkpt>
      <trkpt lat="44.0789" lon="3.73555">
        <ele>977</ele>
        <time>2021-05-24T09:40:17Z</time>
      </trkpt>
      <trkpt lat="44.07892" lon="3.73553">
        <ele>977</ele>
        <time>2021-05-24T09:40:19Z</time>
      </trkpt>
      <trkpt lat="44.07893" lon="3.73551">
        <ele>977</ele>
        <time>2021-05-24T09:40:21Z</time>
      </trkpt>
      <trkpt lat="44.07895" lon="3.73549">
        <ele>977</ele>
        <time>2021-05-24T09:40:24Z</time>
      </trkpt>
      <trkpt lat="44.07896" lon="3.73547">
        <ele>977</ele>
        <time>2021-05-24T09:40:26Z</time>
      </trkpt>
      <trkpt lat="44.079" lon="3.73538">
        <ele>977</ele>
        <time>2021-05-24T09:40:32Z</time>
      </trkpt>
      <trkpt lat="44.07902" lon="3.73527">
        <ele>977</ele>
        <time>2021-05-24T09:40:40Z</time>
      </trkpt>
      <trkpt lat="44.07905" lon="3.73521">
        <ele>977</ele>
        <time>2021-05-24T09:40:47Z</time>
      </trkpt>
      <trkpt lat="44.07906" lon="3.73519">
        <ele>977</ele>
        <time>2021-05-24T09:40:49Z</time>
      </trkpt>
      <trkpt lat="44.07908" lon="3.73517">
        <ele>977</ele>
        <time>2021-05-24T09:40:51Z</time>
      </trkpt>
      <trkpt lat="44.0791" lon="3.73516">
        <ele>977</ele>
        <time>2021-05-24T09:40:53Z</time>
      </trkpt>
      <trkpt lat="44.07912" lon="3.73515">
        <ele>977</ele>
        <time>2021-05-24T09:40:55Z</time>
      </trkpt>
      <trkpt lat="44.07914" lon="3.73513">
        <ele>983</ele>
        <time>2021-05-24T09:40:58Z</time>
      </trkpt>
      <trkpt lat="44.07915" lon="3.73511">
        <ele>983</ele>
        <time>2021-05-24T09:41:00Z</time>
      </trkpt>
      <trkpt lat="44.07917" lon="3.73509">
        <ele>983</ele>
        <time>2021-05-24T09:41:03Z</time>
      </trkpt>
      <trkpt lat="44.07919" lon="3.73507">
        <ele>983</ele>
        <time>2021-05-24T09:41:05Z</time>
      </trkpt>
      <trkpt lat="44.0792" lon="3.73504">
        <ele>983</ele>
        <time>2021-05-24T09:41:07Z</time>
      </trkpt>
      <trkpt lat="44.07921" lon="3.73502">
        <ele>983</ele>
        <time>2021-05-24T09:41:09Z</time>
      </trkpt>
      <trkpt lat="44.07922" lon="3.73498">
        <ele>983</ele>
        <time>2021-05-24T09:41:12Z</time>
      </trkpt>
      <trkpt lat="44.07923" lon="3.73495">
        <ele>983</ele>
        <time>2021-05-24T09:41:14Z</time>
      </trkpt>
      <trkpt lat="44.07923" lon="3.73492">
        <ele>983</ele>
        <time>2021-05-24T09:41:16Z</time>
      </trkpt>
      <trkpt lat="44.07924" lon="3.7349">
        <ele>983</ele>
        <time>2021-05-24T09:41:19Z</time>
      </trkpt>
      <trkpt lat="44.07926" lon="3.73488">
        <ele>983</ele>
        <time>2021-05-24T09:41:22Z</time>
      </trkpt>
      <trkpt lat="44.07928" lon="3.73486">
        <ele>983</ele>
        <time>2021-05-24T09:41:25Z</time>
      </trkpt>
      <trkpt lat="44.07929" lon="3.73483">
        <ele>986</ele>
        <time>2021-05-24T09:41:28Z</time>
      </trkpt>
      <trkpt lat="44.0793" lon="3.7348">
        <ele>986</ele>
        <time>2021-05-24T09:41:31Z</time>
      </trkpt>
      <trkpt lat="44.07931" lon="3.73476">
        <ele>986</ele>
        <time>2021-05-24T09:41:34Z</time>
      </trkpt>
      <trkpt lat="44.07932" lon="3.73473">
        <ele>986</ele>
        <time>2021-05-24T09:41:37Z</time>
      </trkpt>
      <trkpt lat="44.07933" lon="3.73471">
        <ele>986</ele>
        <time>2021-05-24T09:41:39Z</time>
      </trkpt>
      <trkpt lat="44.07933" lon="3.73468">
        <ele>986</ele>
        <time>2021-05-24T09:41:41Z</time>
      </trkpt>
      <trkpt lat="44.07933" lon="3.73465">
        <ele>986</ele>
        <time>2021-05-24T09:41:44Z</time>
      </trkpt>
      <trkpt lat="44.07935" lon="3.73462">
        <ele>986</ele>
        <time>2021-05-24T09:41:46Z</time>
      </trkpt>
      <trkpt lat="44.07936" lon="3.73459">
        <ele>988</ele>
        <time>2021-05-24T09:41:48Z</time>
      </trkpt>
      <trkpt lat="44.07935" lon="3.73457">
        <ele>988</ele>
        <time>2021-05-24T09:41:50Z</time>
      </trkpt>
      <trkpt lat="44.07936" lon="3.73454">
        <ele>988</ele>
        <time>2021-05-24T09:41:52Z</time>
      </trkpt>
      <trkpt lat="44.07936" lon="3.73451">
        <ele>988</ele>
        <time>2021-05-24T09:41:54Z</time>
      </trkpt>
      <trkpt lat="44.07937" lon="3.73448">
        <ele>988</ele>
        <time>2021-05-24T09:41:56Z</time>
      </trkpt>
      <trkpt lat="44.07938" lon="3.73446">
        <ele>989</ele>
        <time>2021-05-24T09:41:58Z</time>
      </trkpt>
      <trkpt lat="44.07938" lon="3.73443">
        <ele>989</ele>
        <time>2021-05-24T09:42:00Z</time>
      </trkpt>
      <trkpt lat="44.07938" lon="3.7344">
        <ele>989</ele>
        <time>2021-05-24T09:42:02Z</time>
      </trkpt>
      <trkpt lat="44.07938" lon="3.73437">
        <ele>989</ele>
        <time>2021-05-24T09:42:04Z</time>
      </trkpt>
      <trkpt lat="44.07937" lon="3.73434">
        <ele>989</ele>
        <time>2021-05-24T09:42:06Z</time>
      </trkpt>
      <trkpt lat="44.0794" lon="3.73422">
        <ele>989</ele>
        <time>2021-05-24T09:42:15Z</time>
      </trkpt>
      <trkpt lat="44.07941" lon="3.73408">
        <ele>989</ele>
        <time>2021-05-24T09:42:25Z</time>
      </trkpt>
      <trkpt lat="44.07942" lon="3.73393">
        <ele>993</ele>
        <time>2021-05-24T09:42:38Z</time>
      </trkpt>
      <trkpt lat="44.07937" lon="3.73381">
        <ele>993</ele>
        <time>2021-05-24T09:42:46Z</time>
      </trkpt>
      <trkpt lat="44.07933" lon="3.73367">
        <ele>993</ele>
        <time>2021-05-24T09:42:56Z</time>
      </trkpt>
      <trkpt lat="44.07939" lon="3.73358">
        <ele>993</ele>
        <time>2021-05-24T09:43:06Z</time>
      </trkpt>
      <trkpt lat="44.07947" lon="3.73349">
        <ele>993</ele>
        <time>2021-05-24T09:43:13Z</time>
      </trkpt>
      <trkpt lat="44.07944" lon="3.73337">
        <ele>993</ele>
        <time>2021-05-24T09:43:23Z</time>
      </trkpt>
      <trkpt lat="44.07941" lon="3.73323">
        <ele>993</ele>
        <time>2021-05-24T09:43:33Z</time>
      </trkpt>
      <trkpt lat="44.07943" lon="3.73311">
        <ele>993</ele>
        <time>2021-05-24T09:43:45Z</time>
      </trkpt>
      <trkpt lat="44.07953" lon="3.73306">
        <ele>993</ele>
        <time>2021-05-24T09:43:51Z</time>
      </trkpt>
      <trkpt lat="44.07951" lon="3.73293">
        <ele>993</ele>
        <time>2021-05-24T09:44:00Z</time>
      </trkpt>
      <trkpt lat="44.07956" lon="3.73282">
        <ele>993</ele>
        <time>2021-05-24T09:44:13Z</time>
      </trkpt>
      <trkpt lat="44.07958" lon="3.73269">
        <ele>993</ele>
        <time>2021-05-24T09:44:23Z</time>
      </trkpt>
      <trkpt lat="44.07962" lon="3.73257">
        <ele>993</ele>
        <time>2021-05-24T09:44:33Z</time>
      </trkpt>
      <trkpt lat="44.07961" lon="3.73243">
        <ele>993</ele>
        <time>2021-05-24T09:44:46Z</time>
      </trkpt>
      <trkpt lat="44.07964" lon="3.73231">
        <ele>993</ele>
        <time>2021-05-24T09:44:57Z</time>
      </trkpt>
      <trkpt lat="44.07969" lon="3.7322">
        <ele>993</ele>
        <time>2021-05-24T09:45:06Z</time>
      </trkpt>
      <trkpt lat="44.07975" lon="3.7321">
        <ele>993</ele>
        <time>2021-05-24T09:45:14Z</time>
      </trkpt>
      <trkpt lat="44.07976" lon="3.73197">
        <ele>993</ele>
        <time>2021-05-24T09:45:22Z</time>
      </trkpt>
      <trkpt lat="44.07978" lon="3.73183">
        <ele>993</ele>
        <time>2021-05-24T09:45:32Z</time>
      </trkpt>
      <trkpt lat="44.0798" lon="3.73169">
        <ele>993</ele>
        <time>2021-05-24T09:45:42Z</time>
      </trkpt>
      <trkpt lat="44.07985" lon="3.73158">
        <ele>993</ele>
        <time>2021-05-24T09:45:51Z</time>
      </trkpt>
      <trkpt lat="44.07988" lon="3.73146">
        <ele>993</ele>
        <time>2021-05-24T09:46:03Z</time>
      </trkpt>
      <trkpt lat="44.07996" lon="3.73137">
        <ele>993</ele>
        <time>2021-05-24T09:46:09Z</time>
      </trkpt>
      <trkpt lat="44.08001" lon="3.73126">
        <ele>993</ele>
        <time>2021-05-24T09:46:16Z</time>
      </trkpt>
      <trkpt lat="44.08011" lon="3.73123">
        <ele>1002</ele>
        <time>2021-05-24T09:46:28Z</time>
      </trkpt>
      <trkpt lat="44.0802" lon="3.73123">
        <ele>1002</ele>
        <time>2021-05-24T09:46:31Z</time>
      </trkpt>
      <trkpt lat="44.08024" lon="3.73121">
        <ele>1002</ele>
        <time>2021-05-24T09:46:33Z</time>
      </trkpt>
      <trkpt lat="44.08027" lon="3.7312">
        <ele>1002</ele>
        <time>2021-05-24T09:46:35Z</time>
      </trkpt>
      <trkpt lat="44.0803" lon="3.73119">
        <ele>1002</ele>
        <time>2021-05-24T09:46:37Z</time>
      </trkpt>
      <trkpt lat="44.08033" lon="3.73118">
        <ele>1002</ele>
        <time>2021-05-24T09:46:39Z</time>
      </trkpt>
      <trkpt lat="44.08035" lon="3.73117">
        <ele>1002</ele>
        <time>2021-05-24T09:46:41Z</time>
      </trkpt>
      <trkpt lat="44.08037" lon="3.73116">
        <ele>1002</ele>
        <time>2021-05-24T09:46:43Z</time>
      </trkpt>
      <trkpt lat="44.0804" lon="3.73115">
        <ele>1002</ele>
        <time>2021-05-24T09:46:45Z</time>
      </trkpt>
      <trkpt lat="44.08042" lon="3.73114">
        <ele>1002</ele>
        <time>2021-05-24T09:46:46Z</time>
      </trkpt>
      <trkpt lat="44.08043" lon="3.73113">
        <ele>1002</ele>
        <time>2021-05-24T09:46:47Z</time>
      </trkpt>
      <trkpt lat="44.08046" lon="3.73112">
        <ele>1002</ele>
        <time>2021-05-24T09:46:49Z</time>
      </trkpt>
      <trkpt lat="44.08048" lon="3.73109">
        <ele>1002</ele>
        <time>2021-05-24T09:46:51Z</time>
      </trkpt>
      <trkpt lat="44.0805" lon="3.73107">
        <ele>1002</ele>
        <time>2021-05-24T09:46:53Z</time>
      </trkpt>
      <trkpt lat="44.08052" lon="3.73106">
        <ele>1002</ele>
        <time>2021-05-24T09:46:55Z</time>
      </trkpt>
      <trkpt lat="44.08054" lon="3.73104">
        <ele>1002</ele>
        <time>2021-05-24T09:46:57Z</time>
      </trkpt>
      <trkpt lat="44.08056" lon="3.73102">
        <ele>1002</ele>
        <time>2021-05-24T09:46:59Z</time>
      </trkpt>
      <trkpt lat="44.08058" lon="3.731">
        <ele>1002</ele>
        <time>2021-05-24T09:47:01Z</time>
      </trkpt>
      <trkpt lat="44.0806" lon="3.73099">
        <ele>1002</ele>
        <time>2021-05-24T09:47:03Z</time>
      </trkpt>
      <trkpt lat="44.08062" lon="3.73098">
        <ele>1002</ele>
        <time>2021-05-24T09:47:05Z</time>
      </trkpt>
      <trkpt lat="44.08064" lon="3.73096">
        <ele>1002</ele>
        <time>2021-05-24T09:47:07Z</time>
      </trkpt>
      <trkpt lat="44.08066" lon="3.73094">
        <ele>1002</ele>
        <time>2021-05-24T09:47:09Z</time>
      </trkpt>
      <trkpt lat="44.08068" lon="3.73094">
        <ele>1002</ele>
        <time>2021-05-24T09:47:11Z</time>
      </trkpt>
      <trkpt lat="44.0807" lon="3.73091">
        <ele>1002</ele>
        <time>2021-05-24T09:47:14Z</time>
      </trkpt>
      <trkpt lat="44.08072" lon="3.73089">
        <ele>1002</ele>
        <time>2021-05-24T09:47:16Z</time>
      </trkpt>
      <trkpt lat="44.08074" lon="3.73087">
        <ele>1000</ele>
        <time>2021-05-24T09:47:18Z</time>
      </trkpt>
      <trkpt lat="44.08077" lon="3.73085">
        <ele>1000</ele>
        <time>2021-05-24T09:47:20Z</time>
      </trkpt>
      <trkpt lat="44.08079" lon="3.73084">
        <ele>1000</ele>
        <time>2021-05-24T09:47:22Z</time>
      </trkpt>
      <trkpt lat="44.08082" lon="3.73081">
        <ele>1000</ele>
        <time>2021-05-24T09:47:24Z</time>
      </trkpt>
      <trkpt lat="44.08084" lon="3.73079">
        <ele>1000</ele>
        <time>2021-05-24T09:47:26Z</time>
      </trkpt>
      <trkpt lat="44.08086" lon="3.73076">
        <ele>1000</ele>
        <time>2021-05-24T09:47:28Z</time>
      </trkpt>
      <trkpt lat="44.08087" lon="3.73074">
        <ele>1000</ele>
        <time>2021-05-24T09:47:30Z</time>
      </trkpt>
      <trkpt lat="44.08088" lon="3.73071">
        <ele>1000</ele>
        <time>2021-05-24T09:47:32Z</time>
      </trkpt>
      <trkpt lat="44.0809" lon="3.73069">
        <ele>1000</ele>
        <time>2021-05-24T09:47:35Z</time>
      </trkpt>
      <trkpt lat="44.0809" lon="3.73055">
        <ele>1000</ele>
        <time>2021-05-24T09:47:45Z</time>
      </trkpt>
      <trkpt lat="44.08091" lon="3.73042">
        <ele>1000</ele>
        <time>2021-05-24T09:47:55Z</time>
      </trkpt>
      <trkpt lat="44.08098" lon="3.73033">
        <ele>1000</ele>
        <time>2021-05-24T09:48:02Z</time>
      </trkpt>
      <trkpt lat="44.08103" lon="3.73022">
        <ele>1000</ele>
        <time>2021-05-24T09:48:10Z</time>
      </trkpt>
      <trkpt lat="44.08108" lon="3.73009">
        <ele>1000</ele>
        <time>2021-05-24T09:48:20Z</time>
      </trkpt>
      <trkpt lat="44.08117" lon="3.73002">
        <ele>992</ele>
        <time>2021-05-24T09:48:28Z</time>
      </trkpt>
      <trkpt lat="44.08126" lon="3.72994">
        <ele>990</ele>
        <time>2021-05-24T09:48:38Z</time>
      </trkpt>
      <trkpt lat="44.08128" lon="3.72991">
        <ele>990</ele>
        <time>2021-05-24T09:48:40Z</time>
      </trkpt>
      <trkpt lat="44.0813" lon="3.72988">
        <ele>990</ele>
        <time>2021-05-24T09:48:42Z</time>
      </trkpt>
      <trkpt lat="44.08132" lon="3.72987">
        <ele>990</ele>
        <time>2021-05-24T09:48:43Z</time>
      </trkpt>
      <trkpt lat="44.08134" lon="3.72986">
        <ele>990</ele>
        <time>2021-05-24T09:48:45Z</time>
      </trkpt>
      <trkpt lat="44.08138" lon="3.72985">
        <ele>990</ele>
        <time>2021-05-24T09:48:47Z</time>
      </trkpt>
      <trkpt lat="44.0814" lon="3.72983">
        <ele>990</ele>
        <time>2021-05-24T09:48:49Z</time>
      </trkpt>
      <trkpt lat="44.08142" lon="3.7298">
        <ele>990</ele>
        <time>2021-05-24T09:48:52Z</time>
      </trkpt>
      <trkpt lat="44.08145" lon="3.7298">
        <ele>990</ele>
        <time>2021-05-24T09:48:54Z</time>
      </trkpt>
      <trkpt lat="44.08149" lon="3.72978">
        <ele>990</ele>
        <time>2021-05-24T09:48:57Z</time>
      </trkpt>
      <trkpt lat="44.08152" lon="3.72977">
        <ele>990</ele>
        <time>2021-05-24T09:48:59Z</time>
      </trkpt>
      <trkpt lat="44.08153" lon="3.72975">
        <ele>990</ele>
        <time>2021-05-24T09:49:00Z</time>
      </trkpt>
      <trkpt lat="44.08156" lon="3.72972">
        <ele>990</ele>
        <time>2021-05-24T09:49:02Z</time>
      </trkpt>
      <trkpt lat="44.08158" lon="3.7297">
        <ele>990</ele>
        <time>2021-05-24T09:49:04Z</time>
      </trkpt>
      <trkpt lat="44.08159" lon="3.72968">
        <ele>990</ele>
        <time>2021-05-24T09:49:06Z</time>
      </trkpt>
      <trkpt lat="44.08161" lon="3.72966">
        <ele>986</ele>
        <time>2021-05-24T09:49:08Z</time>
      </trkpt>
      <trkpt lat="44.08164" lon="3.72964">
        <ele>986</ele>
        <time>2021-05-24T09:49:10Z</time>
      </trkpt>
      <trkpt lat="44.08167" lon="3.72963">
        <ele>986</ele>
        <time>2021-05-24T09:49:12Z</time>
      </trkpt>
      <trkpt lat="44.08168" lon="3.72962">
        <ele>986</ele>
        <time>2021-05-24T09:49:14Z</time>
      </trkpt>
      <trkpt lat="44.0817" lon="3.7296">
        <ele>986</ele>
        <time>2021-05-24T09:49:16Z</time>
      </trkpt>
      <trkpt lat="44.08172" lon="3.72959">
        <ele>985</ele>
        <time>2021-05-24T09:49:18Z</time>
      </trkpt>
      <trkpt lat="44.08176" lon="3.72958">
        <ele>985</ele>
        <time>2021-05-24T09:49:23Z</time>
      </trkpt>
      <trkpt lat="44.0818" lon="3.72958">
        <ele>985</ele>
        <time>2021-05-24T09:49:26Z</time>
      </trkpt>
      <trkpt lat="44.08182" lon="3.72958">
        <ele>985</ele>
        <time>2021-05-24T09:49:28Z</time>
      </trkpt>
      <trkpt lat="44.08184" lon="3.72957">
        <ele>985</ele>
        <time>2021-05-24T09:49:30Z</time>
      </trkpt>
      <trkpt lat="44.08187" lon="3.72957">
        <ele>985</ele>
        <time>2021-05-24T09:49:32Z</time>
      </trkpt>
      <trkpt lat="44.08189" lon="3.72956">
        <ele>985</ele>
        <time>2021-05-24T09:49:34Z</time>
      </trkpt>
      <trkpt lat="44.08191" lon="3.72955">
        <ele>985</ele>
        <time>2021-05-24T09:49:36Z</time>
      </trkpt>
      <trkpt lat="44.08193" lon="3.72954">
        <ele>985</ele>
        <time>2021-05-24T09:49:38Z</time>
      </trkpt>
      <trkpt lat="44.08195" lon="3.72954">
        <ele>985</ele>
        <time>2021-05-24T09:49:41Z</time>
      </trkpt>
      <trkpt lat="44.08198" lon="3.72953">
        <ele>985</ele>
        <time>2021-05-24T09:49:43Z</time>
      </trkpt>
      <trkpt lat="44.082" lon="3.72952">
        <ele>985</ele>
        <time>2021-05-24T09:49:45Z</time>
      </trkpt>
      <trkpt lat="44.08203" lon="3.72951">
        <ele>985</ele>
        <time>2021-05-24T09:49:47Z</time>
      </trkpt>
      <trkpt lat="44.08204" lon="3.7295">
        <ele>985</ele>
        <time>2021-05-24T09:49:49Z</time>
      </trkpt>
      <trkpt lat="44.08206" lon="3.7295">
        <ele>985</ele>
        <time>2021-05-24T09:49:51Z</time>
      </trkpt>
      <trkpt lat="44.08209" lon="3.72948">
        <ele>985</ele>
        <time>2021-05-24T09:49:53Z</time>
      </trkpt>
      <trkpt lat="44.08211" lon="3.72946">
        <ele>985</ele>
        <time>2021-05-24T09:49:55Z</time>
      </trkpt>
      <trkpt lat="44.08213" lon="3.72945">
        <ele>985</ele>
        <time>2021-05-24T09:49:57Z</time>
      </trkpt>
      <trkpt lat="44.08216" lon="3.72944">
        <ele>985</ele>
        <time>2021-05-24T09:49:59Z</time>
      </trkpt>
      <trkpt lat="44.08218" lon="3.72943">
        <ele>985</ele>
        <time>2021-05-24T09:50:01Z</time>
      </trkpt>
      <trkpt lat="44.0822" lon="3.72942">
        <ele>985</ele>
        <time>2021-05-24T09:50:03Z</time>
      </trkpt>
      <trkpt lat="44.08222" lon="3.72941">
        <ele>985</ele>
        <time>2021-05-24T09:50:05Z</time>
      </trkpt>
      <trkpt lat="44.08228" lon="3.72938">
        <ele>985</ele>
        <time>2021-05-24T09:50:11Z</time>
      </trkpt>
      <trkpt lat="44.08229" lon="3.72936">
        <ele>985</ele>
        <time>2021-05-24T09:50:13Z</time>
      </trkpt>
      <trkpt lat="44.08232" lon="3.72935">
        <ele>985</ele>
        <time>2021-05-24T09:50:15Z</time>
      </trkpt>
      <trkpt lat="44.08236" lon="3.72935">
        <ele>985</ele>
        <time>2021-05-24T09:50:22Z</time>
      </trkpt>
      <trkpt lat="44.08238" lon="3.72934">
        <ele>985</ele>
        <time>2021-05-24T09:50:24Z</time>
      </trkpt>
      <trkpt lat="44.08241" lon="3.72933">
        <ele>985</ele>
        <time>2021-05-24T09:50:26Z</time>
      </trkpt>
      <trkpt lat="44.08243" lon="3.72933">
        <ele>982</ele>
        <time>2021-05-24T09:50:28Z</time>
      </trkpt>
      <trkpt lat="44.08245" lon="3.72936">
        <ele>982</ele>
        <time>2021-05-24T09:50:31Z</time>
      </trkpt>
      <trkpt lat="44.08247" lon="3.72937">
        <ele>982</ele>
        <time>2021-05-24T09:50:33Z</time>
      </trkpt>
      <trkpt lat="44.0825" lon="3.72939">
        <ele>982</ele>
        <time>2021-05-24T09:50:35Z</time>
      </trkpt>
      <trkpt lat="44.08252" lon="3.7294">
        <ele>982</ele>
        <time>2021-05-24T09:50:37Z</time>
      </trkpt>
      <trkpt lat="44.08254" lon="3.72939">
        <ele>982</ele>
        <time>2021-05-24T09:50:39Z</time>
      </trkpt>
      <trkpt lat="44.08257" lon="3.72939">
        <ele>982</ele>
        <time>2021-05-24T09:50:41Z</time>
      </trkpt>
      <trkpt lat="44.08259" lon="3.72938">
        <ele>982</ele>
        <time>2021-05-24T09:50:43Z</time>
      </trkpt>
      <trkpt lat="44.08262" lon="3.72938">
        <ele>982</ele>
        <time>2021-05-24T09:50:45Z</time>
      </trkpt>
      <trkpt lat="44.08264" lon="3.72937">
        <ele>982</ele>
        <time>2021-05-24T09:50:47Z</time>
      </trkpt>
      <trkpt lat="44.08266" lon="3.72937">
        <ele>982</ele>
        <time>2021-05-24T09:50:49Z</time>
      </trkpt>
      <trkpt lat="44.08268" lon="3.72937">
        <ele>982</ele>
        <time>2021-05-24T09:50:51Z</time>
      </trkpt>
      <trkpt lat="44.0827" lon="3.72936">
        <ele>982</ele>
        <time>2021-05-24T09:50:53Z</time>
      </trkpt>
      <trkpt lat="44.08273" lon="3.72934">
        <ele>982</ele>
        <time>2021-05-24T09:50:55Z</time>
      </trkpt>
      <trkpt lat="44.08275" lon="3.72932">
        <ele>982</ele>
        <time>2021-05-24T09:50:58Z</time>
      </trkpt>
      <trkpt lat="44.08277" lon="3.7293">
        <ele>982</ele>
        <time>2021-05-24T09:50:59Z</time>
      </trkpt>
      <trkpt lat="44.08278" lon="3.72928">
        <ele>982</ele>
        <time>2021-05-24T09:51:01Z</time>
      </trkpt>
      <trkpt lat="44.08279" lon="3.72926">
        <ele>982</ele>
        <time>2021-05-24T09:51:03Z</time>
      </trkpt>
      <trkpt lat="44.08281" lon="3.72924">
        <ele>982</ele>
        <time>2021-05-24T09:51:05Z</time>
      </trkpt>
      <trkpt lat="44.08284" lon="3.72921">
        <ele>982</ele>
        <time>2021-05-24T09:51:07Z</time>
      </trkpt>
      <trkpt lat="44.08285" lon="3.72919">
        <ele>981</ele>
        <time>2021-05-24T09:51:09Z</time>
      </trkpt>
      <trkpt lat="44.08286" lon="3.72916">
        <ele>981</ele>
        <time>2021-05-24T09:51:11Z</time>
      </trkpt>
      <trkpt lat="44.08288" lon="3.72915">
        <ele>981</ele>
        <time>2021-05-24T09:51:13Z</time>
      </trkpt>
      <trkpt lat="44.08291" lon="3.72915">
        <ele>981</ele>
        <time>2021-05-24T09:51:15Z</time>
      </trkpt>
      <trkpt lat="44.08294" lon="3.72917">
        <ele>981</ele>
        <time>2021-05-24T09:51:17Z</time>
      </trkpt>
      <trkpt lat="44.08296" lon="3.72919">
        <ele>981</ele>
        <time>2021-05-24T09:51:19Z</time>
      </trkpt>
      <trkpt lat="44.08298" lon="3.72918">
        <ele>981</ele>
        <time>2021-05-24T09:51:21Z</time>
      </trkpt>
      <trkpt lat="44.08301" lon="3.72918">
        <ele>981</ele>
        <time>2021-05-24T09:51:23Z</time>
      </trkpt>
      <trkpt lat="44.08303" lon="3.72917">
        <ele>981</ele>
        <time>2021-05-24T09:51:25Z</time>
      </trkpt>
      <trkpt lat="44.08306" lon="3.72916">
        <ele>981</ele>
        <time>2021-05-24T09:51:27Z</time>
      </trkpt>
      <trkpt lat="44.08308" lon="3.72914">
        <ele>981</ele>
        <time>2021-05-24T09:51:29Z</time>
      </trkpt>
      <trkpt lat="44.0831" lon="3.72912">
        <ele>981</ele>
        <time>2021-05-24T09:51:31Z</time>
      </trkpt>
      <trkpt lat="44.08312" lon="3.7291">
        <ele>981</ele>
        <time>2021-05-24T09:51:33Z</time>
      </trkpt>
      <trkpt lat="44.08314" lon="3.72908">
        <ele>981</ele>
        <time>2021-05-24T09:51:36Z</time>
      </trkpt>
      <trkpt lat="44.08317" lon="3.72908">
        <ele>977</ele>
        <time>2021-05-24T09:51:38Z</time>
      </trkpt>
      <trkpt lat="44.08319" lon="3.72906">
        <ele>977</ele>
        <time>2021-05-24T09:51:40Z</time>
      </trkpt>
      <trkpt lat="44.08321" lon="3.72906">
        <ele>977</ele>
        <time>2021-05-24T09:51:43Z</time>
      </trkpt>
      <trkpt lat="44.08323" lon="3.72903">
        <ele>977</ele>
        <time>2021-05-24T09:51:45Z</time>
      </trkpt>
      <trkpt lat="44.08325" lon="3.72901">
        <ele>976</ele>
        <time>2021-05-24T09:51:48Z</time>
      </trkpt>
      <trkpt lat="44.08326" lon="3.729">
        <ele>976</ele>
        <time>2021-05-24T09:51:50Z</time>
      </trkpt>
      <trkpt lat="44.08328" lon="3.72898">
        <ele>976</ele>
        <time>2021-05-24T09:51:52Z</time>
      </trkpt>
      <trkpt lat="44.0833" lon="3.72896">
        <ele>976</ele>
        <time>2021-05-24T09:51:54Z</time>
      </trkpt>
      <trkpt lat="44.08332" lon="3.72894">
        <ele>976</ele>
        <time>2021-05-24T09:51:56Z</time>
      </trkpt>
      <trkpt lat="44.08335" lon="3.72892">
        <ele>976</ele>
        <time>2021-05-24T09:51:59Z</time>
      </trkpt>
      <trkpt lat="44.08337" lon="3.72891">
        <ele>976</ele>
        <time>2021-05-24T09:52:02Z</time>
      </trkpt>
      <trkpt lat="44.08339" lon="3.7289">
        <ele>976</ele>
        <time>2021-05-24T09:52:05Z</time>
      </trkpt>
      <trkpt lat="44.08341" lon="3.72889">
        <ele>976</ele>
        <time>2021-05-24T09:52:07Z</time>
      </trkpt>
      <trkpt lat="44.08344" lon="3.72889">
        <ele>976</ele>
        <time>2021-05-24T09:52:13Z</time>
      </trkpt>
      <trkpt lat="44.08346" lon="3.72888">
        <ele>976</ele>
        <time>2021-05-24T09:52:15Z</time>
      </trkpt>
      <trkpt lat="44.08347" lon="3.72888">
        <ele>976</ele>
        <time>2021-05-24T09:52:17Z</time>
      </trkpt>
      <trkpt lat="44.08349" lon="3.72887">
        <ele>976</ele>
        <time>2021-05-24T09:52:25Z</time>
      </trkpt>
      <trkpt lat="44.08351" lon="3.72887">
        <ele>976</ele>
        <time>2021-05-24T09:52:27Z</time>
      </trkpt>
      <trkpt lat="44.08354" lon="3.72886">
        <ele>976</ele>
        <time>2021-05-24T09:52:30Z</time>
      </trkpt>
      <trkpt lat="44.08357" lon="3.72886">
        <ele>976</ele>
        <time>2021-05-24T09:52:32Z</time>
      </trkpt>
      <trkpt lat="44.08359" lon="3.72885">
        <ele>976</ele>
        <time>2021-05-24T09:52:35Z</time>
      </trkpt>
      <trkpt lat="44.08362" lon="3.72885">
        <ele>976</ele>
        <time>2021-05-24T09:52:39Z</time>
      </trkpt>
      <trkpt lat="44.08363" lon="3.72885">
        <ele>976</ele>
        <time>2021-05-24T09:52:41Z</time>
      </trkpt>
      <trkpt lat="44.08366" lon="3.72884">
        <ele>976</ele>
        <time>2021-05-24T09:52:44Z</time>
      </trkpt>
      <trkpt lat="44.08368" lon="3.72885">
        <ele>976</ele>
        <time>2021-05-24T09:52:46Z</time>
      </trkpt>
      <trkpt lat="44.0837" lon="3.72884">
        <ele>965</ele>
        <time>2021-05-24T09:52:48Z</time>
      </trkpt>
      <trkpt lat="44.08373" lon="3.72884">
        <ele>965</ele>
        <time>2021-05-24T09:52:50Z</time>
      </trkpt>
      <trkpt lat="44.08375" lon="3.72883">
        <ele>965</ele>
        <time>2021-05-24T09:52:52Z</time>
      </trkpt>
      <trkpt lat="44.08377" lon="3.72881">
        <ele>965</ele>
        <time>2021-05-24T09:52:54Z</time>
      </trkpt>
      <trkpt lat="44.08379" lon="3.7288">
        <ele>965</ele>
        <time>2021-05-24T09:52:56Z</time>
      </trkpt>
      <trkpt lat="44.08381" lon="3.72879">
        <ele>964</ele>
        <time>2021-05-24T09:52:58Z</time>
      </trkpt>
      <trkpt lat="44.08383" lon="3.72878">
        <ele>964</ele>
        <time>2021-05-24T09:53:00Z</time>
      </trkpt>
      <trkpt lat="44.08386" lon="3.72876">
        <ele>964</ele>
        <time>2021-05-24T09:53:02Z</time>
      </trkpt>
      <trkpt lat="44.08388" lon="3.72875">
        <ele>964</ele>
        <time>2021-05-24T09:53:04Z</time>
      </trkpt>
      <trkpt lat="44.0839" lon="3.72875">
        <ele>964</ele>
        <time>2021-05-24T09:53:06Z</time>
      </trkpt>
      <trkpt lat="44.08392" lon="3.72873">
        <ele>962</ele>
        <time>2021-05-24T09:53:08Z</time>
      </trkpt>
      <trkpt lat="44.08394" lon="3.72872">
        <ele>962</ele>
        <time>2021-05-24T09:53:11Z</time>
      </trkpt>
      <trkpt lat="44.08397" lon="3.7287">
        <ele>962</ele>
        <time>2021-05-24T09:53:14Z</time>
      </trkpt>
      <trkpt lat="44.08399" lon="3.7287">
        <ele>962</ele>
        <time>2021-05-24T09:53:16Z</time>
      </trkpt>
      <trkpt lat="44.08402" lon="3.7287">
        <ele>960</ele>
        <time>2021-05-24T09:53:18Z</time>
      </trkpt>
      <trkpt lat="44.08404" lon="3.7287">
        <ele>960</ele>
        <time>2021-05-24T09:53:20Z</time>
      </trkpt>
      <trkpt lat="44.08406" lon="3.7287">
        <ele>960</ele>
        <time>2021-05-24T09:53:22Z</time>
      </trkpt>
      <trkpt lat="44.08408" lon="3.72869">
        <ele>960</ele>
        <time>2021-05-24T09:53:24Z</time>
      </trkpt>
      <trkpt lat="44.08406" lon="3.72868">
        <ele>960</ele>
        <time>2021-05-24T09:53:42Z</time>
      </trkpt>
      <trkpt lat="44.08404" lon="3.72869">
        <ele>960</ele>
        <time>2021-05-24T09:54:14Z</time>
      </trkpt>
      <trkpt lat="44.08405" lon="3.72872">
        <ele>960</ele>
        <time>2021-05-24T09:54:24Z</time>
      </trkpt>
      <trkpt lat="44.08407" lon="3.72871">
        <ele>960</ele>
        <time>2021-05-24T09:54:41Z</time>
      </trkpt>
      <trkpt lat="44.08409" lon="3.7287">
        <ele>955</ele>
        <time>2021-05-24T09:54:48Z</time>
      </trkpt>
      <trkpt lat="44.08411" lon="3.72867">
        <ele>955</ele>
        <time>2021-05-24T09:54:50Z</time>
      </trkpt>
      <trkpt lat="44.08413" lon="3.72865">
        <ele>955</ele>
        <time>2021-05-24T09:54:53Z</time>
      </trkpt>
      <trkpt lat="44.08416" lon="3.72863">
        <ele>955</ele>
        <time>2021-05-24T09:54:55Z</time>
      </trkpt>
      <trkpt lat="44.08418" lon="3.72861">
        <ele>955</ele>
        <time>2021-05-24T09:54:57Z</time>
      </trkpt>
      <trkpt lat="44.08418" lon="3.72858">
        <ele>955</ele>
        <time>2021-05-24T09:55:01Z</time>
      </trkpt>
      <trkpt lat="44.08419" lon="3.72854">
        <ele>955</ele>
        <time>2021-05-24T09:55:04Z</time>
      </trkpt>
      <trkpt lat="44.0842" lon="3.72852">
        <ele>955</ele>
        <time>2021-05-24T09:55:05Z</time>
      </trkpt>
      <trkpt lat="44.0842" lon="3.72849">
        <ele>953</ele>
        <time>2021-05-24T09:55:08Z</time>
      </trkpt>
      <trkpt lat="44.0842" lon="3.72846">
        <ele>953</ele>
        <time>2021-05-24T09:55:10Z</time>
      </trkpt>
      <trkpt lat="44.0842" lon="3.72843">
        <ele>953</ele>
        <time>2021-05-24T09:55:12Z</time>
      </trkpt>
      <trkpt lat="44.0842" lon="3.7284">
        <ele>953</ele>
        <time>2021-05-24T09:55:14Z</time>
      </trkpt>
      <trkpt lat="44.0842" lon="3.72836">
        <ele>953</ele>
        <time>2021-05-24T09:55:17Z</time>
      </trkpt>
      <trkpt lat="44.08421" lon="3.72833">
        <ele>953</ele>
        <time>2021-05-24T09:55:20Z</time>
      </trkpt>
      <trkpt lat="44.08422" lon="3.72832">
        <ele>953</ele>
        <time>2021-05-24T09:55:22Z</time>
      </trkpt>
      <trkpt lat="44.08425" lon="3.7283">
        <ele>953</ele>
        <time>2021-05-24T09:55:25Z</time>
      </trkpt>
      <trkpt lat="44.08426" lon="3.72828">
        <ele>952</ele>
        <time>2021-05-24T09:55:28Z</time>
      </trkpt>
      <trkpt lat="44.08428" lon="3.72825">
        <ele>952</ele>
        <time>2021-05-24T09:55:30Z</time>
      </trkpt>
      <trkpt lat="44.0843" lon="3.72823">
        <ele>952</ele>
        <time>2021-05-24T09:55:32Z</time>
      </trkpt>
      <trkpt lat="44.08432" lon="3.72821">
        <ele>952</ele>
        <time>2021-05-24T09:55:34Z</time>
      </trkpt>
      <trkpt lat="44.08434" lon="3.72818">
        <ele>952</ele>
        <time>2021-05-24T09:55:36Z</time>
      </trkpt>
      <trkpt lat="44.08436" lon="3.72815">
        <ele>952</ele>
        <time>2021-05-24T09:55:39Z</time>
      </trkpt>
      <trkpt lat="44.08439" lon="3.72814">
        <ele>952</ele>
        <time>2021-05-24T09:55:41Z</time>
      </trkpt>
      <trkpt lat="44.08441" lon="3.72812">
        <ele>952</ele>
        <time>2021-05-24T09:55:45Z</time>
      </trkpt>
      <trkpt lat="44.08442" lon="3.72809">
        <ele>948</ele>
        <time>2021-05-24T09:55:48Z</time>
      </trkpt>
      <trkpt lat="44.08444" lon="3.72808">
        <ele>948</ele>
        <time>2021-05-24T09:55:50Z</time>
      </trkpt>
      <trkpt lat="44.08446" lon="3.72807">
        <ele>948</ele>
        <time>2021-05-24T09:55:52Z</time>
      </trkpt>
      <trkpt lat="44.08448" lon="3.72805">
        <ele>948</ele>
        <time>2021-05-24T09:55:54Z</time>
      </trkpt>
      <trkpt lat="44.0845" lon="3.72803">
        <ele>948</ele>
        <time>2021-05-24T09:55:56Z</time>
      </trkpt>
      <trkpt lat="44.08451" lon="3.728">
        <ele>948</ele>
        <time>2021-05-24T09:55:59Z</time>
      </trkpt>
      <trkpt lat="44.08453" lon="3.72799">
        <ele>948</ele>
        <time>2021-05-24T09:56:01Z</time>
      </trkpt>
      <trkpt lat="44.08455" lon="3.72797">
        <ele>948</ele>
        <time>2021-05-24T09:56:04Z</time>
      </trkpt>
      <trkpt lat="44.08457" lon="3.72796">
        <ele>943</ele>
        <time>2021-05-24T09:56:08Z</time>
      </trkpt>
      <trkpt lat="44.08458" lon="3.72794">
        <ele>943</ele>
        <time>2021-05-24T09:56:12Z</time>
      </trkpt>
      <trkpt lat="44.0846" lon="3.72792">
        <ele>943</ele>
        <time>2021-05-24T09:56:15Z</time>
      </trkpt>
      <trkpt lat="44.08461" lon="3.72789">
        <ele>939</ele>
        <time>2021-05-24T09:56:18Z</time>
      </trkpt>
      <trkpt lat="44.08462" lon="3.72786">
        <ele>939</ele>
        <time>2021-05-24T09:56:22Z</time>
      </trkpt>
      <trkpt lat="44.08464" lon="3.72784">
        <ele>939</ele>
        <time>2021-05-24T09:56:26Z</time>
      </trkpt>
      <trkpt lat="44.08465" lon="3.72782">
        <ele>939</ele>
        <time>2021-05-24T09:56:29Z</time>
      </trkpt>
      <trkpt lat="44.08467" lon="3.7278">
        <ele>939</ele>
        <time>2021-05-24T09:56:33Z</time>
      </trkpt>
      <trkpt lat="44.08469" lon="3.72778">
        <ele>939</ele>
        <time>2021-05-24T09:56:36Z</time>
      </trkpt>
      <trkpt lat="44.08471" lon="3.72776">
        <ele>939</ele>
        <time>2021-05-24T09:56:39Z</time>
      </trkpt>
      <trkpt lat="44.08474" lon="3.72774">
        <ele>939</ele>
        <time>2021-05-24T09:56:42Z</time>
      </trkpt>
      <trkpt lat="44.08475" lon="3.72773">
        <ele>939</ele>
        <time>2021-05-24T09:56:44Z</time>
      </trkpt>
      <trkpt lat="44.08477" lon="3.72771">
        <ele>939</ele>
        <time>2021-05-24T09:56:46Z</time>
      </trkpt>
      <trkpt lat="44.08479" lon="3.7277">
        <ele>939</ele>
        <time>2021-05-24T09:56:49Z</time>
      </trkpt>
      <trkpt lat="44.08481" lon="3.72769">
        <ele>939</ele>
        <time>2021-05-24T09:56:52Z</time>
      </trkpt>
      <trkpt lat="44.08482" lon="3.72766">
        <ele>939</ele>
        <time>2021-05-24T09:56:55Z</time>
      </trkpt>
      <trkpt lat="44.08482" lon="3.72763">
        <ele>939</ele>
        <time>2021-05-24T09:56:59Z</time>
      </trkpt>
      <trkpt lat="44.08485" lon="3.72763">
        <ele>939</ele>
        <time>2021-05-24T09:57:11Z</time>
      </trkpt>
      <trkpt lat="44.08485" lon="3.7276">
        <ele>939</ele>
        <time>2021-05-24T09:57:14Z</time>
      </trkpt>
      <trkpt lat="44.08487" lon="3.72758">
        <ele>939</ele>
        <time>2021-05-24T09:57:17Z</time>
      </trkpt>
      <trkpt lat="44.08489" lon="3.72755">
        <ele>939</ele>
        <time>2021-05-24T09:57:20Z</time>
      </trkpt>
      <trkpt lat="44.08489" lon="3.72752">
        <ele>939</ele>
        <time>2021-05-24T09:57:21Z</time>
      </trkpt>
      <trkpt lat="44.0849" lon="3.7275">
        <ele>939</ele>
        <time>2021-05-24T09:57:23Z</time>
      </trkpt>
      <trkpt lat="44.08493" lon="3.72748">
        <ele>939</ele>
        <time>2021-05-24T09:57:25Z</time>
      </trkpt>
      <trkpt lat="44.08494" lon="3.72745">
        <ele>927</ele>
        <time>2021-05-24T09:57:28Z</time>
      </trkpt>
      <trkpt lat="44.08496" lon="3.72743">
        <ele>927</ele>
        <time>2021-05-24T09:57:30Z</time>
      </trkpt>
      <trkpt lat="44.08497" lon="3.72741">
        <ele>927</ele>
        <time>2021-05-24T09:57:33Z</time>
      </trkpt>
      <trkpt lat="44.08499" lon="3.72738">
        <ele>927</ele>
        <time>2021-05-24T09:57:35Z</time>
      </trkpt>
      <trkpt lat="44.08501" lon="3.72736">
        <ele>927</ele>
        <time>2021-05-24T09:57:37Z</time>
      </trkpt>
      <trkpt lat="44.08502" lon="3.72733">
        <ele>927</ele>
        <time>2021-05-24T09:57:40Z</time>
      </trkpt>
      <trkpt lat="44.08505" lon="3.72733">
        <ele>927</ele>
        <time>2021-05-24T09:57:42Z</time>
      </trkpt>
      <trkpt lat="44.08507" lon="3.72732">
        <ele>927</ele>
        <time>2021-05-24T09:57:44Z</time>
      </trkpt>
      <trkpt lat="44.0851" lon="3.7273">
        <ele>927</ele>
        <time>2021-05-24T09:57:47Z</time>
      </trkpt>
      <trkpt lat="44.08512" lon="3.72728">
        <ele>927</ele>
        <time>2021-05-24T09:57:49Z</time>
      </trkpt>
      <trkpt lat="44.08514" lon="3.72726">
        <ele>927</ele>
        <time>2021-05-24T09:57:51Z</time>
      </trkpt>
      <trkpt lat="44.08515" lon="3.72724">
        <ele>927</ele>
        <time>2021-05-24T09:57:53Z</time>
      </trkpt>
      <trkpt lat="44.08517" lon="3.72723">
        <ele>927</ele>
        <time>2021-05-24T09:57:55Z</time>
      </trkpt>
      <trkpt lat="44.08522" lon="3.72712">
        <ele>927</ele>
        <time>2021-05-24T09:58:04Z</time>
      </trkpt>
      <trkpt lat="44.0853" lon="3.72703">
        <ele>927</ele>
        <time>2021-05-24T09:58:13Z</time>
      </trkpt>
      <trkpt lat="44.08533" lon="3.72691">
        <ele>927</ele>
        <time>2021-05-24T09:58:37Z</time>
      </trkpt>
      <trkpt lat="44.08543" lon="3.72686">
        <ele>927</ele>
        <time>2021-05-24T09:59:10Z</time>
      </trkpt>
      <trkpt lat="44.0855" lon="3.72678">
        <ele>916</ele>
        <time>2021-05-24T09:59:18Z</time>
      </trkpt>
      <trkpt lat="44.08558" lon="3.72668">
        <ele>916</ele>
        <time>2021-05-24T09:59:27Z</time>
      </trkpt>
      <trkpt lat="44.08565" lon="3.72661">
        <ele>916</ele>
        <time>2021-05-24T09:59:36Z</time>
      </trkpt>
      <trkpt lat="44.08573" lon="3.72652">
        <ele>916</ele>
        <time>2021-05-24T09:59:45Z</time>
      </trkpt>
      <trkpt lat="44.08582" lon="3.72644">
        <ele>916</ele>
        <time>2021-05-24T09:59:53Z</time>
      </trkpt>
      <trkpt lat="44.08591" lon="3.72626">
        <ele>916</ele>
        <time>2021-05-24T10:00:07Z</time>
      </trkpt>
      <trkpt lat="44.08592" lon="3.72624">
        <ele>916</ele>
        <time>2021-05-24T10:00:09Z</time>
      </trkpt>
      <trkpt lat="44.08594" lon="3.72621">
        <ele>916</ele>
        <time>2021-05-24T10:00:11Z</time>
      </trkpt>
      <trkpt lat="44.08596" lon="3.7262">
        <ele>916</ele>
        <time>2021-05-24T10:00:14Z</time>
      </trkpt>
      <trkpt lat="44.08598" lon="3.72618">
        <ele>916</ele>
        <time>2021-05-24T10:00:15Z</time>
      </trkpt>
      <trkpt lat="44.086" lon="3.72616">
        <ele>916</ele>
        <time>2021-05-24T10:00:17Z</time>
      </trkpt>
      <trkpt lat="44.08603" lon="3.72615">
        <ele>916</ele>
        <time>2021-05-24T10:00:19Z</time>
      </trkpt>
      <trkpt lat="44.08605" lon="3.72614">
        <ele>916</ele>
        <time>2021-05-24T10:00:21Z</time>
      </trkpt>
      <trkpt lat="44.08607" lon="3.72612">
        <ele>916</ele>
        <time>2021-05-24T10:00:23Z</time>
      </trkpt>
      <trkpt lat="44.08609" lon="3.72611">
        <ele>916</ele>
        <time>2021-05-24T10:00:25Z</time>
      </trkpt>
      <trkpt lat="44.08611" lon="3.7261">
        <ele>916</ele>
        <time>2021-05-24T10:00:27Z</time>
      </trkpt>
      <trkpt lat="44.08614" lon="3.72609">
        <ele>916</ele>
        <time>2021-05-24T10:00:29Z</time>
      </trkpt>
      <trkpt lat="44.08616" lon="3.72609">
        <ele>916</ele>
        <time>2021-05-24T10:00:31Z</time>
      </trkpt>
      <trkpt lat="44.08618" lon="3.72608">
        <ele>916</ele>
        <time>2021-05-24T10:00:33Z</time>
      </trkpt>
      <trkpt lat="44.08619" lon="3.72607">
        <ele>916</ele>
        <time>2021-05-24T10:00:35Z</time>
      </trkpt>
      <trkpt lat="44.08622" lon="3.72606">
        <ele>917</ele>
        <time>2021-05-24T10:00:38Z</time>
      </trkpt>
      <trkpt lat="44.08624" lon="3.72605">
        <ele>917</ele>
        <time>2021-05-24T10:00:41Z</time>
      </trkpt>
      <trkpt lat="44.08626" lon="3.72604">
        <ele>917</ele>
        <time>2021-05-24T10:00:43Z</time>
      </trkpt>
      <trkpt lat="44.08628" lon="3.72603">
        <ele>917</ele>
        <time>2021-05-24T10:00:45Z</time>
      </trkpt>
      <trkpt lat="44.0863" lon="3.72602">
        <ele>917</ele>
        <time>2021-05-24T10:00:47Z</time>
      </trkpt>
      <trkpt lat="44.08633" lon="3.72602">
        <ele>917</ele>
        <time>2021-05-24T10:00:50Z</time>
      </trkpt>
      <trkpt lat="44.08636" lon="3.726">
        <ele>917</ele>
        <time>2021-05-24T10:00:52Z</time>
      </trkpt>
      <trkpt lat="44.08638" lon="3.726">
        <ele>917</ele>
        <time>2021-05-24T10:00:54Z</time>
      </trkpt>
      <trkpt lat="44.08641" lon="3.72599">
        <ele>917</ele>
        <time>2021-05-24T10:00:56Z</time>
      </trkpt>
      <trkpt lat="44.08643" lon="3.72598">
        <ele>917</ele>
        <time>2021-05-24T10:00:57Z</time>
      </trkpt>
      <trkpt lat="44.08645" lon="3.72597">
        <ele>917</ele>
        <time>2021-05-24T10:00:59Z</time>
      </trkpt>
      <trkpt lat="44.08647" lon="3.72596">
        <ele>917</ele>
        <time>2021-05-24T10:01:01Z</time>
      </trkpt>
      <trkpt lat="44.0865" lon="3.72595">
        <ele>917</ele>
        <time>2021-05-24T10:01:03Z</time>
      </trkpt>
      <trkpt lat="44.08652" lon="3.72594">
        <ele>917</ele>
        <time>2021-05-24T10:01:05Z</time>
      </trkpt>
      <trkpt lat="44.08655" lon="3.72592">
        <ele>917</ele>
        <time>2021-05-24T10:01:07Z</time>
      </trkpt>
      <trkpt lat="44.08657" lon="3.7259">
        <ele>917</ele>
        <time>2021-05-24T10:01:09Z</time>
      </trkpt>
      <trkpt lat="44.08659" lon="3.72588">
        <ele>917</ele>
        <time>2021-05-24T10:01:11Z</time>
      </trkpt>
      <trkpt lat="44.08661" lon="3.72586">
        <ele>917</ele>
        <time>2021-05-24T10:01:13Z</time>
      </trkpt>
      <trkpt lat="44.08663" lon="3.72583">
        <ele>917</ele>
        <time>2021-05-24T10:01:15Z</time>
      </trkpt>
      <trkpt lat="44.08665" lon="3.72581">
        <ele>917</ele>
        <time>2021-05-24T10:01:17Z</time>
      </trkpt>
      <trkpt lat="44.08666" lon="3.72578">
        <ele>917</ele>
        <time>2021-05-24T10:01:19Z</time>
      </trkpt>
      <trkpt lat="44.08668" lon="3.72575">
        <ele>917</ele>
        <time>2021-05-24T10:01:21Z</time>
      </trkpt>
      <trkpt lat="44.0867" lon="3.72573">
        <ele>917</ele>
        <time>2021-05-24T10:01:24Z</time>
      </trkpt>
      <trkpt lat="44.08672" lon="3.72571">
        <ele>917</ele>
        <time>2021-05-24T10:01:26Z</time>
      </trkpt>
      <trkpt lat="44.08674" lon="3.72568">
        <ele>919</ele>
        <time>2021-05-24T10:01:28Z</time>
      </trkpt>
      <trkpt lat="44.08675" lon="3.72566">
        <ele>919</ele>
        <time>2021-05-24T10:01:29Z</time>
      </trkpt>
      <trkpt lat="44.08677" lon="3.72563">
        <ele>919</ele>
        <time>2021-05-24T10:01:31Z</time>
      </trkpt>
      <trkpt lat="44.08679" lon="3.72561">
        <ele>919</ele>
        <time>2021-05-24T10:01:33Z</time>
      </trkpt>
      <trkpt lat="44.08681" lon="3.72558">
        <ele>919</ele>
        <time>2021-05-24T10:01:35Z</time>
      </trkpt>
      <trkpt lat="44.08682" lon="3.72555">
        <ele>919</ele>
        <time>2021-05-24T10:01:37Z</time>
      </trkpt>
      <trkpt lat="44.08684" lon="3.72552">
        <ele>919</ele>
        <time>2021-05-24T10:01:39Z</time>
      </trkpt>
      <trkpt lat="44.08685" lon="3.72549">
        <ele>919</ele>
        <time>2021-05-24T10:01:41Z</time>
      </trkpt>
      <trkpt lat="44.08687" lon="3.72546">
        <ele>919</ele>
        <time>2021-05-24T10:01:43Z</time>
      </trkpt>
      <trkpt lat="44.08688" lon="3.72543">
        <ele>919</ele>
        <time>2021-05-24T10:01:46Z</time>
      </trkpt>
      <trkpt lat="44.08689" lon="3.7254">
        <ele>916</ele>
        <time>2021-05-24T10:01:48Z</time>
      </trkpt>
      <trkpt lat="44.08696" lon="3.7253">
        <ele>916</ele>
        <time>2021-05-24T10:01:55Z</time>
      </trkpt>
      <trkpt lat="44.08702" lon="3.72518">
        <ele>916</ele>
        <time>2021-05-24T10:02:02Z</time>
      </trkpt>
      <trkpt lat="44.08707" lon="3.72508">
        <ele>916</ele>
        <time>2021-05-24T10:02:09Z</time>
      </trkpt>
      <trkpt lat="44.08713" lon="3.72497">
        <ele>916</ele>
        <time>2021-05-24T10:02:17Z</time>
      </trkpt>
      <trkpt lat="44.08719" lon="3.72487">
        <ele>916</ele>
        <time>2021-05-24T10:02:26Z</time>
      </trkpt>
      <trkpt lat="44.08725" lon="3.72476">
        <ele>916</ele>
        <time>2021-05-24T10:02:33Z</time>
      </trkpt>
      <trkpt lat="44.0873" lon="3.72464">
        <ele>916</ele>
        <time>2021-05-24T10:02:40Z</time>
      </trkpt>
      <trkpt lat="44.08735" lon="3.72453">
        <ele>916</ele>
        <time>2021-05-24T10:02:49Z</time>
      </trkpt>
      <trkpt lat="44.0874" lon="3.72441">
        <ele>916</ele>
        <time>2021-05-24T10:03:00Z</time>
      </trkpt>
      <trkpt lat="44.08747" lon="3.72431">
        <ele>916</ele>
        <time>2021-05-24T10:03:09Z</time>
      </trkpt>
      <trkpt lat="44.08754" lon="3.72422">
        <ele>916</ele>
        <time>2021-05-24T10:03:19Z</time>
      </trkpt>
      <trkpt lat="44.0876" lon="3.72412">
        <ele>916</ele>
        <time>2021-05-24T10:03:30Z</time>
      </trkpt>
      <trkpt lat="44.08764" lon="3.72399">
        <ele>916</ele>
        <time>2021-05-24T10:03:40Z</time>
      </trkpt>
      <trkpt lat="44.08766" lon="3.72387">
        <ele>916</ele>
        <time>2021-05-24T10:03:49Z</time>
      </trkpt>
      <trkpt lat="44.08768" lon="3.72373">
        <ele>916</ele>
        <time>2021-05-24T10:04:00Z</time>
      </trkpt>
      <trkpt lat="44.0877" lon="3.7236">
        <ele>916</ele>
        <time>2021-05-24T10:04:11Z</time>
      </trkpt>
      <trkpt lat="44.08773" lon="3.72348">
        <ele>916</ele>
        <time>2021-05-24T10:04:21Z</time>
      </trkpt>
      <trkpt lat="44.08778" lon="3.72335">
        <ele>916</ele>
        <time>2021-05-24T10:04:31Z</time>
      </trkpt>
      <trkpt lat="44.0878" lon="3.72323">
        <ele>916</ele>
        <time>2021-05-24T10:04:40Z</time>
      </trkpt>
      <trkpt lat="44.08782" lon="3.7231">
        <ele>916</ele>
        <time>2021-05-24T10:04:50Z</time>
      </trkpt>
      <trkpt lat="44.08784" lon="3.72296">
        <ele>916</ele>
        <time>2021-05-24T10:05:01Z</time>
      </trkpt>
      <trkpt lat="44.08787" lon="3.72283">
        <ele>916</ele>
        <time>2021-05-24T10:05:11Z</time>
      </trkpt>
      <trkpt lat="44.0879" lon="3.7227">
        <ele>916</ele>
        <time>2021-05-24T10:05:21Z</time>
      </trkpt>
      <trkpt lat="44.08794" lon="3.72257">
        <ele>916</ele>
        <time>2021-05-24T10:05:29Z</time>
      </trkpt>
      <trkpt lat="44.08797" lon="3.72244">
        <ele>916</ele>
        <time>2021-05-24T10:05:37Z</time>
      </trkpt>
      <trkpt lat="44.08798" lon="3.7223">
        <ele>916</ele>
        <time>2021-05-24T10:05:45Z</time>
      </trkpt>
      <trkpt lat="44.08798" lon="3.72217">
        <ele>916</ele>
        <time>2021-05-24T10:05:52Z</time>
      </trkpt>
      <trkpt lat="44.08798" lon="3.72203">
        <ele>916</ele>
        <time>2021-05-24T10:06:01Z</time>
      </trkpt>
      <trkpt lat="44.08797" lon="3.72189">
        <ele>916</ele>
        <time>2021-05-24T10:06:10Z</time>
      </trkpt>
      <trkpt lat="44.08799" lon="3.72176">
        <ele>916</ele>
        <time>2021-05-24T10:06:19Z</time>
      </trkpt>
      <trkpt lat="44.08802" lon="3.72163">
        <ele>916</ele>
        <time>2021-05-24T10:06:27Z</time>
      </trkpt>
      <trkpt lat="44.08803" lon="3.72149">
        <ele>916</ele>
        <time>2021-05-24T10:06:35Z</time>
      </trkpt>
      <trkpt lat="44.08805" lon="3.72136">
        <ele>916</ele>
        <time>2021-05-24T10:06:44Z</time>
      </trkpt>
      <trkpt lat="44.0881" lon="3.72124">
        <ele>916</ele>
        <time>2021-05-24T10:06:54Z</time>
      </trkpt>
      <trkpt lat="44.08814" lon="3.72112">
        <ele>916</ele>
        <time>2021-05-24T10:07:04Z</time>
      </trkpt>
      <trkpt lat="44.08817" lon="3.72099">
        <ele>916</ele>
        <time>2021-05-24T10:07:13Z</time>
      </trkpt>
      <trkpt lat="44.08819" lon="3.72087">
        <ele>927</ele>
        <time>2021-05-24T10:07:28Z</time>
      </trkpt>
      <trkpt lat="44.08822" lon="3.72075">
        <ele>927</ele>
        <time>2021-05-24T10:07:37Z</time>
      </trkpt>
      <trkpt lat="44.08828" lon="3.72065">
        <ele>927</ele>
        <time>2021-05-24T10:07:45Z</time>
      </trkpt>
      <trkpt lat="44.08829" lon="3.72053">
        <ele>927</ele>
        <time>2021-05-24T10:07:53Z</time>
      </trkpt>
      <trkpt lat="44.08831" lon="3.7204">
        <ele>927</ele>
        <time>2021-05-24T10:08:02Z</time>
      </trkpt>
      <trkpt lat="44.08833" lon="3.72026">
        <ele>927</ele>
        <time>2021-05-24T10:08:11Z</time>
      </trkpt>
      <trkpt lat="44.08832" lon="3.72013">
        <ele>931</ele>
        <time>2021-05-24T10:08:18Z</time>
      </trkpt>
      <trkpt lat="44.08831" lon="3.72001">
        <ele>931</ele>
        <time>2021-05-24T10:08:26Z</time>
      </trkpt>
      <trkpt lat="44.08829" lon="3.71987">
        <ele>931</ele>
        <time>2021-05-24T10:08:34Z</time>
      </trkpt>
      <trkpt lat="44.08828" lon="3.71974">
        <ele>931</ele>
        <time>2021-05-24T10:08:43Z</time>
      </trkpt>
      <trkpt lat="44.08827" lon="3.7196">
        <ele>931</ele>
        <time>2021-05-24T10:08:53Z</time>
      </trkpt>
      <trkpt lat="44.08826" lon="3.71947">
        <ele>931</ele>
        <time>2021-05-24T10:09:02Z</time>
      </trkpt>
      <trkpt lat="44.08826" lon="3.71933">
        <ele>931</ele>
        <time>2021-05-24T10:09:11Z</time>
      </trkpt>
      <trkpt lat="44.08825" lon="3.7192">
        <ele>931</ele>
        <time>2021-05-24T10:09:19Z</time>
      </trkpt>
      <trkpt lat="44.08824" lon="3.71907">
        <ele>931</ele>
        <time>2021-05-24T10:09:29Z</time>
      </trkpt>
      <trkpt lat="44.08824" lon="3.71893">
        <ele>931</ele>
        <time>2021-05-24T10:09:56Z</time>
      </trkpt>
      <trkpt lat="44.08823" lon="3.7188">
        <ele>931</ele>
        <time>2021-05-24T10:10:05Z</time>
      </trkpt>
      <trkpt lat="44.0882" lon="3.71867">
        <ele>931</ele>
        <time>2021-05-24T10:10:15Z</time>
      </trkpt>
      <trkpt lat="44.08816" lon="3.71855">
        <ele>931</ele>
        <time>2021-05-24T10:10:25Z</time>
      </trkpt>
      <trkpt lat="44.0881" lon="3.71843">
        <ele>931</ele>
        <time>2021-05-24T10:10:33Z</time>
      </trkpt>
      <trkpt lat="44.08805" lon="3.71832">
        <ele>931</ele>
        <time>2021-05-24T10:10:40Z</time>
      </trkpt>
      <trkpt lat="44.088" lon="3.71822">
        <ele>931</ele>
        <time>2021-05-24T10:10:47Z</time>
      </trkpt>
      <trkpt lat="44.08795" lon="3.7181">
        <ele>931</ele>
        <time>2021-05-24T10:10:55Z</time>
      </trkpt>
      <trkpt lat="44.08788" lon="3.71802">
        <ele>931</ele>
        <time>2021-05-24T10:11:02Z</time>
      </trkpt>
      <trkpt lat="44.0878" lon="3.71794">
        <ele>931</ele>
        <time>2021-05-24T10:11:21Z</time>
      </trkpt>
      <trkpt lat="44.08773" lon="3.71785">
        <ele>932</ele>
        <time>2021-05-24T10:11:28Z</time>
      </trkpt>
      <trkpt lat="44.08766" lon="3.71771">
        <ele>932</ele>
        <time>2021-05-24T10:11:36Z</time>
      </trkpt>
      <trkpt lat="44.08758" lon="3.7176">
        <ele>932</ele>
        <time>2021-05-24T10:11:44Z</time>
      </trkpt>
      <trkpt lat="44.0875" lon="3.71749">
        <ele>932</ele>
        <time>2021-05-24T10:11:54Z</time>
      </trkpt>
      <trkpt lat="44.08743" lon="3.71739">
        <ele>932</ele>
        <time>2021-05-24T10:12:02Z</time>
      </trkpt>
      <trkpt lat="44.08738" lon="3.71728">
        <ele>932</ele>
        <time>2021-05-24T10:12:10Z</time>
      </trkpt>
      <trkpt lat="44.08733" lon="3.71717">
        <ele>930</ele>
        <time>2021-05-24T10:12:18Z</time>
      </trkpt>
      <trkpt lat="44.08728" lon="3.71705">
        <ele>930</ele>
        <time>2021-05-24T10:12:25Z</time>
      </trkpt>
      <trkpt lat="44.08723" lon="3.71695">
        <ele>930</ele>
        <time>2021-05-24T10:12:32Z</time>
      </trkpt>
      <trkpt lat="44.08719" lon="3.71681">
        <ele>930</ele>
        <time>2021-05-24T10:12:42Z</time>
      </trkpt>
      <trkpt lat="44.08714" lon="3.71669">
        <ele>930</ele>
        <time>2021-05-24T10:12:51Z</time>
      </trkpt>
      <trkpt lat="44.08709" lon="3.71658">
        <ele>930</ele>
        <time>2021-05-24T10:13:01Z</time>
      </trkpt>
      <trkpt lat="44.08703" lon="3.71648">
        <ele>933</ele>
        <time>2021-05-24T10:13:08Z</time>
      </trkpt>
      <trkpt lat="44.08699" lon="3.71635">
        <ele>933</ele>
        <time>2021-05-24T10:13:17Z</time>
      </trkpt>
      <trkpt lat="44.08694" lon="3.71623">
        <ele>933</ele>
        <time>2021-05-24T10:13:24Z</time>
      </trkpt>
      <trkpt lat="44.08692" lon="3.7161">
        <ele>933</ele>
        <time>2021-05-24T10:13:33Z</time>
      </trkpt>
      <trkpt lat="44.08687" lon="3.71599">
        <ele>933</ele>
        <time>2021-05-24T10:13:39Z</time>
      </trkpt>
      <trkpt lat="44.08682" lon="3.71588">
        <ele>933</ele>
        <time>2021-05-24T10:13:47Z</time>
      </trkpt>
      <trkpt lat="44.08676" lon="3.71579">
        <ele>933</ele>
        <time>2021-05-24T10:13:54Z</time>
      </trkpt>
      <trkpt lat="44.0867" lon="3.71564">
        <ele>933</ele>
        <time>2021-05-24T10:14:06Z</time>
      </trkpt>
      <trkpt lat="44.08667" lon="3.71551">
        <ele>933</ele>
        <time>2021-05-24T10:14:13Z</time>
      </trkpt>
      <trkpt lat="44.08667" lon="3.71538">
        <ele>933</ele>
        <time>2021-05-24T10:14:22Z</time>
      </trkpt>
      <trkpt lat="44.08664" lon="3.71526">
        <ele>934</ele>
        <time>2021-05-24T10:14:28Z</time>
      </trkpt>
      <trkpt lat="44.08668" lon="3.71512">
        <ele>934</ele>
        <time>2021-05-24T10:14:38Z</time>
      </trkpt>
      <trkpt lat="44.08672" lon="3.715">
        <ele>934</ele>
        <time>2021-05-24T10:14:46Z</time>
      </trkpt>
      <trkpt lat="44.08675" lon="3.71487">
        <ele>934</ele>
        <time>2021-05-24T10:16:07Z</time>
      </trkpt>
      <trkpt lat="44.0868" lon="3.71477">
        <ele>934</ele>
        <time>2021-05-24T10:16:15Z</time>
      </trkpt>
      <trkpt lat="44.08684" lon="3.71465">
        <ele>934</ele>
        <time>2021-05-24T10:16:22Z</time>
      </trkpt>
      <trkpt lat="44.08689" lon="3.71454">
        <ele>934</ele>
        <time>2021-05-24T10:16:30Z</time>
      </trkpt>
      <trkpt lat="44.08695" lon="3.71443">
        <ele>934</ele>
        <time>2021-05-24T10:16:37Z</time>
      </trkpt>
      <trkpt lat="44.08701" lon="3.71433">
        <ele>934</ele>
        <time>2021-05-24T10:16:44Z</time>
      </trkpt>
      <trkpt lat="44.08707" lon="3.71424">
        <ele>934</ele>
        <time>2021-05-24T10:16:51Z</time>
      </trkpt>
      <trkpt lat="44.08713" lon="3.71413">
        <ele>934</ele>
        <time>2021-05-24T10:16:58Z</time>
      </trkpt>
      <trkpt lat="44.08719" lon="3.71401">
        <ele>934</ele>
        <time>2021-05-24T10:17:06Z</time>
      </trkpt>
      <trkpt lat="44.08722" lon="3.71388">
        <ele>934</ele>
        <time>2021-05-24T10:17:13Z</time>
      </trkpt>
      <trkpt lat="44.08726" lon="3.71375">
        <ele>934</ele>
        <time>2021-05-24T10:17:21Z</time>
      </trkpt>
      <trkpt lat="44.08731" lon="3.71364">
        <ele>933</ele>
        <time>2021-05-24T10:17:28Z</time>
      </trkpt>
      <trkpt lat="44.08736" lon="3.71354">
        <ele>933</ele>
        <time>2021-05-24T10:17:34Z</time>
      </trkpt>
      <trkpt lat="44.08743" lon="3.71343">
        <ele>933</ele>
        <time>2021-05-24T10:17:42Z</time>
      </trkpt>
      <trkpt lat="44.08748" lon="3.71331">
        <ele>933</ele>
        <time>2021-05-24T10:17:50Z</time>
      </trkpt>
      <trkpt lat="44.08753" lon="3.7132">
        <ele>933</ele>
        <time>2021-05-24T10:17:57Z</time>
      </trkpt>
      <trkpt lat="44.08755" lon="3.71307">
        <ele>933</ele>
        <time>2021-05-24T10:18:04Z</time>
      </trkpt>
      <trkpt lat="44.08758" lon="3.71294">
        <ele>933</ele>
        <time>2021-05-24T10:18:11Z</time>
      </trkpt>
      <trkpt lat="44.0876" lon="3.71281">
        <ele>934</ele>
        <time>2021-05-24T10:18:18Z</time>
      </trkpt>
      <trkpt lat="44.08763" lon="3.71268">
        <ele>934</ele>
        <time>2021-05-24T10:18:25Z</time>
      </trkpt>
      <trkpt lat="44.08762" lon="3.71253">
        <ele>934</ele>
        <time>2021-05-24T10:18:32Z</time>
      </trkpt>
      <trkpt lat="44.08762" lon="3.71239">
        <ele>934</ele>
        <time>2021-05-24T10:18:39Z</time>
      </trkpt>
      <trkpt lat="44.08763" lon="3.71225">
        <ele>934</ele>
        <time>2021-05-24T10:18:46Z</time>
      </trkpt>
      <trkpt lat="44.08762" lon="3.71211">
        <ele>934</ele>
        <time>2021-05-24T10:18:53Z</time>
      </trkpt>
      <trkpt lat="44.08764" lon="3.71198">
        <ele>934</ele>
        <time>2021-05-24T10:19:00Z</time>
      </trkpt>
      <trkpt lat="44.08764" lon="3.71186">
        <ele>931</ele>
        <time>2021-05-24T10:19:08Z</time>
      </trkpt>
      <trkpt lat="44.08765" lon="3.71172">
        <ele>931</ele>
        <time>2021-05-24T10:19:14Z</time>
      </trkpt>
      <trkpt lat="44.08764" lon="3.71158">
        <ele>931</ele>
        <time>2021-05-24T10:19:22Z</time>
      </trkpt>
      <trkpt lat="44.08765" lon="3.71143">
        <ele>930</ele>
        <time>2021-05-24T10:19:28Z</time>
      </trkpt>
      <trkpt lat="44.08765" lon="3.7113">
        <ele>930</ele>
        <time>2021-05-24T10:19:36Z</time>
      </trkpt>
      <trkpt lat="44.08765" lon="3.71117">
        <ele>930</ele>
        <time>2021-05-24T10:19:41Z</time>
      </trkpt>
      <trkpt lat="44.08766" lon="3.71104">
        <ele>930</ele>
        <time>2021-05-24T10:19:49Z</time>
      </trkpt>
      <trkpt lat="44.08769" lon="3.71092">
        <ele>930</ele>
        <time>2021-05-24T10:19:56Z</time>
      </trkpt>
      <trkpt lat="44.08771" lon="3.7108">
        <ele>930</ele>
        <time>2021-05-24T10:20:03Z</time>
      </trkpt>
      <trkpt lat="44.08775" lon="3.71068">
        <ele>930</ele>
        <time>2021-05-24T10:20:09Z</time>
      </trkpt>
      <trkpt lat="44.08779" lon="3.71056">
        <ele>930</ele>
        <time>2021-05-24T10:20:16Z</time>
      </trkpt>
      <trkpt lat="44.08785" lon="3.71045">
        <ele>930</ele>
        <time>2021-05-24T10:20:23Z</time>
      </trkpt>
      <trkpt lat="44.08788" lon="3.71033">
        <ele>930</ele>
        <time>2021-05-24T10:20:30Z</time>
      </trkpt>
      <trkpt lat="44.08793" lon="3.71022">
        <ele>930</ele>
        <time>2021-05-24T10:20:37Z</time>
      </trkpt>
      <trkpt lat="44.08797" lon="3.7101">
        <ele>930</ele>
        <time>2021-05-24T10:20:44Z</time>
      </trkpt>
      <trkpt lat="44.08803" lon="3.71001">
        <ele>930</ele>
        <time>2021-05-24T10:20:51Z</time>
      </trkpt>
      <trkpt lat="44.08807" lon="3.70988">
        <ele>930</ele>
        <time>2021-05-24T10:20:59Z</time>
      </trkpt>
      <trkpt lat="44.08809" lon="3.70974">
        <ele>930</ele>
        <time>2021-05-24T10:21:06Z</time>
      </trkpt>
      <trkpt lat="44.08813" lon="3.70961">
        <ele>930</ele>
        <time>2021-05-24T10:21:12Z</time>
      </trkpt>
      <trkpt lat="44.08817" lon="3.70948">
        <ele>930</ele>
        <time>2021-05-24T10:21:20Z</time>
      </trkpt>
      <trkpt lat="44.08819" lon="3.70935">
        <ele>930</ele>
        <time>2021-05-24T10:21:25Z</time>
      </trkpt>
      <trkpt lat="44.08823" lon="3.70922">
        <ele>930</ele>
        <time>2021-05-24T10:21:33Z</time>
      </trkpt>
      <trkpt lat="44.08828" lon="3.70911">
        <ele>930</ele>
        <time>2021-05-24T10:21:41Z</time>
      </trkpt>
      <trkpt lat="44.08832" lon="3.70898">
        <ele>927</ele>
        <time>2021-05-24T10:21:48Z</time>
      </trkpt>
      <trkpt lat="44.08835" lon="3.70885">
        <ele>927</ele>
        <time>2021-05-24T10:21:54Z</time>
      </trkpt>
      <trkpt lat="44.08838" lon="3.70872">
        <ele>927</ele>
        <time>2021-05-24T10:22:01Z</time>
      </trkpt>
      <trkpt lat="44.08839" lon="3.70859">
        <ele>927</ele>
        <time>2021-05-24T10:22:07Z</time>
      </trkpt>
      <trkpt lat="44.08842" lon="3.70845">
        <ele>927</ele>
        <time>2021-05-24T10:22:15Z</time>
      </trkpt>
      <trkpt lat="44.08845" lon="3.70833">
        <ele>927</ele>
        <time>2021-05-24T10:22:23Z</time>
      </trkpt>
      <trkpt lat="44.08846" lon="3.7082">
        <ele>927</ele>
        <time>2021-05-24T10:22:30Z</time>
      </trkpt>
      <trkpt lat="44.08847" lon="3.70806">
        <ele>927</ele>
        <time>2021-05-24T10:22:38Z</time>
      </trkpt>
      <trkpt lat="44.08847" lon="3.70791">
        <ele>927</ele>
        <time>2021-05-24T10:22:46Z</time>
      </trkpt>
      <trkpt lat="44.08847" lon="3.70778">
        <ele>927</ele>
        <time>2021-05-24T10:22:53Z</time>
      </trkpt>
      <trkpt lat="44.08846" lon="3.70765">
        <ele>927</ele>
        <time>2021-05-24T10:23:01Z</time>
      </trkpt>
      <trkpt lat="44.08842" lon="3.70752">
        <ele>922</ele>
        <time>2021-05-24T10:23:08Z</time>
      </trkpt>
      <trkpt lat="44.08836" lon="3.70742">
        <ele>922</ele>
        <time>2021-05-24T10:23:17Z</time>
      </trkpt>
      <trkpt lat="44.08831" lon="3.70731">
        <ele>922</ele>
        <time>2021-05-24T10:23:25Z</time>
      </trkpt>
      <trkpt lat="44.08826" lon="3.70719">
        <ele>922</ele>
        <time>2021-05-24T10:23:33Z</time>
      </trkpt>
      <trkpt lat="44.08821" lon="3.70708">
        <ele>922</ele>
        <time>2021-05-24T10:23:39Z</time>
      </trkpt>
      <trkpt lat="44.08815" lon="3.70699">
        <ele>922</ele>
        <time>2021-05-24T10:23:45Z</time>
      </trkpt>
      <trkpt lat="44.08811" lon="3.70687">
        <ele>922</ele>
        <time>2021-05-24T10:23:52Z</time>
      </trkpt>
      <trkpt lat="44.08805" lon="3.70677">
        <ele>922</ele>
        <time>2021-05-24T10:24:00Z</time>
      </trkpt>
      <trkpt lat="44.08798" lon="3.70668">
        <ele>913</ele>
        <time>2021-05-24T10:24:08Z</time>
      </trkpt>
      <trkpt lat="44.08793" lon="3.70657">
        <ele>913</ele>
        <time>2021-05-24T10:24:16Z</time>
      </trkpt>
      <trkpt lat="44.08793" lon="3.70644">
        <ele>913</ele>
        <time>2021-05-24T10:24:23Z</time>
      </trkpt>
      <trkpt lat="44.08792" lon="3.70631">
        <ele>913</ele>
        <time>2021-05-24T10:24:32Z</time>
      </trkpt>
      <trkpt lat="44.08791" lon="3.70617">
        <ele>913</ele>
        <time>2021-05-24T10:24:39Z</time>
      </trkpt>
      <trkpt lat="44.08787" lon="3.70604">
        <ele>913</ele>
        <time>2021-05-24T10:24:46Z</time>
      </trkpt>
      <trkpt lat="44.08784" lon="3.7059">
        <ele>913</ele>
        <time>2021-05-24T10:24:54Z</time>
      </trkpt>
      <trkpt lat="44.08784" lon="3.70576">
        <ele>913</ele>
        <time>2021-05-24T10:25:04Z</time>
      </trkpt>
      <trkpt lat="44.08781" lon="3.70565">
        <ele>901</ele>
        <time>2021-05-24T10:25:18Z</time>
      </trkpt>
      <trkpt lat="44.0878" lon="3.70552">
        <ele>901</ele>
        <time>2021-05-24T10:25:26Z</time>
      </trkpt>
      <trkpt lat="44.08782" lon="3.70538">
        <ele>901</ele>
        <time>2021-05-24T10:25:34Z</time>
      </trkpt>
      <trkpt lat="44.08785" lon="3.70526">
        <ele>901</ele>
        <time>2021-05-24T10:25:41Z</time>
      </trkpt>
      <trkpt lat="44.08791" lon="3.70514">
        <ele>901</ele>
        <time>2021-05-24T10:25:49Z</time>
      </trkpt>
      <trkpt lat="44.08798" lon="3.70504">
        <ele>895</ele>
        <time>2021-05-24T10:25:58Z</time>
      </trkpt>
      <trkpt lat="44.08802" lon="3.70492">
        <ele>895</ele>
        <time>2021-05-24T10:26:06Z</time>
      </trkpt>
      <trkpt lat="44.08807" lon="3.70479">
        <ele>895</ele>
        <time>2021-05-24T10:26:14Z</time>
      </trkpt>
      <trkpt lat="44.08809" lon="3.70466">
        <ele>895</ele>
        <time>2021-05-24T10:26:21Z</time>
      </trkpt>
      <trkpt lat="44.08812" lon="3.70454">
        <ele>895</ele>
        <time>2021-05-24T10:26:29Z</time>
      </trkpt>
      <trkpt lat="44.08815" lon="3.70441">
        <ele>895</ele>
        <time>2021-05-24T10:26:37Z</time>
      </trkpt>
      <trkpt lat="44.0882" lon="3.70429">
        <ele>895</ele>
        <time>2021-05-24T10:26:45Z</time>
      </trkpt>
      <trkpt lat="44.08825" lon="3.70417">
        <ele>895</ele>
        <time>2021-05-24T10:26:53Z</time>
      </trkpt>
      <trkpt lat="44.08828" lon="3.70404">
        <ele>895</ele>
        <time>2021-05-24T10:27:01Z</time>
      </trkpt>
      <trkpt lat="44.08829" lon="3.70391">
        <ele>895</ele>
        <time>2021-05-24T10:27:09Z</time>
      </trkpt>
      <trkpt lat="44.08832" lon="3.70378">
        <ele>895</ele>
        <time>2021-05-24T10:27:19Z</time>
      </trkpt>
      <trkpt lat="44.08835" lon="3.70366">
        <ele>895</ele>
        <time>2021-05-24T10:27:26Z</time>
      </trkpt>
      <trkpt lat="44.08837" lon="3.70352">
        <ele>895</ele>
        <time>2021-05-24T10:27:33Z</time>
      </trkpt>
      <trkpt lat="44.08841" lon="3.70339">
        <ele>895</ele>
        <time>2021-05-24T10:27:42Z</time>
      </trkpt>
      <trkpt lat="44.08847" lon="3.70327">
        <ele>895</ele>
        <time>2021-05-24T10:27:50Z</time>
      </trkpt>
      <trkpt lat="44.08853" lon="3.70318">
        <ele>884</ele>
        <time>2021-05-24T10:27:58Z</time>
      </trkpt>
      <trkpt lat="44.08857" lon="3.70305">
        <ele>884</ele>
        <time>2021-05-24T10:28:06Z</time>
      </trkpt>
      <trkpt lat="44.08859" lon="3.70292">
        <ele>884</ele>
        <time>2021-05-24T10:28:22Z</time>
      </trkpt>
      <trkpt lat="44.08864" lon="3.70281">
        <ele>879</ele>
        <time>2021-05-24T10:28:28Z</time>
      </trkpt>
      <trkpt lat="44.08868" lon="3.70269">
        <ele>879</ele>
        <time>2021-05-24T10:28:35Z</time>
      </trkpt>
      <trkpt lat="44.08871" lon="3.70256">
        <ele>879</ele>
        <time>2021-05-24T10:28:41Z</time>
      </trkpt>
      <trkpt lat="44.08878" lon="3.70246">
        <ele>879</ele>
        <time>2021-05-24T10:28:50Z</time>
      </trkpt>
      <trkpt lat="44.08882" lon="3.70235">
        <ele>879</ele>
        <time>2021-05-24T10:28:57Z</time>
      </trkpt>
      <trkpt lat="44.08887" lon="3.70224">
        <ele>879</ele>
        <time>2021-05-24T10:29:04Z</time>
      </trkpt>
      <trkpt lat="44.08891" lon="3.70212">
        <ele>879</ele>
        <time>2021-05-24T10:29:12Z</time>
      </trkpt>
      <trkpt lat="44.08895" lon="3.70199">
        <ele>879</ele>
        <time>2021-05-24T10:29:21Z</time>
      </trkpt>
      <trkpt lat="44.08898" lon="3.70186">
        <ele>879</ele>
        <time>2021-05-24T10:29:29Z</time>
      </trkpt>
      <trkpt lat="44.08903" lon="3.70175">
        <ele>879</ele>
        <time>2021-05-24T10:29:36Z</time>
      </trkpt>
      <trkpt lat="44.08909" lon="3.70165">
        <ele>879</ele>
        <time>2021-05-24T10:29:45Z</time>
      </trkpt>
      <trkpt lat="44.08917" lon="3.70157">
        <ele>879</ele>
        <time>2021-05-24T10:29:53Z</time>
      </trkpt>
      <trkpt lat="44.08923" lon="3.70147">
        <ele>879</ele>
        <time>2021-05-24T10:30:00Z</time>
      </trkpt>
      <trkpt lat="44.08927" lon="3.70136">
        <ele>879</ele>
        <time>2021-05-24T10:30:07Z</time>
      </trkpt>
      <trkpt lat="44.08931" lon="3.70124">
        <ele>879</ele>
        <time>2021-05-24T10:30:14Z</time>
      </trkpt>
      <trkpt lat="44.08932" lon="3.70111">
        <ele>879</ele>
        <time>2021-05-24T10:30:21Z</time>
      </trkpt>
      <trkpt lat="44.0893" lon="3.70098">
        <ele>863</ele>
        <time>2021-05-24T10:30:28Z</time>
      </trkpt>
      <trkpt lat="44.08926" lon="3.70087">
        <ele>863</ele>
        <time>2021-05-24T10:30:34Z</time>
      </trkpt>
      <trkpt lat="44.08923" lon="3.70074">
        <ele>863</ele>
        <time>2021-05-24T10:30:42Z</time>
      </trkpt>
      <trkpt lat="44.0892" lon="3.70062">
        <ele>863</ele>
        <time>2021-05-24T10:30:50Z</time>
      </trkpt>
      <trkpt lat="44.08917" lon="3.70049">
        <ele>863</ele>
        <time>2021-05-24T10:31:00Z</time>
      </trkpt>
      <trkpt lat="44.08914" lon="3.70037">
        <ele>857</ele>
        <time>2021-05-24T10:31:08Z</time>
      </trkpt>
      <trkpt lat="44.08908" lon="3.70025">
        <ele>857</ele>
        <time>2021-05-24T10:31:15Z</time>
      </trkpt>
      <trkpt lat="44.08903" lon="3.70014">
        <ele>857</ele>
        <time>2021-05-24T10:31:22Z</time>
      </trkpt>
      <trkpt lat="44.089" lon="3.70001">
        <ele>857</ele>
        <time>2021-05-24T10:31:29Z</time>
      </trkpt>
      <trkpt lat="44.08898" lon="3.69988">
        <ele>857</ele>
        <time>2021-05-24T10:31:37Z</time>
      </trkpt>
      <trkpt lat="44.08896" lon="3.69975">
        <ele>857</ele>
        <time>2021-05-24T10:31:45Z</time>
      </trkpt>
      <trkpt lat="44.08895" lon="3.69961">
        <ele>857</ele>
        <time>2021-05-24T10:31:53Z</time>
      </trkpt>
      <trkpt lat="44.08896" lon="3.69949">
        <ele>857</ele>
        <time>2021-05-24T10:32:00Z</time>
      </trkpt>
      <trkpt lat="44.08893" lon="3.69936">
        <ele>849</ele>
        <time>2021-05-24T10:32:08Z</time>
      </trkpt>
      <trkpt lat="44.08889" lon="3.69924">
        <ele>849</ele>
        <time>2021-05-24T10:32:16Z</time>
      </trkpt>
      <trkpt lat="44.08886" lon="3.69911">
        <ele>849</ele>
        <time>2021-05-24T10:32:24Z</time>
      </trkpt>
      <trkpt lat="44.08886" lon="3.69898">
        <ele>849</ele>
        <time>2021-05-24T10:32:32Z</time>
      </trkpt>
      <trkpt lat="44.08891" lon="3.69887">
        <ele>849</ele>
        <time>2021-05-24T10:32:43Z</time>
      </trkpt>
      <trkpt lat="44.08897" lon="3.69877">
        <ele>849</ele>
        <time>2021-05-24T10:32:51Z</time>
      </trkpt>
      <trkpt lat="44.08901" lon="3.69862">
        <ele>849</ele>
        <time>2021-05-24T10:32:59Z</time>
      </trkpt>
      <trkpt lat="44.08907" lon="3.69851">
        <ele>849</ele>
        <time>2021-05-24T10:33:07Z</time>
      </trkpt>
      <trkpt lat="44.08913" lon="3.69841">
        <ele>849</ele>
        <time>2021-05-24T10:33:14Z</time>
      </trkpt>
      <trkpt lat="44.08917" lon="3.6983">
        <ele>849</ele>
        <time>2021-05-24T10:33:23Z</time>
      </trkpt>
      <trkpt lat="44.08924" lon="3.69819">
        <ele>849</ele>
        <time>2021-05-24T10:33:32Z</time>
      </trkpt>
      <trkpt lat="44.08931" lon="3.69809">
        <ele>849</ele>
        <time>2021-05-24T10:33:41Z</time>
      </trkpt>
      <trkpt lat="44.08938" lon="3.69799">
        <ele>841</ele>
        <time>2021-05-24T10:33:48Z</time>
      </trkpt>
      <trkpt lat="44.08945" lon="3.6979">
        <ele>841</ele>
        <time>2021-05-24T10:33:56Z</time>
      </trkpt>
      <trkpt lat="44.08951" lon="3.69781">
        <ele>841</ele>
        <time>2021-05-24T10:34:03Z</time>
      </trkpt>
      <trkpt lat="44.08956" lon="3.6977">
        <ele>841</ele>
        <time>2021-05-24T10:34:11Z</time>
      </trkpt>
      <trkpt lat="44.08963" lon="3.6976">
        <ele>841</ele>
        <time>2021-05-24T10:34:19Z</time>
      </trkpt>
      <trkpt lat="44.0897" lon="3.6975">
        <ele>841</ele>
        <time>2021-05-24T10:34:27Z</time>
      </trkpt>
      <trkpt lat="44.08978" lon="3.6974">
        <ele>841</ele>
        <time>2021-05-24T10:34:35Z</time>
      </trkpt>
      <trkpt lat="44.0898" lon="3.69727">
        <ele>841</ele>
        <time>2021-05-24T10:34:42Z</time>
      </trkpt>
      <trkpt lat="44.08976" lon="3.69722">
        <ele>841</ele>
        <time>2021-05-24T10:35:03Z</time>
      </trkpt>
      <trkpt lat="44.08976" lon="3.69719">
        <ele>841</ele>
        <time>2021-05-24T10:35:06Z</time>
      </trkpt>
      <trkpt lat="44.08976" lon="3.69715">
        <ele>841</ele>
        <time>2021-05-24T10:35:09Z</time>
      </trkpt>
      <trkpt lat="44.08977" lon="3.69712">
        <ele>841</ele>
        <time>2021-05-24T10:35:10Z</time>
      </trkpt>
      <trkpt lat="44.08977" lon="3.69709">
        <ele>841</ele>
        <time>2021-05-24T10:35:12Z</time>
      </trkpt>
      <trkpt lat="44.08977" lon="3.69705">
        <ele>841</ele>
        <time>2021-05-24T10:35:14Z</time>
      </trkpt>
      <trkpt lat="44.08977" lon="3.69702">
        <ele>841</ele>
        <time>2021-05-24T10:35:16Z</time>
      </trkpt>
      <trkpt lat="44.08977" lon="3.69699">
        <ele>841</ele>
        <time>2021-05-24T10:35:19Z</time>
      </trkpt>
      <trkpt lat="44.08977" lon="3.69695">
        <ele>841</ele>
        <time>2021-05-24T10:35:21Z</time>
      </trkpt>
      <trkpt lat="44.08977" lon="3.69692">
        <ele>841</ele>
        <time>2021-05-24T10:35:23Z</time>
      </trkpt>
      <trkpt lat="44.08977" lon="3.69689">
        <ele>841</ele>
        <time>2021-05-24T10:35:25Z</time>
      </trkpt>
      <trkpt lat="44.08976" lon="3.69685">
        <ele>841</ele>
        <time>2021-05-24T10:35:27Z</time>
      </trkpt>
      <trkpt lat="44.08976" lon="3.69682">
        <ele>840</ele>
        <time>2021-05-24T10:35:28Z</time>
      </trkpt>
      <trkpt lat="44.08976" lon="3.69679">
        <ele>840</ele>
        <time>2021-05-24T10:35:30Z</time>
      </trkpt>
      <trkpt lat="44.08976" lon="3.69676">
        <ele>840</ele>
        <time>2021-05-24T10:35:32Z</time>
      </trkpt>
      <trkpt lat="44.08974" lon="3.69673">
        <ele>840</ele>
        <time>2021-05-24T10:35:42Z</time>
      </trkpt>
      <trkpt lat="44.08973" lon="3.69669">
        <ele>840</ele>
        <time>2021-05-24T10:35:45Z</time>
      </trkpt>
      <trkpt lat="44.08973" lon="3.69666">
        <ele>840</ele>
        <time>2021-05-24T10:35:47Z</time>
      </trkpt>
      <trkpt lat="44.08972" lon="3.69662">
        <ele>840</ele>
        <time>2021-05-24T10:35:49Z</time>
      </trkpt>
      <trkpt lat="44.08972" lon="3.69659">
        <ele>840</ele>
        <time>2021-05-24T10:35:51Z</time>
      </trkpt>
      <trkpt lat="44.08971" lon="3.69656">
        <ele>840</ele>
        <time>2021-05-24T10:35:53Z</time>
      </trkpt>
      <trkpt lat="44.08971" lon="3.69652">
        <ele>840</ele>
        <time>2021-05-24T10:36:00Z</time>
      </trkpt>
      <trkpt lat="44.0897" lon="3.69649">
        <ele>840</ele>
        <time>2021-05-24T10:36:02Z</time>
      </trkpt>
      <trkpt lat="44.08969" lon="3.69646">
        <ele>840</ele>
        <time>2021-05-24T10:36:04Z</time>
      </trkpt>
      <trkpt lat="44.08969" lon="3.69644">
        <ele>841</ele>
        <time>2021-05-24T10:36:08Z</time>
      </trkpt>
      <trkpt lat="44.08968" lon="3.6964">
        <ele>841</ele>
        <time>2021-05-24T10:36:10Z</time>
      </trkpt>
      <trkpt lat="44.08967" lon="3.69637">
        <ele>841</ele>
        <time>2021-05-24T10:36:12Z</time>
      </trkpt>
      <trkpt lat="44.08967" lon="3.69634">
        <ele>841</ele>
        <time>2021-05-24T10:36:14Z</time>
      </trkpt>
      <trkpt lat="44.08966" lon="3.6963">
        <ele>841</ele>
        <time>2021-05-24T10:36:16Z</time>
      </trkpt>
      <trkpt lat="44.08966" lon="3.69627">
        <ele>841</ele>
        <time>2021-05-24T10:36:18Z</time>
      </trkpt>
      <trkpt lat="44.08966" lon="3.69624">
        <ele>841</ele>
        <time>2021-05-24T10:36:20Z</time>
      </trkpt>
      <trkpt lat="44.08966" lon="3.6962">
        <ele>841</ele>
        <time>2021-05-24T10:36:22Z</time>
      </trkpt>
      <trkpt lat="44.08966" lon="3.69617">
        <ele>841</ele>
        <time>2021-05-24T10:36:25Z</time>
      </trkpt>
      <trkpt lat="44.08966" lon="3.69614">
        <ele>841</ele>
        <time>2021-05-24T10:36:27Z</time>
      </trkpt>
      <trkpt lat="44.08966" lon="3.69612">
        <ele>841</ele>
        <time>2021-05-24T10:36:29Z</time>
      </trkpt>
      <trkpt lat="44.08968" lon="3.6961">
        <ele>841</ele>
        <time>2021-05-24T10:36:32Z</time>
      </trkpt>
      <trkpt lat="44.0897" lon="3.69611">
        <ele>841</ele>
        <time>2021-05-24T10:36:34Z</time>
      </trkpt>
      <trkpt lat="44.08972" lon="3.69612">
        <ele>841</ele>
        <time>2021-05-24T10:36:37Z</time>
      </trkpt>
      <trkpt lat="44.08974" lon="3.69613">
        <ele>841</ele>
        <time>2021-05-24T10:36:39Z</time>
      </trkpt>
      <trkpt lat="44.08977" lon="3.69613">
        <ele>841</ele>
        <time>2021-05-24T10:36:41Z</time>
      </trkpt>
      <trkpt lat="44.0898" lon="3.69613">
        <ele>841</ele>
        <time>2021-05-24T10:36:43Z</time>
      </trkpt>
      <trkpt lat="44.08982" lon="3.69613">
        <ele>841</ele>
        <time>2021-05-24T10:36:44Z</time>
      </trkpt>
      <trkpt lat="44.08984" lon="3.69615">
        <ele>841</ele>
        <time>2021-05-24T10:36:46Z</time>
      </trkpt>
      <trkpt lat="44.08985" lon="3.69617">
        <ele>842</ele>
        <time>2021-05-24T10:36:48Z</time>
      </trkpt>
      <trkpt lat="44.08985" lon="3.6962">
        <ele>842</ele>
        <time>2021-05-24T10:36:50Z</time>
      </trkpt>
      <trkpt lat="44.08985" lon="3.69623">
        <ele>842</ele>
        <time>2021-05-24T10:36:52Z</time>
      </trkpt>
      <trkpt lat="44.08985" lon="3.69626">
        <ele>842</ele>
        <time>2021-05-24T10:37:04Z</time>
      </trkpt>
      <trkpt lat="44.08985" lon="3.69624">
        <ele>842</ele>
        <time>2021-05-24T10:37:13Z</time>
      </trkpt>
      <trkpt lat="44.08984" lon="3.69621">
        <ele>842</ele>
        <time>2021-05-24T10:38:28Z</time>
      </trkpt>
      <trkpt lat="44.08984" lon="3.69624">
        <ele>842</ele>
        <time>2021-05-24T10:39:17Z</time>
      </trkpt>
      <trkpt lat="44.08982" lon="3.69625">
        <ele>842</ele>
        <time>2021-05-24T10:39:45Z</time>
      </trkpt>
      <trkpt lat="44.08982" lon="3.69624">
        <ele>841</ele>
        <time>2021-05-24T10:40:14Z</time>
      </trkpt>
      <trkpt lat="44.08984" lon="3.69622">
        <ele>841</ele>
        <time>2021-05-24T11:32:14Z</time>
      </trkpt>
      <trkpt lat="44.08977" lon="3.69614">
        <ele>841</ele>
        <time>2021-05-24T11:32:26Z</time>
      </trkpt>
      <trkpt lat="44.0897" lon="3.69607">
        <ele>841</ele>
        <time>2021-05-24T11:32:40Z</time>
      </trkpt>
      <trkpt lat="44.08972" lon="3.69595">
        <ele>841</ele>
        <time>2021-05-24T11:32:54Z</time>
      </trkpt>
      <trkpt lat="44.08976" lon="3.69582">
        <ele>841</ele>
        <time>2021-05-24T11:33:06Z</time>
      </trkpt>
      <trkpt lat="44.08979" lon="3.6957">
        <ele>841</ele>
        <time>2021-05-24T11:33:15Z</time>
      </trkpt>
      <trkpt lat="44.08984" lon="3.6956">
        <ele>841</ele>
        <time>2021-05-24T11:33:25Z</time>
      </trkpt>
      <trkpt lat="44.08986" lon="3.69547">
        <ele>841</ele>
        <time>2021-05-24T11:33:39Z</time>
      </trkpt>
      <trkpt lat="44.08991" lon="3.69536">
        <ele>841</ele>
        <time>2021-05-24T11:33:52Z</time>
      </trkpt>
      <trkpt lat="44.08999" lon="3.69529">
        <ele>841</ele>
        <time>2021-05-24T11:34:58Z</time>
      </trkpt>
      <trkpt lat="44.09006" lon="3.6952">
        <ele>841</ele>
        <time>2021-05-24T11:35:09Z</time>
      </trkpt>
      <trkpt lat="44.0901" lon="3.69508">
        <ele>841</ele>
        <time>2021-05-24T11:35:20Z</time>
      </trkpt>
      <trkpt lat="44.09013" lon="3.69496">
        <ele>857</ele>
        <time>2021-05-24T11:35:33Z</time>
      </trkpt>
      <trkpt lat="44.09014" lon="3.69482">
        <ele>857</ele>
        <time>2021-05-24T11:35:43Z</time>
      </trkpt>
      <trkpt lat="44.09014" lon="3.69468">
        <ele>857</ele>
        <time>2021-05-24T11:35:52Z</time>
      </trkpt>
      <trkpt lat="44.09016" lon="3.69455">
        <ele>857</ele>
        <time>2021-05-24T11:36:02Z</time>
      </trkpt>
      <trkpt lat="44.09015" lon="3.69442">
        <ele>857</ele>
        <time>2021-05-24T11:36:12Z</time>
      </trkpt>
      <trkpt lat="44.09017" lon="3.69429">
        <ele>857</ele>
        <time>2021-05-24T11:36:22Z</time>
      </trkpt>
      <trkpt lat="44.09018" lon="3.69416">
        <ele>857</ele>
        <time>2021-05-24T11:36:32Z</time>
      </trkpt>
      <trkpt lat="44.09021" lon="3.69403">
        <ele>857</ele>
        <time>2021-05-24T11:36:41Z</time>
      </trkpt>
      <trkpt lat="44.09023" lon="3.6939">
        <ele>857</ele>
        <time>2021-05-24T11:36:51Z</time>
      </trkpt>
      <trkpt lat="44.09027" lon="3.69379">
        <ele>857</ele>
        <time>2021-05-24T11:37:01Z</time>
      </trkpt>
      <trkpt lat="44.0903" lon="3.69366">
        <ele>857</ele>
        <time>2021-05-24T11:37:10Z</time>
      </trkpt>
      <trkpt lat="44.09032" lon="3.69354">
        <ele>857</ele>
        <time>2021-05-24T11:37:19Z</time>
      </trkpt>
      <trkpt lat="44.09036" lon="3.69342">
        <ele>857</ele>
        <time>2021-05-24T11:37:29Z</time>
      </trkpt>
      <trkpt lat="44.09041" lon="3.69331">
        <ele>857</ele>
        <time>2021-05-24T11:37:39Z</time>
      </trkpt>
      <trkpt lat="44.09046" lon="3.6932">
        <ele>857</ele>
        <time>2021-05-24T11:37:47Z</time>
      </trkpt>
      <trkpt lat="44.09051" lon="3.69309">
        <ele>857</ele>
        <time>2021-05-24T11:37:58Z</time>
      </trkpt>
      <trkpt lat="44.09057" lon="3.69298">
        <ele>857</ele>
        <time>2021-05-24T11:38:07Z</time>
      </trkpt>
      <trkpt lat="44.09061" lon="3.69286">
        <ele>857</ele>
        <time>2021-05-24T11:38:19Z</time>
      </trkpt>
      <trkpt lat="44.09066" lon="3.69275">
        <ele>857</ele>
        <time>2021-05-24T11:38:27Z</time>
      </trkpt>
      <trkpt lat="44.0907" lon="3.69263">
        <ele>857</ele>
        <time>2021-05-24T11:38:37Z</time>
      </trkpt>
      <trkpt lat="44.09074" lon="3.69252">
        <ele>857</ele>
        <time>2021-05-24T11:38:45Z</time>
      </trkpt>
      <trkpt lat="44.09079" lon="3.69241">
        <ele>857</ele>
        <time>2021-05-24T11:38:54Z</time>
      </trkpt>
      <trkpt lat="44.09084" lon="3.6923">
        <ele>876</ele>
        <time>2021-05-24T11:39:03Z</time>
      </trkpt>
      <trkpt lat="44.0909" lon="3.69217">
        <ele>876</ele>
        <time>2021-05-24T11:39:12Z</time>
      </trkpt>
      <trkpt lat="44.09096" lon="3.69208">
        <ele>876</ele>
        <time>2021-05-24T11:39:21Z</time>
      </trkpt>
      <trkpt lat="44.09105" lon="3.69205">
        <ele>876</ele>
        <time>2021-05-24T11:39:30Z</time>
      </trkpt>
      <trkpt lat="44.09113" lon="3.69197">
        <ele>876</ele>
        <time>2021-05-24T11:39:42Z</time>
      </trkpt>
      <trkpt lat="44.09121" lon="3.69192">
        <ele>876</ele>
        <time>2021-05-24T11:39:54Z</time>
      </trkpt>
      <trkpt lat="44.09128" lon="3.69183">
        <ele>876</ele>
        <time>2021-05-24T11:40:05Z</time>
      </trkpt>
      <trkpt lat="44.09136" lon="3.69176">
        <ele>876</ele>
        <time>2021-05-24T11:40:16Z</time>
      </trkpt>
      <trkpt lat="44.09143" lon="3.69166">
        <ele>882</ele>
        <time>2021-05-24T11:40:33Z</time>
      </trkpt>
      <trkpt lat="44.09149" lon="3.69156">
        <ele>882</ele>
        <time>2021-05-24T11:40:42Z</time>
      </trkpt>
      <trkpt lat="44.09156" lon="3.69147">
        <ele>882</ele>
        <time>2021-05-24T11:40:51Z</time>
      </trkpt>
      <trkpt lat="44.09162" lon="3.69137">
        <ele>882</ele>
        <time>2021-05-24T11:41:02Z</time>
      </trkpt>
      <trkpt lat="44.09168" lon="3.69128">
        <ele>882</ele>
        <time>2021-05-24T11:41:12Z</time>
      </trkpt>
      <trkpt lat="44.09174" lon="3.69118">
        <ele>882</ele>
        <time>2021-05-24T11:41:21Z</time>
      </trkpt>
      <trkpt lat="44.09179" lon="3.69108">
        <ele>882</ele>
        <time>2021-05-24T11:41:30Z</time>
      </trkpt>
      <trkpt lat="44.09186" lon="3.69098">
        <ele>882</ele>
        <time>2021-05-24T11:41:41Z</time>
      </trkpt>
      <trkpt lat="44.09191" lon="3.69086">
        <ele>882</ele>
        <time>2021-05-24T11:41:49Z</time>
      </trkpt>
      <trkpt lat="44.09198" lon="3.69075">
        <ele>882</ele>
        <time>2021-05-24T11:41:58Z</time>
      </trkpt>
      <trkpt lat="44.09205" lon="3.69065">
        <ele>882</ele>
        <time>2021-05-24T11:42:07Z</time>
      </trkpt>
      <trkpt lat="44.09212" lon="3.69056">
        <ele>882</ele>
        <time>2021-05-24T11:42:17Z</time>
      </trkpt>
      <trkpt lat="44.09218" lon="3.69047">
        <ele>882</ele>
        <time>2021-05-24T11:42:26Z</time>
      </trkpt>
      <trkpt lat="44.09225" lon="3.69038">
        <ele>882</ele>
        <time>2021-05-24T11:42:37Z</time>
      </trkpt>
      <trkpt lat="44.09232" lon="3.69028">
        <ele>882</ele>
        <time>2021-05-24T11:42:47Z</time>
      </trkpt>
      <trkpt lat="44.09238" lon="3.69019">
        <ele>882</ele>
        <time>2021-05-24T11:42:57Z</time>
      </trkpt>
      <trkpt lat="44.09247" lon="3.69013">
        <ele>882</ele>
        <time>2021-05-24T11:43:06Z</time>
      </trkpt>
      <trkpt lat="44.09255" lon="3.69006">
        <ele>882</ele>
        <time>2021-05-24T11:43:15Z</time>
      </trkpt>
      <trkpt lat="44.09262" lon="3.68998">
        <ele>882</ele>
        <time>2021-05-24T11:43:24Z</time>
      </trkpt>
      <trkpt lat="44.09269" lon="3.68988">
        <ele>882</ele>
        <time>2021-05-24T11:43:34Z</time>
      </trkpt>
      <trkpt lat="44.09275" lon="3.68979">
        <ele>882</ele>
        <time>2021-05-24T11:43:44Z</time>
      </trkpt>
      <trkpt lat="44.09282" lon="3.6897">
        <ele>882</ele>
        <time>2021-05-24T11:43:56Z</time>
      </trkpt>
      <trkpt lat="44.09289" lon="3.6896">
        <ele>882</ele>
        <time>2021-05-24T11:44:06Z</time>
      </trkpt>
      <trkpt lat="44.09297" lon="3.68953">
        <ele>882</ele>
        <time>2021-05-24T11:44:15Z</time>
      </trkpt>
      <trkpt lat="44.09305" lon="3.68947">
        <ele>882</ele>
        <time>2021-05-24T11:44:25Z</time>
      </trkpt>
      <trkpt lat="44.09313" lon="3.68941">
        <ele>882</ele>
        <time>2021-05-24T11:44:35Z</time>
      </trkpt>
      <trkpt lat="44.09321" lon="3.68934">
        <ele>882</ele>
        <time>2021-05-24T11:44:47Z</time>
      </trkpt>
      <trkpt lat="44.0933" lon="3.68927">
        <ele>882</ele>
        <time>2021-05-24T11:44:58Z</time>
      </trkpt>
      <trkpt lat="44.09338" lon="3.68919">
        <ele>882</ele>
        <time>2021-05-24T11:45:08Z</time>
      </trkpt>
      <trkpt lat="44.09347" lon="3.68916">
        <ele>882</ele>
        <time>2021-05-24T11:45:19Z</time>
      </trkpt>
      <trkpt lat="44.09355" lon="3.6891">
        <ele>882</ele>
        <time>2021-05-24T11:45:28Z</time>
      </trkpt>
      <trkpt lat="44.09364" lon="3.68905">
        <ele>882</ele>
        <time>2021-05-24T11:45:41Z</time>
      </trkpt>
      <trkpt lat="44.09373" lon="3.68905">
        <ele>901</ele>
        <time>2021-05-24T11:45:53Z</time>
      </trkpt>
      <trkpt lat="44.09382" lon="3.68904">
        <ele>901</ele>
        <time>2021-05-24T11:46:08Z</time>
      </trkpt>
      <trkpt lat="44.09391" lon="3.689">
        <ele>901</ele>
        <time>2021-05-24T11:46:20Z</time>
      </trkpt>
      <trkpt lat="44.094" lon="3.68896">
        <ele>901</ele>
        <time>2021-05-24T11:46:30Z</time>
      </trkpt>
      <trkpt lat="44.09408" lon="3.68888">
        <ele>901</ele>
        <time>2021-05-24T11:46:44Z</time>
      </trkpt>
      <trkpt lat="44.09416" lon="3.68883">
        <ele>901</ele>
        <time>2021-05-24T11:46:57Z</time>
      </trkpt>
      <trkpt lat="44.09425" lon="3.68877">
        <ele>901</ele>
        <time>2021-05-24T11:47:16Z</time>
      </trkpt>
      <trkpt lat="44.09433" lon="3.68871">
        <ele>901</ele>
        <time>2021-05-24T11:47:26Z</time>
      </trkpt>
      <trkpt lat="44.09442" lon="3.6887">
        <ele>901</ele>
        <time>2021-05-24T11:47:37Z</time>
      </trkpt>
      <trkpt lat="44.09452" lon="3.68868">
        <ele>901</ele>
        <time>2021-05-24T11:47:52Z</time>
      </trkpt>
      <trkpt lat="44.09462" lon="3.68871">
        <ele>901</ele>
        <time>2021-05-24T11:48:06Z</time>
      </trkpt>
      <trkpt lat="44.09471" lon="3.68873">
        <ele>901</ele>
        <time>2021-05-24T11:48:19Z</time>
      </trkpt>
      <trkpt lat="44.0948" lon="3.68877">
        <ele>901</ele>
        <time>2021-05-24T11:48:28Z</time>
      </trkpt>
      <trkpt lat="44.09489" lon="3.6888">
        <ele>901</ele>
        <time>2021-05-24T11:48:38Z</time>
      </trkpt>
      <trkpt lat="44.09498" lon="3.68883">
        <ele>901</ele>
        <time>2021-05-24T11:48:48Z</time>
      </trkpt>
      <trkpt lat="44.09507" lon="3.68887">
        <ele>901</ele>
        <time>2021-05-24T11:48:58Z</time>
      </trkpt>
      <trkpt lat="44.09514" lon="3.68895">
        <ele>901</ele>
        <time>2021-05-24T11:49:09Z</time>
      </trkpt>
      <trkpt lat="44.09522" lon="3.68903">
        <ele>901</ele>
        <time>2021-05-24T11:49:24Z</time>
      </trkpt>
      <trkpt lat="44.09531" lon="3.68907">
        <ele>901</ele>
        <time>2021-05-24T11:49:34Z</time>
      </trkpt>
      <trkpt lat="44.0954" lon="3.68911">
        <ele>901</ele>
        <time>2021-05-24T11:49:45Z</time>
      </trkpt>
      <trkpt lat="44.09549" lon="3.68906">
        <ele>901</ele>
        <time>2021-05-24T11:50:00Z</time>
      </trkpt>
      <trkpt lat="44.09556" lon="3.68897">
        <ele>901</ele>
        <time>2021-05-24T11:50:09Z</time>
      </trkpt>
      <trkpt lat="44.09557" lon="3.68884">
        <ele>901</ele>
        <time>2021-05-24T11:50:20Z</time>
      </trkpt>
      <trkpt lat="44.09558" lon="3.68871">
        <ele>901</ele>
        <time>2021-05-24T11:50:29Z</time>
      </trkpt>
      <trkpt lat="44.09559" lon="3.68858">
        <ele>901</ele>
        <time>2021-05-24T11:50:37Z</time>
      </trkpt>
      <trkpt lat="44.09562" lon="3.68846">
        <ele>901</ele>
        <time>2021-05-24T11:50:45Z</time>
      </trkpt>
      <trkpt lat="44.09564" lon="3.68834">
        <ele>913</ele>
        <time>2021-05-24T11:50:53Z</time>
      </trkpt>
      <trkpt lat="44.09566" lon="3.68821">
        <ele>913</ele>
        <time>2021-05-24T11:51:00Z</time>
      </trkpt>
      <trkpt lat="44.09567" lon="3.68808">
        <ele>913</ele>
        <time>2021-05-24T11:51:09Z</time>
      </trkpt>
      <trkpt lat="44.0957" lon="3.68794">
        <ele>913</ele>
        <time>2021-05-24T11:51:18Z</time>
      </trkpt>
      <trkpt lat="44.0957" lon="3.68781">
        <ele>913</ele>
        <time>2021-05-24T11:51:26Z</time>
      </trkpt>
      <trkpt lat="44.09573" lon="3.68768">
        <ele>913</ele>
        <time>2021-05-24T11:51:36Z</time>
      </trkpt>
      <trkpt lat="44.09573" lon="3.68755">
        <ele>913</ele>
        <time>2021-05-24T11:51:45Z</time>
      </trkpt>
      <trkpt lat="44.09576" lon="3.68742">
        <ele>913</ele>
        <time>2021-05-24T11:51:57Z</time>
      </trkpt>
      <trkpt lat="44.09577" lon="3.68728">
        <ele>913</ele>
        <time>2021-05-24T11:52:06Z</time>
      </trkpt>
      <trkpt lat="44.09576" lon="3.68716">
        <ele>913</ele>
        <time>2021-05-24T11:52:14Z</time>
      </trkpt>
      <trkpt lat="44.09576" lon="3.68703">
        <ele>897</ele>
        <time>2021-05-24T11:52:23Z</time>
      </trkpt>
      <trkpt lat="44.09577" lon="3.68689">
        <ele>895</ele>
        <time>2021-05-24T11:52:33Z</time>
      </trkpt>
      <trkpt lat="44.09577" lon="3.68676">
        <ele>895</ele>
        <time>2021-05-24T11:52:42Z</time>
      </trkpt>
      <trkpt lat="44.09576" lon="3.68663">
        <ele>895</ele>
        <time>2021-05-24T11:52:50Z</time>
      </trkpt>
      <trkpt lat="44.09578" lon="3.6865">
        <ele>895</ele>
        <time>2021-05-24T11:53:00Z</time>
      </trkpt>
      <trkpt lat="44.0958" lon="3.68636">
        <ele>895</ele>
        <time>2021-05-24T11:53:09Z</time>
      </trkpt>
      <trkpt lat="44.09581" lon="3.68622">
        <ele>895</ele>
        <time>2021-05-24T11:53:18Z</time>
      </trkpt>
      <trkpt lat="44.0958" lon="3.68609">
        <ele>895</ele>
        <time>2021-05-24T11:53:27Z</time>
      </trkpt>
      <trkpt lat="44.0958" lon="3.68595">
        <ele>895</ele>
        <time>2021-05-24T11:53:35Z</time>
      </trkpt>
      <trkpt lat="44.09581" lon="3.68583">
        <ele>895</ele>
        <time>2021-05-24T11:53:44Z</time>
      </trkpt>
      <trkpt lat="44.09586" lon="3.68571">
        <ele>895</ele>
        <time>2021-05-24T11:53:51Z</time>
      </trkpt>
      <trkpt lat="44.09588" lon="3.68557">
        <ele>895</ele>
        <time>2021-05-24T11:53:58Z</time>
      </trkpt>
      <trkpt lat="44.0959" lon="3.68544">
        <ele>895</ele>
        <time>2021-05-24T11:54:06Z</time>
      </trkpt>
      <trkpt lat="44.09595" lon="3.68533">
        <ele>895</ele>
        <time>2021-05-24T11:54:14Z</time>
      </trkpt>
      <trkpt lat="44.096" lon="3.68521">
        <ele>895</ele>
        <time>2021-05-24T11:54:21Z</time>
      </trkpt>
      <trkpt lat="44.09605" lon="3.68508">
        <ele>895</ele>
        <time>2021-05-24T11:54:30Z</time>
      </trkpt>
      <trkpt lat="44.0961" lon="3.68498">
        <ele>895</ele>
        <time>2021-05-24T11:54:39Z</time>
      </trkpt>
      <trkpt lat="44.09616" lon="3.68488">
        <ele>895</ele>
        <time>2021-05-24T11:54:46Z</time>
      </trkpt>
      <trkpt lat="44.09619" lon="3.68476">
        <ele>895</ele>
        <time>2021-05-24T11:54:54Z</time>
      </trkpt>
      <trkpt lat="44.09623" lon="3.68463">
        <ele>895</ele>
        <time>2021-05-24T11:55:01Z</time>
      </trkpt>
      <trkpt lat="44.09629" lon="3.68452">
        <ele>895</ele>
        <time>2021-05-24T11:55:08Z</time>
      </trkpt>
      <trkpt lat="44.09633" lon="3.6844">
        <ele>895</ele>
        <time>2021-05-24T11:55:15Z</time>
      </trkpt>
      <trkpt lat="44.09639" lon="3.68429">
        <ele>872</ele>
        <time>2021-05-24T11:55:23Z</time>
      </trkpt>
      <trkpt lat="44.09646" lon="3.68419">
        <ele>872</ele>
        <time>2021-05-24T11:55:32Z</time>
      </trkpt>
      <trkpt lat="44.0965" lon="3.68407">
        <ele>872</ele>
        <time>2021-05-24T11:55:41Z</time>
      </trkpt>
      <trkpt lat="44.09654" lon="3.68396">
        <ele>872</ele>
        <time>2021-05-24T11:55:49Z</time>
      </trkpt>
      <trkpt lat="44.09659" lon="3.68384">
        <ele>872</ele>
        <time>2021-05-24T11:55:56Z</time>
      </trkpt>
      <trkpt lat="44.09664" lon="3.68373">
        <ele>872</ele>
        <time>2021-05-24T11:56:05Z</time>
      </trkpt>
      <trkpt lat="44.09669" lon="3.68363">
        <ele>872</ele>
        <time>2021-05-24T11:56:14Z</time>
      </trkpt>
      <trkpt lat="44.09676" lon="3.68354">
        <ele>872</ele>
        <time>2021-05-24T11:56:22Z</time>
      </trkpt>
      <trkpt lat="44.09683" lon="3.68345">
        <ele>872</ele>
        <time>2021-05-24T11:56:29Z</time>
      </trkpt>
      <trkpt lat="44.0969" lon="3.68336">
        <ele>872</ele>
        <time>2021-05-24T11:56:37Z</time>
      </trkpt>
      <trkpt lat="44.09693" lon="3.68324">
        <ele>872</ele>
        <time>2021-05-24T11:56:45Z</time>
      </trkpt>
      <trkpt lat="44.09694" lon="3.6831">
        <ele>872</ele>
        <time>2021-05-24T11:56:55Z</time>
      </trkpt>
      <trkpt lat="44.09699" lon="3.683">
        <ele>872</ele>
        <time>2021-05-24T11:57:04Z</time>
      </trkpt>
      <trkpt lat="44.09706" lon="3.6829">
        <ele>857</ele>
        <time>2021-05-24T11:57:13Z</time>
      </trkpt>
      <trkpt lat="44.09711" lon="3.68278">
        <ele>857</ele>
        <time>2021-05-24T11:57:22Z</time>
      </trkpt>
      <trkpt lat="44.09718" lon="3.68269">
        <ele>857</ele>
        <time>2021-05-24T11:57:30Z</time>
      </trkpt>
      <trkpt lat="44.09724" lon="3.68259">
        <ele>857</ele>
        <time>2021-05-24T11:57:40Z</time>
      </trkpt>
      <trkpt lat="44.0973" lon="3.68248">
        <ele>857</ele>
        <time>2021-05-24T11:57:50Z</time>
      </trkpt>
      <trkpt lat="44.09735" lon="3.68236">
        <ele>857</ele>
        <time>2021-05-24T11:57:59Z</time>
      </trkpt>
      <trkpt lat="44.09743" lon="3.68228">
        <ele>857</ele>
        <time>2021-05-24T11:58:10Z</time>
      </trkpt>
      <trkpt lat="44.09749" lon="3.68217">
        <ele>857</ele>
        <time>2021-05-24T11:58:20Z</time>
      </trkpt>
      <trkpt lat="44.09757" lon="3.6821">
        <ele>857</ele>
        <time>2021-05-24T11:58:30Z</time>
      </trkpt>
      <trkpt lat="44.09767" lon="3.68206">
        <ele>857</ele>
        <time>2021-05-24T11:58:38Z</time>
      </trkpt>
      <trkpt lat="44.09775" lon="3.682">
        <ele>857</ele>
        <time>2021-05-24T11:58:47Z</time>
      </trkpt>
      <trkpt lat="44.09781" lon="3.6819">
        <ele>857</ele>
        <time>2021-05-24T11:58:56Z</time>
      </trkpt>
      <trkpt lat="44.09788" lon="3.6818">
        <ele>857</ele>
        <time>2021-05-24T11:59:05Z</time>
      </trkpt>
      <trkpt lat="44.09794" lon="3.6817">
        <ele>859</ele>
        <time>2021-05-24T11:59:13Z</time>
      </trkpt>
      <trkpt lat="44.09797" lon="3.68158">
        <ele>859</ele>
        <time>2021-05-24T11:59:22Z</time>
      </trkpt>
      <trkpt lat="44.09806" lon="3.68151">
        <ele>859</ele>
        <time>2021-05-24T11:59:31Z</time>
      </trkpt>
      <trkpt lat="44.09812" lon="3.68142">
        <ele>859</ele>
        <time>2021-05-24T11:59:39Z</time>
      </trkpt>
      <trkpt lat="44.09816" lon="3.68129">
        <ele>859</ele>
        <time>2021-05-24T11:59:45Z</time>
      </trkpt>
      <trkpt lat="44.09822" lon="3.6812">
        <ele>864</ele>
        <time>2021-05-24T11:59:53Z</time>
      </trkpt>
      <trkpt lat="44.09826" lon="3.68109">
        <ele>864</ele>
        <time>2021-05-24T12:00:01Z</time>
      </trkpt>
      <trkpt lat="44.09834" lon="3.68102">
        <ele>864</ele>
        <time>2021-05-24T12:00:09Z</time>
      </trkpt>
      <trkpt lat="44.0984" lon="3.68088">
        <ele>864</ele>
        <time>2021-05-24T12:00:19Z</time>
      </trkpt>
      <trkpt lat="44.09848" lon="3.68081">
        <ele>864</ele>
        <time>2021-05-24T12:00:26Z</time>
      </trkpt>
      <trkpt lat="44.09857" lon="3.68072">
        <ele>864</ele>
        <time>2021-05-24T12:00:37Z</time>
      </trkpt>
      <trkpt lat="44.09865" lon="3.68068">
        <ele>864</ele>
        <time>2021-05-24T12:00:45Z</time>
      </trkpt>
      <trkpt lat="44.09872" lon="3.6806">
        <ele>864</ele>
        <time>2021-05-24T12:00:54Z</time>
      </trkpt>
      <trkpt lat="44.0988" lon="3.68052">
        <ele>864</ele>
        <time>2021-05-24T12:01:01Z</time>
      </trkpt>
      <trkpt lat="44.09889" lon="3.68047">
        <ele>864</ele>
        <time>2021-05-24T12:01:09Z</time>
      </trkpt>
      <trkpt lat="44.09896" lon="3.68039">
        <ele>864</ele>
        <time>2021-05-24T12:01:18Z</time>
      </trkpt>
      <trkpt lat="44.09901" lon="3.68027">
        <ele>864</ele>
        <time>2021-05-24T12:01:28Z</time>
      </trkpt>
      <trkpt lat="44.09904" lon="3.68015">
        <ele>864</ele>
        <time>2021-05-24T12:01:36Z</time>
      </trkpt>
      <trkpt lat="44.09908" lon="3.68003">
        <ele>864</ele>
        <time>2021-05-24T12:01:45Z</time>
      </trkpt>
      <trkpt lat="44.09909" lon="3.6799">
        <ele>864</ele>
        <time>2021-05-24T12:01:54Z</time>
      </trkpt>
      <trkpt lat="44.09913" lon="3.67977">
        <ele>864</ele>
        <time>2021-05-24T12:02:02Z</time>
      </trkpt>
      <trkpt lat="44.09911" lon="3.67963">
        <ele>864</ele>
        <time>2021-05-24T12:02:10Z</time>
      </trkpt>
      <trkpt lat="44.0991" lon="3.67949">
        <ele>864</ele>
        <time>2021-05-24T12:02:19Z</time>
      </trkpt>
      <trkpt lat="44.09908" lon="3.67937">
        <ele>864</ele>
        <time>2021-05-24T12:02:27Z</time>
      </trkpt>
      <trkpt lat="44.09908" lon="3.67922">
        <ele>864</ele>
        <time>2021-05-24T12:02:35Z</time>
      </trkpt>
      <trkpt lat="44.09906" lon="3.6791">
        <ele>864</ele>
        <time>2021-05-24T12:02:42Z</time>
      </trkpt>
      <trkpt lat="44.09904" lon="3.67897">
        <ele>864</ele>
        <time>2021-05-24T12:02:50Z</time>
      </trkpt>
      <trkpt lat="44.09903" lon="3.67884">
        <ele>864</ele>
        <time>2021-05-24T12:03:00Z</time>
      </trkpt>
      <trkpt lat="44.09901" lon="3.67871">
        <ele>864</ele>
        <time>2021-05-24T12:03:08Z</time>
      </trkpt>
      <trkpt lat="44.09899" lon="3.67857">
        <ele>864</ele>
        <time>2021-05-24T12:03:16Z</time>
      </trkpt>
      <trkpt lat="44.09899" lon="3.67844">
        <ele>862</ele>
        <time>2021-05-24T12:03:23Z</time>
      </trkpt>
      <trkpt lat="44.09899" lon="3.67831">
        <ele>862</ele>
        <time>2021-05-24T12:03:32Z</time>
      </trkpt>
      <trkpt lat="44.09899" lon="3.67818">
        <ele>862</ele>
        <time>2021-05-24T12:03:41Z</time>
      </trkpt>
      <trkpt lat="44.09899" lon="3.67804">
        <ele>862</ele>
        <time>2021-05-24T12:03:50Z</time>
      </trkpt>
      <trkpt lat="44.09903" lon="3.67793">
        <ele>862</ele>
        <time>2021-05-24T12:03:59Z</time>
      </trkpt>
      <trkpt lat="44.09905" lon="3.67779">
        <ele>862</ele>
        <time>2021-05-24T12:04:07Z</time>
      </trkpt>
      <trkpt lat="44.09911" lon="3.67768">
        <ele>862</ele>
        <time>2021-05-24T12:04:15Z</time>
      </trkpt>
      <trkpt lat="44.09916" lon="3.67758">
        <ele>862</ele>
        <time>2021-05-24T12:04:22Z</time>
      </trkpt>
      <trkpt lat="44.09923" lon="3.67749">
        <ele>862</ele>
        <time>2021-05-24T12:04:30Z</time>
      </trkpt>
      <trkpt lat="44.09923" lon="3.67736">
        <ele>862</ele>
        <time>2021-05-24T12:04:39Z</time>
      </trkpt>
      <trkpt lat="44.09922" lon="3.67721">
        <ele>862</ele>
        <time>2021-05-24T12:04:48Z</time>
      </trkpt>
      <trkpt lat="44.09924" lon="3.67709">
        <ele>862</ele>
        <time>2021-05-24T12:04:57Z</time>
      </trkpt>
      <trkpt lat="44.09925" lon="3.67695">
        <ele>862</ele>
        <time>2021-05-24T12:05:06Z</time>
      </trkpt>
      <trkpt lat="44.09923" lon="3.67682">
        <ele>862</ele>
        <time>2021-05-24T12:05:14Z</time>
      </trkpt>
      <trkpt lat="44.09921" lon="3.67669">
        <ele>855</ele>
        <time>2021-05-24T12:05:23Z</time>
      </trkpt>
      <trkpt lat="44.09924" lon="3.67657">
        <ele>855</ele>
        <time>2021-05-24T12:05:31Z</time>
      </trkpt>
      <trkpt lat="44.09928" lon="3.67645">
        <ele>855</ele>
        <time>2021-05-24T12:05:42Z</time>
      </trkpt>
      <trkpt lat="44.0993" lon="3.67632">
        <ele>857</ele>
        <time>2021-05-24T12:05:53Z</time>
      </trkpt>
      <trkpt lat="44.0993" lon="3.67618">
        <ele>857</ele>
        <time>2021-05-24T12:06:08Z</time>
      </trkpt>
      <trkpt lat="44.09932" lon="3.67605">
        <ele>857</ele>
        <time>2021-05-24T12:06:20Z</time>
      </trkpt>
      <trkpt lat="44.09935" lon="3.67593">
        <ele>857</ele>
        <time>2021-05-24T12:06:27Z</time>
      </trkpt>
      <trkpt lat="44.0994" lon="3.67581">
        <ele>857</ele>
        <time>2021-05-24T12:06:36Z</time>
      </trkpt>
      <trkpt lat="44.09943" lon="3.67568">
        <ele>857</ele>
        <time>2021-05-24T12:06:45Z</time>
      </trkpt>
      <trkpt lat="44.09943" lon="3.67555">
        <ele>857</ele>
        <time>2021-05-24T12:06:52Z</time>
      </trkpt>
      <trkpt lat="44.09944" lon="3.67542">
        <ele>857</ele>
        <time>2021-05-24T12:07:00Z</time>
      </trkpt>
      <trkpt lat="44.09952" lon="3.67534">
        <ele>857</ele>
        <time>2021-05-24T12:07:11Z</time>
      </trkpt>
      <trkpt lat="44.09952" lon="3.67521">
        <ele>857</ele>
        <time>2021-05-24T12:07:20Z</time>
      </trkpt>
      <trkpt lat="44.09955" lon="3.67508">
        <ele>857</ele>
        <time>2021-05-24T12:07:30Z</time>
      </trkpt>
      <trkpt lat="44.09956" lon="3.67496">
        <ele>857</ele>
        <time>2021-05-24T12:07:40Z</time>
      </trkpt>
      <trkpt lat="44.09958" lon="3.67482">
        <ele>857</ele>
        <time>2021-05-24T12:07:47Z</time>
      </trkpt>
      <trkpt lat="44.09957" lon="3.6747">
        <ele>857</ele>
        <time>2021-05-24T12:07:54Z</time>
      </trkpt>
      <trkpt lat="44.09963" lon="3.67459">
        <ele>853</ele>
        <time>2021-05-24T12:08:03Z</time>
      </trkpt>
      <trkpt lat="44.09969" lon="3.67449">
        <ele>853</ele>
        <time>2021-05-24T12:08:12Z</time>
      </trkpt>
      <trkpt lat="44.09973" lon="3.67438">
        <ele>853</ele>
        <time>2021-05-24T12:08:21Z</time>
      </trkpt>
      <trkpt lat="44.09971" lon="3.67424">
        <ele>853</ele>
        <time>2021-05-24T12:08:30Z</time>
      </trkpt>
      <trkpt lat="44.09973" lon="3.6741">
        <ele>853</ele>
        <time>2021-05-24T12:08:40Z</time>
      </trkpt>
      <trkpt lat="44.09974" lon="3.67396">
        <ele>853</ele>
        <time>2021-05-24T12:08:50Z</time>
      </trkpt>
      <trkpt lat="44.09978" lon="3.67385">
        <ele>853</ele>
        <time>2021-05-24T12:09:14Z</time>
      </trkpt>
      <trkpt lat="44.0998" lon="3.67371">
        <ele>853</ele>
        <time>2021-05-24T12:09:31Z</time>
      </trkpt>
      <trkpt lat="44.09984" lon="3.6736">
        <ele>851</ele>
        <time>2021-05-24T12:09:43Z</time>
      </trkpt>
      <trkpt lat="44.0999" lon="3.6735">
        <ele>851</ele>
        <time>2021-05-24T12:10:44Z</time>
      </trkpt>
      <trkpt lat="44.09994" lon="3.67337">
        <ele>851</ele>
        <time>2021-05-24T12:10:53Z</time>
      </trkpt>
      <trkpt lat="44.09996" lon="3.67323">
        <ele>851</ele>
        <time>2021-05-24T12:11:01Z</time>
      </trkpt>
      <trkpt lat="44.09998" lon="3.6731">
        <ele>851</ele>
        <time>2021-05-24T12:11:09Z</time>
      </trkpt>
      <trkpt lat="44.09996" lon="3.67297">
        <ele>851</ele>
        <time>2021-05-24T12:11:22Z</time>
      </trkpt>
      <trkpt lat="44.09996" lon="3.67284">
        <ele>851</ele>
        <time>2021-05-24T12:11:30Z</time>
      </trkpt>
      <trkpt lat="44.09996" lon="3.6727">
        <ele>851</ele>
        <time>2021-05-24T12:11:39Z</time>
      </trkpt>
      <trkpt lat="44.09996" lon="3.67256">
        <ele>851</ele>
        <time>2021-05-24T12:11:46Z</time>
      </trkpt>
      <trkpt lat="44.09995" lon="3.67243">
        <ele>851</ele>
        <time>2021-05-24T12:11:54Z</time>
      </trkpt>
      <trkpt lat="44.09994" lon="3.67229">
        <ele>851</ele>
        <time>2021-05-24T12:12:01Z</time>
      </trkpt>
      <trkpt lat="44.09995" lon="3.67215">
        <ele>851</ele>
        <time>2021-05-24T12:12:08Z</time>
      </trkpt>
      <trkpt lat="44.09996" lon="3.67203">
        <ele>851</ele>
        <time>2021-05-24T12:12:16Z</time>
      </trkpt>
      <trkpt lat="44.09998" lon="3.67189">
        <ele>851</ele>
        <time>2021-05-24T12:12:24Z</time>
      </trkpt>
      <trkpt lat="44.09999" lon="3.67177">
        <ele>851</ele>
        <time>2021-05-24T12:12:32Z</time>
      </trkpt>
      <trkpt lat="44.10002" lon="3.67165">
        <ele>851</ele>
        <time>2021-05-24T12:12:40Z</time>
      </trkpt>
      <trkpt lat="44.10002" lon="3.67151">
        <ele>851</ele>
        <time>2021-05-24T12:12:49Z</time>
      </trkpt>
      <trkpt lat="44.10005" lon="3.67138">
        <ele>851</ele>
        <time>2021-05-24T12:12:57Z</time>
      </trkpt>
      <trkpt lat="44.10004" lon="3.67125">
        <ele>851</ele>
        <time>2021-05-24T12:13:05Z</time>
      </trkpt>
      <trkpt lat="44.10004" lon="3.67112">
        <ele>845</ele>
        <time>2021-05-24T12:13:13Z</time>
      </trkpt>
      <trkpt lat="44.10005" lon="3.67098">
        <ele>845</ele>
        <time>2021-05-24T12:13:22Z</time>
      </trkpt>
      <trkpt lat="44.10004" lon="3.67085">
        <ele>845</ele>
        <time>2021-05-24T12:13:31Z</time>
      </trkpt>
      <trkpt lat="44.10007" lon="3.67073">
        <ele>841</ele>
        <time>2021-05-24T12:13:43Z</time>
      </trkpt>
      <trkpt lat="44.10006" lon="3.6706">
        <ele>841</ele>
        <time>2021-05-24T12:13:59Z</time>
      </trkpt>
      <trkpt lat="44.10006" lon="3.67047">
        <ele>841</ele>
        <time>2021-05-24T12:14:05Z</time>
      </trkpt>
      <trkpt lat="44.10007" lon="3.67032">
        <ele>842</ele>
        <time>2021-05-24T12:14:13Z</time>
      </trkpt>
      <trkpt lat="44.10005" lon="3.6702">
        <ele>842</ele>
        <time>2021-05-24T12:14:21Z</time>
      </trkpt>
      <trkpt lat="44.10001" lon="3.67006">
        <ele>842</ele>
        <time>2021-05-24T12:14:29Z</time>
      </trkpt>
      <trkpt lat="44.1" lon="3.66993">
        <ele>842</ele>
        <time>2021-05-24T12:14:39Z</time>
      </trkpt>
      <trkpt lat="44.09995" lon="3.66981">
        <ele>842</ele>
        <time>2021-05-24T12:14:48Z</time>
      </trkpt>
      <trkpt lat="44.09993" lon="3.66968">
        <ele>842</ele>
        <time>2021-05-24T12:14:56Z</time>
      </trkpt>
      <trkpt lat="44.09986" lon="3.66958">
        <ele>842</ele>
        <time>2021-05-24T12:15:02Z</time>
      </trkpt>
      <trkpt lat="44.09988" lon="3.66944">
        <ele>842</ele>
        <time>2021-05-24T12:15:10Z</time>
      </trkpt>
      <trkpt lat="44.09986" lon="3.66931">
        <ele>842</ele>
        <time>2021-05-24T12:15:19Z</time>
      </trkpt>
      <trkpt lat="44.09987" lon="3.66918">
        <ele>842</ele>
        <time>2021-05-24T12:15:28Z</time>
      </trkpt>
      <trkpt lat="44.09988" lon="3.66905">
        <ele>842</ele>
        <time>2021-05-24T12:15:37Z</time>
      </trkpt>
      <trkpt lat="44.09988" lon="3.66892">
        <ele>842</ele>
        <time>2021-05-24T12:15:45Z</time>
      </trkpt>
      <trkpt lat="44.09989" lon="3.6688">
        <ele>842</ele>
        <time>2021-05-24T12:15:54Z</time>
      </trkpt>
      <trkpt lat="44.09993" lon="3.66867">
        <ele>842</ele>
        <time>2021-05-24T12:16:04Z</time>
      </trkpt>
      <trkpt lat="44.09996" lon="3.66855">
        <ele>842</ele>
        <time>2021-05-24T12:16:16Z</time>
      </trkpt>
      <trkpt lat="44.09997" lon="3.66841">
        <ele>842</ele>
        <time>2021-05-24T12:16:26Z</time>
      </trkpt>
      <trkpt lat="44.09999" lon="3.66829">
        <ele>842</ele>
        <time>2021-05-24T12:16:34Z</time>
      </trkpt>
      <trkpt lat="44.10001" lon="3.66815">
        <ele>842</ele>
        <time>2021-05-24T12:16:42Z</time>
      </trkpt>
      <trkpt lat="44.10005" lon="3.66803">
        <ele>843</ele>
        <time>2021-05-24T12:16:53Z</time>
      </trkpt>
      <trkpt lat="44.10005" lon="3.66791">
        <ele>842</ele>
        <time>2021-05-24T12:17:03Z</time>
      </trkpt>
      <trkpt lat="44.10005" lon="3.66777">
        <ele>842</ele>
        <time>2021-05-24T12:17:15Z</time>
      </trkpt>
      <trkpt lat="44.10004" lon="3.66764">
        <ele>842</ele>
        <time>2021-05-24T12:17:28Z</time>
      </trkpt>
      <trkpt lat="44.10001" lon="3.66751">
        <ele>842</ele>
        <time>2021-05-24T12:17:41Z</time>
      </trkpt>
      <trkpt lat="44.09995" lon="3.66737">
        <ele>840</ele>
        <time>2021-05-24T12:17:53Z</time>
      </trkpt>
      <trkpt lat="44.10002" lon="3.66727">
        <ele>840</ele>
        <time>2021-05-24T12:18:12Z</time>
      </trkpt>
      <trkpt lat="44.09993" lon="3.66722">
        <ele>840</ele>
        <time>2021-05-24T12:18:22Z</time>
      </trkpt>
      <trkpt lat="44.09996" lon="3.66709">
        <ele>841</ele>
        <time>2021-05-24T12:18:33Z</time>
      </trkpt>
      <trkpt lat="44.09994" lon="3.66696">
        <ele>841</ele>
        <time>2021-05-24T12:18:46Z</time>
      </trkpt>
      <trkpt lat="44.09996" lon="3.66683">
        <ele>841</ele>
        <time>2021-05-24T12:18:58Z</time>
      </trkpt>
      <trkpt lat="44.09999" lon="3.6667">
        <ele>841</ele>
        <time>2021-05-24T12:19:07Z</time>
      </trkpt>
      <trkpt lat="44.10004" lon="3.66658">
        <ele>841</ele>
        <time>2021-05-24T12:19:14Z</time>
      </trkpt>
      <trkpt lat="44.10011" lon="3.6665">
        <ele>841</ele>
        <time>2021-05-24T12:19:21Z</time>
      </trkpt>
      <trkpt lat="44.10018" lon="3.66641">
        <ele>841</ele>
        <time>2021-05-24T12:19:30Z</time>
      </trkpt>
      <trkpt lat="44.10025" lon="3.66633">
        <ele>841</ele>
        <time>2021-05-24T12:19:40Z</time>
      </trkpt>
      <trkpt lat="44.1003" lon="3.66622">
        <ele>841</ele>
        <time>2021-05-24T12:19:49Z</time>
      </trkpt>
      <trkpt lat="44.10038" lon="3.66615">
        <ele>841</ele>
        <time>2021-05-24T12:19:57Z</time>
      </trkpt>
      <trkpt lat="44.10044" lon="3.66605">
        <ele>841</ele>
        <time>2021-05-24T12:20:05Z</time>
      </trkpt>
      <trkpt lat="44.10047" lon="3.66593">
        <ele>841</ele>
        <time>2021-05-24T12:20:15Z</time>
      </trkpt>
      <trkpt lat="44.10051" lon="3.66581">
        <ele>841</ele>
        <time>2021-05-24T12:20:21Z</time>
      </trkpt>
      <trkpt lat="44.10054" lon="3.66567">
        <ele>841</ele>
        <time>2021-05-24T12:20:31Z</time>
      </trkpt>
      <trkpt lat="44.1005" lon="3.66536">
        <ele>841</ele>
        <time>2021-05-24T12:20:51Z</time>
      </trkpt>
      <trkpt lat="44.10051" lon="3.66533">
        <ele>841</ele>
        <time>2021-05-24T12:20:52Z</time>
      </trkpt>
      <trkpt lat="44.10051" lon="3.6653">
        <ele>841</ele>
        <time>2021-05-24T12:20:55Z</time>
      </trkpt>
      <trkpt lat="44.10051" lon="3.66526">
        <ele>841</ele>
        <time>2021-05-24T12:20:56Z</time>
      </trkpt>
      <trkpt lat="44.10052" lon="3.66524">
        <ele>841</ele>
        <time>2021-05-24T12:20:59Z</time>
      </trkpt>
      <trkpt lat="44.10053" lon="3.66521">
        <ele>841</ele>
        <time>2021-05-24T12:21:01Z</time>
      </trkpt>
      <trkpt lat="44.10053" lon="3.66518">
        <ele>835</ele>
        <time>2021-05-24T12:21:03Z</time>
      </trkpt>
      <trkpt lat="44.10053" lon="3.66515">
        <ele>835</ele>
        <time>2021-05-24T12:21:05Z</time>
      </trkpt>
      <trkpt lat="44.10054" lon="3.66512">
        <ele>835</ele>
        <time>2021-05-24T12:21:07Z</time>
      </trkpt>
      <trkpt lat="44.10054" lon="3.66509">
        <ele>835</ele>
        <time>2021-05-24T12:21:09Z</time>
      </trkpt>
      <trkpt lat="44.10054" lon="3.66507">
        <ele>835</ele>
        <time>2021-05-24T12:21:10Z</time>
      </trkpt>
      <trkpt lat="44.10055" lon="3.66503">
        <ele>835</ele>
        <time>2021-05-24T12:21:13Z</time>
      </trkpt>
      <trkpt lat="44.10056" lon="3.66501">
        <ele>835</ele>
        <time>2021-05-24T12:21:15Z</time>
      </trkpt>
      <trkpt lat="44.10056" lon="3.66497">
        <ele>835</ele>
        <time>2021-05-24T12:21:17Z</time>
      </trkpt>
      <trkpt lat="44.10056" lon="3.66494">
        <ele>835</ele>
        <time>2021-05-24T12:21:18Z</time>
      </trkpt>
      <trkpt lat="44.10057" lon="3.66491">
        <ele>835</ele>
        <time>2021-05-24T12:21:21Z</time>
      </trkpt>
      <trkpt lat="44.10057" lon="3.66488">
        <ele>835</ele>
        <time>2021-05-24T12:21:22Z</time>
      </trkpt>
      <trkpt lat="44.10058" lon="3.66486">
        <ele>835</ele>
        <time>2021-05-24T12:21:24Z</time>
      </trkpt>
      <trkpt lat="44.10058" lon="3.66483">
        <ele>835</ele>
        <time>2021-05-24T12:21:27Z</time>
      </trkpt>
      <trkpt lat="44.10059" lon="3.6648">
        <ele>835</ele>
        <time>2021-05-24T12:21:29Z</time>
      </trkpt>
      <trkpt lat="44.1006" lon="3.66478">
        <ele>835</ele>
        <time>2021-05-24T12:21:31Z</time>
      </trkpt>
      <trkpt lat="44.1006" lon="3.66475">
        <ele>837</ele>
        <time>2021-05-24T12:21:33Z</time>
      </trkpt>
      <trkpt lat="44.1006" lon="3.66472">
        <ele>837</ele>
        <time>2021-05-24T12:21:35Z</time>
      </trkpt>
      <trkpt lat="44.10061" lon="3.66469">
        <ele>837</ele>
        <time>2021-05-24T12:21:37Z</time>
      </trkpt>
      <trkpt lat="44.10061" lon="3.66466">
        <ele>837</ele>
        <time>2021-05-24T12:21:39Z</time>
      </trkpt>
      <trkpt lat="44.10062" lon="3.66463">
        <ele>837</ele>
        <time>2021-05-24T12:21:41Z</time>
      </trkpt>
      <trkpt lat="44.10063" lon="3.6646">
        <ele>836</ele>
        <time>2021-05-24T12:21:43Z</time>
      </trkpt>
      <trkpt lat="44.10063" lon="3.66457">
        <ele>836</ele>
        <time>2021-05-24T12:21:44Z</time>
      </trkpt>
      <trkpt lat="44.10063" lon="3.66454">
        <ele>836</ele>
        <time>2021-05-24T12:21:47Z</time>
      </trkpt>
      <trkpt lat="44.10063" lon="3.6645">
        <ele>836</ele>
        <time>2021-05-24T12:21:49Z</time>
      </trkpt>
      <trkpt lat="44.10064" lon="3.66447">
        <ele>836</ele>
        <time>2021-05-24T12:21:51Z</time>
      </trkpt>
      <trkpt lat="44.10064" lon="3.66444">
        <ele>837</ele>
        <time>2021-05-24T12:21:53Z</time>
      </trkpt>
      <trkpt lat="44.10065" lon="3.66441">
        <ele>837</ele>
        <time>2021-05-24T12:21:55Z</time>
      </trkpt>
      <trkpt lat="44.10066" lon="3.66438">
        <ele>837</ele>
        <time>2021-05-24T12:21:57Z</time>
      </trkpt>
      <trkpt lat="44.10067" lon="3.66435">
        <ele>837</ele>
        <time>2021-05-24T12:21:59Z</time>
      </trkpt>
      <trkpt lat="44.10068" lon="3.66432">
        <ele>837</ele>
        <time>2021-05-24T12:22:01Z</time>
      </trkpt>
      <trkpt lat="44.10069" lon="3.66429">
        <ele>837</ele>
        <time>2021-05-24T12:22:03Z</time>
      </trkpt>
      <trkpt lat="44.1007" lon="3.66426">
        <ele>837</ele>
        <time>2021-05-24T12:22:05Z</time>
      </trkpt>
      <trkpt lat="44.1007" lon="3.66423">
        <ele>837</ele>
        <time>2021-05-24T12:22:07Z</time>
      </trkpt>
      <trkpt lat="44.10071" lon="3.66421">
        <ele>837</ele>
        <time>2021-05-24T12:22:09Z</time>
      </trkpt>
      <trkpt lat="44.10073" lon="3.66418">
        <ele>837</ele>
        <time>2021-05-24T12:22:11Z</time>
      </trkpt>
      <trkpt lat="44.10074" lon="3.66416">
        <ele>838</ele>
        <time>2021-05-24T12:22:13Z</time>
      </trkpt>
      <trkpt lat="44.10075" lon="3.66413">
        <ele>838</ele>
        <time>2021-05-24T12:22:15Z</time>
      </trkpt>
      <trkpt lat="44.10076" lon="3.6641">
        <ele>838</ele>
        <time>2021-05-24T12:22:17Z</time>
      </trkpt>
      <trkpt lat="44.10078" lon="3.66409">
        <ele>838</ele>
        <time>2021-05-24T12:22:19Z</time>
      </trkpt>
      <trkpt lat="44.1008" lon="3.66407">
        <ele>838</ele>
        <time>2021-05-24T12:22:21Z</time>
      </trkpt>
      <trkpt lat="44.10081" lon="3.66405">
        <ele>838</ele>
        <time>2021-05-24T12:22:23Z</time>
      </trkpt>
      <trkpt lat="44.10083" lon="3.66402">
        <ele>838</ele>
        <time>2021-05-24T12:22:25Z</time>
      </trkpt>
      <trkpt lat="44.10085" lon="3.664">
        <ele>838</ele>
        <time>2021-05-24T12:22:27Z</time>
      </trkpt>
      <trkpt lat="44.10087" lon="3.66398">
        <ele>838</ele>
        <time>2021-05-24T12:22:29Z</time>
      </trkpt>
      <trkpt lat="44.10088" lon="3.66395">
        <ele>838</ele>
        <time>2021-05-24T12:22:31Z</time>
      </trkpt>
      <trkpt lat="44.1009" lon="3.66394">
        <ele>838</ele>
        <time>2021-05-24T12:22:33Z</time>
      </trkpt>
      <trkpt lat="44.10091" lon="3.66391">
        <ele>838</ele>
        <time>2021-05-24T12:22:35Z</time>
      </trkpt>
      <trkpt lat="44.10093" lon="3.66389">
        <ele>838</ele>
        <time>2021-05-24T12:22:36Z</time>
      </trkpt>
      <trkpt lat="44.10094" lon="3.66386">
        <ele>838</ele>
        <time>2021-05-24T12:22:39Z</time>
      </trkpt>
      <trkpt lat="44.10095" lon="3.66384">
        <ele>838</ele>
        <time>2021-05-24T12:22:41Z</time>
      </trkpt>
      <trkpt lat="44.10097" lon="3.66381">
        <ele>839</ele>
        <time>2021-05-24T12:22:43Z</time>
      </trkpt>
      <trkpt lat="44.10098" lon="3.66379">
        <ele>839</ele>
        <time>2021-05-24T12:22:45Z</time>
      </trkpt>
      <trkpt lat="44.101" lon="3.66377">
        <ele>839</ele>
        <time>2021-05-24T12:22:46Z</time>
      </trkpt>
      <trkpt lat="44.10102" lon="3.66375">
        <ele>839</ele>
        <time>2021-05-24T12:22:49Z</time>
      </trkpt>
      <trkpt lat="44.10104" lon="3.66373">
        <ele>839</ele>
        <time>2021-05-24T12:22:51Z</time>
      </trkpt>
      <trkpt lat="44.10105" lon="3.66371">
        <ele>840</ele>
        <time>2021-05-24T12:22:53Z</time>
      </trkpt>
      <trkpt lat="44.10106" lon="3.66369">
        <ele>840</ele>
        <time>2021-05-24T12:22:55Z</time>
      </trkpt>
      <trkpt lat="44.10107" lon="3.66367">
        <ele>840</ele>
        <time>2021-05-24T12:22:57Z</time>
      </trkpt>
      <trkpt lat="44.10109" lon="3.66364">
        <ele>840</ele>
        <time>2021-05-24T12:23:00Z</time>
      </trkpt>
      <trkpt lat="44.1011" lon="3.66362">
        <ele>840</ele>
        <time>2021-05-24T12:23:02Z</time>
      </trkpt>
      <trkpt lat="44.10112" lon="3.6636">
        <ele>841</ele>
        <time>2021-05-24T12:23:03Z</time>
      </trkpt>
      <trkpt lat="44.10113" lon="3.66358">
        <ele>841</ele>
        <time>2021-05-24T12:23:05Z</time>
      </trkpt>
      <trkpt lat="44.10115" lon="3.66356">
        <ele>841</ele>
        <time>2021-05-24T12:23:07Z</time>
      </trkpt>
      <trkpt lat="44.10116" lon="3.66354">
        <ele>841</ele>
        <time>2021-05-24T12:23:09Z</time>
      </trkpt>
      <trkpt lat="44.10118" lon="3.66351">
        <ele>842</ele>
        <time>2021-05-24T12:23:13Z</time>
      </trkpt>
      <trkpt lat="44.10119" lon="3.66349">
        <ele>842</ele>
        <time>2021-05-24T12:23:15Z</time>
      </trkpt>
      <trkpt lat="44.10125" lon="3.66338">
        <ele>842</ele>
        <time>2021-05-24T12:23:28Z</time>
      </trkpt>
      <trkpt lat="44.10121" lon="3.66326">
        <ele>842</ele>
        <time>2021-05-24T12:23:42Z</time>
      </trkpt>
      <trkpt lat="44.10127" lon="3.66316">
        <ele>847</ele>
        <time>2021-05-24T12:23:53Z</time>
      </trkpt>
      <trkpt lat="44.10134" lon="3.66307">
        <ele>847</ele>
        <time>2021-05-24T12:24:09Z</time>
      </trkpt>
      <trkpt lat="44.10142" lon="3.66303">
        <ele>847</ele>
        <time>2021-05-24T12:24:18Z</time>
      </trkpt>
      <trkpt lat="44.10148" lon="3.66291">
        <ele>847</ele>
        <time>2021-05-24T12:24:29Z</time>
      </trkpt>
      <trkpt lat="44.10155" lon="3.66284">
        <ele>847</ele>
        <time>2021-05-24T12:24:39Z</time>
      </trkpt>
      <trkpt lat="44.10164" lon="3.66279">
        <ele>847</ele>
        <time>2021-05-24T12:24:50Z</time>
      </trkpt>
      <trkpt lat="44.10173" lon="3.66274">
        <ele>847</ele>
        <time>2021-05-24T12:25:01Z</time>
      </trkpt>
      <trkpt lat="44.10176" lon="3.66262">
        <ele>847</ele>
        <time>2021-05-24T12:25:12Z</time>
      </trkpt>
      <trkpt lat="44.1018" lon="3.66249">
        <ele>847</ele>
        <time>2021-05-24T12:25:21Z</time>
      </trkpt>
      <trkpt lat="44.10187" lon="3.66236">
        <ele>847</ele>
        <time>2021-05-24T12:25:28Z</time>
      </trkpt>
      <trkpt lat="44.10195" lon="3.66229">
        <ele>847</ele>
        <time>2021-05-24T12:25:38Z</time>
      </trkpt>
      <trkpt lat="44.10201" lon="3.66218">
        <ele>847</ele>
        <time>2021-05-24T12:25:47Z</time>
      </trkpt>
      <trkpt lat="44.10207" lon="3.66208">
        <ele>847</ele>
        <time>2021-05-24T12:25:57Z</time>
      </trkpt>
      <trkpt lat="44.10211" lon="3.66197">
        <ele>847</ele>
        <time>2021-05-24T12:26:04Z</time>
      </trkpt>
      <trkpt lat="44.10218" lon="3.66187">
        <ele>847</ele>
        <time>2021-05-24T12:26:16Z</time>
      </trkpt>
      <trkpt lat="44.10224" lon="3.66177">
        <ele>847</ele>
        <time>2021-05-24T12:26:25Z</time>
      </trkpt>
      <trkpt lat="44.10228" lon="3.66166">
        <ele>847</ele>
        <time>2021-05-24T12:26:35Z</time>
      </trkpt>
      <trkpt lat="44.1023" lon="3.66152">
        <ele>848</ele>
        <time>2021-05-24T12:26:43Z</time>
      </trkpt>
      <trkpt lat="44.10232" lon="3.66138">
        <ele>848</ele>
        <time>2021-05-24T12:26:52Z</time>
      </trkpt>
      <trkpt lat="44.10233" lon="3.66125">
        <ele>848</ele>
        <time>2021-05-24T12:27:01Z</time>
      </trkpt>
      <trkpt lat="44.10238" lon="3.66114">
        <ele>848</ele>
        <time>2021-05-24T12:27:09Z</time>
      </trkpt>
      <trkpt lat="44.10244" lon="3.66103">
        <ele>848</ele>
        <time>2021-05-24T12:27:18Z</time>
      </trkpt>
      <trkpt lat="44.10247" lon="3.66088">
        <ele>848</ele>
        <time>2021-05-24T12:27:28Z</time>
      </trkpt>
      <trkpt lat="44.10252" lon="3.66076">
        <ele>848</ele>
        <time>2021-05-24T12:27:38Z</time>
      </trkpt>
      <trkpt lat="44.10255" lon="3.66064">
        <ele>848</ele>
        <time>2021-05-24T12:27:47Z</time>
      </trkpt>
      <trkpt lat="44.1026" lon="3.66054">
        <ele>848</ele>
        <time>2021-05-24T12:27:54Z</time>
      </trkpt>
      <trkpt lat="44.10265" lon="3.66044">
        <ele>848</ele>
        <time>2021-05-24T12:28:01Z</time>
      </trkpt>
      <trkpt lat="44.10272" lon="3.66035">
        <ele>848</ele>
        <time>2021-05-24T12:28:09Z</time>
      </trkpt>
      <trkpt lat="44.10279" lon="3.66025">
        <ele>848</ele>
        <time>2021-05-24T12:28:17Z</time>
      </trkpt>
      <trkpt lat="44.10286" lon="3.66015">
        <ele>848</ele>
        <time>2021-05-24T12:28:26Z</time>
      </trkpt>
      <trkpt lat="44.10294" lon="3.66009">
        <ele>848</ele>
        <time>2021-05-24T12:28:36Z</time>
      </trkpt>
      <trkpt lat="44.10302" lon="3.66002">
        <ele>848</ele>
        <time>2021-05-24T12:28:44Z</time>
      </trkpt>
      <trkpt lat="44.10309" lon="3.65993">
        <ele>848</ele>
        <time>2021-05-24T12:28:55Z</time>
      </trkpt>
      <trkpt lat="44.10316" lon="3.65984">
        <ele>848</ele>
        <time>2021-05-24T12:29:01Z</time>
      </trkpt>
      <trkpt lat="44.10323" lon="3.65975">
        <ele>848</ele>
        <time>2021-05-24T12:29:09Z</time>
      </trkpt>
      <trkpt lat="44.1033" lon="3.65964">
        <ele>848</ele>
        <time>2021-05-24T12:29:17Z</time>
      </trkpt>
      <trkpt lat="44.10335" lon="3.65954">
        <ele>848</ele>
        <time>2021-05-24T12:29:25Z</time>
      </trkpt>
      <trkpt lat="44.10341" lon="3.65943">
        <ele>848</ele>
        <time>2021-05-24T12:29:33Z</time>
      </trkpt>
      <trkpt lat="44.10345" lon="3.65931">
        <ele>848</ele>
        <time>2021-05-24T12:29:42Z</time>
      </trkpt>
      <trkpt lat="44.10351" lon="3.6592">
        <ele>848</ele>
        <time>2021-05-24T12:29:50Z</time>
      </trkpt>
      <trkpt lat="44.10355" lon="3.65908">
        <ele>848</ele>
        <time>2021-05-24T12:29:57Z</time>
      </trkpt>
      <trkpt lat="44.10363" lon="3.65899">
        <ele>848</ele>
        <time>2021-05-24T12:30:05Z</time>
      </trkpt>
      <trkpt lat="44.10371" lon="3.6589">
        <ele>848</ele>
        <time>2021-05-24T12:30:12Z</time>
      </trkpt>
      <trkpt lat="44.10378" lon="3.65882">
        <ele>848</ele>
        <time>2021-05-24T12:30:19Z</time>
      </trkpt>
      <trkpt lat="44.10385" lon="3.65874">
        <ele>848</ele>
        <time>2021-05-24T12:30:27Z</time>
      </trkpt>
      <trkpt lat="44.10393" lon="3.65868">
        <ele>842</ele>
        <time>2021-05-24T12:30:33Z</time>
      </trkpt>
      <trkpt lat="44.10398" lon="3.65857">
        <ele>842</ele>
        <time>2021-05-24T12:30:41Z</time>
      </trkpt>
      <trkpt lat="44.10404" lon="3.65848">
        <ele>842</ele>
        <time>2021-05-24T12:30:49Z</time>
      </trkpt>
      <trkpt lat="44.1041" lon="3.65838">
        <ele>842</ele>
        <time>2021-05-24T12:30:57Z</time>
      </trkpt>
      <trkpt lat="44.10414" lon="3.65825">
        <ele>842</ele>
        <time>2021-05-24T12:31:05Z</time>
      </trkpt>
      <trkpt lat="44.10418" lon="3.65812">
        <ele>841</ele>
        <time>2021-05-24T12:31:13Z</time>
      </trkpt>
      <trkpt lat="44.10424" lon="3.65804">
        <ele>841</ele>
        <time>2021-05-24T12:31:20Z</time>
      </trkpt>
      <trkpt lat="44.10431" lon="3.65793">
        <ele>841</ele>
        <time>2021-05-24T12:31:27Z</time>
      </trkpt>
      <trkpt lat="44.10434" lon="3.6578">
        <ele>841</ele>
        <time>2021-05-24T12:31:36Z</time>
      </trkpt>
      <trkpt lat="44.10439" lon="3.6577">
        <ele>841</ele>
        <time>2021-05-24T12:31:46Z</time>
      </trkpt>
      <trkpt lat="44.10441" lon="3.65757">
        <ele>837</ele>
        <time>2021-05-24T12:31:53Z</time>
      </trkpt>
      <trkpt lat="44.10444" lon="3.65745">
        <ele>837</ele>
        <time>2021-05-24T12:32:00Z</time>
      </trkpt>
      <trkpt lat="44.1045" lon="3.65734">
        <ele>837</ele>
        <time>2021-05-24T12:32:07Z</time>
      </trkpt>
      <trkpt lat="44.10458" lon="3.65726">
        <ele>837</ele>
        <time>2021-05-24T12:32:15Z</time>
      </trkpt>
      <trkpt lat="44.10462" lon="3.65715">
        <ele>835</ele>
        <time>2021-05-24T12:32:23Z</time>
      </trkpt>
      <trkpt lat="44.10467" lon="3.65703">
        <ele>835</ele>
        <time>2021-05-24T12:32:31Z</time>
      </trkpt>
      <trkpt lat="44.10469" lon="3.65691">
        <ele>835</ele>
        <time>2021-05-24T12:32:40Z</time>
      </trkpt>
      <trkpt lat="44.10475" lon="3.65682">
        <ele>835</ele>
        <time>2021-05-24T12:32:49Z</time>
      </trkpt>
      <trkpt lat="44.1048" lon="3.65671">
        <ele>835</ele>
        <time>2021-05-24T12:33:00Z</time>
      </trkpt>
      <trkpt lat="44.10485" lon="3.6566">
        <ele>835</ele>
        <time>2021-05-24T12:33:06Z</time>
      </trkpt>
      <trkpt lat="44.1049" lon="3.65648">
        <ele>835</ele>
        <time>2021-05-24T12:33:14Z</time>
      </trkpt>
      <trkpt lat="44.10496" lon="3.65637">
        <ele>835</ele>
        <time>2021-05-24T12:33:21Z</time>
      </trkpt>
      <trkpt lat="44.10499" lon="3.65625">
        <ele>835</ele>
        <time>2021-05-24T12:33:29Z</time>
      </trkpt>
      <trkpt lat="44.10504" lon="3.65613">
        <ele>835</ele>
        <time>2021-05-24T12:33:37Z</time>
      </trkpt>
      <trkpt lat="44.10505" lon="3.65601">
        <ele>829</ele>
        <time>2021-05-24T12:33:43Z</time>
      </trkpt>
      <trkpt lat="44.10513" lon="3.65592">
        <ele>829</ele>
        <time>2021-05-24T12:33:52Z</time>
      </trkpt>
      <trkpt lat="44.10521" lon="3.65586">
        <ele>829</ele>
        <time>2021-05-24T12:34:01Z</time>
      </trkpt>
      <trkpt lat="44.10526" lon="3.65574">
        <ele>829</ele>
        <time>2021-05-24T12:34:09Z</time>
      </trkpt>
      <trkpt lat="44.10534" lon="3.65566">
        <ele>829</ele>
        <time>2021-05-24T12:34:14Z</time>
      </trkpt>
      <trkpt lat="44.10539" lon="3.65556">
        <ele>829</ele>
        <time>2021-05-24T12:34:22Z</time>
      </trkpt>
      <trkpt lat="44.10546" lon="3.65547">
        <ele>829</ele>
        <time>2021-05-24T12:34:31Z</time>
      </trkpt>
      <trkpt lat="44.10552" lon="3.65535">
        <ele>829</ele>
        <time>2021-05-24T12:34:39Z</time>
      </trkpt>
      <trkpt lat="44.10558" lon="3.65525">
        <ele>829</ele>
        <time>2021-05-24T12:34:50Z</time>
      </trkpt>
      <trkpt lat="44.10562" lon="3.65513">
        <ele>829</ele>
        <time>2021-05-24T12:34:58Z</time>
      </trkpt>
      <trkpt lat="44.10566" lon="3.65501">
        <ele>829</ele>
        <time>2021-05-24T12:35:07Z</time>
      </trkpt>
      <trkpt lat="44.10567" lon="3.65489">
        <ele>829</ele>
        <time>2021-05-24T12:35:15Z</time>
      </trkpt>
      <trkpt lat="44.10569" lon="3.65476">
        <ele>829</ele>
        <time>2021-05-24T12:35:26Z</time>
      </trkpt>
      <trkpt lat="44.10574" lon="3.65465">
        <ele>835</ele>
        <time>2021-05-24T12:35:33Z</time>
      </trkpt>
      <trkpt lat="44.10575" lon="3.65451">
        <ele>835</ele>
        <time>2021-05-24T12:35:43Z</time>
      </trkpt>
      <trkpt lat="44.1058" lon="3.6544">
        <ele>835</ele>
        <time>2021-05-24T12:35:53Z</time>
      </trkpt>
      <trkpt lat="44.10585" lon="3.65428">
        <ele>835</ele>
        <time>2021-05-24T12:36:02Z</time>
      </trkpt>
      <trkpt lat="44.1059" lon="3.65417">
        <ele>835</ele>
        <time>2021-05-24T12:36:09Z</time>
      </trkpt>
      <trkpt lat="44.10589" lon="3.65404">
        <ele>835</ele>
        <time>2021-05-24T12:36:23Z</time>
      </trkpt>
      <trkpt lat="44.10592" lon="3.65391">
        <ele>835</ele>
        <time>2021-05-24T12:36:32Z</time>
      </trkpt>
      <trkpt lat="44.10591" lon="3.65378">
        <ele>835</ele>
        <time>2021-05-24T12:36:40Z</time>
      </trkpt>
      <trkpt lat="44.10577" lon="3.65365">
        <ele>835</ele>
        <time>2021-05-24T12:37:00Z</time>
      </trkpt>
      <trkpt lat="44.10575" lon="3.65363">
        <ele>835</ele>
        <time>2021-05-24T12:37:01Z</time>
      </trkpt>
      <trkpt lat="44.10574" lon="3.6536">
        <ele>835</ele>
        <time>2021-05-24T12:37:04Z</time>
      </trkpt>
      <trkpt lat="44.10573" lon="3.65357">
        <ele>835</ele>
        <time>2021-05-24T12:37:06Z</time>
      </trkpt>
      <trkpt lat="44.10572" lon="3.65355">
        <ele>835</ele>
        <time>2021-05-24T12:37:08Z</time>
      </trkpt>
      <trkpt lat="44.10574" lon="3.65353">
        <ele>834</ele>
        <time>2021-05-24T12:39:03Z</time>
      </trkpt>
      <trkpt lat="44.10574" lon="3.65356">
        <ele>834</ele>
        <time>2021-05-24T12:42:10Z</time>
      </trkpt>
      <trkpt lat="44.10576" lon="3.65359">
        <ele>835</ele>
        <time>2021-05-24T12:42:13Z</time>
      </trkpt>
      <trkpt lat="44.10577" lon="3.65362">
        <ele>835</ele>
        <time>2021-05-24T12:42:15Z</time>
      </trkpt>
      <trkpt lat="44.10578" lon="3.65365">
        <ele>835</ele>
        <time>2021-05-24T12:42:17Z</time>
      </trkpt>
      <trkpt lat="44.10579" lon="3.65367">
        <ele>835</ele>
        <time>2021-05-24T12:42:20Z</time>
      </trkpt>
      <trkpt lat="44.1058" lon="3.6537">
        <ele>835</ele>
        <time>2021-05-24T12:42:21Z</time>
      </trkpt>
      <trkpt lat="44.10582" lon="3.65372">
        <ele>835</ele>
        <time>2021-05-24T12:42:24Z</time>
      </trkpt>
      <trkpt lat="44.10584" lon="3.65373">
        <ele>835</ele>
        <time>2021-05-24T12:42:26Z</time>
      </trkpt>
      <trkpt lat="44.10587" lon="3.65373">
        <ele>835</ele>
        <time>2021-05-24T12:42:28Z</time>
      </trkpt>
      <trkpt lat="44.10589" lon="3.65373">
        <ele>835</ele>
        <time>2021-05-24T12:42:30Z</time>
      </trkpt>
      <trkpt lat="44.10592" lon="3.65373">
        <ele>835</ele>
        <time>2021-05-24T12:42:32Z</time>
      </trkpt>
      <trkpt lat="44.10594" lon="3.65371">
        <ele>837</ele>
        <time>2021-05-24T12:42:33Z</time>
      </trkpt>
      <trkpt lat="44.10599" lon="3.6536">
        <ele>837</ele>
        <time>2021-05-24T12:42:41Z</time>
      </trkpt>
      <trkpt lat="44.10602" lon="3.65348">
        <ele>837</ele>
        <time>2021-05-24T12:42:51Z</time>
      </trkpt>
      <trkpt lat="44.10606" lon="3.65336">
        <ele>837</ele>
        <time>2021-05-24T12:43:07Z</time>
      </trkpt>
      <trkpt lat="44.10609" lon="3.65324">
        <ele>837</ele>
        <time>2021-05-24T12:43:17Z</time>
      </trkpt>
      <trkpt lat="44.1061" lon="3.65311">
        <ele>837</ele>
        <time>2021-05-24T12:43:27Z</time>
      </trkpt>
      <trkpt lat="44.10615" lon="3.653">
        <ele>837</ele>
        <time>2021-05-24T12:43:39Z</time>
      </trkpt>
      <trkpt lat="44.1062" lon="3.6529">
        <ele>837</ele>
        <time>2021-05-24T12:43:51Z</time>
      </trkpt>
      <trkpt lat="44.10619" lon="3.65276">
        <ele>837</ele>
        <time>2021-05-24T12:44:05Z</time>
      </trkpt>
      <trkpt lat="44.10617" lon="3.65262">
        <ele>837</ele>
        <time>2021-05-24T12:44:17Z</time>
      </trkpt>
      <trkpt lat="44.10616" lon="3.65249">
        <ele>837</ele>
        <time>2021-05-24T12:44:26Z</time>
      </trkpt>
      <trkpt lat="44.10616" lon="3.65236">
        <ele>837</ele>
        <time>2021-05-24T12:44:42Z</time>
      </trkpt>
      <trkpt lat="44.10616" lon="3.65222">
        <ele>837</ele>
        <time>2021-05-24T12:44:54Z</time>
      </trkpt>
      <trkpt lat="44.10613" lon="3.65209">
        <ele>837</ele>
        <time>2021-05-24T12:45:02Z</time>
      </trkpt>
      <trkpt lat="44.10609" lon="3.65196">
        <ele>837</ele>
        <time>2021-05-24T12:45:10Z</time>
      </trkpt>
      <trkpt lat="44.10606" lon="3.65184">
        <ele>837</ele>
        <time>2021-05-24T12:45:19Z</time>
      </trkpt>
      <trkpt lat="44.10609" lon="3.65171">
        <ele>837</ele>
        <time>2021-05-24T12:45:29Z</time>
      </trkpt>
      <trkpt lat="44.10614" lon="3.65158">
        <ele>837</ele>
        <time>2021-05-24T12:45:38Z</time>
      </trkpt>
      <trkpt lat="44.10619" lon="3.65147">
        <ele>837</ele>
        <time>2021-05-24T12:45:46Z</time>
      </trkpt>
      <trkpt lat="44.10623" lon="3.65135">
        <ele>837</ele>
        <time>2021-05-24T12:45:56Z</time>
      </trkpt>
      <trkpt lat="44.10628" lon="3.65123">
        <ele>837</ele>
        <time>2021-05-24T12:46:04Z</time>
      </trkpt>
      <trkpt lat="44.10635" lon="3.65114">
        <ele>837</ele>
        <time>2021-05-24T12:46:11Z</time>
      </trkpt>
      <trkpt lat="44.10641" lon="3.65105">
        <ele>837</ele>
        <time>2021-05-24T12:46:21Z</time>
      </trkpt>
      <trkpt lat="44.10647" lon="3.65093">
        <ele>837</ele>
        <time>2021-05-24T12:46:30Z</time>
      </trkpt>
      <trkpt lat="44.10651" lon="3.65081">
        <ele>837</ele>
        <time>2021-05-24T12:46:38Z</time>
      </trkpt>
      <trkpt lat="44.10651" lon="3.65068">
        <ele>837</ele>
        <time>2021-05-24T12:46:47Z</time>
      </trkpt>
      <trkpt lat="44.10652" lon="3.65055">
        <ele>837</ele>
        <time>2021-05-24T12:46:57Z</time>
      </trkpt>
      <trkpt lat="44.10648" lon="3.65042">
        <ele>837</ele>
        <time>2021-05-24T12:47:06Z</time>
      </trkpt>
      <trkpt lat="44.10648" lon="3.6503">
        <ele>837</ele>
        <time>2021-05-24T12:47:18Z</time>
      </trkpt>
      <trkpt lat="44.10646" lon="3.65017">
        <ele>837</ele>
        <time>2021-05-24T12:47:32Z</time>
      </trkpt>
      <trkpt lat="44.10655" lon="3.65033">
        <ele>837</ele>
        <time>2021-05-24T12:47:59Z</time>
      </trkpt>
      <trkpt lat="44.10657" lon="3.65034">
        <ele>837</ele>
        <time>2021-05-24T12:48:02Z</time>
      </trkpt>
      <trkpt lat="44.10657" lon="3.65038">
        <ele>837</ele>
        <time>2021-05-24T12:48:06Z</time>
      </trkpt>
      <trkpt lat="44.10659" lon="3.6504">
        <ele>837</ele>
        <time>2021-05-24T12:48:09Z</time>
      </trkpt>
      <trkpt lat="44.1066" lon="3.65043">
        <ele>837</ele>
        <time>2021-05-24T12:48:10Z</time>
      </trkpt>
      <trkpt lat="44.1066" lon="3.65046">
        <ele>855</ele>
        <time>2021-05-24T12:48:13Z</time>
      </trkpt>
      <trkpt lat="44.10661" lon="3.65049">
        <ele>855</ele>
        <time>2021-05-24T12:48:17Z</time>
      </trkpt>
      <trkpt lat="44.10662" lon="3.65051">
        <ele>855</ele>
        <time>2021-05-24T12:48:20Z</time>
      </trkpt>
      <trkpt lat="44.10663" lon="3.65054">
        <ele>857</ele>
        <time>2021-05-24T12:48:23Z</time>
      </trkpt>
      <trkpt lat="44.10664" lon="3.65056">
        <ele>857</ele>
        <time>2021-05-24T12:48:25Z</time>
      </trkpt>
      <trkpt lat="44.10664" lon="3.65059">
        <ele>857</ele>
        <time>2021-05-24T12:48:29Z</time>
      </trkpt>
      <trkpt lat="44.10664" lon="3.65063">
        <ele>857</ele>
        <time>2021-05-24T12:48:32Z</time>
      </trkpt>
      <trkpt lat="44.10664" lon="3.65066">
        <ele>858</ele>
        <time>2021-05-24T12:48:33Z</time>
      </trkpt>
      <trkpt lat="44.10665" lon="3.65069">
        <ele>858</ele>
        <time>2021-05-24T12:48:38Z</time>
      </trkpt>
      <trkpt lat="44.10666" lon="3.65071">
        <ele>858</ele>
        <time>2021-05-24T12:48:40Z</time>
      </trkpt>
      <trkpt lat="44.10667" lon="3.65074">
        <ele>858</ele>
        <time>2021-05-24T12:48:42Z</time>
      </trkpt>
      <trkpt lat="44.10667" lon="3.65077">
        <ele>858</ele>
        <time>2021-05-24T12:48:45Z</time>
      </trkpt>
      <trkpt lat="44.10667" lon="3.6508">
        <ele>858</ele>
        <time>2021-05-24T12:48:49Z</time>
      </trkpt>
      <trkpt lat="44.10668" lon="3.65084">
        <ele>858</ele>
        <time>2021-05-24T12:48:52Z</time>
      </trkpt>
      <trkpt lat="44.10668" lon="3.65087">
        <ele>858</ele>
        <time>2021-05-24T12:48:56Z</time>
      </trkpt>
      <trkpt lat="44.10667" lon="3.6509">
        <ele>858</ele>
        <time>2021-05-24T12:48:59Z</time>
      </trkpt>
      <trkpt lat="44.10666" lon="3.65093">
        <ele>858</ele>
        <time>2021-05-24T12:49:01Z</time>
      </trkpt>
      <trkpt lat="44.10665" lon="3.65095">
        <ele>858</ele>
        <time>2021-05-24T12:49:04Z</time>
      </trkpt>
      <trkpt lat="44.10666" lon="3.65098">
        <ele>858</ele>
        <time>2021-05-24T12:49:07Z</time>
      </trkpt>
      <trkpt lat="44.10668" lon="3.65098">
        <ele>858</ele>
        <time>2021-05-24T12:49:11Z</time>
      </trkpt>
      <trkpt lat="44.1067" lon="3.65096">
        <ele>858</ele>
        <time>2021-05-24T12:49:15Z</time>
      </trkpt>
      <trkpt lat="44.1067" lon="3.65094">
        <ele>858</ele>
        <time>2021-05-24T12:49:16Z</time>
      </trkpt>
      <trkpt lat="44.10672" lon="3.65092">
        <ele>858</ele>
        <time>2021-05-24T12:49:19Z</time>
      </trkpt>
      <trkpt lat="44.10672" lon="3.65088">
        <ele>858</ele>
        <time>2021-05-24T12:49:22Z</time>
      </trkpt>
      <trkpt lat="44.10674" lon="3.65087">
        <ele>858</ele>
        <time>2021-05-24T12:49:24Z</time>
      </trkpt>
      <trkpt lat="44.10675" lon="3.65084">
        <ele>858</ele>
        <time>2021-05-24T12:49:26Z</time>
      </trkpt>
      <trkpt lat="44.10675" lon="3.65081">
        <ele>858</ele>
        <time>2021-05-24T12:49:29Z</time>
      </trkpt>
      <trkpt lat="44.10676" lon="3.65078">
        <ele>858</ele>
        <time>2021-05-24T12:49:31Z</time>
      </trkpt>
      <trkpt lat="44.10677" lon="3.65075">
        <ele>858</ele>
        <time>2021-05-24T12:49:32Z</time>
      </trkpt>
      <trkpt lat="44.10677" lon="3.65072">
        <ele>858</ele>
        <time>2021-05-24T12:49:35Z</time>
      </trkpt>
      <trkpt lat="44.10678" lon="3.6507">
        <ele>858</ele>
        <time>2021-05-24T12:49:38Z</time>
      </trkpt>
      <trkpt lat="44.1068" lon="3.65067">
        <ele>858</ele>
        <time>2021-05-24T12:49:41Z</time>
      </trkpt>
      <trkpt lat="44.10679" lon="3.65064">
        <ele>865</ele>
        <time>2021-05-24T12:49:43Z</time>
      </trkpt>
      <trkpt lat="44.1068" lon="3.65062">
        <ele>865</ele>
        <time>2021-05-24T12:49:45Z</time>
      </trkpt>
      <trkpt lat="44.10679" lon="3.65058">
        <ele>865</ele>
        <time>2021-05-24T12:49:47Z</time>
      </trkpt>
      <trkpt lat="44.10679" lon="3.65055">
        <ele>865</ele>
        <time>2021-05-24T12:49:49Z</time>
      </trkpt>
      <trkpt lat="44.10679" lon="3.65053">
        <ele>865</ele>
        <time>2021-05-24T12:49:51Z</time>
      </trkpt>
      <trkpt lat="44.10678" lon="3.65049">
        <ele>865</ele>
        <time>2021-05-24T12:49:54Z</time>
      </trkpt>
      <trkpt lat="44.10678" lon="3.65047">
        <ele>865</ele>
        <time>2021-05-24T12:49:56Z</time>
      </trkpt>
      <trkpt lat="44.10679" lon="3.65044">
        <ele>865</ele>
        <time>2021-05-24T12:49:59Z</time>
      </trkpt>
      <trkpt lat="44.10679" lon="3.65041">
        <ele>868</ele>
        <time>2021-05-24T12:50:03Z</time>
      </trkpt>
      <trkpt lat="44.10678" lon="3.65038">
        <ele>868</ele>
        <time>2021-05-24T12:50:05Z</time>
      </trkpt>
      <trkpt lat="44.10678" lon="3.65036">
        <ele>868</ele>
        <time>2021-05-24T12:50:09Z</time>
      </trkpt>
      <trkpt lat="44.10678" lon="3.65032">
        <ele>868</ele>
        <time>2021-05-24T12:50:12Z</time>
      </trkpt>
      <trkpt lat="44.10678" lon="3.65028">
        <ele>868</ele>
        <time>2021-05-24T12:50:16Z</time>
      </trkpt>
      <trkpt lat="44.10679" lon="3.65025">
        <ele>868</ele>
        <time>2021-05-24T12:50:18Z</time>
      </trkpt>
      <trkpt lat="44.10679" lon="3.65022">
        <ele>868</ele>
        <time>2021-05-24T12:50:21Z</time>
      </trkpt>
      <trkpt lat="44.10679" lon="3.65019">
        <ele>868</ele>
        <time>2021-05-24T12:50:24Z</time>
      </trkpt>
      <trkpt lat="44.10679" lon="3.65015">
        <ele>868</ele>
        <time>2021-05-24T12:50:28Z</time>
      </trkpt>
      <trkpt lat="44.10678" lon="3.65012">
        <ele>868</ele>
        <time>2021-05-24T12:50:31Z</time>
      </trkpt>
      <trkpt lat="44.10678" lon="3.65009">
        <ele>868</ele>
        <time>2021-05-24T12:50:36Z</time>
      </trkpt>
      <trkpt lat="44.10679" lon="3.65006">
        <ele>868</ele>
        <time>2021-05-24T12:50:39Z</time>
      </trkpt>
      <trkpt lat="44.10681" lon="3.65004">
        <ele>868</ele>
        <time>2021-05-24T12:50:41Z</time>
      </trkpt>
      <trkpt lat="44.10682" lon="3.65002">
        <ele>868</ele>
        <time>2021-05-24T12:50:44Z</time>
      </trkpt>
      <trkpt lat="44.10683" lon="3.64999">
        <ele>868</ele>
        <time>2021-05-24T12:50:46Z</time>
      </trkpt>
      <trkpt lat="44.10684" lon="3.64996">
        <ele>868</ele>
        <time>2021-05-24T12:50:49Z</time>
      </trkpt>
      <trkpt lat="44.10685" lon="3.64994">
        <ele>868</ele>
        <time>2021-05-24T12:50:51Z</time>
      </trkpt>
      <trkpt lat="44.10686" lon="3.64992">
        <ele>871</ele>
        <time>2021-05-24T12:50:53Z</time>
      </trkpt>
      <trkpt lat="44.10688" lon="3.64989">
        <ele>871</ele>
        <time>2021-05-24T12:50:56Z</time>
      </trkpt>
      <trkpt lat="44.1069" lon="3.64989">
        <ele>871</ele>
        <time>2021-05-24T12:50:59Z</time>
      </trkpt>
      <trkpt lat="44.10693" lon="3.64989">
        <ele>873</ele>
        <time>2021-05-24T12:51:03Z</time>
      </trkpt>
      <trkpt lat="44.10695" lon="3.6499">
        <ele>873</ele>
        <time>2021-05-24T12:51:07Z</time>
      </trkpt>
      <trkpt lat="44.10697" lon="3.64991">
        <ele>873</ele>
        <time>2021-05-24T12:51:10Z</time>
      </trkpt>
      <trkpt lat="44.10699" lon="3.64992">
        <ele>873</ele>
        <time>2021-05-24T12:51:12Z</time>
      </trkpt>
      <trkpt lat="44.107" lon="3.64994">
        <ele>873</ele>
        <time>2021-05-24T12:51:16Z</time>
      </trkpt>
      <trkpt lat="44.10702" lon="3.64993">
        <ele>873</ele>
        <time>2021-05-24T12:51:19Z</time>
      </trkpt>
      <trkpt lat="44.10704" lon="3.64994">
        <ele>873</ele>
        <time>2021-05-24T12:51:22Z</time>
      </trkpt>
      <trkpt lat="44.10706" lon="3.64996">
        <ele>873</ele>
        <time>2021-05-24T12:51:24Z</time>
      </trkpt>
      <trkpt lat="44.10708" lon="3.64997">
        <ele>873</ele>
        <time>2021-05-24T12:51:27Z</time>
      </trkpt>
      <trkpt lat="44.10709" lon="3.64998">
        <ele>873</ele>
        <time>2021-05-24T12:51:30Z</time>
      </trkpt>
      <trkpt lat="44.10711" lon="3.64999">
        <ele>877</ele>
        <time>2021-05-24T12:51:33Z</time>
      </trkpt>
      <trkpt lat="44.10713" lon="3.65">
        <ele>877</ele>
        <time>2021-05-24T12:51:35Z</time>
      </trkpt>
      <trkpt lat="44.10715" lon="3.65001">
        <ele>877</ele>
        <time>2021-05-24T12:51:37Z</time>
      </trkpt>
      <trkpt lat="44.10717" lon="3.65">
        <ele>877</ele>
        <time>2021-05-24T12:51:41Z</time>
      </trkpt>
      <trkpt lat="44.1072" lon="3.64999">
        <ele>878</ele>
        <time>2021-05-24T12:51:43Z</time>
      </trkpt>
      <trkpt lat="44.10722" lon="3.65001">
        <ele>878</ele>
        <time>2021-05-24T12:51:48Z</time>
      </trkpt>
      <trkpt lat="44.10724" lon="3.65001">
        <ele>878</ele>
        <time>2021-05-24T12:51:50Z</time>
      </trkpt>
      <trkpt lat="44.10726" lon="3.65002">
        <ele>878</ele>
        <time>2021-05-24T12:51:54Z</time>
      </trkpt>
      <trkpt lat="44.10728" lon="3.65001">
        <ele>878</ele>
        <time>2021-05-24T12:51:57Z</time>
      </trkpt>
      <trkpt lat="44.1073" lon="3.65001">
        <ele>878</ele>
        <time>2021-05-24T12:52:00Z</time>
      </trkpt>
      <trkpt lat="44.10732" lon="3.65002">
        <ele>880</ele>
        <time>2021-05-24T12:52:03Z</time>
      </trkpt>
      <trkpt lat="44.10733" lon="3.65004">
        <ele>880</ele>
        <time>2021-05-24T12:52:07Z</time>
      </trkpt>
      <trkpt lat="44.10735" lon="3.65005">
        <ele>880</ele>
        <time>2021-05-24T12:52:09Z</time>
      </trkpt>
      <trkpt lat="44.10737" lon="3.65006">
        <ele>880</ele>
        <time>2021-05-24T12:52:11Z</time>
      </trkpt>
      <trkpt lat="44.10739" lon="3.65007">
        <ele>880</ele>
        <time>2021-05-24T12:52:15Z</time>
      </trkpt>
      <trkpt lat="44.10741" lon="3.65007">
        <ele>880</ele>
        <time>2021-05-24T12:52:17Z</time>
      </trkpt>
      <trkpt lat="44.10743" lon="3.65008">
        <ele>880</ele>
        <time>2021-05-24T12:52:19Z</time>
      </trkpt>
      <trkpt lat="44.10744" lon="3.65009">
        <ele>880</ele>
        <time>2021-05-24T12:52:22Z</time>
      </trkpt>
      <trkpt lat="44.10746" lon="3.6501">
        <ele>880</ele>
        <time>2021-05-24T12:52:25Z</time>
      </trkpt>
      <trkpt lat="44.10749" lon="3.65011">
        <ele>880</ele>
        <time>2021-05-24T12:52:28Z</time>
      </trkpt>
      <trkpt lat="44.10751" lon="3.65011">
        <ele>880</ele>
        <time>2021-05-24T12:52:29Z</time>
      </trkpt>
      <trkpt lat="44.10754" lon="3.65012">
        <ele>880</ele>
        <time>2021-05-24T12:52:35Z</time>
      </trkpt>
      <trkpt lat="44.10756" lon="3.65013">
        <ele>880</ele>
        <time>2021-05-24T12:52:37Z</time>
      </trkpt>
      <trkpt lat="44.10758" lon="3.65013">
        <ele>880</ele>
        <time>2021-05-24T12:52:40Z</time>
      </trkpt>
      <trkpt lat="44.1076" lon="3.65013">
        <ele>880</ele>
        <time>2021-05-24T12:52:45Z</time>
      </trkpt>
      <trkpt lat="44.10762" lon="3.65014">
        <ele>880</ele>
        <time>2021-05-24T12:52:48Z</time>
      </trkpt>
      <trkpt lat="44.10764" lon="3.65015">
        <ele>880</ele>
        <time>2021-05-24T12:52:52Z</time>
      </trkpt>
      <trkpt lat="44.10764" lon="3.65018">
        <ele>880</ele>
        <time>2021-05-24T12:52:58Z</time>
      </trkpt>
      <trkpt lat="44.10761" lon="3.65019">
        <ele>880</ele>
        <time>2021-05-24T12:53:01Z</time>
      </trkpt>
      <trkpt lat="44.10759" lon="3.65021">
        <ele>880</ele>
        <time>2021-05-24T12:53:08Z</time>
      </trkpt>
      <trkpt lat="44.10757" lon="3.65021">
        <ele>880</ele>
        <time>2021-05-24T12:53:12Z</time>
      </trkpt>
      <trkpt lat="44.10755" lon="3.65023">
        <ele>880</ele>
        <time>2021-05-24T12:53:16Z</time>
      </trkpt>
      <trkpt lat="44.10754" lon="3.65026">
        <ele>880</ele>
        <time>2021-05-24T12:53:19Z</time>
      </trkpt>
      <trkpt lat="44.10752" lon="3.65026">
        <ele>880</ele>
        <time>2021-05-24T12:53:22Z</time>
      </trkpt>
      <trkpt lat="44.1075" lon="3.65027">
        <ele>880</ele>
        <time>2021-05-24T12:53:26Z</time>
      </trkpt>
      <trkpt lat="44.10747" lon="3.65027">
        <ele>880</ele>
        <time>2021-05-24T12:53:30Z</time>
      </trkpt>
      <trkpt lat="44.10745" lon="3.65027">
        <ele>880</ele>
        <time>2021-05-24T12:53:32Z</time>
      </trkpt>
      <trkpt lat="44.10742" lon="3.65028">
        <ele>890</ele>
        <time>2021-05-24T12:53:33Z</time>
      </trkpt>
      <trkpt lat="44.1074" lon="3.65028">
        <ele>890</ele>
        <time>2021-05-24T12:53:36Z</time>
      </trkpt>
      <trkpt lat="44.10738" lon="3.65027">
        <ele>890</ele>
        <time>2021-05-24T12:53:40Z</time>
      </trkpt>
      <trkpt lat="44.10736" lon="3.65027">
        <ele>890</ele>
        <time>2021-05-24T12:53:42Z</time>
      </trkpt>
      <trkpt lat="44.10735" lon="3.65029">
        <ele>890</ele>
        <time>2021-05-24T12:53:45Z</time>
      </trkpt>
      <trkpt lat="44.10734" lon="3.65032">
        <ele>890</ele>
        <time>2021-05-24T12:53:47Z</time>
      </trkpt>
      <trkpt lat="44.10733" lon="3.65034">
        <ele>890</ele>
        <time>2021-05-24T12:53:52Z</time>
      </trkpt>
      <trkpt lat="44.10735" lon="3.65036">
        <ele>890</ele>
        <time>2021-05-24T12:53:55Z</time>
      </trkpt>
      <trkpt lat="44.10737" lon="3.65036">
        <ele>890</ele>
        <time>2021-05-24T12:53:58Z</time>
      </trkpt>
      <trkpt lat="44.1074" lon="3.65035">
        <ele>890</ele>
        <time>2021-05-24T12:54:01Z</time>
      </trkpt>
      <trkpt lat="44.10742" lon="3.65034">
        <ele>890</ele>
        <time>2021-05-24T12:54:02Z</time>
      </trkpt>
      <trkpt lat="44.10744" lon="3.65034">
        <ele>890</ele>
        <time>2021-05-24T12:54:05Z</time>
      </trkpt>
      <trkpt lat="44.10746" lon="3.65033">
        <ele>890</ele>
        <time>2021-05-24T12:54:08Z</time>
      </trkpt>
      <trkpt lat="44.10748" lon="3.65032">
        <ele>890</ele>
        <time>2021-05-24T12:54:11Z</time>
      </trkpt>
      <trkpt lat="44.1075" lon="3.65031">
        <ele>895</ele>
        <time>2021-05-24T12:54:13Z</time>
      </trkpt>
      <trkpt lat="44.10752" lon="3.65029">
        <ele>895</ele>
        <time>2021-05-24T12:54:16Z</time>
      </trkpt>
      <trkpt lat="44.10754" lon="3.65028">
        <ele>895</ele>
        <time>2021-05-24T12:54:19Z</time>
      </trkpt>
      <trkpt lat="44.10757" lon="3.65028">
        <ele>895</ele>
        <time>2021-05-24T12:54:22Z</time>
      </trkpt>
      <trkpt lat="44.10759" lon="3.65027">
        <ele>895</ele>
        <time>2021-05-24T12:54:25Z</time>
      </trkpt>
      <trkpt lat="44.10762" lon="3.65028">
        <ele>895</ele>
        <time>2021-05-24T12:54:29Z</time>
      </trkpt>
      <trkpt lat="44.10764" lon="3.65027">
        <ele>895</ele>
        <time>2021-05-24T12:54:32Z</time>
      </trkpt>
      <trkpt lat="44.10766" lon="3.65026">
        <ele>895</ele>
        <time>2021-05-24T12:54:34Z</time>
      </trkpt>
      <trkpt lat="44.10768" lon="3.65027">
        <ele>895</ele>
        <time>2021-05-24T12:54:38Z</time>
      </trkpt>
      <trkpt lat="44.1077" lon="3.65027">
        <ele>895</ele>
        <time>2021-05-24T12:54:39Z</time>
      </trkpt>
      <trkpt lat="44.10772" lon="3.65027">
        <ele>897</ele>
        <time>2021-05-24T12:54:43Z</time>
      </trkpt>
      <trkpt lat="44.10773" lon="3.65028">
        <ele>897</ele>
        <time>2021-05-24T12:54:46Z</time>
      </trkpt>
      <trkpt lat="44.10776" lon="3.65029">
        <ele>897</ele>
        <time>2021-05-24T12:54:48Z</time>
      </trkpt>
      <trkpt lat="44.10778" lon="3.65028">
        <ele>897</ele>
        <time>2021-05-24T12:54:51Z</time>
      </trkpt>
      <trkpt lat="44.1078" lon="3.65028">
        <ele>897</ele>
        <time>2021-05-24T12:54:54Z</time>
      </trkpt>
      <trkpt lat="44.10783" lon="3.65029">
        <ele>897</ele>
        <time>2021-05-24T12:54:57Z</time>
      </trkpt>
      <trkpt lat="44.10785" lon="3.65029">
        <ele>897</ele>
        <time>2021-05-24T12:54:59Z</time>
      </trkpt>
      <trkpt lat="44.10787" lon="3.65029">
        <ele>897</ele>
        <time>2021-05-24T12:55:02Z</time>
      </trkpt>
      <trkpt lat="44.10789" lon="3.65029">
        <ele>897</ele>
        <time>2021-05-24T12:55:05Z</time>
      </trkpt>
      <trkpt lat="44.10791" lon="3.65032">
        <ele>897</ele>
        <time>2021-05-24T12:55:09Z</time>
      </trkpt>
      <trkpt lat="44.10794" lon="3.65032">
        <ele>897</ele>
        <time>2021-05-24T12:55:11Z</time>
      </trkpt>
      <trkpt lat="44.10796" lon="3.65032">
        <ele>897</ele>
        <time>2021-05-24T12:55:14Z</time>
      </trkpt>
      <trkpt lat="44.10797" lon="3.65034">
        <ele>897</ele>
        <time>2021-05-24T12:55:17Z</time>
      </trkpt>
      <trkpt lat="44.108" lon="3.65033">
        <ele>897</ele>
        <time>2021-05-24T12:55:22Z</time>
      </trkpt>
      <trkpt lat="44.10802" lon="3.65035">
        <ele>897</ele>
        <time>2021-05-24T12:55:26Z</time>
      </trkpt>
      <trkpt lat="44.10804" lon="3.65035">
        <ele>897</ele>
        <time>2021-05-24T12:55:29Z</time>
      </trkpt>
      <trkpt lat="44.10805" lon="3.65037">
        <ele>897</ele>
        <time>2021-05-24T12:55:32Z</time>
      </trkpt>
      <trkpt lat="44.10807" lon="3.65038">
        <ele>897</ele>
        <time>2021-05-24T12:55:37Z</time>
      </trkpt>
      <trkpt lat="44.10809" lon="3.6504">
        <ele>897</ele>
        <time>2021-05-24T12:55:40Z</time>
      </trkpt>
      <trkpt lat="44.10811" lon="3.65041">
        <ele>897</ele>
        <time>2021-05-24T12:55:41Z</time>
      </trkpt>
      <trkpt lat="44.10813" lon="3.65042">
        <ele>903</ele>
        <time>2021-05-24T12:55:43Z</time>
      </trkpt>
      <trkpt lat="44.10815" lon="3.65044">
        <ele>903</ele>
        <time>2021-05-24T12:55:46Z</time>
      </trkpt>
      <trkpt lat="44.10816" lon="3.65046">
        <ele>903</ele>
        <time>2021-05-24T12:55:48Z</time>
      </trkpt>
      <trkpt lat="44.10818" lon="3.65048">
        <ele>903</ele>
        <time>2021-05-24T12:55:50Z</time>
      </trkpt>
      <trkpt lat="44.1082" lon="3.65049">
        <ele>904</ele>
        <time>2021-05-24T12:55:53Z</time>
      </trkpt>
      <trkpt lat="44.10822" lon="3.6505">
        <ele>904</ele>
        <time>2021-05-24T12:55:56Z</time>
      </trkpt>
      <trkpt lat="44.10824" lon="3.6505">
        <ele>904</ele>
        <time>2021-05-24T12:55:59Z</time>
      </trkpt>
      <trkpt lat="44.10826" lon="3.65052">
        <ele>904</ele>
        <time>2021-05-24T12:56:02Z</time>
      </trkpt>
      <trkpt lat="44.10828" lon="3.65053">
        <ele>904</ele>
        <time>2021-05-24T12:56:06Z</time>
      </trkpt>
      <trkpt lat="44.1083" lon="3.65054">
        <ele>904</ele>
        <time>2021-05-24T12:56:08Z</time>
      </trkpt>
      <trkpt lat="44.10832" lon="3.65056">
        <ele>904</ele>
        <time>2021-05-24T12:56:11Z</time>
      </trkpt>
      <trkpt lat="44.10833" lon="3.65057">
        <ele>904</ele>
        <time>2021-05-24T12:56:14Z</time>
      </trkpt>
      <trkpt lat="44.10835" lon="3.65058">
        <ele>904</ele>
        <time>2021-05-24T12:56:17Z</time>
      </trkpt>
      <trkpt lat="44.10837" lon="3.6506">
        <ele>904</ele>
        <time>2021-05-24T12:56:20Z</time>
      </trkpt>
      <trkpt lat="44.1084" lon="3.65061">
        <ele>907</ele>
        <time>2021-05-24T12:56:23Z</time>
      </trkpt>
      <trkpt lat="44.10841" lon="3.65063">
        <ele>907</ele>
        <time>2021-05-24T12:56:25Z</time>
      </trkpt>
      <trkpt lat="44.10843" lon="3.65063">
        <ele>907</ele>
        <time>2021-05-24T12:56:28Z</time>
      </trkpt>
      <trkpt lat="44.10845" lon="3.65063">
        <ele>907</ele>
        <time>2021-05-24T12:56:30Z</time>
      </trkpt>
      <trkpt lat="44.10847" lon="3.65063">
        <ele>907</ele>
        <time>2021-05-24T12:56:32Z</time>
      </trkpt>
      <trkpt lat="44.1085" lon="3.65064">
        <ele>907</ele>
        <time>2021-05-24T12:56:35Z</time>
      </trkpt>
      <trkpt lat="44.10852" lon="3.65066">
        <ele>907</ele>
        <time>2021-05-24T12:56:38Z</time>
      </trkpt>
      <trkpt lat="44.10854" lon="3.65067">
        <ele>907</ele>
        <time>2021-05-24T12:56:40Z</time>
      </trkpt>
      <trkpt lat="44.10856" lon="3.65068">
        <ele>908</ele>
        <time>2021-05-24T12:56:43Z</time>
      </trkpt>
      <trkpt lat="44.10858" lon="3.65069">
        <ele>908</ele>
        <time>2021-05-24T12:56:46Z</time>
      </trkpt>
      <trkpt lat="44.1086" lon="3.65072">
        <ele>908</ele>
        <time>2021-05-24T12:56:48Z</time>
      </trkpt>
      <trkpt lat="44.10862" lon="3.65073">
        <ele>908</ele>
        <time>2021-05-24T12:56:52Z</time>
      </trkpt>
      <trkpt lat="44.10865" lon="3.65074">
        <ele>908</ele>
        <time>2021-05-24T12:56:55Z</time>
      </trkpt>
      <trkpt lat="44.10868" lon="3.65074">
        <ele>908</ele>
        <time>2021-05-24T12:56:56Z</time>
      </trkpt>
      <trkpt lat="44.1087" lon="3.65074">
        <ele>908</ele>
        <time>2021-05-24T12:56:59Z</time>
      </trkpt>
      <trkpt lat="44.10872" lon="3.65075">
        <ele>908</ele>
        <time>2021-05-24T12:57:01Z</time>
      </trkpt>
      <trkpt lat="44.10874" lon="3.65076">
        <ele>910</ele>
        <time>2021-05-24T12:57:03Z</time>
      </trkpt>
      <trkpt lat="44.10876" lon="3.65077">
        <ele>910</ele>
        <time>2021-05-24T12:57:04Z</time>
      </trkpt>
      <trkpt lat="44.10878" lon="3.65078">
        <ele>910</ele>
        <time>2021-05-24T12:57:07Z</time>
      </trkpt>
      <trkpt lat="44.1088" lon="3.65078">
        <ele>910</ele>
        <time>2021-05-24T12:57:09Z</time>
      </trkpt>
      <trkpt lat="44.10882" lon="3.65077">
        <ele>910</ele>
        <time>2021-05-24T12:57:12Z</time>
      </trkpt>
      <trkpt lat="44.10884" lon="3.65077">
        <ele>910</ele>
        <time>2021-05-24T12:57:14Z</time>
      </trkpt>
      <trkpt lat="44.10887" lon="3.65076">
        <ele>910</ele>
        <time>2021-05-24T12:57:17Z</time>
      </trkpt>
      <trkpt lat="44.10889" lon="3.65077">
        <ele>910</ele>
        <time>2021-05-24T12:57:18Z</time>
      </trkpt>
      <trkpt lat="44.10891" lon="3.65077">
        <ele>910</ele>
        <time>2021-05-24T12:57:20Z</time>
      </trkpt>
      <trkpt lat="44.10893" lon="3.65076">
        <ele>911</ele>
        <time>2021-05-24T12:57:23Z</time>
      </trkpt>
      <trkpt lat="44.10895" lon="3.65075">
        <ele>911</ele>
        <time>2021-05-24T12:57:26Z</time>
      </trkpt>
      <trkpt lat="44.10897" lon="3.65074">
        <ele>911</ele>
        <time>2021-05-24T12:57:28Z</time>
      </trkpt>
      <trkpt lat="44.109" lon="3.65072">
        <ele>911</ele>
        <time>2021-05-24T12:57:29Z</time>
      </trkpt>
      <trkpt lat="44.10903" lon="3.65071">
        <ele>911</ele>
        <time>2021-05-24T12:57:31Z</time>
      </trkpt>
      <trkpt lat="44.10905" lon="3.65072">
        <ele>911</ele>
        <time>2021-05-24T12:57:34Z</time>
      </trkpt>
      <trkpt lat="44.10907" lon="3.65072">
        <ele>911</ele>
        <time>2021-05-24T12:57:37Z</time>
      </trkpt>
      <trkpt lat="44.10909" lon="3.65073">
        <ele>911</ele>
        <time>2021-05-24T12:57:40Z</time>
      </trkpt>
      <trkpt lat="44.10911" lon="3.65073">
        <ele>913</ele>
        <time>2021-05-24T12:57:43Z</time>
      </trkpt>
      <trkpt lat="44.10913" lon="3.65073">
        <ele>913</ele>
        <time>2021-05-24T12:57:45Z</time>
      </trkpt>
      <trkpt lat="44.10916" lon="3.65073">
        <ele>913</ele>
        <time>2021-05-24T12:57:47Z</time>
      </trkpt>
      <trkpt lat="44.10918" lon="3.65074">
        <ele>913</ele>
        <time>2021-05-24T12:57:49Z</time>
      </trkpt>
      <trkpt lat="44.1092" lon="3.65075">
        <ele>913</ele>
        <time>2021-05-24T12:57:51Z</time>
      </trkpt>
      <trkpt lat="44.10922" lon="3.65076">
        <ele>913</ele>
        <time>2021-05-24T12:57:53Z</time>
      </trkpt>
      <trkpt lat="44.10924" lon="3.65077">
        <ele>913</ele>
        <time>2021-05-24T12:57:54Z</time>
      </trkpt>
      <trkpt lat="44.10926" lon="3.65078">
        <ele>913</ele>
        <time>2021-05-24T12:57:56Z</time>
      </trkpt>
      <trkpt lat="44.10928" lon="3.65078">
        <ele>913</ele>
        <time>2021-05-24T12:57:59Z</time>
      </trkpt>
      <trkpt lat="44.1093" lon="3.65079">
        <ele>913</ele>
        <time>2021-05-24T12:58:01Z</time>
      </trkpt>
      <trkpt lat="44.10933" lon="3.6508">
        <ele>913</ele>
        <time>2021-05-24T12:58:05Z</time>
      </trkpt>
      <trkpt lat="44.10935" lon="3.6508">
        <ele>913</ele>
        <time>2021-05-24T12:58:08Z</time>
      </trkpt>
      <trkpt lat="44.10937" lon="3.65079">
        <ele>913</ele>
        <time>2021-05-24T12:58:10Z</time>
      </trkpt>
      <trkpt lat="44.10939" lon="3.65079">
        <ele>913</ele>
        <time>2021-05-24T12:58:14Z</time>
      </trkpt>
      <trkpt lat="44.10941" lon="3.65079">
        <ele>913</ele>
        <time>2021-05-24T12:58:17Z</time>
      </trkpt>
      <trkpt lat="44.10943" lon="3.65079">
        <ele>913</ele>
        <time>2021-05-24T12:58:22Z</time>
      </trkpt>
      <trkpt lat="44.10945" lon="3.6508">
        <ele>913</ele>
        <time>2021-05-24T12:58:24Z</time>
      </trkpt>
      <trkpt lat="44.10947" lon="3.65079">
        <ele>913</ele>
        <time>2021-05-24T12:58:26Z</time>
      </trkpt>
      <trkpt lat="44.10949" lon="3.65077">
        <ele>913</ele>
        <time>2021-05-24T12:58:29Z</time>
      </trkpt>
      <trkpt lat="44.10952" lon="3.65077">
        <ele>913</ele>
        <time>2021-05-24T12:58:34Z</time>
      </trkpt>
      <trkpt lat="44.10954" lon="3.65078">
        <ele>913</ele>
        <time>2021-05-24T12:58:36Z</time>
      </trkpt>
      <trkpt lat="44.10956" lon="3.65078">
        <ele>913</ele>
        <time>2021-05-24T12:58:39Z</time>
      </trkpt>
      <trkpt lat="44.10958" lon="3.65078">
        <ele>913</ele>
        <time>2021-05-24T12:58:42Z</time>
      </trkpt>
      <trkpt lat="44.1096" lon="3.65081">
        <ele>913</ele>
        <time>2021-05-24T12:58:44Z</time>
      </trkpt>
      <trkpt lat="44.10962" lon="3.65083">
        <ele>913</ele>
        <time>2021-05-24T12:58:49Z</time>
      </trkpt>
      <trkpt lat="44.10965" lon="3.65084">
        <ele>913</ele>
        <time>2021-05-24T12:58:52Z</time>
      </trkpt>
      <trkpt lat="44.10967" lon="3.65085">
        <ele>913</ele>
        <time>2021-05-24T12:58:55Z</time>
      </trkpt>
      <trkpt lat="44.10968" lon="3.65086">
        <ele>913</ele>
        <time>2021-05-24T12:58:57Z</time>
      </trkpt>
      <trkpt lat="44.1097" lon="3.65087">
        <ele>913</ele>
        <time>2021-05-24T12:58:59Z</time>
      </trkpt>
      <trkpt lat="44.10972" lon="3.65089">
        <ele>913</ele>
        <time>2021-05-24T12:59:02Z</time>
      </trkpt>
      <trkpt lat="44.10974" lon="3.6509">
        <ele>913</ele>
        <time>2021-05-24T12:59:07Z</time>
      </trkpt>
      <trkpt lat="44.10977" lon="3.65092">
        <ele>913</ele>
        <time>2021-05-24T12:59:10Z</time>
      </trkpt>
      <trkpt lat="44.10979" lon="3.65093">
        <ele>922</ele>
        <time>2021-05-24T12:59:13Z</time>
      </trkpt>
      <trkpt lat="44.10981" lon="3.65094">
        <ele>922</ele>
        <time>2021-05-24T12:59:16Z</time>
      </trkpt>
      <trkpt lat="44.10982" lon="3.65095">
        <ele>922</ele>
        <time>2021-05-24T12:59:20Z</time>
      </trkpt>
      <trkpt lat="44.10984" lon="3.65096">
        <ele>922</ele>
        <time>2021-05-24T12:59:22Z</time>
      </trkpt>
      <trkpt lat="44.10987" lon="3.65098">
        <ele>922</ele>
        <time>2021-05-24T12:59:26Z</time>
      </trkpt>
      <trkpt lat="44.10989" lon="3.65098">
        <ele>922</ele>
        <time>2021-05-24T12:59:28Z</time>
      </trkpt>
      <trkpt lat="44.10992" lon="3.65098">
        <ele>922</ele>
        <time>2021-05-24T12:59:30Z</time>
      </trkpt>
      <trkpt lat="44.10994" lon="3.65098">
        <ele>922</ele>
        <time>2021-05-24T12:59:32Z</time>
      </trkpt>
      <trkpt lat="44.10996" lon="3.65098">
        <ele>922</ele>
        <time>2021-05-24T12:59:35Z</time>
      </trkpt>
      <trkpt lat="44.10998" lon="3.65099">
        <ele>922</ele>
        <time>2021-05-24T12:59:37Z</time>
      </trkpt>
      <trkpt lat="44.11001" lon="3.65099">
        <ele>922</ele>
        <time>2021-05-24T12:59:39Z</time>
      </trkpt>
      <trkpt lat="44.11003" lon="3.65101">
        <ele>922</ele>
        <time>2021-05-24T12:59:42Z</time>
      </trkpt>
      <trkpt lat="44.11005" lon="3.65102">
        <ele>922</ele>
        <time>2021-05-24T12:59:44Z</time>
      </trkpt>
      <trkpt lat="44.11007" lon="3.65104">
        <ele>922</ele>
        <time>2021-05-24T12:59:48Z</time>
      </trkpt>
      <trkpt lat="44.11009" lon="3.65105">
        <ele>922</ele>
        <time>2021-05-24T12:59:51Z</time>
      </trkpt>
      <trkpt lat="44.11011" lon="3.65106">
        <ele>925</ele>
        <time>2021-05-24T12:59:53Z</time>
      </trkpt>
      <trkpt lat="44.11013" lon="3.65107">
        <ele>925</ele>
        <time>2021-05-24T12:59:57Z</time>
      </trkpt>
      <trkpt lat="44.11017" lon="3.65107">
        <ele>925</ele>
        <time>2021-05-24T13:00:00Z</time>
      </trkpt>
      <trkpt lat="44.1102" lon="3.65107">
        <ele>926</ele>
        <time>2021-05-24T13:00:03Z</time>
      </trkpt>
      <trkpt lat="44.11021" lon="3.65109">
        <ele>926</ele>
        <time>2021-05-24T13:00:05Z</time>
      </trkpt>
      <trkpt lat="44.11023" lon="3.6511">
        <ele>926</ele>
        <time>2021-05-24T13:00:07Z</time>
      </trkpt>
      <trkpt lat="44.11025" lon="3.6511">
        <ele>926</ele>
        <time>2021-05-24T13:00:10Z</time>
      </trkpt>
      <trkpt lat="44.11026" lon="3.65112">
        <ele>926</ele>
        <time>2021-05-24T13:00:14Z</time>
      </trkpt>
      <trkpt lat="44.11029" lon="3.65113">
        <ele>926</ele>
        <time>2021-05-24T13:00:18Z</time>
      </trkpt>
      <trkpt lat="44.11031" lon="3.65115">
        <ele>926</ele>
        <time>2021-05-24T13:00:21Z</time>
      </trkpt>
      <trkpt lat="44.11032" lon="3.65116">
        <ele>926</ele>
        <time>2021-05-24T13:00:24Z</time>
      </trkpt>
      <trkpt lat="44.11035" lon="3.65117">
        <ele>926</ele>
        <time>2021-05-24T13:00:26Z</time>
      </trkpt>
      <trkpt lat="44.11037" lon="3.65118">
        <ele>926</ele>
        <time>2021-05-24T13:00:30Z</time>
      </trkpt>
      <trkpt lat="44.11039" lon="3.65119">
        <ele>926</ele>
        <time>2021-05-24T13:00:36Z</time>
      </trkpt>
      <trkpt lat="44.11041" lon="3.6512">
        <ele>926</ele>
        <time>2021-05-24T13:00:39Z</time>
      </trkpt>
      <trkpt lat="44.11043" lon="3.65121">
        <ele>931</ele>
        <time>2021-05-24T13:00:43Z</time>
      </trkpt>
      <trkpt lat="44.11045" lon="3.65124">
        <ele>931</ele>
        <time>2021-05-24T13:00:46Z</time>
      </trkpt>
      <trkpt lat="44.11047" lon="3.65125">
        <ele>931</ele>
        <time>2021-05-24T13:00:50Z</time>
      </trkpt>
      <trkpt lat="44.11049" lon="3.65126">
        <ele>931</ele>
        <time>2021-05-24T13:00:54Z</time>
      </trkpt>
      <trkpt lat="44.1105" lon="3.65129">
        <ele>931</ele>
        <time>2021-05-24T13:00:57Z</time>
      </trkpt>
      <trkpt lat="44.11052" lon="3.6513">
        <ele>931</ele>
        <time>2021-05-24T13:01:00Z</time>
      </trkpt>
      <trkpt lat="44.11054" lon="3.65131">
        <ele>934</ele>
        <time>2021-05-24T13:01:03Z</time>
      </trkpt>
      <trkpt lat="44.11056" lon="3.65133">
        <ele>934</ele>
        <time>2021-05-24T13:01:06Z</time>
      </trkpt>
      <trkpt lat="44.11059" lon="3.65133">
        <ele>934</ele>
        <time>2021-05-24T13:01:11Z</time>
      </trkpt>
      <trkpt lat="44.11061" lon="3.65135">
        <ele>934</ele>
        <time>2021-05-24T13:01:14Z</time>
      </trkpt>
      <trkpt lat="44.11062" lon="3.65137">
        <ele>934</ele>
        <time>2021-05-24T13:01:17Z</time>
      </trkpt>
      <trkpt lat="44.11064" lon="3.6514">
        <ele>934</ele>
        <time>2021-05-24T13:01:20Z</time>
      </trkpt>
      <trkpt lat="44.11066" lon="3.65142">
        <ele>934</ele>
        <time>2021-05-24T13:01:25Z</time>
      </trkpt>
      <trkpt lat="44.11068" lon="3.6514">
        <ele>934</ele>
        <time>2021-05-24T13:01:30Z</time>
      </trkpt>
      <trkpt lat="44.11069" lon="3.65142">
        <ele>934</ele>
        <time>2021-05-24T13:01:34Z</time>
      </trkpt>
      <trkpt lat="44.11072" lon="3.65141">
        <ele>934</ele>
        <time>2021-05-24T13:01:37Z</time>
      </trkpt>
      <trkpt lat="44.11074" lon="3.6514">
        <ele>934</ele>
        <time>2021-05-24T13:01:40Z</time>
      </trkpt>
      <trkpt lat="44.11075" lon="3.65139">
        <ele>934</ele>
        <time>2021-05-24T13:01:42Z</time>
      </trkpt>
      <trkpt lat="44.11078" lon="3.65138">
        <ele>934</ele>
        <time>2021-05-24T13:01:44Z</time>
      </trkpt>
      <trkpt lat="44.11079" lon="3.65136">
        <ele>934</ele>
        <time>2021-05-24T13:01:47Z</time>
      </trkpt>
      <trkpt lat="44.11081" lon="3.65136">
        <ele>934</ele>
        <time>2021-05-24T13:01:49Z</time>
      </trkpt>
      <trkpt lat="44.11083" lon="3.65134">
        <ele>934</ele>
        <time>2021-05-24T13:01:50Z</time>
      </trkpt>
      <trkpt lat="44.11086" lon="3.65132">
        <ele>940</ele>
        <time>2021-05-24T13:01:53Z</time>
      </trkpt>
      <trkpt lat="44.1109" lon="3.65131">
        <ele>940</ele>
        <time>2021-05-24T13:01:57Z</time>
      </trkpt>
      <trkpt lat="44.11092" lon="3.65132">
        <ele>940</ele>
        <time>2021-05-24T13:02:02Z</time>
      </trkpt>
      <trkpt lat="44.11097" lon="3.65128">
        <ele>943</ele>
        <time>2021-05-24T13:02:13Z</time>
      </trkpt>
      <trkpt lat="44.11099" lon="3.65128">
        <ele>943</ele>
        <time>2021-05-24T13:02:20Z</time>
      </trkpt>
      <trkpt lat="44.11101" lon="3.65127">
        <ele>943</ele>
        <time>2021-05-24T13:02:24Z</time>
      </trkpt>
      <trkpt lat="44.11103" lon="3.65126">
        <ele>943</ele>
        <time>2021-05-24T13:02:32Z</time>
      </trkpt>
      <trkpt lat="44.11102" lon="3.65123">
        <ele>943</ele>
        <time>2021-05-24T13:02:38Z</time>
      </trkpt>
      <trkpt lat="44.11101" lon="3.65121">
        <ele>943</ele>
        <time>2021-05-24T13:02:42Z</time>
      </trkpt>
      <trkpt lat="44.11099" lon="3.6512">
        <ele>943</ele>
        <time>2021-05-24T13:02:46Z</time>
      </trkpt>
      <trkpt lat="44.11097" lon="3.6512">
        <ele>943</ele>
        <time>2021-05-24T13:02:48Z</time>
      </trkpt>
      <trkpt lat="44.11095" lon="3.6512">
        <ele>943</ele>
        <time>2021-05-24T13:02:51Z</time>
      </trkpt>
      <trkpt lat="44.11093" lon="3.6512">
        <ele>948</ele>
        <time>2021-05-24T13:02:53Z</time>
      </trkpt>
      <trkpt lat="44.11091" lon="3.65122">
        <ele>948</ele>
        <time>2021-05-24T13:02:56Z</time>
      </trkpt>
      <trkpt lat="44.11089" lon="3.65123">
        <ele>948</ele>
        <time>2021-05-24T13:02:58Z</time>
      </trkpt>
      <trkpt lat="44.11087" lon="3.65123">
        <ele>948</ele>
        <time>2021-05-24T13:03:06Z</time>
      </trkpt>
      <trkpt lat="44.11085" lon="3.65124">
        <ele>948</ele>
        <time>2021-05-24T13:03:10Z</time>
      </trkpt>
      <trkpt lat="44.11083" lon="3.65124">
        <ele>948</ele>
        <time>2021-05-24T13:03:12Z</time>
      </trkpt>
      <trkpt lat="44.11081" lon="3.65123">
        <ele>948</ele>
        <time>2021-05-24T13:03:15Z</time>
      </trkpt>
      <trkpt lat="44.11079" lon="3.65121">
        <ele>948</ele>
        <time>2021-05-24T13:03:19Z</time>
      </trkpt>
      <trkpt lat="44.11077" lon="3.65118">
        <ele>948</ele>
        <time>2021-05-24T13:03:24Z</time>
      </trkpt>
      <trkpt lat="44.11077" lon="3.65115">
        <ele>948</ele>
        <time>2021-05-24T13:03:27Z</time>
      </trkpt>
      <trkpt lat="44.11075" lon="3.65112">
        <ele>948</ele>
        <time>2021-05-24T13:03:30Z</time>
      </trkpt>
      <trkpt lat="44.11073" lon="3.65109">
        <ele>948</ele>
        <time>2021-05-24T13:03:32Z</time>
      </trkpt>
      <trkpt lat="44.11072" lon="3.65107">
        <ele>948</ele>
        <time>2021-05-24T13:03:35Z</time>
      </trkpt>
      <trkpt lat="44.1107" lon="3.65105">
        <ele>948</ele>
        <time>2021-05-24T13:03:38Z</time>
      </trkpt>
      <trkpt lat="44.11069" lon="3.65102">
        <ele>948</ele>
        <time>2021-05-24T13:03:41Z</time>
      </trkpt>
      <trkpt lat="44.11067" lon="3.65099">
        <ele>948</ele>
        <time>2021-05-24T13:03:45Z</time>
      </trkpt>
      <trkpt lat="44.11066" lon="3.65097">
        <ele>948</ele>
        <time>2021-05-24T13:03:49Z</time>
      </trkpt>
      <trkpt lat="44.11065" lon="3.65094">
        <ele>948</ele>
        <time>2021-05-24T13:03:52Z</time>
      </trkpt>
      <trkpt lat="44.11064" lon="3.65091">
        <ele>948</ele>
        <time>2021-05-24T13:03:54Z</time>
      </trkpt>
      <trkpt lat="44.11063" lon="3.65089">
        <ele>948</ele>
        <time>2021-05-24T13:03:57Z</time>
      </trkpt>
      <trkpt lat="44.11063" lon="3.65086">
        <ele>948</ele>
        <time>2021-05-24T13:04:02Z</time>
      </trkpt>
      <trkpt lat="44.11064" lon="3.65083">
        <ele>948</ele>
        <time>2021-05-24T13:04:07Z</time>
      </trkpt>
      <trkpt lat="44.11065" lon="3.65082">
        <ele>948</ele>
        <time>2021-05-24T13:04:15Z</time>
      </trkpt>
      <trkpt lat="44.11067" lon="3.6508">
        <ele>948</ele>
        <time>2021-05-24T13:04:29Z</time>
      </trkpt>
      <trkpt lat="44.11065" lon="3.6508">
        <ele>948</ele>
        <time>2021-05-24T13:04:44Z</time>
      </trkpt>
      <trkpt lat="44.11063" lon="3.65079">
        <ele>948</ele>
        <time>2021-05-24T13:05:08Z</time>
      </trkpt>
      <trkpt lat="44.11065" lon="3.65078">
        <ele>948</ele>
        <time>2021-05-24T13:05:38Z</time>
      </trkpt>
      <trkpt lat="44.11068" lon="3.65078">
        <ele>948</ele>
        <time>2021-05-24T13:05:40Z</time>
      </trkpt>
      <trkpt lat="44.11073" lon="3.65074">
        <ele>948</ele>
        <time>2021-05-24T13:05:48Z</time>
      </trkpt>
      <trkpt lat="44.11075" lon="3.65074">
        <ele>948</ele>
        <time>2021-05-24T13:05:51Z</time>
      </trkpt>
      <trkpt lat="44.11077" lon="3.65075">
        <ele>948</ele>
        <time>2021-05-24T13:05:56Z</time>
      </trkpt>
      <trkpt lat="44.1108" lon="3.65074">
        <ele>948</ele>
        <time>2021-05-24T13:05:58Z</time>
      </trkpt>
      <trkpt lat="44.11081" lon="3.65075">
        <ele>948</ele>
        <time>2021-05-24T13:05:59Z</time>
      </trkpt>
      <trkpt lat="44.11083" lon="3.65076">
        <ele>948</ele>
        <time>2021-05-24T13:06:02Z</time>
      </trkpt>
      <trkpt lat="44.11085" lon="3.65077">
        <ele>948</ele>
        <time>2021-05-24T13:06:06Z</time>
      </trkpt>
      <trkpt lat="44.11087" lon="3.65077">
        <ele>948</ele>
        <time>2021-05-24T13:06:08Z</time>
      </trkpt>
      <trkpt lat="44.11096" lon="3.65083">
        <ele>948</ele>
        <time>2021-05-24T13:06:18Z</time>
      </trkpt>
      <trkpt lat="44.11105" lon="3.65089">
        <ele>948</ele>
        <time>2021-05-24T13:06:29Z</time>
      </trkpt>
      <trkpt lat="44.11115" lon="3.65086">
        <ele>948</ele>
        <time>2021-05-24T13:06:37Z</time>
      </trkpt>
      <trkpt lat="44.11124" lon="3.65083">
        <ele>948</ele>
        <time>2021-05-24T13:06:50Z</time>
      </trkpt>
      <trkpt lat="44.11119" lon="3.65072">
        <ele>948</ele>
        <time>2021-05-24T13:09:02Z</time>
      </trkpt>
      <trkpt lat="44.11465" lon="3.64682">
        <ele>1017</ele>
        <time>2021-05-24T13:23:18Z</time>
      </trkpt>
      <trkpt lat="44.11467" lon="3.64677">
        <ele>1018</ele>
        <time>2021-05-24T13:23:27Z</time>
      </trkpt>
      <trkpt lat="44.11472" lon="3.64666">
        <ele>1018</ele>
        <time>2021-05-24T13:23:38Z</time>
      </trkpt>
      <trkpt lat="44.1148" lon="3.64658">
        <ele>1018</ele>
        <time>2021-05-24T13:23:51Z</time>
      </trkpt>
      <trkpt lat="44.1149" lon="3.64656">
        <ele>1018</ele>
        <time>2021-05-24T13:23:58Z</time>
      </trkpt>
      <trkpt lat="44.11498" lon="3.64649">
        <ele>1018</ele>
        <time>2021-05-24T13:24:08Z</time>
      </trkpt>
      <trkpt lat="44.11507" lon="3.64641">
        <ele>1018</ele>
        <time>2021-05-24T13:24:17Z</time>
      </trkpt>
      <trkpt lat="44.11513" lon="3.64632">
        <ele>1018</ele>
        <time>2021-05-24T13:24:25Z</time>
      </trkpt>
      <trkpt lat="44.11522" lon="3.6462">
        <ele>1018</ele>
        <time>2021-05-24T13:24:38Z</time>
      </trkpt>
      <trkpt lat="44.11523" lon="3.64618">
        <ele>1018</ele>
        <time>2021-05-24T13:24:41Z</time>
      </trkpt>
      <trkpt lat="44.11525" lon="3.64617">
        <ele>1018</ele>
        <time>2021-05-24T13:24:43Z</time>
      </trkpt>
      <trkpt lat="44.11527" lon="3.64616">
        <ele>1018</ele>
        <time>2021-05-24T13:24:46Z</time>
      </trkpt>
      <trkpt lat="44.11528" lon="3.64615">
        <ele>1018</ele>
        <time>2021-05-24T13:24:48Z</time>
      </trkpt>
      <trkpt lat="44.1153" lon="3.64613">
        <ele>1018</ele>
        <time>2021-05-24T13:24:49Z</time>
      </trkpt>
      <trkpt lat="44.11531" lon="3.6461">
        <ele>1018</ele>
        <time>2021-05-24T13:24:51Z</time>
      </trkpt>
      <trkpt lat="44.11533" lon="3.64608">
        <ele>1018</ele>
        <time>2021-05-24T13:24:53Z</time>
      </trkpt>
      <trkpt lat="44.11534" lon="3.64605">
        <ele>1018</ele>
        <time>2021-05-24T13:24:55Z</time>
      </trkpt>
      <trkpt lat="44.11536" lon="3.64603">
        <ele>1018</ele>
        <time>2021-05-24T13:24:58Z</time>
      </trkpt>
      <trkpt lat="44.11538" lon="3.64601">
        <ele>1018</ele>
        <time>2021-05-24T13:25:00Z</time>
      </trkpt>
      <trkpt lat="44.11539" lon="3.64599">
        <ele>1018</ele>
        <time>2021-05-24T13:25:02Z</time>
      </trkpt>
      <trkpt lat="44.11541" lon="3.64596">
        <ele>1018</ele>
        <time>2021-05-24T13:25:04Z</time>
      </trkpt>
      <trkpt lat="44.11547" lon="3.64581">
        <ele>1018</ele>
        <time>2021-05-24T13:25:12Z</time>
      </trkpt>
      <trkpt lat="44.11553" lon="3.64571">
        <ele>1018</ele>
        <time>2021-05-24T13:25:20Z</time>
      </trkpt>
      <trkpt lat="44.11556" lon="3.64559">
        <ele>1018</ele>
        <time>2021-05-24T13:25:29Z</time>
      </trkpt>
      <trkpt lat="44.11561" lon="3.64548">
        <ele>1006</ele>
        <time>2021-05-24T13:25:37Z</time>
      </trkpt>
      <trkpt lat="44.11568" lon="3.6454">
        <ele>1006</ele>
        <time>2021-05-24T13:25:44Z</time>
      </trkpt>
      <trkpt lat="44.11576" lon="3.64532">
        <ele>1006</ele>
        <time>2021-05-24T13:25:55Z</time>
      </trkpt>
      <trkpt lat="44.11581" lon="3.64522">
        <ele>1006</ele>
        <time>2021-05-24T13:26:04Z</time>
      </trkpt>
      <trkpt lat="44.11586" lon="3.64511">
        <ele>1006</ele>
        <time>2021-05-24T13:26:14Z</time>
      </trkpt>
      <trkpt lat="44.11593" lon="3.64503">
        <ele>1006</ele>
        <time>2021-05-24T13:26:23Z</time>
      </trkpt>
      <trkpt lat="44.11599" lon="3.64493">
        <ele>1006</ele>
        <time>2021-05-24T13:26:31Z</time>
      </trkpt>
      <trkpt lat="44.11605" lon="3.64483">
        <ele>1003</ele>
        <time>2021-05-24T13:26:37Z</time>
      </trkpt>
      <trkpt lat="44.11613" lon="3.64477">
        <ele>1003</ele>
        <time>2021-05-24T13:26:43Z</time>
      </trkpt>
      <trkpt lat="44.1162" lon="3.64467">
        <ele>1003</ele>
        <time>2021-05-24T13:26:52Z</time>
      </trkpt>
      <trkpt lat="44.11626" lon="3.64458">
        <ele>1003</ele>
        <time>2021-05-24T13:27:01Z</time>
      </trkpt>
      <trkpt lat="44.1163" lon="3.64446">
        <ele>1003</ele>
        <time>2021-05-24T13:27:08Z</time>
      </trkpt>
      <trkpt lat="44.11639" lon="3.64436">
        <ele>1003</ele>
        <time>2021-05-24T13:27:20Z</time>
      </trkpt>
      <trkpt lat="44.11641" lon="3.64434">
        <ele>1003</ele>
        <time>2021-05-24T13:27:22Z</time>
      </trkpt>
      <trkpt lat="44.11643" lon="3.64433">
        <ele>1003</ele>
        <time>2021-05-24T13:27:24Z</time>
      </trkpt>
      <trkpt lat="44.11645" lon="3.64432">
        <ele>1003</ele>
        <time>2021-05-24T13:27:26Z</time>
      </trkpt>
      <trkpt lat="44.11647" lon="3.64431">
        <ele>1003</ele>
        <time>2021-05-24T13:27:28Z</time>
      </trkpt>
      <trkpt lat="44.11649" lon="3.64432">
        <ele>1003</ele>
        <time>2021-05-24T13:27:30Z</time>
      </trkpt>
      <trkpt lat="44.11651" lon="3.64434">
        <ele>1003</ele>
        <time>2021-05-24T13:27:32Z</time>
      </trkpt>
      <trkpt lat="44.11653" lon="3.64435">
        <ele>1003</ele>
        <time>2021-05-24T13:27:34Z</time>
      </trkpt>
      <trkpt lat="44.11655" lon="3.64436">
        <ele>1007</ele>
        <time>2021-05-24T13:27:37Z</time>
      </trkpt>
      <trkpt lat="44.11657" lon="3.64436">
        <ele>1007</ele>
        <time>2021-05-24T13:27:39Z</time>
      </trkpt>
      <trkpt lat="44.1166" lon="3.64436">
        <ele>1007</ele>
        <time>2021-05-24T13:27:42Z</time>
      </trkpt>
      <trkpt lat="44.11663" lon="3.64436">
        <ele>1007</ele>
        <time>2021-05-24T13:27:45Z</time>
      </trkpt>
      <trkpt lat="44.11665" lon="3.64436">
        <ele>1007</ele>
        <time>2021-05-24T13:27:48Z</time>
      </trkpt>
      <trkpt lat="44.11667" lon="3.64436">
        <ele>1007</ele>
        <time>2021-05-24T13:27:50Z</time>
      </trkpt>
      <trkpt lat="44.1167" lon="3.64436">
        <ele>1007</ele>
        <time>2021-05-24T13:27:53Z</time>
      </trkpt>
      <trkpt lat="44.11672" lon="3.64436">
        <ele>1007</ele>
        <time>2021-05-24T13:27:56Z</time>
      </trkpt>
      <trkpt lat="44.11674" lon="3.64435">
        <ele>1007</ele>
        <time>2021-05-24T13:27:59Z</time>
      </trkpt>
      <trkpt lat="44.11677" lon="3.64435">
        <ele>1007</ele>
        <time>2021-05-24T13:28:02Z</time>
      </trkpt>
      <trkpt lat="44.11679" lon="3.64434">
        <ele>1007</ele>
        <time>2021-05-24T13:28:04Z</time>
      </trkpt>
      <trkpt lat="44.11681" lon="3.64434">
        <ele>1007</ele>
        <time>2021-05-24T13:28:06Z</time>
      </trkpt>
      <trkpt lat="44.11683" lon="3.64433">
        <ele>1007</ele>
        <time>2021-05-24T13:28:08Z</time>
      </trkpt>
      <trkpt lat="44.11685" lon="3.64432">
        <ele>1007</ele>
        <time>2021-05-24T13:28:10Z</time>
      </trkpt>
      <trkpt lat="44.11686" lon="3.64431">
        <ele>1007</ele>
        <time>2021-05-24T13:28:12Z</time>
      </trkpt>
      <trkpt lat="44.11688" lon="3.64429">
        <ele>1007</ele>
        <time>2021-05-24T13:28:15Z</time>
      </trkpt>
      <trkpt lat="44.1169" lon="3.64428">
        <ele>1011</ele>
        <time>2021-05-24T13:28:17Z</time>
      </trkpt>
      <trkpt lat="44.11692" lon="3.64427">
        <ele>1011</ele>
        <time>2021-05-24T13:28:19Z</time>
      </trkpt>
      <trkpt lat="44.11694" lon="3.64426">
        <ele>1011</ele>
        <time>2021-05-24T13:28:21Z</time>
      </trkpt>
      <trkpt lat="44.11696" lon="3.64425">
        <ele>1011</ele>
        <time>2021-05-24T13:28:23Z</time>
      </trkpt>
      <trkpt lat="44.11698" lon="3.64424">
        <ele>1011</ele>
        <time>2021-05-24T13:28:25Z</time>
      </trkpt>
      <trkpt lat="44.117" lon="3.64422">
        <ele>1012</ele>
        <time>2021-05-24T13:28:27Z</time>
      </trkpt>
      <trkpt lat="44.11702" lon="3.64422">
        <ele>1012</ele>
        <time>2021-05-24T13:28:29Z</time>
      </trkpt>
      <trkpt lat="44.11703" lon="3.6442">
        <ele>1012</ele>
        <time>2021-05-24T13:28:31Z</time>
      </trkpt>
      <trkpt lat="44.11705" lon="3.64419">
        <ele>1012</ele>
        <time>2021-05-24T13:28:33Z</time>
      </trkpt>
      <trkpt lat="44.11707" lon="3.64418">
        <ele>1012</ele>
        <time>2021-05-24T13:28:35Z</time>
      </trkpt>
      <trkpt lat="44.11709" lon="3.64416">
        <ele>1012</ele>
        <time>2021-05-24T13:28:38Z</time>
      </trkpt>
      <trkpt lat="44.1171" lon="3.64414">
        <ele>1012</ele>
        <time>2021-05-24T13:28:40Z</time>
      </trkpt>
      <trkpt lat="44.11712" lon="3.64413">
        <ele>1012</ele>
        <time>2021-05-24T13:28:42Z</time>
      </trkpt>
      <trkpt lat="44.11714" lon="3.64412">
        <ele>1012</ele>
        <time>2021-05-24T13:28:44Z</time>
      </trkpt>
      <trkpt lat="44.11716" lon="3.64411">
        <ele>1012</ele>
        <time>2021-05-24T13:28:46Z</time>
      </trkpt>
      <trkpt lat="44.11717" lon="3.64409">
        <ele>1012</ele>
        <time>2021-05-24T13:28:48Z</time>
      </trkpt>
      <trkpt lat="44.11719" lon="3.64407">
        <ele>1012</ele>
        <time>2021-05-24T13:28:50Z</time>
      </trkpt>
      <trkpt lat="44.1172" lon="3.64406">
        <ele>1012</ele>
        <time>2021-05-24T13:28:52Z</time>
      </trkpt>
      <trkpt lat="44.11722" lon="3.64404">
        <ele>1012</ele>
        <time>2021-05-24T13:28:54Z</time>
      </trkpt>
      <trkpt lat="44.11724" lon="3.64403">
        <ele>1012</ele>
        <time>2021-05-24T13:28:56Z</time>
      </trkpt>
      <trkpt lat="44.11726" lon="3.64402">
        <ele>1012</ele>
        <time>2021-05-24T13:28:58Z</time>
      </trkpt>
      <trkpt lat="44.11728" lon="3.64402">
        <ele>1012</ele>
        <time>2021-05-24T13:29:00Z</time>
      </trkpt>
      <trkpt lat="44.1173" lon="3.64401">
        <ele>1012</ele>
        <time>2021-05-24T13:29:02Z</time>
      </trkpt>
      <trkpt lat="44.11732" lon="3.64399">
        <ele>1012</ele>
        <time>2021-05-24T13:29:05Z</time>
      </trkpt>
      <trkpt lat="44.11734" lon="3.64397">
        <ele>1015</ele>
        <time>2021-05-24T13:29:07Z</time>
      </trkpt>
      <trkpt lat="44.11736" lon="3.64396">
        <ele>1015</ele>
        <time>2021-05-24T13:29:09Z</time>
      </trkpt>
      <trkpt lat="44.11738" lon="3.64395">
        <ele>1015</ele>
        <time>2021-05-24T13:29:12Z</time>
      </trkpt>
      <trkpt lat="44.1174" lon="3.64394">
        <ele>1015</ele>
        <time>2021-05-24T13:29:14Z</time>
      </trkpt>
      <trkpt lat="44.11743" lon="3.64393">
        <ele>1017</ele>
        <time>2021-05-24T13:29:17Z</time>
      </trkpt>
      <trkpt lat="44.11745" lon="3.64392">
        <ele>1017</ele>
        <time>2021-05-24T13:29:19Z</time>
      </trkpt>
      <trkpt lat="44.11747" lon="3.64391">
        <ele>1017</ele>
        <time>2021-05-24T13:29:21Z</time>
      </trkpt>
      <trkpt lat="44.11749" lon="3.6439">
        <ele>1017</ele>
        <time>2021-05-24T13:29:23Z</time>
      </trkpt>
      <trkpt lat="44.11751" lon="3.64389">
        <ele>1017</ele>
        <time>2021-05-24T13:29:26Z</time>
      </trkpt>
      <trkpt lat="44.11754" lon="3.64387">
        <ele>1017</ele>
        <time>2021-05-24T13:29:29Z</time>
      </trkpt>
      <trkpt lat="44.11755" lon="3.64386">
        <ele>1017</ele>
        <time>2021-05-24T13:29:31Z</time>
      </trkpt>
      <trkpt lat="44.11758" lon="3.64385">
        <ele>1017</ele>
        <time>2021-05-24T13:29:34Z</time>
      </trkpt>
      <trkpt lat="44.1176" lon="3.64384">
        <ele>1017</ele>
        <time>2021-05-24T13:29:36Z</time>
      </trkpt>
      <trkpt lat="44.11762" lon="3.64383">
        <ele>1017</ele>
        <time>2021-05-24T13:29:38Z</time>
      </trkpt>
      <trkpt lat="44.11765" lon="3.64382">
        <ele>1017</ele>
        <time>2021-05-24T13:29:41Z</time>
      </trkpt>
      <trkpt lat="44.11766" lon="3.64381">
        <ele>1017</ele>
        <time>2021-05-24T13:29:43Z</time>
      </trkpt>
      <trkpt lat="44.11768" lon="3.6438">
        <ele>1017</ele>
        <time>2021-05-24T13:29:45Z</time>
      </trkpt>
      <trkpt lat="44.11771" lon="3.6438">
        <ele>1020</ele>
        <time>2021-05-24T13:29:47Z</time>
      </trkpt>
      <trkpt lat="44.11773" lon="3.64379">
        <ele>1020</ele>
        <time>2021-05-24T13:29:50Z</time>
      </trkpt>
      <trkpt lat="44.11775" lon="3.64378">
        <ele>1020</ele>
        <time>2021-05-24T13:29:52Z</time>
      </trkpt>
      <trkpt lat="44.11778" lon="3.64376">
        <ele>1020</ele>
        <time>2021-05-24T13:29:55Z</time>
      </trkpt>
      <trkpt lat="44.1178" lon="3.64375">
        <ele>1022</ele>
        <time>2021-05-24T13:29:57Z</time>
      </trkpt>
      <trkpt lat="44.11782" lon="3.64374">
        <ele>1022</ele>
        <time>2021-05-24T13:29:59Z</time>
      </trkpt>
      <trkpt lat="44.11784" lon="3.64373">
        <ele>1022</ele>
        <time>2021-05-24T13:30:00Z</time>
      </trkpt>
      <trkpt lat="44.11785" lon="3.64372">
        <ele>1022</ele>
        <time>2021-05-24T13:30:03Z</time>
      </trkpt>
      <trkpt lat="44.11787" lon="3.64372">
        <ele>1022</ele>
        <time>2021-05-24T13:30:05Z</time>
      </trkpt>
      <trkpt lat="44.11789" lon="3.64371">
        <ele>1022</ele>
        <time>2021-05-24T13:30:07Z</time>
      </trkpt>
      <trkpt lat="44.11791" lon="3.6437">
        <ele>1022</ele>
        <time>2021-05-24T13:30:09Z</time>
      </trkpt>
      <trkpt lat="44.11794" lon="3.64369">
        <ele>1022</ele>
        <time>2021-05-24T13:30:11Z</time>
      </trkpt>
      <trkpt lat="44.11796" lon="3.64368">
        <ele>1022</ele>
        <time>2021-05-24T13:30:13Z</time>
      </trkpt>
      <trkpt lat="44.11798" lon="3.64366">
        <ele>1022</ele>
        <time>2021-05-24T13:30:15Z</time>
      </trkpt>
      <trkpt lat="44.118" lon="3.64365">
        <ele>1023</ele>
        <time>2021-05-24T13:30:17Z</time>
      </trkpt>
      <trkpt lat="44.11801" lon="3.64363">
        <ele>1023</ele>
        <time>2021-05-24T13:30:19Z</time>
      </trkpt>
      <trkpt lat="44.11803" lon="3.64362">
        <ele>1023</ele>
        <time>2021-05-24T13:30:21Z</time>
      </trkpt>
      <trkpt lat="44.11805" lon="3.6436">
        <ele>1023</ele>
        <time>2021-05-24T13:30:23Z</time>
      </trkpt>
      <trkpt lat="44.11807" lon="3.64359">
        <ele>1023</ele>
        <time>2021-05-24T13:30:25Z</time>
      </trkpt>
      <trkpt lat="44.11809" lon="3.64357">
        <ele>1023</ele>
        <time>2021-05-24T13:30:27Z</time>
      </trkpt>
      <trkpt lat="44.11811" lon="3.64356">
        <ele>1023</ele>
        <time>2021-05-24T13:30:29Z</time>
      </trkpt>
      <trkpt lat="44.11813" lon="3.64354">
        <ele>1023</ele>
        <time>2021-05-24T13:30:31Z</time>
      </trkpt>
      <trkpt lat="44.11815" lon="3.64352">
        <ele>1023</ele>
        <time>2021-05-24T13:30:33Z</time>
      </trkpt>
      <trkpt lat="44.11817" lon="3.6435">
        <ele>1023</ele>
        <time>2021-05-24T13:30:35Z</time>
      </trkpt>
      <trkpt lat="44.11819" lon="3.64349">
        <ele>1024</ele>
        <time>2021-05-24T13:30:37Z</time>
      </trkpt>
      <trkpt lat="44.11821" lon="3.64346">
        <ele>1024</ele>
        <time>2021-05-24T13:30:39Z</time>
      </trkpt>
      <trkpt lat="44.11822" lon="3.64344">
        <ele>1024</ele>
        <time>2021-05-24T13:30:41Z</time>
      </trkpt>
      <trkpt lat="44.11824" lon="3.64342">
        <ele>1024</ele>
        <time>2021-05-24T13:30:43Z</time>
      </trkpt>
      <trkpt lat="44.11826" lon="3.6434">
        <ele>1024</ele>
        <time>2021-05-24T13:30:45Z</time>
      </trkpt>
      <trkpt lat="44.11827" lon="3.64338">
        <ele>1024</ele>
        <time>2021-05-24T13:30:47Z</time>
      </trkpt>
      <trkpt lat="44.11829" lon="3.64336">
        <ele>1024</ele>
        <time>2021-05-24T13:30:49Z</time>
      </trkpt>
      <trkpt lat="44.11831" lon="3.64334">
        <ele>1024</ele>
        <time>2021-05-24T13:30:51Z</time>
      </trkpt>
      <trkpt lat="44.11833" lon="3.64332">
        <ele>1024</ele>
        <time>2021-05-24T13:30:53Z</time>
      </trkpt>
      <trkpt lat="44.11834" lon="3.6433">
        <ele>1024</ele>
        <time>2021-05-24T13:30:55Z</time>
      </trkpt>
      <trkpt lat="44.11836" lon="3.64328">
        <ele>1025</ele>
        <time>2021-05-24T13:30:57Z</time>
      </trkpt>
      <trkpt lat="44.11838" lon="3.64327">
        <ele>1025</ele>
        <time>2021-05-24T13:30:59Z</time>
      </trkpt>
      <trkpt lat="44.1184" lon="3.64324">
        <ele>1025</ele>
        <time>2021-05-24T13:31:01Z</time>
      </trkpt>
      <trkpt lat="44.11841" lon="3.64322">
        <ele>1025</ele>
        <time>2021-05-24T13:31:03Z</time>
      </trkpt>
      <trkpt lat="44.11843" lon="3.6432">
        <ele>1025</ele>
        <time>2021-05-24T13:31:05Z</time>
      </trkpt>
      <trkpt lat="44.11844" lon="3.64318">
        <ele>1025</ele>
        <time>2021-05-24T13:31:07Z</time>
      </trkpt>
      <trkpt lat="44.11845" lon="3.64315">
        <ele>1025</ele>
        <time>2021-05-24T13:31:09Z</time>
      </trkpt>
      <trkpt lat="44.11846" lon="3.64312">
        <ele>1025</ele>
        <time>2021-05-24T13:31:11Z</time>
      </trkpt>
      <trkpt lat="44.11847" lon="3.64308">
        <ele>1025</ele>
        <time>2021-05-24T13:31:13Z</time>
      </trkpt>
      <trkpt lat="44.11848" lon="3.64305">
        <ele>1025</ele>
        <time>2021-05-24T13:31:15Z</time>
      </trkpt>
      <trkpt lat="44.11849" lon="3.64302">
        <ele>1025</ele>
        <time>2021-05-24T13:31:17Z</time>
      </trkpt>
      <trkpt lat="44.11851" lon="3.64299">
        <ele>1025</ele>
        <time>2021-05-24T13:31:19Z</time>
      </trkpt>
      <trkpt lat="44.11852" lon="3.64297">
        <ele>1025</ele>
        <time>2021-05-24T13:31:21Z</time>
      </trkpt>
      <trkpt lat="44.11852" lon="3.64294">
        <ele>1025</ele>
        <time>2021-05-24T13:31:23Z</time>
      </trkpt>
      <trkpt lat="44.11853" lon="3.64291">
        <ele>1025</ele>
        <time>2021-05-24T13:31:25Z</time>
      </trkpt>
      <trkpt lat="44.11854" lon="3.64288">
        <ele>1025</ele>
        <time>2021-05-24T13:31:27Z</time>
      </trkpt>
      <trkpt lat="44.11855" lon="3.64285">
        <ele>1025</ele>
        <time>2021-05-24T13:31:29Z</time>
      </trkpt>
      <trkpt lat="44.11857" lon="3.64282">
        <ele>1025</ele>
        <time>2021-05-24T13:31:31Z</time>
      </trkpt>
      <trkpt lat="44.11857" lon="3.64279">
        <ele>1025</ele>
        <time>2021-05-24T13:31:33Z</time>
      </trkpt>
      <trkpt lat="44.11858" lon="3.64276">
        <ele>1025</ele>
        <time>2021-05-24T13:31:35Z</time>
      </trkpt>
      <trkpt lat="44.11859" lon="3.64273">
        <ele>1025</ele>
        <time>2021-05-24T13:31:37Z</time>
      </trkpt>
      <trkpt lat="44.1186" lon="3.6427">
        <ele>1025</ele>
        <time>2021-05-24T13:31:39Z</time>
      </trkpt>
      <trkpt lat="44.11861" lon="3.64267">
        <ele>1025</ele>
        <time>2021-05-24T13:31:41Z</time>
      </trkpt>
      <trkpt lat="44.11862" lon="3.64265">
        <ele>1025</ele>
        <time>2021-05-24T13:31:43Z</time>
      </trkpt>
      <trkpt lat="44.11863" lon="3.64262">
        <ele>1025</ele>
        <time>2021-05-24T13:31:45Z</time>
      </trkpt>
      <trkpt lat="44.11864" lon="3.64259">
        <ele>1025</ele>
        <time>2021-05-24T13:31:47Z</time>
      </trkpt>
      <trkpt lat="44.11865" lon="3.64256">
        <ele>1025</ele>
        <time>2021-05-24T13:31:49Z</time>
      </trkpt>
      <trkpt lat="44.11866" lon="3.64253">
        <ele>1025</ele>
        <time>2021-05-24T13:31:51Z</time>
      </trkpt>
      <trkpt lat="44.11867" lon="3.6425">
        <ele>1025</ele>
        <time>2021-05-24T13:31:53Z</time>
      </trkpt>
      <trkpt lat="44.11868" lon="3.64248">
        <ele>1025</ele>
        <time>2021-05-24T13:31:55Z</time>
      </trkpt>
      <trkpt lat="44.11869" lon="3.64245">
        <ele>1025</ele>
        <time>2021-05-24T13:31:57Z</time>
      </trkpt>
      <trkpt lat="44.1187" lon="3.64242">
        <ele>1025</ele>
        <time>2021-05-24T13:31:59Z</time>
      </trkpt>
      <trkpt lat="44.11871" lon="3.64239">
        <ele>1025</ele>
        <time>2021-05-24T13:32:01Z</time>
      </trkpt>
      <trkpt lat="44.11872" lon="3.64237">
        <ele>1025</ele>
        <time>2021-05-24T13:32:03Z</time>
      </trkpt>
      <trkpt lat="44.11874" lon="3.64234">
        <ele>1025</ele>
        <time>2021-05-24T13:32:05Z</time>
      </trkpt>
      <trkpt lat="44.11875" lon="3.64232">
        <ele>1025</ele>
        <time>2021-05-24T13:32:07Z</time>
      </trkpt>
      <trkpt lat="44.11876" lon="3.6423">
        <ele>1025</ele>
        <time>2021-05-24T13:32:09Z</time>
      </trkpt>
      <trkpt lat="44.11878" lon="3.64227">
        <ele>1025</ele>
        <time>2021-05-24T13:32:11Z</time>
      </trkpt>
      <trkpt lat="44.11879" lon="3.64225">
        <ele>1025</ele>
        <time>2021-05-24T13:32:13Z</time>
      </trkpt>
      <trkpt lat="44.11881" lon="3.64223">
        <ele>1025</ele>
        <time>2021-05-24T13:32:15Z</time>
      </trkpt>
      <trkpt lat="44.11882" lon="3.64221">
        <ele>1027</ele>
        <time>2021-05-24T13:32:17Z</time>
      </trkpt>
      <trkpt lat="44.11884" lon="3.64218">
        <ele>1027</ele>
        <time>2021-05-24T13:32:19Z</time>
      </trkpt>
      <trkpt lat="44.11885" lon="3.64217">
        <ele>1027</ele>
        <time>2021-05-24T13:32:21Z</time>
      </trkpt>
      <trkpt lat="44.11887" lon="3.64214">
        <ele>1027</ele>
        <time>2021-05-24T13:32:23Z</time>
      </trkpt>
      <trkpt lat="44.11889" lon="3.64212">
        <ele>1027</ele>
        <time>2021-05-24T13:32:25Z</time>
      </trkpt>
      <trkpt lat="44.1189" lon="3.6421">
        <ele>1027</ele>
        <time>2021-05-24T13:32:27Z</time>
      </trkpt>
      <trkpt lat="44.11892" lon="3.64208">
        <ele>1027</ele>
        <time>2021-05-24T13:32:29Z</time>
      </trkpt>
      <trkpt lat="44.11894" lon="3.64206">
        <ele>1027</ele>
        <time>2021-05-24T13:32:31Z</time>
      </trkpt>
      <trkpt lat="44.11895" lon="3.64204">
        <ele>1027</ele>
        <time>2021-05-24T13:32:33Z</time>
      </trkpt>
      <trkpt lat="44.11897" lon="3.64203">
        <ele>1027</ele>
        <time>2021-05-24T13:32:35Z</time>
      </trkpt>
      <trkpt lat="44.11899" lon="3.64201">
        <ele>1027</ele>
        <time>2021-05-24T13:32:37Z</time>
      </trkpt>
      <trkpt lat="44.11901" lon="3.642">
        <ele>1027</ele>
        <time>2021-05-24T13:32:39Z</time>
      </trkpt>
      <trkpt lat="44.11902" lon="3.64198">
        <ele>1027</ele>
        <time>2021-05-24T13:32:41Z</time>
      </trkpt>
      <trkpt lat="44.11904" lon="3.64197">
        <ele>1027</ele>
        <time>2021-05-24T13:32:43Z</time>
      </trkpt>
      <trkpt lat="44.11906" lon="3.64196">
        <ele>1027</ele>
        <time>2021-05-24T13:32:45Z</time>
      </trkpt>
      <trkpt lat="44.11908" lon="3.64194">
        <ele>1028</ele>
        <time>2021-05-24T13:32:47Z</time>
      </trkpt>
      <trkpt lat="44.11909" lon="3.64192">
        <ele>1028</ele>
        <time>2021-05-24T13:32:49Z</time>
      </trkpt>
      <trkpt lat="44.1191" lon="3.64191">
        <ele>1028</ele>
        <time>2021-05-24T13:32:51Z</time>
      </trkpt>
      <trkpt lat="44.11912" lon="3.64189">
        <ele>1028</ele>
        <time>2021-05-24T13:32:53Z</time>
      </trkpt>
      <trkpt lat="44.11913" lon="3.64187">
        <ele>1028</ele>
        <time>2021-05-24T13:32:55Z</time>
      </trkpt>
      <trkpt lat="44.11915" lon="3.64186">
        <ele>1029</ele>
        <time>2021-05-24T13:32:57Z</time>
      </trkpt>
      <trkpt lat="44.11917" lon="3.64185">
        <ele>1029</ele>
        <time>2021-05-24T13:32:59Z</time>
      </trkpt>
      <trkpt lat="44.11919" lon="3.64183">
        <ele>1029</ele>
        <time>2021-05-24T13:33:02Z</time>
      </trkpt>
      <trkpt lat="44.11921" lon="3.64181">
        <ele>1029</ele>
        <time>2021-05-24T13:33:04Z</time>
      </trkpt>
      <trkpt lat="44.11923" lon="3.6418">
        <ele>1029</ele>
        <time>2021-05-24T13:33:06Z</time>
      </trkpt>
      <trkpt lat="44.11924" lon="3.64178">
        <ele>1029</ele>
        <time>2021-05-24T13:33:08Z</time>
      </trkpt>
      <trkpt lat="44.11925" lon="3.64175">
        <ele>1029</ele>
        <time>2021-05-24T13:33:09Z</time>
      </trkpt>
      <trkpt lat="44.11926" lon="3.64173">
        <ele>1029</ele>
        <time>2021-05-24T13:33:12Z</time>
      </trkpt>
      <trkpt lat="44.11927" lon="3.6417">
        <ele>1029</ele>
        <time>2021-05-24T13:33:14Z</time>
      </trkpt>
      <trkpt lat="44.11929" lon="3.64168">
        <ele>1029</ele>
        <time>2021-05-24T13:33:16Z</time>
      </trkpt>
      <trkpt lat="44.1193" lon="3.64167">
        <ele>1029</ele>
        <time>2021-05-24T13:33:18Z</time>
      </trkpt>
      <trkpt lat="44.11933" lon="3.64165">
        <ele>1029</ele>
        <time>2021-05-24T13:33:21Z</time>
      </trkpt>
      <trkpt lat="44.11934" lon="3.64163">
        <ele>1029</ele>
        <time>2021-05-24T13:33:23Z</time>
      </trkpt>
      <trkpt lat="44.11936" lon="3.64161">
        <ele>1029</ele>
        <time>2021-05-24T13:33:26Z</time>
      </trkpt>
      <trkpt lat="44.11938" lon="3.6416">
        <ele>1029</ele>
        <time>2021-05-24T13:33:28Z</time>
      </trkpt>
      <trkpt lat="44.1194" lon="3.64159">
        <ele>1029</ele>
        <time>2021-05-24T13:33:31Z</time>
      </trkpt>
      <trkpt lat="44.11942" lon="3.64157">
        <ele>1029</ele>
        <time>2021-05-24T13:33:33Z</time>
      </trkpt>
      <trkpt lat="44.11944" lon="3.64156">
        <ele>1029</ele>
        <time>2021-05-24T13:33:36Z</time>
      </trkpt>
      <trkpt lat="44.11946" lon="3.64154">
        <ele>1029</ele>
        <time>2021-05-24T13:33:38Z</time>
      </trkpt>
      <trkpt lat="44.11948" lon="3.64153">
        <ele>1029</ele>
        <time>2021-05-24T13:33:40Z</time>
      </trkpt>
      <trkpt lat="44.1195" lon="3.64151">
        <ele>1029</ele>
        <time>2021-05-24T13:33:43Z</time>
      </trkpt>
      <trkpt lat="44.11952" lon="3.6415">
        <ele>1029</ele>
        <time>2021-05-24T13:33:45Z</time>
      </trkpt>
      <trkpt lat="44.11954" lon="3.64148">
        <ele>1034</ele>
        <time>2021-05-24T13:33:47Z</time>
      </trkpt>
      <trkpt lat="44.11955" lon="3.64147">
        <ele>1034</ele>
        <time>2021-05-24T13:33:49Z</time>
      </trkpt>
      <trkpt lat="44.11957" lon="3.64145">
        <ele>1034</ele>
        <time>2021-05-24T13:33:51Z</time>
      </trkpt>
      <trkpt lat="44.11959" lon="3.64144">
        <ele>1034</ele>
        <time>2021-05-24T13:33:53Z</time>
      </trkpt>
      <trkpt lat="44.11961" lon="3.64142">
        <ele>1034</ele>
        <time>2021-05-24T13:33:55Z</time>
      </trkpt>
      <trkpt lat="44.11963" lon="3.6414">
        <ele>1034</ele>
        <time>2021-05-24T13:33:57Z</time>
      </trkpt>
      <trkpt lat="44.11964" lon="3.64138">
        <ele>1034</ele>
        <time>2021-05-24T13:33:59Z</time>
      </trkpt>
      <trkpt lat="44.11966" lon="3.64137">
        <ele>1034</ele>
        <time>2021-05-24T13:34:01Z</time>
      </trkpt>
      <trkpt lat="44.11968" lon="3.64136">
        <ele>1034</ele>
        <time>2021-05-24T13:34:03Z</time>
      </trkpt>
      <trkpt lat="44.1197" lon="3.64133">
        <ele>1034</ele>
        <time>2021-05-24T13:34:05Z</time>
      </trkpt>
      <trkpt lat="44.11971" lon="3.64132">
        <ele>1035</ele>
        <time>2021-05-24T13:34:07Z</time>
      </trkpt>
      <trkpt lat="44.11973" lon="3.6413">
        <ele>1035</ele>
        <time>2021-05-24T13:34:09Z</time>
      </trkpt>
      <trkpt lat="44.11974" lon="3.64128">
        <ele>1035</ele>
        <time>2021-05-24T13:34:11Z</time>
      </trkpt>
      <trkpt lat="44.11976" lon="3.64126">
        <ele>1035</ele>
        <time>2021-05-24T13:34:13Z</time>
      </trkpt>
      <trkpt lat="44.11977" lon="3.64124">
        <ele>1035</ele>
        <time>2021-05-24T13:34:15Z</time>
      </trkpt>
      <trkpt lat="44.11979" lon="3.64121">
        <ele>1036</ele>
        <time>2021-05-24T13:34:17Z</time>
      </trkpt>
      <trkpt lat="44.1198" lon="3.64119">
        <ele>1036</ele>
        <time>2021-05-24T13:34:19Z</time>
      </trkpt>
      <trkpt lat="44.11982" lon="3.64117">
        <ele>1036</ele>
        <time>2021-05-24T13:34:21Z</time>
      </trkpt>
      <trkpt lat="44.11984" lon="3.64116">
        <ele>1036</ele>
        <time>2021-05-24T13:34:23Z</time>
      </trkpt>
      <trkpt lat="44.11985" lon="3.64114">
        <ele>1036</ele>
        <time>2021-05-24T13:34:25Z</time>
      </trkpt>
      <trkpt lat="44.11987" lon="3.64111">
        <ele>1037</ele>
        <time>2021-05-24T13:34:27Z</time>
      </trkpt>
      <trkpt lat="44.11989" lon="3.64109">
        <ele>1037</ele>
        <time>2021-05-24T13:34:29Z</time>
      </trkpt>
      <trkpt lat="44.1199" lon="3.64108">
        <ele>1037</ele>
        <time>2021-05-24T13:34:31Z</time>
      </trkpt>
      <trkpt lat="44.11992" lon="3.64106">
        <ele>1037</ele>
        <time>2021-05-24T13:34:33Z</time>
      </trkpt>
      <trkpt lat="44.11993" lon="3.64104">
        <ele>1037</ele>
        <time>2021-05-24T13:34:35Z</time>
      </trkpt>
      <trkpt lat="44.11995" lon="3.64102">
        <ele>1039</ele>
        <time>2021-05-24T13:34:37Z</time>
      </trkpt>
      <trkpt lat="44.11996" lon="3.641">
        <ele>1039</ele>
        <time>2021-05-24T13:34:39Z</time>
      </trkpt>
      <trkpt lat="44.11998" lon="3.64098">
        <ele>1039</ele>
        <time>2021-05-24T13:34:41Z</time>
      </trkpt>
      <trkpt lat="44.11999" lon="3.64096">
        <ele>1039</ele>
        <time>2021-05-24T13:34:43Z</time>
      </trkpt>
      <trkpt lat="44.12" lon="3.64094">
        <ele>1039</ele>
        <time>2021-05-24T13:34:45Z</time>
      </trkpt>
      <trkpt lat="44.12002" lon="3.64091">
        <ele>1040</ele>
        <time>2021-05-24T13:34:47Z</time>
      </trkpt>
      <trkpt lat="44.12003" lon="3.64088">
        <ele>1040</ele>
        <time>2021-05-24T13:34:49Z</time>
      </trkpt>
      <trkpt lat="44.12004" lon="3.64086">
        <ele>1040</ele>
        <time>2021-05-24T13:34:51Z</time>
      </trkpt>
      <trkpt lat="44.12005" lon="3.64083">
        <ele>1040</ele>
        <time>2021-05-24T13:34:53Z</time>
      </trkpt>
      <trkpt lat="44.12006" lon="3.64081">
        <ele>1040</ele>
        <time>2021-05-24T13:34:55Z</time>
      </trkpt>
      <trkpt lat="44.1201" lon="3.64068">
        <ele>1040</ele>
        <time>2021-05-24T13:35:02Z</time>
      </trkpt>
      <trkpt lat="44.12014" lon="3.64056">
        <ele>1040</ele>
        <time>2021-05-24T13:35:10Z</time>
      </trkpt>
      <trkpt lat="44.12016" lon="3.64043">
        <ele>1040</ele>
        <time>2021-05-24T13:35:19Z</time>
      </trkpt>
      <trkpt lat="44.12021" lon="3.64031">
        <ele>1040</ele>
        <time>2021-05-24T13:35:28Z</time>
      </trkpt>
      <trkpt lat="44.12026" lon="3.64019">
        <ele>1040</ele>
        <time>2021-05-24T13:35:39Z</time>
      </trkpt>
      <trkpt lat="44.12027" lon="3.64006">
        <ele>1040</ele>
        <time>2021-05-24T13:35:49Z</time>
      </trkpt>
      <trkpt lat="44.12028" lon="3.63993">
        <ele>1040</ele>
        <time>2021-05-24T13:35:59Z</time>
      </trkpt>
      <trkpt lat="44.12029" lon="3.6398">
        <ele>1044</ele>
        <time>2021-05-24T13:36:07Z</time>
      </trkpt>
      <trkpt lat="44.12029" lon="3.63967">
        <ele>1044</ele>
        <time>2021-05-24T13:36:16Z</time>
      </trkpt>
      <trkpt lat="44.12031" lon="3.63954">
        <ele>1044</ele>
        <time>2021-05-24T13:36:25Z</time>
      </trkpt>
      <trkpt lat="44.12033" lon="3.63941">
        <ele>1046</ele>
        <time>2021-05-24T13:36:37Z</time>
      </trkpt>
      <trkpt lat="44.12032" lon="3.63927">
        <ele>1047</ele>
        <time>2021-05-24T13:36:47Z</time>
      </trkpt>
      <trkpt lat="44.12032" lon="3.63913">
        <ele>1047</ele>
        <time>2021-05-24T13:36:56Z</time>
      </trkpt>
      <trkpt lat="44.12032" lon="3.63898">
        <ele>1047</ele>
        <time>2021-05-24T13:37:04Z</time>
      </trkpt>
      <trkpt lat="44.12035" lon="3.63885">
        <ele>1047</ele>
        <time>2021-05-24T13:37:19Z</time>
      </trkpt>
      <trkpt lat="44.12042" lon="3.63878">
        <ele>1047</ele>
        <time>2021-05-24T13:37:28Z</time>
      </trkpt>
      <trkpt lat="44.12049" lon="3.6387">
        <ele>1047</ele>
        <time>2021-05-24T13:37:36Z</time>
      </trkpt>
      <trkpt lat="44.12056" lon="3.63862">
        <ele>1047</ele>
        <time>2021-05-24T13:37:45Z</time>
      </trkpt>
      <trkpt lat="44.12062" lon="3.63849">
        <ele>1047</ele>
        <time>2021-05-24T13:37:54Z</time>
      </trkpt>
      <trkpt lat="44.12068" lon="3.6384">
        <ele>1047</ele>
        <time>2021-05-24T13:38:03Z</time>
      </trkpt>
      <trkpt lat="44.12075" lon="3.63831">
        <ele>1047</ele>
        <time>2021-05-24T13:38:12Z</time>
      </trkpt>
      <trkpt lat="44.12081" lon="3.63821">
        <ele>1047</ele>
        <time>2021-05-24T13:38:21Z</time>
      </trkpt>
      <trkpt lat="44.12087" lon="3.63811">
        <ele>1047</ele>
        <time>2021-05-24T13:38:29Z</time>
      </trkpt>
      <trkpt lat="44.12092" lon="3.638">
        <ele>1047</ele>
        <time>2021-05-24T13:38:52Z</time>
      </trkpt>
      <trkpt lat="44.12094" lon="3.63797">
        <ele>1047</ele>
        <time>2021-05-24T13:38:55Z</time>
      </trkpt>
      <trkpt lat="44.12095" lon="3.63795">
        <ele>1047</ele>
        <time>2021-05-24T13:38:58Z</time>
      </trkpt>
      <trkpt lat="44.12097" lon="3.63793">
        <ele>1047</ele>
        <time>2021-05-24T13:39:00Z</time>
      </trkpt>
      <trkpt lat="44.12099" lon="3.63792">
        <ele>1047</ele>
        <time>2021-05-24T13:39:02Z</time>
      </trkpt>
      <trkpt lat="44.121" lon="3.63789">
        <ele>1047</ele>
        <time>2021-05-24T13:39:04Z</time>
      </trkpt>
      <trkpt lat="44.12101" lon="3.63787">
        <ele>1053</ele>
        <time>2021-05-24T13:39:07Z</time>
      </trkpt>
      <trkpt lat="44.12103" lon="3.63785">
        <ele>1053</ele>
        <time>2021-05-24T13:39:09Z</time>
      </trkpt>
      <trkpt lat="44.12104" lon="3.63783">
        <ele>1053</ele>
        <time>2021-05-24T13:39:11Z</time>
      </trkpt>
      <trkpt lat="44.12105" lon="3.6378">
        <ele>1053</ele>
        <time>2021-05-24T13:39:13Z</time>
      </trkpt>
      <trkpt lat="44.12106" lon="3.63777">
        <ele>1053</ele>
        <time>2021-05-24T13:39:23Z</time>
      </trkpt>
      <trkpt lat="44.12108" lon="3.63775">
        <ele>1053</ele>
        <time>2021-05-24T13:39:25Z</time>
      </trkpt>
      <trkpt lat="44.12109" lon="3.63773">
        <ele>1053</ele>
        <time>2021-05-24T13:39:30Z</time>
      </trkpt>
      <trkpt lat="44.12111" lon="3.63771">
        <ele>1053</ele>
        <time>2021-05-24T13:39:32Z</time>
      </trkpt>
      <trkpt lat="44.12112" lon="3.63768">
        <ele>1053</ele>
        <time>2021-05-24T13:39:36Z</time>
      </trkpt>
      <trkpt lat="44.12114" lon="3.63766">
        <ele>1053</ele>
        <time>2021-05-24T13:39:39Z</time>
      </trkpt>
      <trkpt lat="44.12115" lon="3.63764">
        <ele>1053</ele>
        <time>2021-05-24T13:39:41Z</time>
      </trkpt>
      <trkpt lat="44.12117" lon="3.63762">
        <ele>1053</ele>
        <time>2021-05-24T13:39:44Z</time>
      </trkpt>
      <trkpt lat="44.12119" lon="3.6376">
        <ele>1053</ele>
        <time>2021-05-24T13:39:46Z</time>
      </trkpt>
      <trkpt lat="44.1212" lon="3.63758">
        <ele>1055</ele>
        <time>2021-05-24T13:39:47Z</time>
      </trkpt>
      <trkpt lat="44.12122" lon="3.63755">
        <ele>1055</ele>
        <time>2021-05-24T13:39:49Z</time>
      </trkpt>
      <trkpt lat="44.12123" lon="3.63754">
        <ele>1055</ele>
        <time>2021-05-24T13:39:51Z</time>
      </trkpt>
      <trkpt lat="44.12125" lon="3.63752">
        <ele>1055</ele>
        <time>2021-05-24T13:39:53Z</time>
      </trkpt>
      <trkpt lat="44.12127" lon="3.6375">
        <ele>1055</ele>
        <time>2021-05-24T13:39:55Z</time>
      </trkpt>
      <trkpt lat="44.12128" lon="3.63749">
        <ele>1055</ele>
        <time>2021-05-24T13:39:58Z</time>
      </trkpt>
      <trkpt lat="44.1213" lon="3.63747">
        <ele>1055</ele>
        <time>2021-05-24T13:40:00Z</time>
      </trkpt>
      <trkpt lat="44.12131" lon="3.63745">
        <ele>1055</ele>
        <time>2021-05-24T13:40:02Z</time>
      </trkpt>
      <trkpt lat="44.12132" lon="3.63743">
        <ele>1055</ele>
        <time>2021-05-24T13:40:04Z</time>
      </trkpt>
      <trkpt lat="44.12134" lon="3.6374">
        <ele>1058</ele>
        <time>2021-05-24T13:40:07Z</time>
      </trkpt>
      <trkpt lat="44.12135" lon="3.63738">
        <ele>1058</ele>
        <time>2021-05-24T13:40:10Z</time>
      </trkpt>
      <trkpt lat="44.12137" lon="3.63736">
        <ele>1058</ele>
        <time>2021-05-24T13:40:13Z</time>
      </trkpt>
      <trkpt lat="44.12139" lon="3.63734">
        <ele>1058</ele>
        <time>2021-05-24T13:40:16Z</time>
      </trkpt>
      <trkpt lat="44.12147" lon="3.63729">
        <ele>1058</ele>
        <time>2021-05-24T13:40:25Z</time>
      </trkpt>
      <trkpt lat="44.12155" lon="3.63719">
        <ele>1058</ele>
        <time>2021-05-24T13:40:34Z</time>
      </trkpt>
      <trkpt lat="44.1216" lon="3.63708">
        <ele>1058</ele>
        <time>2021-05-24T13:40:43Z</time>
      </trkpt>
      <trkpt lat="44.12169" lon="3.63703">
        <ele>1058</ele>
        <time>2021-05-24T13:40:51Z</time>
      </trkpt>
      <trkpt lat="44.12178" lon="3.637">
        <ele>1058</ele>
        <time>2021-05-24T13:41:01Z</time>
      </trkpt>
      <trkpt lat="44.12187" lon="3.63695">
        <ele>1058</ele>
        <time>2021-05-24T13:41:10Z</time>
      </trkpt>
      <trkpt lat="44.12195" lon="3.63688">
        <ele>1058</ele>
        <time>2021-05-24T13:41:20Z</time>
      </trkpt>
      <trkpt lat="44.12204" lon="3.63682">
        <ele>1058</ele>
        <time>2021-05-24T13:41:28Z</time>
      </trkpt>
      <trkpt lat="44.1221" lon="3.63672">
        <ele>1058</ele>
        <time>2021-05-24T13:41:38Z</time>
      </trkpt>
      <trkpt lat="44.12217" lon="3.63662">
        <ele>1068</ele>
        <time>2021-05-24T13:41:47Z</time>
      </trkpt>
      <trkpt lat="44.12224" lon="3.63654">
        <ele>1068</ele>
        <time>2021-05-24T13:41:56Z</time>
      </trkpt>
      <trkpt lat="44.1223" lon="3.63645">
        <ele>1068</ele>
        <time>2021-05-24T13:42:06Z</time>
      </trkpt>
      <trkpt lat="44.12236" lon="3.63634">
        <ele>1068</ele>
        <time>2021-05-24T13:42:14Z</time>
      </trkpt>
      <trkpt lat="44.12244" lon="3.63627">
        <ele>1068</ele>
        <time>2021-05-24T13:42:20Z</time>
      </trkpt>
      <trkpt lat="44.12252" lon="3.63621">
        <ele>1068</ele>
        <time>2021-05-24T13:42:26Z</time>
      </trkpt>
      <trkpt lat="44.12261" lon="3.63619">
        <ele>1068</ele>
        <time>2021-05-24T13:42:34Z</time>
      </trkpt>
      <trkpt lat="44.12269" lon="3.63614">
        <ele>1068</ele>
        <time>2021-05-24T13:42:45Z</time>
      </trkpt>
      <trkpt lat="44.12276" lon="3.63605">
        <ele>1068</ele>
        <time>2021-05-24T13:42:55Z</time>
      </trkpt>
      <trkpt lat="44.12284" lon="3.63597">
        <ele>1068</ele>
        <time>2021-05-24T13:43:02Z</time>
      </trkpt>
      <trkpt lat="44.12291" lon="3.63589">
        <ele>1068</ele>
        <time>2021-05-24T13:43:11Z</time>
      </trkpt>
      <trkpt lat="44.12298" lon="3.63581">
        <ele>1072</ele>
        <time>2021-05-24T13:43:17Z</time>
      </trkpt>
      <trkpt lat="44.12304" lon="3.63572">
        <ele>1072</ele>
        <time>2021-05-24T13:43:24Z</time>
      </trkpt>
      <trkpt lat="44.12312" lon="3.63562">
        <ele>1072</ele>
        <time>2021-05-24T13:43:31Z</time>
      </trkpt>
      <trkpt lat="44.12318" lon="3.63551">
        <ele>1072</ele>
        <time>2021-05-24T13:43:39Z</time>
      </trkpt>
      <trkpt lat="44.12323" lon="3.63539">
        <ele>1072</ele>
        <time>2021-05-24T13:43:48Z</time>
      </trkpt>
      <trkpt lat="44.1233" lon="3.63532">
        <ele>1072</ele>
        <time>2021-05-24T13:43:57Z</time>
      </trkpt>
      <trkpt lat="44.12338" lon="3.63523">
        <ele>1072</ele>
        <time>2021-05-24T13:44:05Z</time>
      </trkpt>
      <trkpt lat="44.12348" lon="3.6352">
        <ele>1072</ele>
        <time>2021-05-24T13:44:14Z</time>
      </trkpt>
      <trkpt lat="44.12358" lon="3.6352">
        <ele>1072</ele>
        <time>2021-05-24T13:44:21Z</time>
      </trkpt>
      <trkpt lat="44.12367" lon="3.63515">
        <ele>1072</ele>
        <time>2021-05-24T13:44:30Z</time>
      </trkpt>
      <trkpt lat="44.12374" lon="3.63506">
        <ele>1074</ele>
        <time>2021-05-24T13:44:37Z</time>
      </trkpt>
      <trkpt lat="44.12383" lon="3.63502">
        <ele>1074</ele>
        <time>2021-05-24T13:44:45Z</time>
      </trkpt>
      <trkpt lat="44.12392" lon="3.63499">
        <ele>1074</ele>
        <time>2021-05-24T13:44:52Z</time>
      </trkpt>
      <trkpt lat="44.12403" lon="3.63496">
        <ele>1074</ele>
        <time>2021-05-24T13:45:00Z</time>
      </trkpt>
      <trkpt lat="44.12411" lon="3.63491">
        <ele>1074</ele>
        <time>2021-05-24T13:45:08Z</time>
      </trkpt>
      <trkpt lat="44.12418" lon="3.63483">
        <ele>1074</ele>
        <time>2021-05-24T13:45:15Z</time>
      </trkpt>
      <trkpt lat="44.12425" lon="3.63474">
        <ele>1074</ele>
        <time>2021-05-24T13:45:23Z</time>
      </trkpt>
      <trkpt lat="44.12434" lon="3.63467">
        <ele>1074</ele>
        <time>2021-05-24T13:45:31Z</time>
      </trkpt>
      <trkpt lat="44.12443" lon="3.63461">
        <ele>1074</ele>
        <time>2021-05-24T13:45:38Z</time>
      </trkpt>
      <trkpt lat="44.12453" lon="3.63457">
        <ele>1074</ele>
        <time>2021-05-24T13:45:45Z</time>
      </trkpt>
      <trkpt lat="44.1246" lon="3.63447">
        <ele>1074</ele>
        <time>2021-05-24T13:45:52Z</time>
      </trkpt>
      <trkpt lat="44.12468" lon="3.63441">
        <ele>1074</ele>
        <time>2021-05-24T13:46:00Z</time>
      </trkpt>
      <trkpt lat="44.12476" lon="3.63434">
        <ele>1074</ele>
        <time>2021-05-24T13:46:06Z</time>
      </trkpt>
      <trkpt lat="44.12486" lon="3.63431">
        <ele>1074</ele>
        <time>2021-05-24T13:46:13Z</time>
      </trkpt>
      <trkpt lat="44.12494" lon="3.63424">
        <ele>1074</ele>
        <time>2021-05-24T13:46:21Z</time>
      </trkpt>
      <trkpt lat="44.12502" lon="3.63416">
        <ele>1075</ele>
        <time>2021-05-24T13:46:27Z</time>
      </trkpt>
      <trkpt lat="44.1251" lon="3.63411">
        <ele>1075</ele>
        <time>2021-05-24T13:46:35Z</time>
      </trkpt>
      <trkpt lat="44.12519" lon="3.63406">
        <ele>1075</ele>
        <time>2021-05-24T13:46:44Z</time>
      </trkpt>
      <trkpt lat="44.12528" lon="3.63403">
        <ele>1075</ele>
        <time>2021-05-24T13:46:50Z</time>
      </trkpt>
      <trkpt lat="44.12536" lon="3.63396">
        <ele>1076</ele>
        <time>2021-05-24T13:46:57Z</time>
      </trkpt>
      <trkpt lat="44.12543" lon="3.63389">
        <ele>1076</ele>
        <time>2021-05-24T13:47:05Z</time>
      </trkpt>
      <trkpt lat="44.12545" lon="3.63384">
        <ele>1076</ele>
        <time>2021-05-24T13:47:19Z</time>
      </trkpt>
      <trkpt lat="44.12547" lon="3.63381">
        <ele>1076</ele>
        <time>2021-05-24T13:47:23Z</time>
      </trkpt>
      <trkpt lat="44.12548" lon="3.63379">
        <ele>1076</ele>
        <time>2021-05-24T13:47:25Z</time>
      </trkpt>
      <trkpt lat="44.1255" lon="3.63376">
        <ele>1076</ele>
        <time>2021-05-24T13:47:28Z</time>
      </trkpt>
      <trkpt lat="44.12551" lon="3.63375">
        <ele>1076</ele>
        <time>2021-05-24T13:47:30Z</time>
      </trkpt>
      <trkpt lat="44.12553" lon="3.63374">
        <ele>1076</ele>
        <time>2021-05-24T13:47:32Z</time>
      </trkpt>
      <trkpt lat="44.12555" lon="3.63372">
        <ele>1076</ele>
        <time>2021-05-24T13:48:20Z</time>
      </trkpt>
      <trkpt lat="44.12555" lon="3.6337">
        <ele>1076</ele>
        <time>2021-05-24T13:48:25Z</time>
      </trkpt>
      <trkpt lat="44.12553" lon="3.63383">
        <ele>1076</ele>
        <time>2021-05-24T13:48:41Z</time>
      </trkpt>
      <trkpt lat="44.12554" lon="3.63396">
        <ele>1076</ele>
        <time>2021-05-24T13:48:59Z</time>
      </trkpt>
      <trkpt lat="44.12554" lon="3.63405">
        <ele>1079</ele>
        <time>2021-05-24T13:49:14Z</time>
      </trkpt>
      <trkpt lat="44.12546" lon="3.63364">
        <ele>1079</ele>
        <time>2021-05-24T14:50:21Z</time>
      </trkpt>
      <trkpt lat="44.12543" lon="3.63351">
        <ele>1079</ele>
        <time>2021-05-24T14:50:30Z</time>
      </trkpt>
      <trkpt lat="44.1254" lon="3.63339">
        <ele>1079</ele>
        <time>2021-05-24T14:50:37Z</time>
      </trkpt>
      <trkpt lat="44.12539" lon="3.63325">
        <ele>1079</ele>
        <time>2021-05-24T14:50:44Z</time>
      </trkpt>
      <trkpt lat="44.12539" lon="3.63313">
        <ele>1079</ele>
        <time>2021-05-24T14:50:56Z</time>
      </trkpt>
      <trkpt lat="44.1254" lon="3.63298">
        <ele>1079</ele>
        <time>2021-05-24T14:51:04Z</time>
      </trkpt>
      <trkpt lat="44.12541" lon="3.63285">
        <ele>1079</ele>
        <time>2021-05-24T14:51:12Z</time>
      </trkpt>
      <trkpt lat="44.1254" lon="3.63272">
        <ele>1079</ele>
        <time>2021-05-24T14:51:20Z</time>
      </trkpt>
      <trkpt lat="44.12539" lon="3.63259">
        <ele>1079</ele>
        <time>2021-05-24T14:51:30Z</time>
      </trkpt>
      <trkpt lat="44.12538" lon="3.63247">
        <ele>1079</ele>
        <time>2021-05-24T14:51:39Z</time>
      </trkpt>
      <trkpt lat="44.12539" lon="3.63233">
        <ele>1079</ele>
        <time>2021-05-24T14:51:46Z</time>
      </trkpt>
      <trkpt lat="44.1254" lon="3.6322">
        <ele>1079</ele>
        <time>2021-05-24T14:51:54Z</time>
      </trkpt>
      <trkpt lat="44.1254" lon="3.63207">
        <ele>1079</ele>
        <time>2021-05-24T14:52:04Z</time>
      </trkpt>
      <trkpt lat="44.12541" lon="3.63193">
        <ele>1091</ele>
        <time>2021-05-24T14:52:13Z</time>
      </trkpt>
      <trkpt lat="44.12541" lon="3.63178">
        <ele>1091</ele>
        <time>2021-05-24T14:52:22Z</time>
      </trkpt>
      <trkpt lat="44.12548" lon="3.63157">
        <ele>1091</ele>
        <time>2021-05-24T14:52:38Z</time>
      </trkpt>
      <trkpt lat="44.12552" lon="3.63147">
        <ele>1091</ele>
        <time>2021-05-24T14:52:42Z</time>
      </trkpt>
      <trkpt lat="44.12552" lon="3.63144">
        <ele>1092</ele>
        <time>2021-05-24T14:52:43Z</time>
      </trkpt>
      <trkpt lat="44.12554" lon="3.63143">
        <ele>1092</ele>
        <time>2021-05-24T14:52:45Z</time>
      </trkpt>
      <trkpt lat="44.12555" lon="3.63141">
        <ele>1092</ele>
        <time>2021-05-24T14:52:47Z</time>
      </trkpt>
      <trkpt lat="44.12557" lon="3.63139">
        <ele>1092</ele>
        <time>2021-05-24T14:52:50Z</time>
      </trkpt>
      <trkpt lat="44.12558" lon="3.63137">
        <ele>1092</ele>
        <time>2021-05-24T14:52:52Z</time>
      </trkpt>
      <trkpt lat="44.1256" lon="3.63136">
        <ele>1092</ele>
        <time>2021-05-24T14:52:54Z</time>
      </trkpt>
      <trkpt lat="44.12563" lon="3.63134">
        <ele>1092</ele>
        <time>2021-05-24T14:52:57Z</time>
      </trkpt>
      <trkpt lat="44.1257" lon="3.63129">
        <ele>1093</ele>
        <time>2021-05-24T14:53:03Z</time>
      </trkpt>
      <trkpt lat="44.12572" lon="3.63129">
        <ele>1093</ele>
        <time>2021-05-24T14:53:05Z</time>
      </trkpt>
      <trkpt lat="44.12574" lon="3.63128">
        <ele>1093</ele>
        <time>2021-05-24T14:53:07Z</time>
      </trkpt>
      <trkpt lat="44.12575" lon="3.63126">
        <ele>1093</ele>
        <time>2021-05-24T14:53:09Z</time>
      </trkpt>
      <trkpt lat="44.12577" lon="3.63123">
        <ele>1093</ele>
        <time>2021-05-24T14:53:12Z</time>
      </trkpt>
      <trkpt lat="44.12577" lon="3.6312">
        <ele>1093</ele>
        <time>2021-05-24T14:53:14Z</time>
      </trkpt>
      <trkpt lat="44.12578" lon="3.63117">
        <ele>1093</ele>
        <time>2021-05-24T14:53:16Z</time>
      </trkpt>
      <trkpt lat="44.1258" lon="3.63115">
        <ele>1093</ele>
        <time>2021-05-24T14:53:19Z</time>
      </trkpt>
      <trkpt lat="44.12581" lon="3.63112">
        <ele>1093</ele>
        <time>2021-05-24T14:53:22Z</time>
      </trkpt>
      <trkpt lat="44.12581" lon="3.63109">
        <ele>1093</ele>
        <time>2021-05-24T14:53:25Z</time>
      </trkpt>
      <trkpt lat="44.1258" lon="3.63106">
        <ele>1093</ele>
        <time>2021-05-24T14:53:28Z</time>
      </trkpt>
      <trkpt lat="44.1258" lon="3.63103">
        <ele>1093</ele>
        <time>2021-05-24T14:53:31Z</time>
      </trkpt>
      <trkpt lat="44.1258" lon="3.631">
        <ele>1095</ele>
        <time>2021-05-24T14:53:33Z</time>
      </trkpt>
      <trkpt lat="44.12579" lon="3.63097">
        <ele>1095</ele>
        <time>2021-05-24T14:53:36Z</time>
      </trkpt>
      <trkpt lat="44.12579" lon="3.63094">
        <ele>1095</ele>
        <time>2021-05-24T14:53:38Z</time>
      </trkpt>
      <trkpt lat="44.12578" lon="3.63092">
        <ele>1095</ele>
        <time>2021-05-24T14:53:40Z</time>
      </trkpt>
      <trkpt lat="44.12576" lon="3.6309">
        <ele>1095</ele>
        <time>2021-05-24T14:53:43Z</time>
      </trkpt>
      <trkpt lat="44.12576" lon="3.63087">
        <ele>1095</ele>
        <time>2021-05-24T14:53:45Z</time>
      </trkpt>
      <trkpt lat="44.12576" lon="3.63084">
        <ele>1095</ele>
        <time>2021-05-24T14:53:47Z</time>
      </trkpt>
      <trkpt lat="44.12576" lon="3.6308">
        <ele>1095</ele>
        <time>2021-05-24T14:53:48Z</time>
      </trkpt>
      <trkpt lat="44.12576" lon="3.63076">
        <ele>1095</ele>
        <time>2021-05-24T14:53:50Z</time>
      </trkpt>
      <trkpt lat="44.12575" lon="3.63073">
        <ele>1096</ele>
        <time>2021-05-24T14:53:53Z</time>
      </trkpt>
      <trkpt lat="44.12575" lon="3.63069">
        <ele>1096</ele>
        <time>2021-05-24T14:53:55Z</time>
      </trkpt>
      <trkpt lat="44.12575" lon="3.63066">
        <ele>1096</ele>
        <time>2021-05-24T14:53:57Z</time>
      </trkpt>
      <trkpt lat="44.12574" lon="3.63063">
        <ele>1096</ele>
        <time>2021-05-24T14:53:59Z</time>
      </trkpt>
      <trkpt lat="44.12574" lon="3.6306">
        <ele>1096</ele>
        <time>2021-05-24T14:54:01Z</time>
      </trkpt>
      <trkpt lat="44.12574" lon="3.63057">
        <ele>1096</ele>
        <time>2021-05-24T14:54:03Z</time>
      </trkpt>
      <trkpt lat="44.12575" lon="3.63054">
        <ele>1096</ele>
        <time>2021-05-24T14:54:05Z</time>
      </trkpt>
      <trkpt lat="44.12575" lon="3.63051">
        <ele>1096</ele>
        <time>2021-05-24T14:54:06Z</time>
      </trkpt>
      <trkpt lat="44.12575" lon="3.63048">
        <ele>1096</ele>
        <time>2021-05-24T14:54:08Z</time>
      </trkpt>
      <trkpt lat="44.12575" lon="3.63045">
        <ele>1096</ele>
        <time>2021-05-24T14:54:11Z</time>
      </trkpt>
      <trkpt lat="44.12575" lon="3.63042">
        <ele>1098</ele>
        <time>2021-05-24T14:54:13Z</time>
      </trkpt>
      <trkpt lat="44.12575" lon="3.63038">
        <ele>1098</ele>
        <time>2021-05-24T14:54:15Z</time>
      </trkpt>
      <trkpt lat="44.12575" lon="3.63035">
        <ele>1098</ele>
        <time>2021-05-24T14:54:17Z</time>
      </trkpt>
      <trkpt lat="44.12575" lon="3.63032">
        <ele>1098</ele>
        <time>2021-05-24T14:54:19Z</time>
      </trkpt>
      <trkpt lat="44.12574" lon="3.6303">
        <ele>1098</ele>
        <time>2021-05-24T14:54:21Z</time>
      </trkpt>
      <trkpt lat="44.12574" lon="3.63026">
        <ele>1099</ele>
        <time>2021-05-24T14:54:23Z</time>
      </trkpt>
      <trkpt lat="44.12574" lon="3.63023">
        <ele>1099</ele>
        <time>2021-05-24T14:54:25Z</time>
      </trkpt>
      <trkpt lat="44.12574" lon="3.6302">
        <ele>1099</ele>
        <time>2021-05-24T14:54:27Z</time>
      </trkpt>
      <trkpt lat="44.12573" lon="3.63017">
        <ele>1099</ele>
        <time>2021-05-24T14:54:29Z</time>
      </trkpt>
      <trkpt lat="44.12572" lon="3.63015">
        <ele>1099</ele>
        <time>2021-05-24T14:54:31Z</time>
      </trkpt>
      <trkpt lat="44.1257" lon="3.63012">
        <ele>1099</ele>
        <time>2021-05-24T14:54:33Z</time>
      </trkpt>
      <trkpt lat="44.12569" lon="3.63009">
        <ele>1099</ele>
        <time>2021-05-24T14:54:35Z</time>
      </trkpt>
      <trkpt lat="44.12567" lon="3.63007">
        <ele>1099</ele>
        <time>2021-05-24T14:54:37Z</time>
      </trkpt>
      <trkpt lat="44.12566" lon="3.63005">
        <ele>1099</ele>
        <time>2021-05-24T14:54:39Z</time>
      </trkpt>
      <trkpt lat="44.12564" lon="3.63002">
        <ele>1099</ele>
        <time>2021-05-24T14:54:42Z</time>
      </trkpt>
      <trkpt lat="44.12563" lon="3.62998">
        <ele>1099</ele>
        <time>2021-05-24T14:54:44Z</time>
      </trkpt>
      <trkpt lat="44.12561" lon="3.62995">
        <ele>1099</ele>
        <time>2021-05-24T14:54:46Z</time>
      </trkpt>
      <trkpt lat="44.1256" lon="3.62992">
        <ele>1099</ele>
        <time>2021-05-24T14:54:48Z</time>
      </trkpt>
      <trkpt lat="44.12558" lon="3.6299">
        <ele>1099</ele>
        <time>2021-05-24T14:54:50Z</time>
      </trkpt>
      <trkpt lat="44.12557" lon="3.62988">
        <ele>1099</ele>
        <time>2021-05-24T14:54:52Z</time>
      </trkpt>
      <trkpt lat="44.12555" lon="3.62984">
        <ele>1099</ele>
        <time>2021-05-24T14:54:54Z</time>
      </trkpt>
      <trkpt lat="44.12554" lon="3.62981">
        <ele>1099</ele>
        <time>2021-05-24T14:54:56Z</time>
      </trkpt>
      <trkpt lat="44.12553" lon="3.62978">
        <ele>1099</ele>
        <time>2021-05-24T14:54:58Z</time>
      </trkpt>
      <trkpt lat="44.12553" lon="3.62975">
        <ele>1099</ele>
        <time>2021-05-24T14:55:00Z</time>
      </trkpt>
      <trkpt lat="44.12551" lon="3.62973">
        <ele>1100</ele>
        <time>2021-05-24T14:55:03Z</time>
      </trkpt>
      <trkpt lat="44.12551" lon="3.62971">
        <ele>1100</ele>
        <time>2021-05-24T14:55:05Z</time>
      </trkpt>
      <trkpt lat="44.1255" lon="3.62966">
        <ele>1100</ele>
        <time>2021-05-24T14:55:07Z</time>
      </trkpt>
      <trkpt lat="44.12549" lon="3.62962">
        <ele>1100</ele>
        <time>2021-05-24T14:55:09Z</time>
      </trkpt>
      <trkpt lat="44.12549" lon="3.6296">
        <ele>1100</ele>
        <time>2021-05-24T14:55:11Z</time>
      </trkpt>
      <trkpt lat="44.12548" lon="3.62957">
        <ele>1100</ele>
        <time>2021-05-24T14:55:13Z</time>
      </trkpt>
      <trkpt lat="44.12548" lon="3.62953">
        <ele>1100</ele>
        <time>2021-05-24T14:55:15Z</time>
      </trkpt>
      <trkpt lat="44.12548" lon="3.62949">
        <ele>1100</ele>
        <time>2021-05-24T14:55:17Z</time>
      </trkpt>
      <trkpt lat="44.12547" lon="3.62946">
        <ele>1100</ele>
        <time>2021-05-24T14:55:19Z</time>
      </trkpt>
      <trkpt lat="44.12547" lon="3.62943">
        <ele>1100</ele>
        <time>2021-05-24T14:55:21Z</time>
      </trkpt>
      <trkpt lat="44.12547" lon="3.6294">
        <ele>1101</ele>
        <time>2021-05-24T14:55:23Z</time>
      </trkpt>
      <trkpt lat="44.12547" lon="3.62937">
        <ele>1101</ele>
        <time>2021-05-24T14:55:25Z</time>
      </trkpt>
      <trkpt lat="44.12546" lon="3.62934">
        <ele>1101</ele>
        <time>2021-05-24T14:55:27Z</time>
      </trkpt>
      <trkpt lat="44.12546" lon="3.6293">
        <ele>1101</ele>
        <time>2021-05-24T14:55:29Z</time>
      </trkpt>
      <trkpt lat="44.12547" lon="3.62927">
        <ele>1101</ele>
        <time>2021-05-24T14:55:31Z</time>
      </trkpt>
      <trkpt lat="44.12547" lon="3.62924">
        <ele>1103</ele>
        <time>2021-05-24T14:55:33Z</time>
      </trkpt>
      <trkpt lat="44.12547" lon="3.62921">
        <ele>1103</ele>
        <time>2021-05-24T14:55:35Z</time>
      </trkpt>
      <trkpt lat="44.12548" lon="3.62918">
        <ele>1103</ele>
        <time>2021-05-24T14:55:37Z</time>
      </trkpt>
      <trkpt lat="44.12548" lon="3.62916">
        <ele>1103</ele>
        <time>2021-05-24T14:55:39Z</time>
      </trkpt>
      <trkpt lat="44.12549" lon="3.62912">
        <ele>1103</ele>
        <time>2021-05-24T14:55:41Z</time>
      </trkpt>
      <trkpt lat="44.12549" lon="3.62909">
        <ele>1103</ele>
        <time>2021-05-24T14:55:43Z</time>
      </trkpt>
      <trkpt lat="44.1255" lon="3.62907">
        <ele>1103</ele>
        <time>2021-05-24T14:55:45Z</time>
      </trkpt>
      <trkpt lat="44.12551" lon="3.62903">
        <ele>1103</ele>
        <time>2021-05-24T14:55:47Z</time>
      </trkpt>
      <trkpt lat="44.12552" lon="3.629">
        <ele>1103</ele>
        <time>2021-05-24T14:55:49Z</time>
      </trkpt>
      <trkpt lat="44.12554" lon="3.62898">
        <ele>1103</ele>
        <time>2021-05-24T14:55:51Z</time>
      </trkpt>
      <trkpt lat="44.12554" lon="3.62895">
        <ele>1104</ele>
        <time>2021-05-24T14:55:53Z</time>
      </trkpt>
      <trkpt lat="44.12555" lon="3.62893">
        <ele>1104</ele>
        <time>2021-05-24T14:55:55Z</time>
      </trkpt>
      <trkpt lat="44.12556" lon="3.6289">
        <ele>1104</ele>
        <time>2021-05-24T14:55:57Z</time>
      </trkpt>
      <trkpt lat="44.12556" lon="3.62887">
        <ele>1104</ele>
        <time>2021-05-24T14:55:59Z</time>
      </trkpt>
      <trkpt lat="44.12558" lon="3.62884">
        <ele>1104</ele>
        <time>2021-05-24T14:56:01Z</time>
      </trkpt>
      <trkpt lat="44.12559" lon="3.62881">
        <ele>1104</ele>
        <time>2021-05-24T14:56:03Z</time>
      </trkpt>
      <trkpt lat="44.1256" lon="3.62878">
        <ele>1104</ele>
        <time>2021-05-24T14:56:05Z</time>
      </trkpt>
      <trkpt lat="44.1256" lon="3.62875">
        <ele>1104</ele>
        <time>2021-05-24T14:56:07Z</time>
      </trkpt>
      <trkpt lat="44.12561" lon="3.62873">
        <ele>1104</ele>
        <time>2021-05-24T14:56:09Z</time>
      </trkpt>
      <trkpt lat="44.12561" lon="3.6287">
        <ele>1104</ele>
        <time>2021-05-24T14:56:11Z</time>
      </trkpt>
      <trkpt lat="44.12563" lon="3.62867">
        <ele>1105</ele>
        <time>2021-05-24T14:56:13Z</time>
      </trkpt>
      <trkpt lat="44.12563" lon="3.62864">
        <ele>1105</ele>
        <time>2021-05-24T14:56:15Z</time>
      </trkpt>
      <trkpt lat="44.12563" lon="3.62861">
        <ele>1105</ele>
        <time>2021-05-24T14:56:17Z</time>
      </trkpt>
      <trkpt lat="44.12564" lon="3.62859">
        <ele>1105</ele>
        <time>2021-05-24T14:56:19Z</time>
      </trkpt>
      <trkpt lat="44.12565" lon="3.62856">
        <ele>1105</ele>
        <time>2021-05-24T14:56:21Z</time>
      </trkpt>
      <trkpt lat="44.12566" lon="3.62854">
        <ele>1105</ele>
        <time>2021-05-24T14:56:23Z</time>
      </trkpt>
      <trkpt lat="44.12567" lon="3.62851">
        <ele>1105</ele>
        <time>2021-05-24T14:56:25Z</time>
      </trkpt>
      <trkpt lat="44.12567" lon="3.62848">
        <ele>1105</ele>
        <time>2021-05-24T14:56:27Z</time>
      </trkpt>
      <trkpt lat="44.12568" lon="3.62845">
        <ele>1105</ele>
        <time>2021-05-24T14:56:29Z</time>
      </trkpt>
      <trkpt lat="44.12567" lon="3.62842">
        <ele>1105</ele>
        <time>2021-05-24T14:56:31Z</time>
      </trkpt>
      <trkpt lat="44.12568" lon="3.62838">
        <ele>1106</ele>
        <time>2021-05-24T14:56:33Z</time>
      </trkpt>
      <trkpt lat="44.12568" lon="3.62834">
        <ele>1106</ele>
        <time>2021-05-24T14:56:36Z</time>
      </trkpt>
      <trkpt lat="44.12568" lon="3.62831">
        <ele>1106</ele>
        <time>2021-05-24T14:56:38Z</time>
      </trkpt>
      <trkpt lat="44.12573" lon="3.62819">
        <ele>1106</ele>
        <time>2021-05-24T14:56:43Z</time>
      </trkpt>
      <trkpt lat="44.12573" lon="3.62816">
        <ele>1106</ele>
        <time>2021-05-24T14:56:45Z</time>
      </trkpt>
      <trkpt lat="44.12573" lon="3.62813">
        <ele>1106</ele>
        <time>2021-05-24T14:56:47Z</time>
      </trkpt>
      <trkpt lat="44.12574" lon="3.62809">
        <ele>1106</ele>
        <time>2021-05-24T14:56:49Z</time>
      </trkpt>
      <trkpt lat="44.12575" lon="3.62806">
        <ele>1106</ele>
        <time>2021-05-24T14:56:51Z</time>
      </trkpt>
      <trkpt lat="44.12575" lon="3.62803">
        <ele>1106</ele>
        <time>2021-05-24T14:56:53Z</time>
      </trkpt>
      <trkpt lat="44.12576" lon="3.628">
        <ele>1106</ele>
        <time>2021-05-24T14:56:56Z</time>
      </trkpt>
      <trkpt lat="44.12576" lon="3.62797">
        <ele>1106</ele>
        <time>2021-05-24T14:56:58Z</time>
      </trkpt>
      <trkpt lat="44.12577" lon="3.62794">
        <ele>1106</ele>
        <time>2021-05-24T14:56:59Z</time>
      </trkpt>
      <trkpt lat="44.12577" lon="3.62791">
        <ele>1106</ele>
        <time>2021-05-24T14:57:01Z</time>
      </trkpt>
      <trkpt lat="44.12577" lon="3.62788">
        <ele>1106</ele>
        <time>2021-05-24T14:57:04Z</time>
      </trkpt>
      <trkpt lat="44.12577" lon="3.62785">
        <ele>1106</ele>
        <time>2021-05-24T14:57:06Z</time>
      </trkpt>
      <trkpt lat="44.12577" lon="3.62782">
        <ele>1106</ele>
        <time>2021-05-24T14:57:08Z</time>
      </trkpt>
      <trkpt lat="44.12578" lon="3.62779">
        <ele>1106</ele>
        <time>2021-05-24T14:57:10Z</time>
      </trkpt>
      <trkpt lat="44.12578" lon="3.62776">
        <ele>1106</ele>
        <time>2021-05-24T14:57:12Z</time>
      </trkpt>
      <trkpt lat="44.12578" lon="3.62773">
        <ele>1106</ele>
        <time>2021-05-24T14:57:14Z</time>
      </trkpt>
      <trkpt lat="44.12578" lon="3.6277">
        <ele>1106</ele>
        <time>2021-05-24T14:57:15Z</time>
      </trkpt>
      <trkpt lat="44.12579" lon="3.62767">
        <ele>1106</ele>
        <time>2021-05-24T14:57:18Z</time>
      </trkpt>
      <trkpt lat="44.12579" lon="3.62764">
        <ele>1106</ele>
        <time>2021-05-24T14:57:20Z</time>
      </trkpt>
      <trkpt lat="44.12578" lon="3.62761">
        <ele>1106</ele>
        <time>2021-05-24T14:57:21Z</time>
      </trkpt>
      <trkpt lat="44.12579" lon="3.62758">
        <ele>1106</ele>
        <time>2021-05-24T14:57:24Z</time>
      </trkpt>
      <trkpt lat="44.12579" lon="3.62755">
        <ele>1106</ele>
        <time>2021-05-24T14:57:26Z</time>
      </trkpt>
      <trkpt lat="44.12579" lon="3.62751">
        <ele>1106</ele>
        <time>2021-05-24T14:57:28Z</time>
      </trkpt>
      <trkpt lat="44.1258" lon="3.62748">
        <ele>1106</ele>
        <time>2021-05-24T14:57:30Z</time>
      </trkpt>
      <trkpt lat="44.12581" lon="3.62746">
        <ele>1106</ele>
        <time>2021-05-24T14:57:32Z</time>
      </trkpt>
      <trkpt lat="44.12581" lon="3.62743">
        <ele>1106</ele>
        <time>2021-05-24T14:57:34Z</time>
      </trkpt>
      <trkpt lat="44.12583" lon="3.6274">
        <ele>1106</ele>
        <time>2021-05-24T14:57:36Z</time>
      </trkpt>
      <trkpt lat="44.12584" lon="3.62738">
        <ele>1106</ele>
        <time>2021-05-24T14:57:38Z</time>
      </trkpt>
      <trkpt lat="44.12586" lon="3.62736">
        <ele>1106</ele>
        <time>2021-05-24T14:57:40Z</time>
      </trkpt>
      <trkpt lat="44.12589" lon="3.62735">
        <ele>1106</ele>
        <time>2021-05-24T14:57:42Z</time>
      </trkpt>
      <trkpt lat="44.1259" lon="3.62733">
        <ele>1106</ele>
        <time>2021-05-24T14:57:45Z</time>
      </trkpt>
      <trkpt lat="44.12592" lon="3.62733">
        <ele>1106</ele>
        <time>2021-05-24T14:57:47Z</time>
      </trkpt>
      <trkpt lat="44.12594" lon="3.62734">
        <ele>1106</ele>
        <time>2021-05-24T14:57:49Z</time>
      </trkpt>
      <trkpt lat="44.12596" lon="3.62736">
        <ele>1106</ele>
        <time>2021-05-24T14:57:51Z</time>
      </trkpt>
      <trkpt lat="44.12597" lon="3.62737">
        <ele>1109</ele>
        <time>2021-05-24T14:57:53Z</time>
      </trkpt>
      <trkpt lat="44.12591" lon="3.62747">
        <ele>1109</ele>
        <time>2021-05-24T14:58:00Z</time>
      </trkpt>
      <trkpt lat="44.12595" lon="3.62754">
        <ele>1109</ele>
        <time>2021-05-24T14:58:04Z</time>
      </trkpt>
      <trkpt lat="44.12597" lon="3.62756">
        <ele>1109</ele>
        <time>2021-05-24T14:58:06Z</time>
      </trkpt>
      <trkpt lat="44.126" lon="3.62758">
        <ele>1109</ele>
        <time>2021-05-24T14:58:08Z</time>
      </trkpt>
      <trkpt lat="44.12603" lon="3.6276">
        <ele>1109</ele>
        <time>2021-05-24T14:58:10Z</time>
      </trkpt>
      <trkpt lat="44.12606" lon="3.62762">
        <ele>1109</ele>
        <time>2021-05-24T14:58:12Z</time>
      </trkpt>
      <trkpt lat="44.12608" lon="3.62765">
        <ele>1109</ele>
        <time>2021-05-24T14:58:14Z</time>
      </trkpt>
      <trkpt lat="44.1261" lon="3.62766">
        <ele>1109</ele>
        <time>2021-05-24T14:58:16Z</time>
      </trkpt>
      <trkpt lat="44.12612" lon="3.62769">
        <ele>1109</ele>
        <time>2021-05-24T14:58:18Z</time>
      </trkpt>
      <trkpt lat="44.12613" lon="3.62771">
        <ele>1109</ele>
        <time>2021-05-24T14:58:20Z</time>
      </trkpt>
      <trkpt lat="44.12616" lon="3.62772">
        <ele>1109</ele>
        <time>2021-05-24T14:58:22Z</time>
      </trkpt>
      <trkpt lat="44.12617" lon="3.62774">
        <ele>1108</ele>
        <time>2021-05-24T14:58:23Z</time>
      </trkpt>
      <trkpt lat="44.12619" lon="3.62776">
        <ele>1108</ele>
        <time>2021-05-24T14:58:26Z</time>
      </trkpt>
      <trkpt lat="44.12621" lon="3.62778">
        <ele>1108</ele>
        <time>2021-05-24T14:58:28Z</time>
      </trkpt>
      <trkpt lat="44.12625" lon="3.62781">
        <ele>1108</ele>
        <time>2021-05-24T14:58:32Z</time>
      </trkpt>
      <trkpt lat="44.12627" lon="3.62783">
        <ele>1108</ele>
        <time>2021-05-24T14:58:34Z</time>
      </trkpt>
      <trkpt lat="44.1263" lon="3.62785">
        <ele>1108</ele>
        <time>2021-05-24T14:58:37Z</time>
      </trkpt>
      <trkpt lat="44.12633" lon="3.62786">
        <ele>1108</ele>
        <time>2021-05-24T14:58:39Z</time>
      </trkpt>
      <trkpt lat="44.12637" lon="3.6279">
        <ele>1108</ele>
        <time>2021-05-24T14:58:42Z</time>
      </trkpt>
      <trkpt lat="44.12641" lon="3.62792">
        <ele>1108</ele>
        <time>2021-05-24T14:58:47Z</time>
      </trkpt>
      <trkpt lat="44.12643" lon="3.62794">
        <ele>1108</ele>
        <time>2021-05-24T14:58:49Z</time>
      </trkpt>
      <trkpt lat="44.12645" lon="3.62796">
        <ele>1108</ele>
        <time>2021-05-24T14:58:52Z</time>
      </trkpt>
      <trkpt lat="44.12651" lon="3.62805">
        <ele>1108</ele>
        <time>2021-05-24T14:59:00Z</time>
      </trkpt>
      <trkpt lat="44.12656" lon="3.62813">
        <ele>1108</ele>
        <time>2021-05-24T14:59:07Z</time>
      </trkpt>
      <trkpt lat="44.12658" lon="3.62815">
        <ele>1108</ele>
        <time>2021-05-24T14:59:09Z</time>
      </trkpt>
      <trkpt lat="44.12662" lon="3.62818">
        <ele>1109</ele>
        <time>2021-05-24T14:59:13Z</time>
      </trkpt>
      <trkpt lat="44.12666" lon="3.62825">
        <ele>1109</ele>
        <time>2021-05-24T14:59:18Z</time>
      </trkpt>
      <trkpt lat="44.1267" lon="3.62828">
        <ele>1109</ele>
        <time>2021-05-24T14:59:21Z</time>
      </trkpt>
      <trkpt lat="44.12673" lon="3.6283">
        <ele>1110</ele>
        <time>2021-05-24T14:59:23Z</time>
      </trkpt>
      <trkpt lat="44.12676" lon="3.62833">
        <ele>1110</ele>
        <time>2021-05-24T14:59:25Z</time>
      </trkpt>
      <trkpt lat="44.12679" lon="3.62835">
        <ele>1110</ele>
        <time>2021-05-24T14:59:27Z</time>
      </trkpt>
      <trkpt lat="44.12682" lon="3.62837">
        <ele>1110</ele>
        <time>2021-05-24T14:59:29Z</time>
      </trkpt>
      <trkpt lat="44.12684" lon="3.62839">
        <ele>1110</ele>
        <time>2021-05-24T14:59:31Z</time>
      </trkpt>
      <trkpt lat="44.12687" lon="3.6284">
        <ele>1110</ele>
        <time>2021-05-24T14:59:33Z</time>
      </trkpt>
      <trkpt lat="44.12688" lon="3.62842">
        <ele>1110</ele>
        <time>2021-05-24T14:59:35Z</time>
      </trkpt>
      <trkpt lat="44.12691" lon="3.62844">
        <ele>1110</ele>
        <time>2021-05-24T14:59:38Z</time>
      </trkpt>
      <trkpt lat="44.12693" lon="3.62846">
        <ele>1110</ele>
        <time>2021-05-24T14:59:40Z</time>
      </trkpt>
      <trkpt lat="44.12695" lon="3.62848">
        <ele>1110</ele>
        <time>2021-05-24T14:59:42Z</time>
      </trkpt>
      <trkpt lat="44.12697" lon="3.62851">
        <ele>1110</ele>
        <time>2021-05-24T14:59:45Z</time>
      </trkpt>
      <trkpt lat="44.127" lon="3.62853">
        <ele>1110</ele>
        <time>2021-05-24T14:59:47Z</time>
      </trkpt>
      <trkpt lat="44.12701" lon="3.62855">
        <ele>1110</ele>
        <time>2021-05-24T14:59:48Z</time>
      </trkpt>
      <trkpt lat="44.12702" lon="3.62857">
        <ele>1110</ele>
        <time>2021-05-24T14:59:49Z</time>
      </trkpt>
      <trkpt lat="44.12705" lon="3.6286">
        <ele>1110</ele>
        <time>2021-05-24T14:59:51Z</time>
      </trkpt>
      <trkpt lat="44.12709" lon="3.62863">
        <ele>1110</ele>
        <time>2021-05-24T14:59:54Z</time>
      </trkpt>
      <trkpt lat="44.12713" lon="3.62867">
        <ele>1110</ele>
        <time>2021-05-24T14:59:57Z</time>
      </trkpt>
      <trkpt lat="44.12714" lon="3.62868">
        <ele>1110</ele>
        <time>2021-05-24T14:59:58Z</time>
      </trkpt>
      <trkpt lat="44.12717" lon="3.6287">
        <ele>1110</ele>
        <time>2021-05-24T15:00:00Z</time>
      </trkpt>
      <trkpt lat="44.1272" lon="3.62872">
        <ele>1110</ele>
        <time>2021-05-24T15:00:02Z</time>
      </trkpt>
      <trkpt lat="44.12722" lon="3.62874">
        <ele>1110</ele>
        <time>2021-05-24T15:00:04Z</time>
      </trkpt>
      <trkpt lat="44.12725" lon="3.62876">
        <ele>1110</ele>
        <time>2021-05-24T15:00:06Z</time>
      </trkpt>
      <trkpt lat="44.12728" lon="3.62878">
        <ele>1110</ele>
        <time>2021-05-24T15:00:08Z</time>
      </trkpt>
      <trkpt lat="44.1273" lon="3.6288">
        <ele>1110</ele>
        <time>2021-05-24T15:00:10Z</time>
      </trkpt>
      <trkpt lat="44.12732" lon="3.62883">
        <ele>1110</ele>
        <time>2021-05-24T15:00:11Z</time>
      </trkpt>
      <trkpt lat="44.12733" lon="3.62885">
        <ele>1110</ele>
        <time>2021-05-24T15:00:14Z</time>
      </trkpt>
      <trkpt lat="44.12735" lon="3.62888">
        <ele>1110</ele>
        <time>2021-05-24T15:00:16Z</time>
      </trkpt>
      <trkpt lat="44.12737" lon="3.6289">
        <ele>1110</ele>
        <time>2021-05-24T15:00:18Z</time>
      </trkpt>
      <trkpt lat="44.12739" lon="3.62893">
        <ele>1110</ele>
        <time>2021-05-24T15:00:20Z</time>
      </trkpt>
      <trkpt lat="44.1274" lon="3.62896">
        <ele>1110</ele>
        <time>2021-05-24T15:00:22Z</time>
      </trkpt>
      <trkpt lat="44.12742" lon="3.62898">
        <ele>1110</ele>
        <time>2021-05-24T15:00:24Z</time>
      </trkpt>
      <trkpt lat="44.12743" lon="3.62901">
        <ele>1110</ele>
        <time>2021-05-24T15:00:26Z</time>
      </trkpt>
      <trkpt lat="44.12744" lon="3.62903">
        <ele>1110</ele>
        <time>2021-05-24T15:00:28Z</time>
      </trkpt>
      <trkpt lat="44.12746" lon="3.62906">
        <ele>1110</ele>
        <time>2021-05-24T15:00:30Z</time>
      </trkpt>
      <trkpt lat="44.12747" lon="3.62908">
        <ele>1110</ele>
        <time>2021-05-24T15:00:32Z</time>
      </trkpt>
      <trkpt lat="44.12748" lon="3.6291">
        <ele>1110</ele>
        <time>2021-05-24T15:00:34Z</time>
      </trkpt>
      <trkpt lat="44.1275" lon="3.62912">
        <ele>1110</ele>
        <time>2021-05-24T15:00:36Z</time>
      </trkpt>
      <trkpt lat="44.12752" lon="3.62915">
        <ele>1110</ele>
        <time>2021-05-24T15:00:38Z</time>
      </trkpt>
      <trkpt lat="44.12753" lon="3.62917">
        <ele>1110</ele>
        <time>2021-05-24T15:00:40Z</time>
      </trkpt>
      <trkpt lat="44.12755" lon="3.62918">
        <ele>1110</ele>
        <time>2021-05-24T15:00:42Z</time>
      </trkpt>
      <trkpt lat="44.12758" lon="3.6292">
        <ele>1110</ele>
        <time>2021-05-24T15:00:44Z</time>
      </trkpt>
      <trkpt lat="44.12759" lon="3.62921">
        <ele>1110</ele>
        <time>2021-05-24T15:00:46Z</time>
      </trkpt>
      <trkpt lat="44.12761" lon="3.62923">
        <ele>1110</ele>
        <time>2021-05-24T15:00:48Z</time>
      </trkpt>
      <trkpt lat="44.12764" lon="3.62925">
        <ele>1110</ele>
        <time>2021-05-24T15:00:50Z</time>
      </trkpt>
      <trkpt lat="44.12767" lon="3.62927">
        <ele>1110</ele>
        <time>2021-05-24T15:00:52Z</time>
      </trkpt>
      <trkpt lat="44.12769" lon="3.62929">
        <ele>1110</ele>
        <time>2021-05-24T15:00:54Z</time>
      </trkpt>
      <trkpt lat="44.12772" lon="3.62931">
        <ele>1110</ele>
        <time>2021-05-24T15:00:56Z</time>
      </trkpt>
      <trkpt lat="44.12775" lon="3.62933">
        <ele>1110</ele>
        <time>2021-05-24T15:00:58Z</time>
      </trkpt>
      <trkpt lat="44.12777" lon="3.62935">
        <ele>1110</ele>
        <time>2021-05-24T15:01:00Z</time>
      </trkpt>
      <trkpt lat="44.12779" lon="3.62936">
        <ele>1110</ele>
        <time>2021-05-24T15:01:02Z</time>
      </trkpt>
      <trkpt lat="44.12781" lon="3.62937">
        <ele>1110</ele>
        <time>2021-05-24T15:01:04Z</time>
      </trkpt>
      <trkpt lat="44.12784" lon="3.62939">
        <ele>1110</ele>
        <time>2021-05-24T15:01:06Z</time>
      </trkpt>
      <trkpt lat="44.12786" lon="3.62941">
        <ele>1110</ele>
        <time>2021-05-24T15:01:08Z</time>
      </trkpt>
      <trkpt lat="44.12788" lon="3.62942">
        <ele>1110</ele>
        <time>2021-05-24T15:01:10Z</time>
      </trkpt>
      <trkpt lat="44.1279" lon="3.62944">
        <ele>1110</ele>
        <time>2021-05-24T15:01:12Z</time>
      </trkpt>
      <trkpt lat="44.12792" lon="3.62945">
        <ele>1110</ele>
        <time>2021-05-24T15:01:14Z</time>
      </trkpt>
      <trkpt lat="44.12795" lon="3.62947">
        <ele>1110</ele>
        <time>2021-05-24T15:01:16Z</time>
      </trkpt>
      <trkpt lat="44.12797" lon="3.62948">
        <ele>1110</ele>
        <time>2021-05-24T15:01:18Z</time>
      </trkpt>
      <trkpt lat="44.128" lon="3.6295">
        <ele>1110</ele>
        <time>2021-05-24T15:01:21Z</time>
      </trkpt>
      <trkpt lat="44.12801" lon="3.62951">
        <ele>1110</ele>
        <time>2021-05-24T15:01:23Z</time>
      </trkpt>
      <trkpt lat="44.12803" lon="3.62953">
        <ele>1110</ele>
        <time>2021-05-24T15:01:25Z</time>
      </trkpt>
      <trkpt lat="44.12804" lon="3.62954">
        <ele>1110</ele>
        <time>2021-05-24T15:01:27Z</time>
      </trkpt>
      <trkpt lat="44.12806" lon="3.62956">
        <ele>1110</ele>
        <time>2021-05-24T15:01:29Z</time>
      </trkpt>
      <trkpt lat="44.12808" lon="3.62957">
        <ele>1110</ele>
        <time>2021-05-24T15:01:31Z</time>
      </trkpt>
      <trkpt lat="44.1281" lon="3.62959">
        <ele>1110</ele>
        <time>2021-05-24T15:01:33Z</time>
      </trkpt>
      <trkpt lat="44.12812" lon="3.6296">
        <ele>1110</ele>
        <time>2021-05-24T15:01:35Z</time>
      </trkpt>
      <trkpt lat="44.12813" lon="3.62961">
        <ele>1110</ele>
        <time>2021-05-24T15:01:37Z</time>
      </trkpt>
      <trkpt lat="44.12815" lon="3.62963">
        <ele>1110</ele>
        <time>2021-05-24T15:01:39Z</time>
      </trkpt>
      <trkpt lat="44.12818" lon="3.62964">
        <ele>1110</ele>
        <time>2021-05-24T15:01:41Z</time>
      </trkpt>
      <trkpt lat="44.12821" lon="3.62964">
        <ele>1110</ele>
        <time>2021-05-24T15:01:43Z</time>
      </trkpt>
      <trkpt lat="44.12824" lon="3.62965">
        <ele>1110</ele>
        <time>2021-05-24T15:01:45Z</time>
      </trkpt>
      <trkpt lat="44.12826" lon="3.62967">
        <ele>1110</ele>
        <time>2021-05-24T15:01:47Z</time>
      </trkpt>
      <trkpt lat="44.12828" lon="3.62968">
        <ele>1110</ele>
        <time>2021-05-24T15:01:49Z</time>
      </trkpt>
      <trkpt lat="44.1283" lon="3.62971">
        <ele>1110</ele>
        <time>2021-05-24T15:01:51Z</time>
      </trkpt>
      <trkpt lat="44.12832" lon="3.62972">
        <ele>1112</ele>
        <time>2021-05-24T15:01:53Z</time>
      </trkpt>
      <trkpt lat="44.12833" lon="3.62974">
        <ele>1112</ele>
        <time>2021-05-24T15:01:55Z</time>
      </trkpt>
      <trkpt lat="44.12836" lon="3.62976">
        <ele>1112</ele>
        <time>2021-05-24T15:01:57Z</time>
      </trkpt>
      <trkpt lat="44.12842" lon="3.62985">
        <ele>1112</ele>
        <time>2021-05-24T15:02:07Z</time>
      </trkpt>
      <trkpt lat="44.12851" lon="3.62992">
        <ele>1112</ele>
        <time>2021-05-24T15:02:14Z</time>
      </trkpt>
      <trkpt lat="44.12859" lon="3.62999">
        <ele>1112</ele>
        <time>2021-05-24T15:02:22Z</time>
      </trkpt>
      <trkpt lat="44.12868" lon="3.63004">
        <ele>1112</ele>
        <time>2021-05-24T15:02:28Z</time>
      </trkpt>
      <trkpt lat="44.12876" lon="3.63015">
        <ele>1112</ele>
        <time>2021-05-24T15:02:35Z</time>
      </trkpt>
      <trkpt lat="44.12879" lon="3.63018">
        <ele>1112</ele>
        <time>2021-05-24T15:02:38Z</time>
      </trkpt>
      <trkpt lat="44.1288" lon="3.63021">
        <ele>1112</ele>
        <time>2021-05-24T15:02:40Z</time>
      </trkpt>
      <trkpt lat="44.12881" lon="3.63023">
        <ele>1112</ele>
        <time>2021-05-24T15:02:42Z</time>
      </trkpt>
      <trkpt lat="44.12883" lon="3.63026">
        <ele>1112</ele>
        <time>2021-05-24T15:02:44Z</time>
      </trkpt>
      <trkpt lat="44.12885" lon="3.63028">
        <ele>1112</ele>
        <time>2021-05-24T15:02:46Z</time>
      </trkpt>
      <trkpt lat="44.12886" lon="3.63031">
        <ele>1112</ele>
        <time>2021-05-24T15:02:48Z</time>
      </trkpt>
      <trkpt lat="44.12888" lon="3.63033">
        <ele>1112</ele>
        <time>2021-05-24T15:02:50Z</time>
      </trkpt>
      <trkpt lat="44.12889" lon="3.63036">
        <ele>1112</ele>
        <time>2021-05-24T15:02:52Z</time>
      </trkpt>
      <trkpt lat="44.12891" lon="3.63039">
        <ele>1112</ele>
        <time>2021-05-24T15:02:54Z</time>
      </trkpt>
      <trkpt lat="44.12894" lon="3.63041">
        <ele>1112</ele>
        <time>2021-05-24T15:02:56Z</time>
      </trkpt>
      <trkpt lat="44.12896" lon="3.63044">
        <ele>1112</ele>
        <time>2021-05-24T15:02:58Z</time>
      </trkpt>
      <trkpt lat="44.12898" lon="3.63046">
        <ele>1112</ele>
        <time>2021-05-24T15:03:00Z</time>
      </trkpt>
      <trkpt lat="44.129" lon="3.63048">
        <ele>1112</ele>
        <time>2021-05-24T15:03:02Z</time>
      </trkpt>
      <trkpt lat="44.12902" lon="3.63051">
        <ele>1112</ele>
        <time>2021-05-24T15:03:04Z</time>
      </trkpt>
      <trkpt lat="44.12904" lon="3.63054">
        <ele>1112</ele>
        <time>2021-05-24T15:03:06Z</time>
      </trkpt>
      <trkpt lat="44.12906" lon="3.63056">
        <ele>1112</ele>
        <time>2021-05-24T15:03:08Z</time>
      </trkpt>
      <trkpt lat="44.12908" lon="3.63057">
        <ele>1112</ele>
        <time>2021-05-24T15:03:10Z</time>
      </trkpt>
      <trkpt lat="44.1291" lon="3.6306">
        <ele>1112</ele>
        <time>2021-05-24T15:03:12Z</time>
      </trkpt>
      <trkpt lat="44.12913" lon="3.63062">
        <ele>1112</ele>
        <time>2021-05-24T15:03:14Z</time>
      </trkpt>
      <trkpt lat="44.12914" lon="3.63065">
        <ele>1112</ele>
        <time>2021-05-24T15:03:15Z</time>
      </trkpt>
      <trkpt lat="44.12916" lon="3.63067">
        <ele>1112</ele>
        <time>2021-05-24T15:03:18Z</time>
      </trkpt>
      <trkpt lat="44.12918" lon="3.63069">
        <ele>1112</ele>
        <time>2021-05-24T15:03:19Z</time>
      </trkpt>
      <trkpt lat="44.1292" lon="3.63072">
        <ele>1112</ele>
        <time>2021-05-24T15:03:22Z</time>
      </trkpt>
      <trkpt lat="44.12922" lon="3.63074">
        <ele>1112</ele>
        <time>2021-05-24T15:03:24Z</time>
      </trkpt>
      <trkpt lat="44.12924" lon="3.63076">
        <ele>1112</ele>
        <time>2021-05-24T15:03:26Z</time>
      </trkpt>
      <trkpt lat="44.12926" lon="3.63079">
        <ele>1112</ele>
        <time>2021-05-24T15:03:28Z</time>
      </trkpt>
      <trkpt lat="44.12928" lon="3.63081">
        <ele>1112</ele>
        <time>2021-05-24T15:03:30Z</time>
      </trkpt>
      <trkpt lat="44.12929" lon="3.63084">
        <ele>1112</ele>
        <time>2021-05-24T15:03:32Z</time>
      </trkpt>
      <trkpt lat="44.12931" lon="3.63086">
        <ele>1112</ele>
        <time>2021-05-24T15:03:34Z</time>
      </trkpt>
      <trkpt lat="44.12933" lon="3.63088">
        <ele>1112</ele>
        <time>2021-05-24T15:03:36Z</time>
      </trkpt>
      <trkpt lat="44.12935" lon="3.63091">
        <ele>1112</ele>
        <time>2021-05-24T15:03:38Z</time>
      </trkpt>
      <trkpt lat="44.12937" lon="3.63094">
        <ele>1112</ele>
        <time>2021-05-24T15:03:39Z</time>
      </trkpt>
      <trkpt lat="44.1294" lon="3.63096">
        <ele>1112</ele>
        <time>2021-05-24T15:03:42Z</time>
      </trkpt>
      <trkpt lat="44.12941" lon="3.63099">
        <ele>1112</ele>
        <time>2021-05-24T15:03:44Z</time>
      </trkpt>
      <trkpt lat="44.12943" lon="3.63101">
        <ele>1112</ele>
        <time>2021-05-24T15:03:46Z</time>
      </trkpt>
      <trkpt lat="44.12945" lon="3.63104">
        <ele>1112</ele>
        <time>2021-05-24T15:03:48Z</time>
      </trkpt>
      <trkpt lat="44.12946" lon="3.63106">
        <ele>1112</ele>
        <time>2021-05-24T15:03:50Z</time>
      </trkpt>
      <trkpt lat="44.12948" lon="3.63109">
        <ele>1112</ele>
        <time>2021-05-24T15:03:52Z</time>
      </trkpt>
      <trkpt lat="44.1295" lon="3.63111">
        <ele>1112</ele>
        <time>2021-05-24T15:03:54Z</time>
      </trkpt>
      <trkpt lat="44.12952" lon="3.63114">
        <ele>1112</ele>
        <time>2021-05-24T15:03:56Z</time>
      </trkpt>
      <trkpt lat="44.12954" lon="3.63116">
        <ele>1112</ele>
        <time>2021-05-24T15:03:58Z</time>
      </trkpt>
      <trkpt lat="44.12956" lon="3.63119">
        <ele>1112</ele>
        <time>2021-05-24T15:04:00Z</time>
      </trkpt>
      <trkpt lat="44.12958" lon="3.63121">
        <ele>1112</ele>
        <time>2021-05-24T15:04:02Z</time>
      </trkpt>
      <trkpt lat="44.1296" lon="3.63123">
        <ele>1112</ele>
        <time>2021-05-24T15:04:04Z</time>
      </trkpt>
      <trkpt lat="44.12962" lon="3.63125">
        <ele>1112</ele>
        <time>2021-05-24T15:04:06Z</time>
      </trkpt>
      <trkpt lat="44.12964" lon="3.63127">
        <ele>1112</ele>
        <time>2021-05-24T15:04:08Z</time>
      </trkpt>
      <trkpt lat="44.12965" lon="3.63129">
        <ele>1112</ele>
        <time>2021-05-24T15:04:10Z</time>
      </trkpt>
      <trkpt lat="44.12967" lon="3.63131">
        <ele>1112</ele>
        <time>2021-05-24T15:04:12Z</time>
      </trkpt>
      <trkpt lat="44.12968" lon="3.63133">
        <ele>1112</ele>
        <time>2021-05-24T15:04:14Z</time>
      </trkpt>
      <trkpt lat="44.12969" lon="3.63135">
        <ele>1112</ele>
        <time>2021-05-24T15:04:16Z</time>
      </trkpt>
      <trkpt lat="44.12971" lon="3.63137">
        <ele>1112</ele>
        <time>2021-05-24T15:04:18Z</time>
      </trkpt>
      <trkpt lat="44.12972" lon="3.63139">
        <ele>1112</ele>
        <time>2021-05-24T15:04:20Z</time>
      </trkpt>
      <trkpt lat="44.12974" lon="3.63141">
        <ele>1112</ele>
        <time>2021-05-24T15:04:22Z</time>
      </trkpt>
      <trkpt lat="44.12976" lon="3.63144">
        <ele>1112</ele>
        <time>2021-05-24T15:04:25Z</time>
      </trkpt>
      <trkpt lat="44.12978" lon="3.63145">
        <ele>1112</ele>
        <time>2021-05-24T15:04:27Z</time>
      </trkpt>
      <trkpt lat="44.1298" lon="3.63147">
        <ele>1112</ele>
        <time>2021-05-24T15:04:29Z</time>
      </trkpt>
      <trkpt lat="44.12982" lon="3.63149">
        <ele>1112</ele>
        <time>2021-05-24T15:04:31Z</time>
      </trkpt>
      <trkpt lat="44.12986" lon="3.63161">
        <ele>1112</ele>
        <time>2021-05-24T15:04:46Z</time>
      </trkpt>
      <trkpt lat="44.12994" lon="3.63168">
        <ele>1112</ele>
        <time>2021-05-24T15:04:56Z</time>
      </trkpt>
      <trkpt lat="44.13001" lon="3.63177">
        <ele>1112</ele>
        <time>2021-05-24T15:05:04Z</time>
      </trkpt>
      <trkpt lat="44.13009" lon="3.63179">
        <ele>1112</ele>
        <time>2021-05-24T15:05:11Z</time>
      </trkpt>
      <trkpt lat="44.13011" lon="3.63181">
        <ele>1112</ele>
        <time>2021-05-24T15:05:14Z</time>
      </trkpt>
      <trkpt lat="44.13014" lon="3.63181">
        <ele>1112</ele>
        <time>2021-05-24T15:05:16Z</time>
      </trkpt>
      <trkpt lat="44.13016" lon="3.63183">
        <ele>1112</ele>
        <time>2021-05-24T15:05:18Z</time>
      </trkpt>
      <trkpt lat="44.13029" lon="3.63183">
        <ele>1112</ele>
        <time>2021-05-24T15:05:29Z</time>
      </trkpt>
      <trkpt lat="44.1303" lon="3.63182">
        <ele>1112</ele>
        <time>2021-05-24T15:05:31Z</time>
      </trkpt>
      <trkpt lat="44.13033" lon="3.63181">
        <ele>1112</ele>
        <time>2021-05-24T15:05:35Z</time>
      </trkpt>
      <trkpt lat="44.13036" lon="3.63182">
        <ele>1112</ele>
        <time>2021-05-24T15:05:37Z</time>
      </trkpt>
      <trkpt lat="44.13041" lon="3.63187">
        <ele>1112</ele>
        <time>2021-05-24T15:05:42Z</time>
      </trkpt>
      <trkpt lat="44.13043" lon="3.63187">
        <ele>1112</ele>
        <time>2021-05-24T15:05:46Z</time>
      </trkpt>
      <trkpt lat="44.13045" lon="3.63186">
        <ele>1112</ele>
        <time>2021-05-24T15:05:50Z</time>
      </trkpt>
      <trkpt lat="44.13045" lon="3.63188">
        <ele>1112</ele>
        <time>2021-05-24T15:06:17Z</time>
      </trkpt>
      <trkpt lat="44.13044" lon="3.63186">
        <ele>1112</ele>
        <time>2021-05-24T15:07:32Z</time>
      </trkpt>
      <trkpt lat="44.13045" lon="3.63183">
        <ele>1112</ele>
        <time>2021-05-24T15:07:41Z</time>
      </trkpt>
      <trkpt lat="44.13046" lon="3.6318">
        <ele>1121</ele>
        <time>2021-05-24T15:07:43Z</time>
      </trkpt>
      <trkpt lat="44.13048" lon="3.63178">
        <ele>1121</ele>
        <time>2021-05-24T15:07:46Z</time>
      </trkpt>
      <trkpt lat="44.1305" lon="3.63177">
        <ele>1121</ele>
        <time>2021-05-24T15:07:50Z</time>
      </trkpt>
      <trkpt lat="44.13052" lon="3.63176">
        <ele>1121</ele>
        <time>2021-05-24T15:07:53Z</time>
      </trkpt>
      <trkpt lat="44.13054" lon="3.63177">
        <ele>1121</ele>
        <time>2021-05-24T15:07:55Z</time>
      </trkpt>
      <trkpt lat="44.13056" lon="3.63177">
        <ele>1121</ele>
        <time>2021-05-24T15:07:58Z</time>
      </trkpt>
      <trkpt lat="44.13058" lon="3.63178">
        <ele>1121</ele>
        <time>2021-05-24T15:08:00Z</time>
      </trkpt>
      <trkpt lat="44.1306" lon="3.63179">
        <ele>1121</ele>
        <time>2021-05-24T15:08:02Z</time>
      </trkpt>
      <trkpt lat="44.13062" lon="3.6318">
        <ele>1121</ele>
        <time>2021-05-24T15:08:04Z</time>
      </trkpt>
      <trkpt lat="44.13065" lon="3.63182">
        <ele>1121</ele>
        <time>2021-05-24T15:08:06Z</time>
      </trkpt>
      <trkpt lat="44.13074" lon="3.63188">
        <ele>1122</ele>
        <time>2021-05-24T15:08:13Z</time>
      </trkpt>
      <trkpt lat="44.13083" lon="3.63195">
        <ele>1122</ele>
        <time>2021-05-24T15:08:19Z</time>
      </trkpt>
      <trkpt lat="44.1309" lon="3.63204">
        <ele>1122</ele>
        <time>2021-05-24T15:08:26Z</time>
      </trkpt>
      <trkpt lat="44.13096" lon="3.63213">
        <ele>1121</ele>
        <time>2021-05-24T15:08:33Z</time>
      </trkpt>
      <trkpt lat="44.13102" lon="3.63223">
        <ele>1121</ele>
        <time>2021-05-24T15:08:39Z</time>
      </trkpt>
      <trkpt lat="44.13109" lon="3.63231">
        <ele>1121</ele>
        <time>2021-05-24T15:08:46Z</time>
      </trkpt>
      <trkpt lat="44.13116" lon="3.63242">
        <ele>1118</ele>
        <time>2021-05-24T15:08:53Z</time>
      </trkpt>
      <trkpt lat="44.13124" lon="3.63248">
        <ele>1118</ele>
        <time>2021-05-24T15:09:00Z</time>
      </trkpt>
      <trkpt lat="44.1313" lon="3.63258">
        <ele>1118</ele>
        <time>2021-05-24T15:09:10Z</time>
      </trkpt>
      <trkpt lat="44.13136" lon="3.6327">
        <ele>1118</ele>
        <time>2021-05-24T15:09:18Z</time>
      </trkpt>
      <trkpt lat="44.13141" lon="3.63281">
        <ele>1118</ele>
        <time>2021-05-24T15:09:26Z</time>
      </trkpt>
      <trkpt lat="44.13149" lon="3.63288">
        <ele>1118</ele>
        <time>2021-05-24T15:09:33Z</time>
      </trkpt>
      <trkpt lat="44.13157" lon="3.63296">
        <ele>1118</ele>
        <time>2021-05-24T15:09:42Z</time>
      </trkpt>
      <trkpt lat="44.13167" lon="3.63304">
        <ele>1118</ele>
        <time>2021-05-24T15:09:50Z</time>
      </trkpt>
      <trkpt lat="44.13175" lon="3.63311">
        <ele>1118</ele>
        <time>2021-05-24T15:09:55Z</time>
      </trkpt>
      <trkpt lat="44.13182" lon="3.6332">
        <ele>1118</ele>
        <time>2021-05-24T15:10:05Z</time>
      </trkpt>
      <trkpt lat="44.1319" lon="3.63328">
        <ele>1118</ele>
        <time>2021-05-24T15:10:12Z</time>
      </trkpt>
      <trkpt lat="44.13197" lon="3.63337">
        <ele>1118</ele>
        <time>2021-05-24T15:10:18Z</time>
      </trkpt>
      <trkpt lat="44.13204" lon="3.63347">
        <ele>1118</ele>
        <time>2021-05-24T15:10:26Z</time>
      </trkpt>
      <trkpt lat="44.13217" lon="3.63355">
        <ele>1118</ele>
        <time>2021-05-24T15:10:32Z</time>
      </trkpt>
      <trkpt lat="44.13225" lon="3.63361">
        <ele>1118</ele>
        <time>2021-05-24T15:10:37Z</time>
      </trkpt>
      <trkpt lat="44.13231" lon="3.63371">
        <ele>1118</ele>
        <time>2021-05-24T15:10:45Z</time>
      </trkpt>
      <trkpt lat="44.13237" lon="3.63381">
        <ele>1125</ele>
        <time>2021-05-24T15:10:53Z</time>
      </trkpt>
      <trkpt lat="44.13243" lon="3.63392">
        <ele>1125</ele>
        <time>2021-05-24T15:11:02Z</time>
      </trkpt>
      <trkpt lat="44.13248" lon="3.63404">
        <ele>1125</ele>
        <time>2021-05-24T15:11:11Z</time>
      </trkpt>
      <trkpt lat="44.13258" lon="3.63408">
        <ele>1125</ele>
        <time>2021-05-24T15:11:17Z</time>
      </trkpt>
      <trkpt lat="44.13265" lon="3.63417">
        <ele>1125</ele>
        <time>2021-05-24T15:11:24Z</time>
      </trkpt>
      <trkpt lat="44.13272" lon="3.63424">
        <ele>1125</ele>
        <time>2021-05-24T15:11:30Z</time>
      </trkpt>
      <trkpt lat="44.1328" lon="3.63431">
        <ele>1125</ele>
        <time>2021-05-24T15:11:38Z</time>
      </trkpt>
      <trkpt lat="44.13288" lon="3.63438">
        <ele>1125</ele>
        <time>2021-05-24T15:11:47Z</time>
      </trkpt>
      <trkpt lat="44.13297" lon="3.63446">
        <ele>1125</ele>
        <time>2021-05-24T15:11:54Z</time>
      </trkpt>
      <trkpt lat="44.13306" lon="3.63452">
        <ele>1125</ele>
        <time>2021-05-24T15:12:04Z</time>
      </trkpt>
      <trkpt lat="44.13315" lon="3.63456">
        <ele>1125</ele>
        <time>2021-05-24T15:12:12Z</time>
      </trkpt>
      <trkpt lat="44.13326" lon="3.63458">
        <ele>1125</ele>
        <time>2021-05-24T15:12:20Z</time>
      </trkpt>
      <trkpt lat="44.13335" lon="3.63458">
        <ele>1125</ele>
        <time>2021-05-24T15:12:26Z</time>
      </trkpt>
      <trkpt lat="44.13344" lon="3.63462">
        <ele>1125</ele>
        <time>2021-05-24T15:12:34Z</time>
      </trkpt>
      <trkpt lat="44.13353" lon="3.63465">
        <ele>1125</ele>
        <time>2021-05-24T15:12:41Z</time>
      </trkpt>
      <trkpt lat="44.13361" lon="3.63471">
        <ele>1125</ele>
        <time>2021-05-24T15:12:50Z</time>
      </trkpt>
      <trkpt lat="44.13368" lon="3.6348">
        <ele>1125</ele>
        <time>2021-05-24T15:12:59Z</time>
      </trkpt>
      <trkpt lat="44.13374" lon="3.6349">
        <ele>1125</ele>
        <time>2021-05-24T15:13:11Z</time>
      </trkpt>
      <trkpt lat="44.13367" lon="3.63479">
        <ele>1125</ele>
        <time>2021-05-24T15:13:39Z</time>
      </trkpt>
      <trkpt lat="44.13363" lon="3.63467">
        <ele>1125</ele>
        <time>2021-05-24T15:13:46Z</time>
      </trkpt>
      <trkpt lat="44.13366" lon="3.63457">
        <ele>1125</ele>
        <time>2021-05-24T15:14:05Z</time>
      </trkpt>
      <trkpt lat="44.13368" lon="3.63456">
        <ele>1125</ele>
        <time>2021-05-24T15:14:07Z</time>
      </trkpt>
      <trkpt lat="44.1337" lon="3.63454">
        <ele>1125</ele>
        <time>2021-05-24T15:14:09Z</time>
      </trkpt>
      <trkpt lat="44.13371" lon="3.6345">
        <ele>1125</ele>
        <time>2021-05-24T15:14:12Z</time>
      </trkpt>
      <trkpt lat="44.13373" lon="3.63447">
        <ele>1125</ele>
        <time>2021-05-24T15:14:14Z</time>
      </trkpt>
      <trkpt lat="44.1338" lon="3.63436">
        <ele>1125</ele>
        <time>2021-05-24T15:14:19Z</time>
      </trkpt>
      <trkpt lat="44.13384" lon="3.63424">
        <ele>1125</ele>
        <time>2021-05-24T15:14:25Z</time>
      </trkpt>
      <trkpt lat="44.13391" lon="3.63414">
        <ele>1125</ele>
        <time>2021-05-24T15:14:32Z</time>
      </trkpt>
      <trkpt lat="44.13398" lon="3.63406">
        <ele>1125</ele>
        <time>2021-05-24T15:14:41Z</time>
      </trkpt>
      <trkpt lat="44.13402" lon="3.63393">
        <ele>1125</ele>
        <time>2021-05-24T15:14:48Z</time>
      </trkpt>
      <trkpt lat="44.13404" lon="3.6338">
        <ele>1125</ele>
        <time>2021-05-24T15:14:58Z</time>
      </trkpt>
      <trkpt lat="44.13406" lon="3.63367">
        <ele>1125</ele>
        <time>2021-05-24T15:15:04Z</time>
      </trkpt>
      <trkpt lat="44.13403" lon="3.63354">
        <ele>1125</ele>
        <time>2021-05-24T15:15:10Z</time>
      </trkpt>
      <trkpt lat="44.13405" lon="3.63341">
        <ele>1125</ele>
        <time>2021-05-24T15:15:19Z</time>
      </trkpt>
      <trkpt lat="44.13408" lon="3.63325">
        <ele>1125</ele>
        <time>2021-05-24T15:15:28Z</time>
      </trkpt>
      <trkpt lat="44.13413" lon="3.63313">
        <ele>1125</ele>
        <time>2021-05-24T15:15:35Z</time>
      </trkpt>
      <trkpt lat="44.13419" lon="3.63304">
        <ele>1125</ele>
        <time>2021-05-24T15:15:44Z</time>
      </trkpt>
      <trkpt lat="44.13419" lon="3.63289">
        <ele>1125</ele>
        <time>2021-05-24T15:15:50Z</time>
      </trkpt>
      <trkpt lat="44.13418" lon="3.63276">
        <ele>1125</ele>
        <time>2021-05-24T15:15:56Z</time>
      </trkpt>
      <trkpt lat="44.13419" lon="3.63262">
        <ele>1125</ele>
        <time>2021-05-24T15:16:06Z</time>
      </trkpt>
      <trkpt lat="44.13415" lon="3.6325">
        <ele>1125</ele>
        <time>2021-05-24T15:16:18Z</time>
      </trkpt>
      <trkpt lat="44.13412" lon="3.63238">
        <ele>1125</ele>
        <time>2021-05-24T15:16:27Z</time>
      </trkpt>
      <trkpt lat="44.13413" lon="3.63224">
        <ele>1125</ele>
        <time>2021-05-24T15:16:32Z</time>
      </trkpt>
      <trkpt lat="44.13412" lon="3.6321">
        <ele>1125</ele>
        <time>2021-05-24T15:16:38Z</time>
      </trkpt>
      <trkpt lat="44.13413" lon="3.63198">
        <ele>1125</ele>
        <time>2021-05-24T15:16:44Z</time>
      </trkpt>
      <trkpt lat="44.13412" lon="3.63183">
        <ele>1137</ele>
        <time>2021-05-24T15:16:53Z</time>
      </trkpt>
      <trkpt lat="44.13413" lon="3.6317">
        <ele>1137</ele>
        <time>2021-05-24T15:17:01Z</time>
      </trkpt>
      <trkpt lat="44.13413" lon="3.63156">
        <ele>1137</ele>
        <time>2021-05-24T15:17:09Z</time>
      </trkpt>
      <trkpt lat="44.13413" lon="3.63143">
        <ele>1137</ele>
        <time>2021-05-24T15:17:15Z</time>
      </trkpt>
      <trkpt lat="44.13412" lon="3.6313">
        <ele>1137</ele>
        <time>2021-05-24T15:17:23Z</time>
      </trkpt>
      <trkpt lat="44.13415" lon="3.63116">
        <ele>1137</ele>
        <time>2021-05-24T15:17:31Z</time>
      </trkpt>
      <trkpt lat="44.13416" lon="3.63103">
        <ele>1137</ele>
        <time>2021-05-24T15:17:38Z</time>
      </trkpt>
      <trkpt lat="44.13418" lon="3.63091">
        <ele>1137</ele>
        <time>2021-05-24T15:17:45Z</time>
      </trkpt>
      <trkpt lat="44.13422" lon="3.63079">
        <ele>1137</ele>
        <time>2021-05-24T15:17:52Z</time>
      </trkpt>
      <trkpt lat="44.13425" lon="3.63067">
        <ele>1137</ele>
        <time>2021-05-24T15:17:59Z</time>
      </trkpt>
      <trkpt lat="44.13428" lon="3.63055">
        <ele>1137</ele>
        <time>2021-05-24T15:18:07Z</time>
      </trkpt>
      <trkpt lat="44.13432" lon="3.63044">
        <ele>1137</ele>
        <time>2021-05-24T15:18:16Z</time>
      </trkpt>
      <trkpt lat="44.13431" lon="3.63031">
        <ele>1137</ele>
        <time>2021-05-24T15:18:24Z</time>
      </trkpt>
      <trkpt lat="44.13433" lon="3.63018">
        <ele>1140</ele>
        <time>2021-05-24T15:18:33Z</time>
      </trkpt>
      <trkpt lat="44.13431" lon="3.63003">
        <ele>1140</ele>
        <time>2021-05-24T15:18:41Z</time>
      </trkpt>
      <trkpt lat="44.13429" lon="3.6299">
        <ele>1140</ele>
        <time>2021-05-24T15:18:48Z</time>
      </trkpt>
      <trkpt lat="44.1343" lon="3.62977">
        <ele>1140</ele>
        <time>2021-05-24T15:18:55Z</time>
      </trkpt>
      <trkpt lat="44.13433" lon="3.62965">
        <ele>1140</ele>
        <time>2021-05-24T15:19:01Z</time>
      </trkpt>
      <trkpt lat="44.13433" lon="3.62951">
        <ele>1140</ele>
        <time>2021-05-24T15:19:07Z</time>
      </trkpt>
      <trkpt lat="44.13439" lon="3.6294">
        <ele>1140</ele>
        <time>2021-05-24T15:19:15Z</time>
      </trkpt>
      <trkpt lat="44.13441" lon="3.62927">
        <ele>1140</ele>
        <time>2021-05-24T15:19:21Z</time>
      </trkpt>
      <trkpt lat="44.13447" lon="3.62918">
        <ele>1140</ele>
        <time>2021-05-24T15:19:29Z</time>
      </trkpt>
      <trkpt lat="44.13451" lon="3.62907">
        <ele>1140</ele>
        <time>2021-05-24T15:19:36Z</time>
      </trkpt>
      <trkpt lat="44.13454" lon="3.62894">
        <ele>1144</ele>
        <time>2021-05-24T15:19:43Z</time>
      </trkpt>
      <trkpt lat="44.1346" lon="3.62883">
        <ele>1144</ele>
        <time>2021-05-24T15:19:50Z</time>
      </trkpt>
      <trkpt lat="44.13462" lon="3.62871">
        <ele>1144</ele>
        <time>2021-05-24T15:19:56Z</time>
      </trkpt>
      <trkpt lat="44.13465" lon="3.62858">
        <ele>1144</ele>
        <time>2021-05-24T15:20:04Z</time>
      </trkpt>
      <trkpt lat="44.13465" lon="3.62844">
        <ele>1144</ele>
        <time>2021-05-24T15:20:11Z</time>
      </trkpt>
      <trkpt lat="44.13467" lon="3.62831">
        <ele>1144</ele>
        <time>2021-05-24T15:20:25Z</time>
      </trkpt>
      <trkpt lat="44.13464" lon="3.62818">
        <ele>1144</ele>
        <time>2021-05-24T15:20:36Z</time>
      </trkpt>
      <trkpt lat="44.13458" lon="3.62806">
        <ele>1144</ele>
        <time>2021-05-24T15:20:45Z</time>
      </trkpt>
      <trkpt lat="44.13453" lon="3.62794">
        <ele>1147</ele>
        <time>2021-05-24T15:20:53Z</time>
      </trkpt>
      <trkpt lat="44.13448" lon="3.62782">
        <ele>1147</ele>
        <time>2021-05-24T15:20:59Z</time>
      </trkpt>
      <trkpt lat="44.13442" lon="3.6277">
        <ele>1147</ele>
        <time>2021-05-24T15:21:08Z</time>
      </trkpt>
      <trkpt lat="44.13436" lon="3.62759">
        <ele>1147</ele>
        <time>2021-05-24T15:21:15Z</time>
      </trkpt>
      <trkpt lat="44.13429" lon="3.62751">
        <ele>1147</ele>
        <time>2021-05-24T15:21:21Z</time>
      </trkpt>
      <trkpt lat="44.13425" lon="3.62738">
        <ele>1147</ele>
        <time>2021-05-24T15:21:31Z</time>
      </trkpt>
      <trkpt lat="44.13421" lon="3.62726">
        <ele>1147</ele>
        <time>2021-05-24T15:21:39Z</time>
      </trkpt>
      <trkpt lat="44.13425" lon="3.62715">
        <ele>1147</ele>
        <time>2021-05-24T15:21:54Z</time>
      </trkpt>
      <trkpt lat="44.13434" lon="3.62712">
        <ele>1147</ele>
        <time>2021-05-24T15:22:05Z</time>
      </trkpt>
      <trkpt lat="44.13444" lon="3.62711">
        <ele>1147</ele>
        <time>2021-05-24T15:22:16Z</time>
      </trkpt>
      <trkpt lat="44.13453" lon="3.62711">
        <ele>1147</ele>
        <time>2021-05-24T15:22:24Z</time>
      </trkpt>
      <trkpt lat="44.13462" lon="3.62711">
        <ele>1147</ele>
        <time>2021-05-24T15:22:32Z</time>
      </trkpt>
      <trkpt lat="44.13472" lon="3.6271">
        <ele>1147</ele>
        <time>2021-05-24T15:22:40Z</time>
      </trkpt>
      <trkpt lat="44.13496" lon="3.62706">
        <ele>1147</ele>
        <time>2021-05-24T15:22:55Z</time>
      </trkpt>
      <trkpt lat="44.13499" lon="3.62706">
        <ele>1147</ele>
        <time>2021-05-24T15:22:57Z</time>
      </trkpt>
      <trkpt lat="44.13501" lon="3.62705">
        <ele>1147</ele>
        <time>2021-05-24T15:22:59Z</time>
      </trkpt>
      <trkpt lat="44.13504" lon="3.62706">
        <ele>1147</ele>
        <time>2021-05-24T15:23:01Z</time>
      </trkpt>
      <trkpt lat="44.13507" lon="3.62707">
        <ele>1146</ele>
        <time>2021-05-24T15:23:03Z</time>
      </trkpt>
      <trkpt lat="44.13509" lon="3.62707">
        <ele>1146</ele>
        <time>2021-05-24T15:23:05Z</time>
      </trkpt>
      <trkpt lat="44.13511" lon="3.62706">
        <ele>1146</ele>
        <time>2021-05-24T15:23:08Z</time>
      </trkpt>
      <trkpt lat="44.13513" lon="3.62708">
        <ele>1146</ele>
        <time>2021-05-24T15:23:10Z</time>
      </trkpt>
      <trkpt lat="44.13516" lon="3.62709">
        <ele>1146</ele>
        <time>2021-05-24T15:23:12Z</time>
      </trkpt>
      <trkpt lat="44.13518" lon="3.6271">
        <ele>1146</ele>
        <time>2021-05-24T15:23:13Z</time>
      </trkpt>
      <trkpt lat="44.13519" lon="3.62711">
        <ele>1146</ele>
        <time>2021-05-24T15:23:14Z</time>
      </trkpt>
      <trkpt lat="44.13522" lon="3.62714">
        <ele>1146</ele>
        <time>2021-05-24T15:23:16Z</time>
      </trkpt>
      <trkpt lat="44.13525" lon="3.62716">
        <ele>1146</ele>
        <time>2021-05-24T15:23:18Z</time>
      </trkpt>
      <trkpt lat="44.13527" lon="3.62718">
        <ele>1146</ele>
        <time>2021-05-24T15:23:20Z</time>
      </trkpt>
      <trkpt lat="44.1353" lon="3.62721">
        <ele>1146</ele>
        <time>2021-05-24T15:23:22Z</time>
      </trkpt>
      <trkpt lat="44.13532" lon="3.62724">
        <ele>1146</ele>
        <time>2021-05-24T15:23:24Z</time>
      </trkpt>
      <trkpt lat="44.13534" lon="3.62727">
        <ele>1146</ele>
        <time>2021-05-24T15:23:26Z</time>
      </trkpt>
      <trkpt lat="44.13537" lon="3.6273">
        <ele>1146</ele>
        <time>2021-05-24T15:23:28Z</time>
      </trkpt>
      <trkpt lat="44.13538" lon="3.62733">
        <ele>1146</ele>
        <time>2021-05-24T15:23:30Z</time>
      </trkpt>
      <trkpt lat="44.13539" lon="3.62737">
        <ele>1146</ele>
        <time>2021-05-24T15:23:32Z</time>
      </trkpt>
      <trkpt lat="44.13541" lon="3.62741">
        <ele>1146</ele>
        <time>2021-05-24T15:23:34Z</time>
      </trkpt>
      <trkpt lat="44.13542" lon="3.62745">
        <ele>1146</ele>
        <time>2021-05-24T15:23:36Z</time>
      </trkpt>
      <trkpt lat="44.13544" lon="3.62749">
        <ele>1146</ele>
        <time>2021-05-24T15:23:38Z</time>
      </trkpt>
      <trkpt lat="44.13546" lon="3.62751">
        <ele>1146</ele>
        <time>2021-05-24T15:23:40Z</time>
      </trkpt>
      <trkpt lat="44.13548" lon="3.62754">
        <ele>1146</ele>
        <time>2021-05-24T15:23:42Z</time>
      </trkpt>
      <trkpt lat="44.13549" lon="3.62757">
        <ele>1146</ele>
        <time>2021-05-24T15:23:44Z</time>
      </trkpt>
      <trkpt lat="44.1355" lon="3.62759">
        <ele>1146</ele>
        <time>2021-05-24T15:23:46Z</time>
      </trkpt>
      <trkpt lat="44.13552" lon="3.62762">
        <ele>1146</ele>
        <time>2021-05-24T15:23:48Z</time>
      </trkpt>
      <trkpt lat="44.13554" lon="3.62765">
        <ele>1146</ele>
        <time>2021-05-24T15:23:50Z</time>
      </trkpt>
      <trkpt lat="44.13555" lon="3.62768">
        <ele>1146</ele>
        <time>2021-05-24T15:23:52Z</time>
      </trkpt>
      <trkpt lat="44.13556" lon="3.62771">
        <ele>1146</ele>
        <time>2021-05-24T15:23:54Z</time>
      </trkpt>
      <trkpt lat="44.13558" lon="3.62776">
        <ele>1146</ele>
        <time>2021-05-24T15:23:56Z</time>
      </trkpt>
      <trkpt lat="44.13559" lon="3.62778">
        <ele>1146</ele>
        <time>2021-05-24T15:23:57Z</time>
      </trkpt>
      <trkpt lat="44.1356" lon="3.62781">
        <ele>1146</ele>
        <time>2021-05-24T15:23:59Z</time>
      </trkpt>
      <trkpt lat="44.13562" lon="3.62784">
        <ele>1146</ele>
        <time>2021-05-24T15:24:01Z</time>
      </trkpt>
      <trkpt lat="44.13565" lon="3.62787">
        <ele>1146</ele>
        <time>2021-05-24T15:24:03Z</time>
      </trkpt>
      <trkpt lat="44.13567" lon="3.62791">
        <ele>1146</ele>
        <time>2021-05-24T15:24:05Z</time>
      </trkpt>
      <trkpt lat="44.13568" lon="3.62795">
        <ele>1146</ele>
        <time>2021-05-24T15:24:07Z</time>
      </trkpt>
      <trkpt lat="44.13569" lon="3.62798">
        <ele>1146</ele>
        <time>2021-05-24T15:24:09Z</time>
      </trkpt>
      <trkpt lat="44.1357" lon="3.62802">
        <ele>1146</ele>
        <time>2021-05-24T15:24:11Z</time>
      </trkpt>
      <trkpt lat="44.13572" lon="3.62805">
        <ele>1146</ele>
        <time>2021-05-24T15:24:13Z</time>
      </trkpt>
      <trkpt lat="44.13573" lon="3.62807">
        <ele>1146</ele>
        <time>2021-05-24T15:24:15Z</time>
      </trkpt>
      <trkpt lat="44.13575" lon="3.6281">
        <ele>1146</ele>
        <time>2021-05-24T15:24:17Z</time>
      </trkpt>
      <trkpt lat="44.13577" lon="3.62811">
        <ele>1146</ele>
        <time>2021-05-24T15:24:18Z</time>
      </trkpt>
      <trkpt lat="44.13579" lon="3.62814">
        <ele>1146</ele>
        <time>2021-05-24T15:24:20Z</time>
      </trkpt>
      <trkpt lat="44.1358" lon="3.62817">
        <ele>1146</ele>
        <time>2021-05-24T15:24:22Z</time>
      </trkpt>
      <trkpt lat="44.13582" lon="3.62819">
        <ele>1146</ele>
        <time>2021-05-24T15:24:24Z</time>
      </trkpt>
      <trkpt lat="44.13584" lon="3.62822">
        <ele>1146</ele>
        <time>2021-05-24T15:24:27Z</time>
      </trkpt>
      <trkpt lat="44.13586" lon="3.62825">
        <ele>1146</ele>
        <time>2021-05-24T15:24:28Z</time>
      </trkpt>
      <trkpt lat="44.13587" lon="3.62828">
        <ele>1146</ele>
        <time>2021-05-24T15:24:30Z</time>
      </trkpt>
      <trkpt lat="44.13588" lon="3.62831">
        <ele>1146</ele>
        <time>2021-05-24T15:24:32Z</time>
      </trkpt>
      <trkpt lat="44.13589" lon="3.62835">
        <ele>1146</ele>
        <time>2021-05-24T15:24:34Z</time>
      </trkpt>
      <trkpt lat="44.1359" lon="3.62837">
        <ele>1146</ele>
        <time>2021-05-24T15:24:36Z</time>
      </trkpt>
      <trkpt lat="44.13591" lon="3.6284">
        <ele>1146</ele>
        <time>2021-05-24T15:24:38Z</time>
      </trkpt>
      <trkpt lat="44.13593" lon="3.62843">
        <ele>1146</ele>
        <time>2021-05-24T15:24:40Z</time>
      </trkpt>
      <trkpt lat="44.13594" lon="3.62846">
        <ele>1146</ele>
        <time>2021-05-24T15:24:42Z</time>
      </trkpt>
      <trkpt lat="44.13596" lon="3.6285">
        <ele>1146</ele>
        <time>2021-05-24T15:24:44Z</time>
      </trkpt>
      <trkpt lat="44.13597" lon="3.62853">
        <ele>1146</ele>
        <time>2021-05-24T15:24:46Z</time>
      </trkpt>
      <trkpt lat="44.13599" lon="3.62855">
        <ele>1146</ele>
        <time>2021-05-24T15:24:48Z</time>
      </trkpt>
      <trkpt lat="44.13599" lon="3.62858">
        <ele>1146</ele>
        <time>2021-05-24T15:24:50Z</time>
      </trkpt>
      <trkpt lat="44.13601" lon="3.62861">
        <ele>1146</ele>
        <time>2021-05-24T15:24:52Z</time>
      </trkpt>
      <trkpt lat="44.13603" lon="3.62864">
        <ele>1146</ele>
        <time>2021-05-24T15:24:54Z</time>
      </trkpt>
      <trkpt lat="44.13605" lon="3.62866">
        <ele>1146</ele>
        <time>2021-05-24T15:24:56Z</time>
      </trkpt>
      <trkpt lat="44.13606" lon="3.62869">
        <ele>1146</ele>
        <time>2021-05-24T15:24:58Z</time>
      </trkpt>
      <trkpt lat="44.13608" lon="3.62872">
        <ele>1146</ele>
        <time>2021-05-24T15:25:00Z</time>
      </trkpt>
      <trkpt lat="44.1361" lon="3.62874">
        <ele>1146</ele>
        <time>2021-05-24T15:25:02Z</time>
      </trkpt>
      <trkpt lat="44.13612" lon="3.62877">
        <ele>1146</ele>
        <time>2021-05-24T15:25:04Z</time>
      </trkpt>
      <trkpt lat="44.13614" lon="3.6288">
        <ele>1146</ele>
        <time>2021-05-24T15:25:06Z</time>
      </trkpt>
      <trkpt lat="44.13615" lon="3.62883">
        <ele>1146</ele>
        <time>2021-05-24T15:25:08Z</time>
      </trkpt>
      <trkpt lat="44.13617" lon="3.62885">
        <ele>1146</ele>
        <time>2021-05-24T15:25:10Z</time>
      </trkpt>
      <trkpt lat="44.13619" lon="3.62888">
        <ele>1146</ele>
        <time>2021-05-24T15:25:12Z</time>
      </trkpt>
      <trkpt lat="44.13621" lon="3.6289">
        <ele>1146</ele>
        <time>2021-05-24T15:25:14Z</time>
      </trkpt>
      <trkpt lat="44.13623" lon="3.62892">
        <ele>1146</ele>
        <time>2021-05-24T15:25:16Z</time>
      </trkpt>
      <trkpt lat="44.13625" lon="3.62894">
        <ele>1146</ele>
        <time>2021-05-24T15:25:18Z</time>
      </trkpt>
      <trkpt lat="44.13627" lon="3.62897">
        <ele>1146</ele>
        <time>2021-05-24T15:25:20Z</time>
      </trkpt>
      <trkpt lat="44.1363" lon="3.62899">
        <ele>1146</ele>
        <time>2021-05-24T15:25:22Z</time>
      </trkpt>
      <trkpt lat="44.13632" lon="3.629">
        <ele>1146</ele>
        <time>2021-05-24T15:25:24Z</time>
      </trkpt>
      <trkpt lat="44.13633" lon="3.62901">
        <ele>1146</ele>
        <time>2021-05-24T15:25:26Z</time>
      </trkpt>
      <trkpt lat="44.13639" lon="3.62911">
        <ele>1146</ele>
        <time>2021-05-24T15:25:42Z</time>
      </trkpt>
      <trkpt lat="44.13644" lon="3.62922">
        <ele>1146</ele>
        <time>2021-05-24T15:25:51Z</time>
      </trkpt>
      <trkpt lat="44.13647" lon="3.62934">
        <ele>1146</ele>
        <time>2021-05-24T15:26:00Z</time>
      </trkpt>
      <trkpt lat="44.13652" lon="3.62945">
        <ele>1146</ele>
        <time>2021-05-24T15:26:06Z</time>
      </trkpt>
      <trkpt lat="44.13656" lon="3.62956">
        <ele>1146</ele>
        <time>2021-05-24T15:26:14Z</time>
      </trkpt>
      <trkpt lat="44.13661" lon="3.62968">
        <ele>1146</ele>
        <time>2021-05-24T15:26:25Z</time>
      </trkpt>
      <trkpt lat="44.13669" lon="3.62977">
        <ele>1146</ele>
        <time>2021-05-24T15:26:40Z</time>
      </trkpt>
      <trkpt lat="44.13675" lon="3.62987">
        <ele>1146</ele>
        <time>2021-05-24T15:26:44Z</time>
      </trkpt>
      <trkpt lat="44.1368" lon="3.63001">
        <ele>1146</ele>
        <time>2021-05-24T15:26:49Z</time>
      </trkpt>
      <trkpt lat="44.13682" lon="3.63016">
        <ele>1146</ele>
        <time>2021-05-24T15:26:54Z</time>
      </trkpt>
      <trkpt lat="44.1369" lon="3.63028">
        <ele>1146</ele>
        <time>2021-05-24T15:26:56Z</time>
      </trkpt>
      <trkpt lat="44.13689" lon="3.63044">
        <ele>1146</ele>
        <time>2021-05-24T15:27:01Z</time>
      </trkpt>
      <trkpt lat="44.13699" lon="3.63052">
        <ele>1146</ele>
        <time>2021-05-24T15:27:04Z</time>
      </trkpt>
      <trkpt lat="44.13702" lon="3.63067">
        <ele>1146</ele>
        <time>2021-05-24T15:27:10Z</time>
      </trkpt>
      <trkpt lat="44.13709" lon="3.63078">
        <ele>1146</ele>
        <time>2021-05-24T15:27:12Z</time>
      </trkpt>
      <trkpt lat="44.13717" lon="3.63088">
        <ele>1146</ele>
        <time>2021-05-24T15:27:17Z</time>
      </trkpt>
      <trkpt lat="44.13722" lon="3.63101">
        <ele>1146</ele>
        <time>2021-05-24T15:27:22Z</time>
      </trkpt>
      <trkpt lat="44.13729" lon="3.6311">
        <ele>1146</ele>
        <time>2021-05-24T15:27:26Z</time>
      </trkpt>
      <trkpt lat="44.13721" lon="3.63102">
        <ele>1146</ele>
        <time>2021-05-24T15:27:42Z</time>
      </trkpt>
      <trkpt lat="44.13716" lon="3.63092">
        <ele>1146</ele>
        <time>2021-05-24T15:27:48Z</time>
      </trkpt>
      <trkpt lat="44.1371" lon="3.63079">
        <ele>1146</ele>
        <time>2021-05-24T15:27:58Z</time>
      </trkpt>
      <trkpt lat="44.13704" lon="3.63068">
        <ele>1146</ele>
        <time>2021-05-24T15:28:04Z</time>
      </trkpt>
      <trkpt lat="44.137" lon="3.63056">
        <ele>1146</ele>
        <time>2021-05-24T15:28:11Z</time>
      </trkpt>
      <trkpt lat="44.13695" lon="3.63042">
        <ele>1146</ele>
        <time>2021-05-24T15:28:19Z</time>
      </trkpt>
      <trkpt lat="44.13689" lon="3.63029">
        <ele>1146</ele>
        <time>2021-05-24T15:28:26Z</time>
      </trkpt>
      <trkpt lat="44.13684" lon="3.63016">
        <ele>1146</ele>
        <time>2021-05-24T15:28:31Z</time>
      </trkpt>
      <trkpt lat="44.13681" lon="3.63004">
        <ele>1146</ele>
        <time>2021-05-24T15:28:39Z</time>
      </trkpt>
      <trkpt lat="44.1368" lon="3.62989">
        <ele>1146</ele>
        <time>2021-05-24T15:28:48Z</time>
      </trkpt>
      <trkpt lat="44.13676" lon="3.62975">
        <ele>1146</ele>
        <time>2021-05-24T15:28:54Z</time>
      </trkpt>
      <trkpt lat="44.1367" lon="3.62965">
        <ele>1146</ele>
        <time>2021-05-24T15:28:59Z</time>
      </trkpt>
      <trkpt lat="44.13665" lon="3.62954">
        <ele>1146</ele>
        <time>2021-05-24T15:29:32Z</time>
      </trkpt>
      <trkpt lat="44.13659" lon="3.62944">
        <ele>1146</ele>
        <time>2021-05-24T15:29:40Z</time>
      </trkpt>
      <trkpt lat="44.13649" lon="3.62933">
        <ele>1146</ele>
        <time>2021-05-24T15:29:47Z</time>
      </trkpt>
      <trkpt lat="44.13642" lon="3.62923">
        <ele>1146</ele>
        <time>2021-05-24T15:29:54Z</time>
      </trkpt>
      <trkpt lat="44.13634" lon="3.62917">
        <ele>1146</ele>
        <time>2021-05-24T15:30:01Z</time>
      </trkpt>
      <trkpt lat="44.13627" lon="3.62909">
        <ele>1146</ele>
        <time>2021-05-24T15:30:11Z</time>
      </trkpt>
      <trkpt lat="44.13619" lon="3.62902">
        <ele>1146</ele>
        <time>2021-05-24T15:30:17Z</time>
      </trkpt>
      <trkpt lat="44.13611" lon="3.62893">
        <ele>1146</ele>
        <time>2021-05-24T15:30:26Z</time>
      </trkpt>
      <trkpt lat="44.13607" lon="3.62881">
        <ele>1144</ele>
        <time>2021-05-24T15:30:33Z</time>
      </trkpt>
      <trkpt lat="44.13602" lon="3.62866">
        <ele>1144</ele>
        <time>2021-05-24T15:30:41Z</time>
      </trkpt>
      <trkpt lat="44.13597" lon="3.62854">
        <ele>1144</ele>
        <time>2021-05-24T15:30:45Z</time>
      </trkpt>
      <trkpt lat="44.1359" lon="3.62845">
        <ele>1145</ele>
        <time>2021-05-24T15:30:53Z</time>
      </trkpt>
      <trkpt lat="44.13583" lon="3.62836">
        <ele>1145</ele>
        <time>2021-05-24T15:30:59Z</time>
      </trkpt>
      <trkpt lat="44.13576" lon="3.62829">
        <ele>1145</ele>
        <time>2021-05-24T15:31:06Z</time>
      </trkpt>
      <trkpt lat="44.13571" lon="3.62817">
        <ele>1145</ele>
        <time>2021-05-24T15:31:14Z</time>
      </trkpt>
      <trkpt lat="44.13567" lon="3.62805">
        <ele>1147</ele>
        <time>2021-05-24T15:31:23Z</time>
      </trkpt>
      <trkpt lat="44.13562" lon="3.62792">
        <ele>1147</ele>
        <time>2021-05-24T15:31:31Z</time>
      </trkpt>
      <trkpt lat="44.1356" lon="3.62778">
        <ele>1147</ele>
        <time>2021-05-24T15:31:39Z</time>
      </trkpt>
      <trkpt lat="44.13556" lon="3.62766">
        <ele>1147</ele>
        <time>2021-05-24T15:31:46Z</time>
      </trkpt>
      <trkpt lat="44.1355" lon="3.62754">
        <ele>1144</ele>
        <time>2021-05-24T15:31:53Z</time>
      </trkpt>
      <trkpt lat="44.13546" lon="3.62741">
        <ele>1144</ele>
        <time>2021-05-24T15:32:01Z</time>
      </trkpt>
      <trkpt lat="44.13537" lon="3.6273">
        <ele>1144</ele>
        <time>2021-05-24T15:32:08Z</time>
      </trkpt>
      <trkpt lat="44.13527" lon="3.62723">
        <ele>1144</ele>
        <time>2021-05-24T15:32:17Z</time>
      </trkpt>
      <trkpt lat="44.13519" lon="3.62719">
        <ele>1144</ele>
        <time>2021-05-24T15:32:25Z</time>
      </trkpt>
      <trkpt lat="44.13509" lon="3.62719">
        <ele>1144</ele>
        <time>2021-05-24T15:32:32Z</time>
      </trkpt>
      <trkpt lat="44.13499" lon="3.6272">
        <ele>1144</ele>
        <time>2021-05-24T15:32:40Z</time>
      </trkpt>
      <trkpt lat="44.1349" lon="3.62722">
        <ele>1144</ele>
        <time>2021-05-24T15:32:46Z</time>
      </trkpt>
      <trkpt lat="44.13479" lon="3.62724">
        <ele>1144</ele>
        <time>2021-05-24T15:32:54Z</time>
      </trkpt>
      <trkpt lat="44.1347" lon="3.62721">
        <ele>1144</ele>
        <time>2021-05-24T15:33:01Z</time>
      </trkpt>
      <trkpt lat="44.1346" lon="3.6272">
        <ele>1144</ele>
        <time>2021-05-24T15:33:08Z</time>
      </trkpt>
      <trkpt lat="44.1345" lon="3.62724">
        <ele>1144</ele>
        <time>2021-05-24T15:33:24Z</time>
      </trkpt>
      <trkpt lat="44.1344" lon="3.62729">
        <ele>1144</ele>
        <time>2021-05-24T15:33:39Z</time>
      </trkpt>
    </trkseg>
  </trk>
</gpx>